<?xml version="1.0" encoding="UTF-8" standalone="no" ?>
<gpx xmlns="http://www.topografix.com/GPX/1/1" xmlns:xsi="http://www.w3.org/2001/XMLSchema-instance" xsi:schemaLocation="http://www.topografix.com/GPX/1/1 http://www.topografix.com/GPX/1/1/gpx.xsd" version="1.1" creator="VisuGPX - https://www.visugpx.com">
  <metadata>
    <name>PagnolLongCourt</name>
  </metadata>
  <trk>
    <name><![CDATA[PagnolLongCourt]]></name>
    <trkseg>
      <trkpt lat="43.3127" lon="5.51213">
        <ele>149.62</ele>
        <time>2018-06-16T07:16:51Z</time>
      </trkpt>
      <trkpt lat="43.31271" lon="5.51215">
        <ele>150.1</ele>
        <time>2018-06-16T07:17:12Z</time>
      </trkpt>
      <trkpt lat="43.31271" lon="5.51215">
        <ele>149.62</ele>
        <time>2018-06-16T07:17:30Z</time>
      </trkpt>
      <trkpt lat="43.31271" lon="5.51216">
        <ele>149.62</ele>
        <time>2018-06-16T07:17:42Z</time>
      </trkpt>
      <trkpt lat="43.31271" lon="5.51217">
        <ele>149.62</ele>
        <time>2018-06-16T07:17:55Z</time>
      </trkpt>
      <trkpt lat="43.3127" lon="5.51217">
        <ele>149.14</ele>
        <time>2018-06-16T07:18:08Z</time>
      </trkpt>
      <trkpt lat="43.3127" lon="5.51217">
        <ele>149.62</ele>
        <time>2018-06-16T07:18:10Z</time>
      </trkpt>
      <trkpt lat="43.31266" lon="5.51218">
        <ele>148.18</ele>
        <time>2018-06-16T07:18:21Z</time>
      </trkpt>
      <trkpt lat="43.3126" lon="5.51218">
        <ele>147.22</ele>
        <time>2018-06-16T07:18:33Z</time>
      </trkpt>
      <trkpt lat="43.31258" lon="5.51217">
        <ele>147.22</ele>
        <time>2018-06-16T07:18:52Z</time>
      </trkpt>
      <trkpt lat="43.31256" lon="5.51217">
        <ele>147.7</ele>
        <time>2018-06-16T07:19:15Z</time>
      </trkpt>
      <trkpt lat="43.31256" lon="5.51217">
        <ele>147.7</ele>
        <time>2018-06-16T07:19:31Z</time>
      </trkpt>
      <trkpt lat="43.31255" lon="5.51216">
        <ele>147.22</ele>
        <time>2018-06-16T07:19:54Z</time>
      </trkpt>
      <trkpt lat="43.31254" lon="5.51216">
        <ele>146.74</ele>
        <time>2018-06-16T07:20:12Z</time>
      </trkpt>
      <trkpt lat="43.31247" lon="5.51218">
        <ele>145.78</ele>
        <time>2018-06-16T07:20:26Z</time>
      </trkpt>
      <trkpt lat="43.31243" lon="5.51218">
        <ele>145.3</ele>
        <time>2018-06-16T07:20:31Z</time>
      </trkpt>
      <trkpt lat="43.31235" lon="5.5122">
        <ele>145.3</ele>
        <time>2018-06-16T07:20:41Z</time>
      </trkpt>
      <trkpt lat="43.3123" lon="5.51222">
        <ele>143.85</ele>
        <time>2018-06-16T07:20:48Z</time>
      </trkpt>
      <trkpt lat="43.31224" lon="5.51224">
        <ele>143.37</ele>
        <time>2018-06-16T07:20:54Z</time>
      </trkpt>
      <trkpt lat="43.31212" lon="5.5123">
        <ele>141.45</ele>
        <time>2018-06-16T07:21:07Z</time>
      </trkpt>
      <trkpt lat="43.3121" lon="5.5123">
        <ele>141.45</ele>
        <time>2018-06-16T07:21:09Z</time>
      </trkpt>
      <trkpt lat="43.31207" lon="5.51231">
        <ele>141.45</ele>
        <time>2018-06-16T07:21:12Z</time>
      </trkpt>
      <trkpt lat="43.31198" lon="5.51233">
        <ele>140.97</ele>
        <time>2018-06-16T07:21:24Z</time>
      </trkpt>
      <trkpt lat="43.31196" lon="5.51231">
        <ele>140.97</ele>
        <time>2018-06-16T07:21:38Z</time>
      </trkpt>
      <trkpt lat="43.31194" lon="5.51228">
        <ele>140.97</ele>
        <time>2018-06-16T07:21:54Z</time>
      </trkpt>
      <trkpt lat="43.31193" lon="5.51228">
        <ele>140.97</ele>
        <time>2018-06-16T07:22:14Z</time>
      </trkpt>
      <trkpt lat="43.31193" lon="5.51228">
        <ele>140.97</ele>
        <time>2018-06-16T07:22:24Z</time>
      </trkpt>
      <trkpt lat="43.31194" lon="5.51231">
        <ele>140.97</ele>
        <time>2018-06-16T07:22:28Z</time>
      </trkpt>
      <trkpt lat="43.31195" lon="5.51237">
        <ele>140.97</ele>
        <time>2018-06-16T07:22:40Z</time>
      </trkpt>
      <trkpt lat="43.31195" lon="5.5124">
        <ele>141.45</ele>
        <time>2018-06-16T07:22:54Z</time>
      </trkpt>
      <trkpt lat="43.31195" lon="5.51244">
        <ele>141.45</ele>
        <time>2018-06-16T07:23:08Z</time>
      </trkpt>
      <trkpt lat="43.31195" lon="5.51245">
        <ele>141.45</ele>
        <time>2018-06-16T07:23:22Z</time>
      </trkpt>
      <trkpt lat="43.31193" lon="5.51247">
        <ele>139.53</ele>
        <time>2018-06-16T07:23:34Z</time>
      </trkpt>
      <trkpt lat="43.31192" lon="5.51247">
        <ele>139.53</ele>
        <time>2018-06-16T07:23:46Z</time>
      </trkpt>
      <trkpt lat="43.31191" lon="5.51247">
        <ele>139.05</ele>
        <time>2018-06-16T07:23:57Z</time>
      </trkpt>
      <trkpt lat="43.3119" lon="5.51245">
        <ele>139.05</ele>
        <time>2018-06-16T07:24:07Z</time>
      </trkpt>
      <trkpt lat="43.31189" lon="5.51244">
        <ele>139.05</ele>
        <time>2018-06-16T07:24:17Z</time>
      </trkpt>
      <trkpt lat="43.31186" lon="5.51244">
        <ele>138.57</ele>
        <time>2018-06-16T07:24:40Z</time>
      </trkpt>
      <trkpt lat="43.31186" lon="5.51244">
        <ele>139.05</ele>
        <time>2018-06-16T07:25:02Z</time>
      </trkpt>
      <trkpt lat="43.31186" lon="5.51244">
        <ele>138.57</ele>
        <time>2018-06-16T07:25:19Z</time>
      </trkpt>
      <trkpt lat="43.31185" lon="5.51243">
        <ele>138.57</ele>
        <time>2018-06-16T07:25:30Z</time>
      </trkpt>
      <trkpt lat="43.31184" lon="5.51239">
        <ele>139.53</ele>
        <time>2018-06-16T07:25:40Z</time>
      </trkpt>
      <trkpt lat="43.31188" lon="5.51236">
        <ele>140.97</ele>
        <time>2018-06-16T07:25:50Z</time>
      </trkpt>
      <trkpt lat="43.31188" lon="5.51233">
        <ele>140.97</ele>
        <time>2018-06-16T07:26:06Z</time>
      </trkpt>
      <trkpt lat="43.31188" lon="5.51231">
        <ele>140.97</ele>
        <time>2018-06-16T07:26:16Z</time>
      </trkpt>
      <trkpt lat="43.31191" lon="5.5123">
        <ele>140.97</ele>
        <time>2018-06-16T07:26:31Z</time>
      </trkpt>
      <trkpt lat="43.31192" lon="5.5123">
        <ele>140.97</ele>
        <time>2018-06-16T07:26:45Z</time>
      </trkpt>
      <trkpt lat="43.31192" lon="5.51229">
        <ele>140.97</ele>
        <time>2018-06-16T07:27:00Z</time>
      </trkpt>
      <trkpt lat="43.31194" lon="5.51229">
        <ele>140.49</ele>
        <time>2018-06-16T07:27:18Z</time>
      </trkpt>
      <trkpt lat="43.31196" lon="5.51228">
        <ele>140.49</ele>
        <time>2018-06-16T07:27:30Z</time>
      </trkpt>
      <trkpt lat="43.31202" lon="5.51226">
        <ele>140.97</ele>
        <time>2018-06-16T07:27:38Z</time>
      </trkpt>
      <trkpt lat="43.31214" lon="5.51226">
        <ele>142.41</ele>
        <time>2018-06-16T07:27:52Z</time>
      </trkpt>
      <trkpt lat="43.31223" lon="5.51226">
        <ele>143.85</ele>
        <time>2018-06-16T07:28:05Z</time>
      </trkpt>
      <trkpt lat="43.31234" lon="5.51228">
        <ele>144.82</ele>
        <time>2018-06-16T07:28:19Z</time>
      </trkpt>
      <trkpt lat="43.31244" lon="5.51224">
        <ele>146.26</ele>
        <time>2018-06-16T07:28:31Z</time>
      </trkpt>
      <trkpt lat="43.31248" lon="5.51223">
        <ele>147.22</ele>
        <time>2018-06-16T07:28:43Z</time>
      </trkpt>
      <trkpt lat="43.31258" lon="5.51221">
        <ele>148.66</ele>
        <time>2018-06-16T07:28:57Z</time>
      </trkpt>
      <trkpt lat="43.31265" lon="5.51222">
        <ele>149.14</ele>
        <time>2018-06-16T07:29:07Z</time>
      </trkpt>
      <trkpt lat="43.31271" lon="5.51222">
        <ele>150.58</ele>
        <time>2018-06-16T07:29:14Z</time>
      </trkpt>
      <trkpt lat="43.31277" lon="5.51224">
        <ele>151.06</ele>
        <time>2018-06-16T07:29:23Z</time>
      </trkpt>
      <trkpt lat="43.31288" lon="5.51225">
        <ele>152.03</ele>
        <time>2018-06-16T07:29:37Z</time>
      </trkpt>
      <trkpt lat="43.31292" lon="5.51227">
        <ele>152.51</ele>
        <time>2018-06-16T07:29:43Z</time>
      </trkpt>
      <trkpt lat="43.31306" lon="5.51223">
        <ele>152.99</ele>
        <time>2018-06-16T07:29:56Z</time>
      </trkpt>
      <trkpt lat="43.31307" lon="5.51222">
        <ele>153.47</ele>
        <time>2018-06-16T07:30:13Z</time>
      </trkpt>
      <trkpt lat="43.31309" lon="5.51223">
        <ele>153.95</ele>
        <time>2018-06-16T07:30:17Z</time>
      </trkpt>
      <trkpt lat="43.31317" lon="5.51227">
        <ele>155.87</ele>
        <time>2018-06-16T07:30:32Z</time>
      </trkpt>
      <trkpt lat="43.31322" lon="5.51229">
        <ele>156.83</ele>
        <time>2018-06-16T07:30:43Z</time>
      </trkpt>
      <trkpt lat="43.31334" lon="5.51227">
        <ele>157.31</ele>
        <time>2018-06-16T07:30:48Z</time>
      </trkpt>
      <trkpt lat="43.31342" lon="5.51228">
        <ele>158.75</ele>
        <time>2018-06-16T07:30:59Z</time>
      </trkpt>
      <trkpt lat="43.31344" lon="5.51228">
        <ele>158.75</ele>
        <time>2018-06-16T07:31:02Z</time>
      </trkpt>
      <trkpt lat="43.3135" lon="5.51228">
        <ele>159.24</ele>
        <time>2018-06-16T07:31:08Z</time>
      </trkpt>
      <trkpt lat="43.31354" lon="5.51229">
        <ele>160.2</ele>
        <time>2018-06-16T07:31:13Z</time>
      </trkpt>
      <trkpt lat="43.31364" lon="5.51228">
        <ele>161.64</ele>
        <time>2018-06-16T07:31:28Z</time>
      </trkpt>
      <trkpt lat="43.3137" lon="5.51223">
        <ele>163.08</ele>
        <time>2018-06-16T07:31:41Z</time>
      </trkpt>
      <trkpt lat="43.31373" lon="5.51222">
        <ele>163.08</ele>
        <time>2018-06-16T07:31:46Z</time>
      </trkpt>
      <trkpt lat="43.31381" lon="5.51217">
        <ele>163.56</ele>
        <time>2018-06-16T07:32:00Z</time>
      </trkpt>
      <trkpt lat="43.31382" lon="5.51219">
        <ele>163.56</ele>
        <time>2018-06-16T07:32:07Z</time>
      </trkpt>
      <trkpt lat="43.31386" lon="5.51216">
        <ele>164.04</ele>
        <time>2018-06-16T07:32:12Z</time>
      </trkpt>
      <trkpt lat="43.3139" lon="5.51214">
        <ele>163.56</ele>
        <time>2018-06-16T07:32:17Z</time>
      </trkpt>
      <trkpt lat="43.31392" lon="5.51212">
        <ele>163.08</ele>
        <time>2018-06-16T07:32:19Z</time>
      </trkpt>
      <trkpt lat="43.31402" lon="5.51204">
        <ele>162.6</ele>
        <time>2018-06-16T07:32:32Z</time>
      </trkpt>
      <trkpt lat="43.31412" lon="5.51199">
        <ele>163.08</ele>
        <time>2018-06-16T07:32:38Z</time>
      </trkpt>
      <trkpt lat="43.31416" lon="5.51197">
        <ele>163.08</ele>
        <time>2018-06-16T07:32:42Z</time>
      </trkpt>
      <trkpt lat="43.31427" lon="5.51186">
        <ele>163.08</ele>
        <time>2018-06-16T07:32:53Z</time>
      </trkpt>
      <trkpt lat="43.31432" lon="5.51193">
        <ele>163.56</ele>
        <time>2018-06-16T07:33:04Z</time>
      </trkpt>
      <trkpt lat="43.31435" lon="5.51207">
        <ele>164.04</ele>
        <time>2018-06-16T07:33:17Z</time>
      </trkpt>
      <trkpt lat="43.31437" lon="5.51213">
        <ele>164.52</ele>
        <time>2018-06-16T07:33:27Z</time>
      </trkpt>
      <trkpt lat="43.31438" lon="5.51219">
        <ele>165.48</ele>
        <time>2018-06-16T07:33:33Z</time>
      </trkpt>
      <trkpt lat="43.31438" lon="5.51226">
        <ele>165.48</ele>
        <time>2018-06-16T07:33:39Z</time>
      </trkpt>
      <trkpt lat="43.31439" lon="5.51232">
        <ele>165.96</ele>
        <time>2018-06-16T07:33:44Z</time>
      </trkpt>
      <trkpt lat="43.31437" lon="5.51242">
        <ele>166.93</ele>
        <time>2018-06-16T07:33:57Z</time>
      </trkpt>
      <trkpt lat="43.31437" lon="5.51247">
        <ele>166.93</ele>
        <time>2018-06-16T07:34:18Z</time>
      </trkpt>
      <trkpt lat="43.31444" lon="5.51246">
        <ele>167.89</ele>
        <time>2018-06-16T07:34:34Z</time>
      </trkpt>
      <trkpt lat="43.31441" lon="5.5125">
        <ele>169.33</ele>
        <time>2018-06-16T07:34:44Z</time>
      </trkpt>
      <trkpt lat="43.31445" lon="5.51257">
        <ele>172.69</ele>
        <time>2018-06-16T07:34:57Z</time>
      </trkpt>
      <trkpt lat="43.31448" lon="5.51266">
        <ele>174.14</ele>
        <time>2018-06-16T07:35:09Z</time>
      </trkpt>
      <trkpt lat="43.31453" lon="5.51274">
        <ele>174.62</ele>
        <time>2018-06-16T07:35:19Z</time>
      </trkpt>
      <trkpt lat="43.31462" lon="5.51284">
        <ele>176.54</ele>
        <time>2018-06-16T07:35:32Z</time>
      </trkpt>
      <trkpt lat="43.31472" lon="5.51295">
        <ele>177.98</ele>
        <time>2018-06-16T07:35:45Z</time>
      </trkpt>
      <trkpt lat="43.31478" lon="5.51308">
        <ele>178.94</ele>
        <time>2018-06-16T07:35:58Z</time>
      </trkpt>
      <trkpt lat="43.3148" lon="5.51312">
        <ele>179.42</ele>
        <time>2018-06-16T07:36:09Z</time>
      </trkpt>
      <trkpt lat="43.31489" lon="5.51318">
        <ele>180.87</ele>
        <time>2018-06-16T07:36:21Z</time>
      </trkpt>
      <trkpt lat="43.31501" lon="5.51313">
        <ele>181.35</ele>
        <time>2018-06-16T07:36:33Z</time>
      </trkpt>
      <trkpt lat="43.31502" lon="5.51319">
        <ele>182.31</ele>
        <time>2018-06-16T07:36:43Z</time>
      </trkpt>
      <trkpt lat="43.31502" lon="5.51318">
        <ele>182.31</ele>
        <time>2018-06-16T07:36:50Z</time>
      </trkpt>
      <trkpt lat="43.31507" lon="5.51319">
        <ele>182.79</ele>
        <time>2018-06-16T07:36:54Z</time>
      </trkpt>
      <trkpt lat="43.31518" lon="5.51317">
        <ele>184.23</ele>
        <time>2018-06-16T07:37:05Z</time>
      </trkpt>
      <trkpt lat="43.31518" lon="5.51317">
        <ele>184.23</ele>
        <time>2018-06-16T07:37:08Z</time>
      </trkpt>
      <trkpt lat="43.31521" lon="5.51318">
        <ele>184.23</ele>
        <time>2018-06-16T07:37:12Z</time>
      </trkpt>
      <trkpt lat="43.31533" lon="5.51317">
        <ele>185.67</ele>
        <time>2018-06-16T07:37:24Z</time>
      </trkpt>
      <trkpt lat="43.31546" lon="5.51317">
        <ele>186.63</ele>
        <time>2018-06-16T07:37:37Z</time>
      </trkpt>
      <trkpt lat="43.3156" lon="5.51313">
        <ele>188.56</ele>
        <time>2018-06-16T07:37:50Z</time>
      </trkpt>
      <trkpt lat="43.31568" lon="5.51308">
        <ele>189.52</ele>
        <time>2018-06-16T07:38:00Z</time>
      </trkpt>
      <trkpt lat="43.31577" lon="5.51305">
        <ele>190.96</ele>
        <time>2018-06-16T07:38:12Z</time>
      </trkpt>
      <trkpt lat="43.31593" lon="5.513">
        <ele>192.88</ele>
        <time>2018-06-16T07:38:28Z</time>
      </trkpt>
      <trkpt lat="43.31603" lon="5.51296">
        <ele>193.36</ele>
        <time>2018-06-16T07:38:41Z</time>
      </trkpt>
      <trkpt lat="43.31609" lon="5.51296">
        <ele>194.32</ele>
        <time>2018-06-16T07:38:47Z</time>
      </trkpt>
      <trkpt lat="43.31622" lon="5.5129">
        <ele>195.77</ele>
        <time>2018-06-16T07:39:03Z</time>
      </trkpt>
      <trkpt lat="43.31635" lon="5.51283">
        <ele>197.21</ele>
        <time>2018-06-16T07:39:19Z</time>
      </trkpt>
      <trkpt lat="43.31645" lon="5.51279">
        <ele>198.17</ele>
        <time>2018-06-16T07:39:33Z</time>
      </trkpt>
      <trkpt lat="43.31656" lon="5.51273">
        <ele>198.65</ele>
        <time>2018-06-16T07:39:45Z</time>
      </trkpt>
      <trkpt lat="43.31667" lon="5.51262">
        <ele>198.17</ele>
        <time>2018-06-16T07:39:59Z</time>
      </trkpt>
      <trkpt lat="43.31675" lon="5.51256">
        <ele>198.17</ele>
        <time>2018-06-16T07:40:09Z</time>
      </trkpt>
      <trkpt lat="43.31685" lon="5.51249">
        <ele>197.69</ele>
        <time>2018-06-16T07:40:21Z</time>
      </trkpt>
      <trkpt lat="43.31697" lon="5.51238">
        <ele>196.73</ele>
        <time>2018-06-16T07:40:35Z</time>
      </trkpt>
      <trkpt lat="43.31704" lon="5.51232">
        <ele>196.25</ele>
        <time>2018-06-16T07:40:43Z</time>
      </trkpt>
      <trkpt lat="43.31716" lon="5.51213">
        <ele>195.28</ele>
        <time>2018-06-16T07:41:01Z</time>
      </trkpt>
      <trkpt lat="43.31718" lon="5.51211">
        <ele>194.8</ele>
        <time>2018-06-16T07:41:03Z</time>
      </trkpt>
      <trkpt lat="43.31725" lon="5.51204">
        <ele>194.32</ele>
        <time>2018-06-16T07:41:11Z</time>
      </trkpt>
      <trkpt lat="43.3173" lon="5.51198">
        <ele>194.32</ele>
        <time>2018-06-16T07:41:17Z</time>
      </trkpt>
      <trkpt lat="43.31737" lon="5.51191">
        <ele>194.32</ele>
        <time>2018-06-16T07:41:24Z</time>
      </trkpt>
      <trkpt lat="43.31742" lon="5.51186">
        <ele>194.8</ele>
        <time>2018-06-16T07:41:30Z</time>
      </trkpt>
      <trkpt lat="43.31756" lon="5.51176">
        <ele>193.36</ele>
        <time>2018-06-16T07:41:42Z</time>
      </trkpt>
      <trkpt lat="43.31764" lon="5.51173">
        <ele>192.88</ele>
        <time>2018-06-16T07:41:52Z</time>
      </trkpt>
      <trkpt lat="43.31768" lon="5.51171">
        <ele>192.88</ele>
        <time>2018-06-16T07:41:56Z</time>
      </trkpt>
      <trkpt lat="43.31778" lon="5.5117">
        <ele>192.88</ele>
        <time>2018-06-16T07:42:07Z</time>
      </trkpt>
      <trkpt lat="43.31779" lon="5.5117">
        <ele>192.88</ele>
        <time>2018-06-16T07:42:08Z</time>
      </trkpt>
      <trkpt lat="43.31786" lon="5.51167">
        <ele>192.88</ele>
        <time>2018-06-16T07:42:15Z</time>
      </trkpt>
      <trkpt lat="43.3179" lon="5.51167">
        <ele>193.84</ele>
        <time>2018-06-16T07:42:19Z</time>
      </trkpt>
      <trkpt lat="43.31801" lon="5.51163">
        <ele>193.84</ele>
        <time>2018-06-16T07:42:32Z</time>
      </trkpt>
      <trkpt lat="43.31801" lon="5.51163">
        <ele>193.84</ele>
        <time>2018-06-16T07:42:33Z</time>
      </trkpt>
      <trkpt lat="43.31812" lon="5.51159">
        <ele>195.77</ele>
        <time>2018-06-16T07:42:47Z</time>
      </trkpt>
      <trkpt lat="43.31815" lon="5.51159">
        <ele>195.77</ele>
        <time>2018-06-16T07:42:52Z</time>
      </trkpt>
      <trkpt lat="43.31824" lon="5.51166">
        <ele>196.25</ele>
        <time>2018-06-16T07:43:07Z</time>
      </trkpt>
      <trkpt lat="43.31828" lon="5.5117">
        <ele>196.73</ele>
        <time>2018-06-16T07:43:15Z</time>
      </trkpt>
      <trkpt lat="43.31835" lon="5.51177">
        <ele>197.69</ele>
        <time>2018-06-16T07:43:28Z</time>
      </trkpt>
      <trkpt lat="43.3184" lon="5.5118">
        <ele>198.17</ele>
        <time>2018-06-16T07:43:39Z</time>
      </trkpt>
      <trkpt lat="43.31844" lon="5.51181">
        <ele>199.13</ele>
        <time>2018-06-16T07:43:43Z</time>
      </trkpt>
      <trkpt lat="43.31852" lon="5.51182">
        <ele>200.09</ele>
        <time>2018-06-16T07:43:56Z</time>
      </trkpt>
      <trkpt lat="43.31865" lon="5.51182">
        <ele>201.05</ele>
        <time>2018-06-16T07:44:09Z</time>
      </trkpt>
      <trkpt lat="43.31873" lon="5.51184">
        <ele>202.49</ele>
        <time>2018-06-16T07:44:23Z</time>
      </trkpt>
      <trkpt lat="43.31884" lon="5.51183">
        <ele>203.46</ele>
        <time>2018-06-16T07:44:36Z</time>
      </trkpt>
      <trkpt lat="43.3189" lon="5.51183">
        <ele>204.9</ele>
        <time>2018-06-16T07:44:48Z</time>
      </trkpt>
      <trkpt lat="43.31891" lon="5.51183">
        <ele>204.9</ele>
        <time>2018-06-16T07:44:51Z</time>
      </trkpt>
      <trkpt lat="43.31899" lon="5.51183">
        <ele>206.34</ele>
        <time>2018-06-16T07:45:02Z</time>
      </trkpt>
      <trkpt lat="43.31904" lon="5.51183">
        <ele>207.78</ele>
        <time>2018-06-16T07:45:15Z</time>
      </trkpt>
      <trkpt lat="43.31913" lon="5.51187">
        <ele>208.74</ele>
        <time>2018-06-16T07:45:26Z</time>
      </trkpt>
      <trkpt lat="43.31914" lon="5.51187">
        <ele>208.74</ele>
        <time>2018-06-16T07:45:27Z</time>
      </trkpt>
      <trkpt lat="43.31918" lon="5.51191">
        <ele>209.22</ele>
        <time>2018-06-16T07:45:32Z</time>
      </trkpt>
      <trkpt lat="43.31921" lon="5.51192">
        <ele>210.19</ele>
        <time>2018-06-16T07:45:36Z</time>
      </trkpt>
      <trkpt lat="43.31927" lon="5.51192">
        <ele>210.19</ele>
        <time>2018-06-16T07:45:42Z</time>
      </trkpt>
      <trkpt lat="43.31928" lon="5.51193">
        <ele>210.19</ele>
        <time>2018-06-16T07:45:44Z</time>
      </trkpt>
      <trkpt lat="43.31932" lon="5.51195">
        <ele>210.67</ele>
        <time>2018-06-16T07:45:48Z</time>
      </trkpt>
      <trkpt lat="43.31935" lon="5.51204">
        <ele>210.67</ele>
        <time>2018-06-16T07:45:58Z</time>
      </trkpt>
      <trkpt lat="43.31942" lon="5.5121">
        <ele>211.15</ele>
        <time>2018-06-16T07:46:04Z</time>
      </trkpt>
      <trkpt lat="43.31946" lon="5.51211">
        <ele>211.15</ele>
        <time>2018-06-16T07:46:07Z</time>
      </trkpt>
      <trkpt lat="43.31957" lon="5.51218">
        <ele>211.63</ele>
        <time>2018-06-16T07:46:20Z</time>
      </trkpt>
      <trkpt lat="43.31958" lon="5.51218">
        <ele>212.11</ele>
        <time>2018-06-16T07:46:21Z</time>
      </trkpt>
      <trkpt lat="43.31971" lon="5.51227">
        <ele>211.63</ele>
        <time>2018-06-16T07:46:36Z</time>
      </trkpt>
      <trkpt lat="43.3198" lon="5.5123">
        <ele>212.11</ele>
        <time>2018-06-16T07:46:45Z</time>
      </trkpt>
      <trkpt lat="43.31987" lon="5.51234">
        <ele>211.63</ele>
        <time>2018-06-16T07:46:54Z</time>
      </trkpt>
      <trkpt lat="43.31989" lon="5.51235">
        <ele>211.63</ele>
        <time>2018-06-16T07:46:56Z</time>
      </trkpt>
      <trkpt lat="43.32001" lon="5.51238">
        <ele>212.59</ele>
        <time>2018-06-16T07:47:08Z</time>
      </trkpt>
      <trkpt lat="43.32002" lon="5.51238">
        <ele>212.11</ele>
        <time>2018-06-16T07:47:09Z</time>
      </trkpt>
      <trkpt lat="43.32005" lon="5.51237">
        <ele>212.59</ele>
        <time>2018-06-16T07:47:11Z</time>
      </trkpt>
      <trkpt lat="43.32023" lon="5.5124">
        <ele>214.51</ele>
        <time>2018-06-16T07:47:28Z</time>
      </trkpt>
      <trkpt lat="43.32035" lon="5.51245">
        <ele>214.03</ele>
        <time>2018-06-16T07:47:41Z</time>
      </trkpt>
      <trkpt lat="43.32046" lon="5.51249">
        <ele>214.03</ele>
        <time>2018-06-16T07:47:53Z</time>
      </trkpt>
      <trkpt lat="43.32052" lon="5.51252">
        <ele>213.55</ele>
        <time>2018-06-16T07:48:03Z</time>
      </trkpt>
      <trkpt lat="43.32061" lon="5.51253">
        <ele>213.55</ele>
        <time>2018-06-16T07:48:15Z</time>
      </trkpt>
      <trkpt lat="43.32074" lon="5.51253">
        <ele>213.55</ele>
        <time>2018-06-16T07:48:26Z</time>
      </trkpt>
      <trkpt lat="43.32076" lon="5.51254">
        <ele>213.07</ele>
        <time>2018-06-16T07:48:29Z</time>
      </trkpt>
      <trkpt lat="43.3208" lon="5.51254">
        <ele>212.59</ele>
        <time>2018-06-16T07:48:33Z</time>
      </trkpt>
      <trkpt lat="43.32088" lon="5.51254">
        <ele>213.07</ele>
        <time>2018-06-16T07:48:42Z</time>
      </trkpt>
      <trkpt lat="43.32101" lon="5.51255">
        <ele>213.07</ele>
        <time>2018-06-16T07:48:55Z</time>
      </trkpt>
      <trkpt lat="43.32112" lon="5.51254">
        <ele>213.07</ele>
        <time>2018-06-16T07:49:09Z</time>
      </trkpt>
      <trkpt lat="43.32116" lon="5.51254">
        <ele>213.07</ele>
        <time>2018-06-16T07:49:12Z</time>
      </trkpt>
      <trkpt lat="43.32121" lon="5.51253">
        <ele>213.07</ele>
        <time>2018-06-16T07:49:17Z</time>
      </trkpt>
      <trkpt lat="43.32127" lon="5.51254">
        <ele>212.59</ele>
        <time>2018-06-16T07:49:21Z</time>
      </trkpt>
      <trkpt lat="43.32134" lon="5.51254">
        <ele>212.59</ele>
        <time>2018-06-16T07:49:32Z</time>
      </trkpt>
      <trkpt lat="43.32136" lon="5.51254">
        <ele>213.07</ele>
        <time>2018-06-16T07:49:33Z</time>
      </trkpt>
      <trkpt lat="43.32155" lon="5.51252">
        <ele>212.59</ele>
        <time>2018-06-16T07:49:47Z</time>
      </trkpt>
      <trkpt lat="43.32161" lon="5.51252">
        <ele>213.55</ele>
        <time>2018-06-16T07:49:54Z</time>
      </trkpt>
      <trkpt lat="43.32168" lon="5.51252">
        <ele>214.03</ele>
        <time>2018-06-16T07:50:02Z</time>
      </trkpt>
      <trkpt lat="43.32174" lon="5.5125">
        <ele>214.03</ele>
        <time>2018-06-16T07:50:08Z</time>
      </trkpt>
      <trkpt lat="43.3219" lon="5.5125">
        <ele>215.95</ele>
        <time>2018-06-16T07:50:24Z</time>
      </trkpt>
      <trkpt lat="43.32201" lon="5.51252">
        <ele>217.4</ele>
        <time>2018-06-16T07:50:38Z</time>
      </trkpt>
      <trkpt lat="43.32203" lon="5.51252">
        <ele>217.88</ele>
        <time>2018-06-16T07:50:41Z</time>
      </trkpt>
      <trkpt lat="43.32206" lon="5.5125">
        <ele>217.88</ele>
        <time>2018-06-16T07:50:55Z</time>
      </trkpt>
      <trkpt lat="43.32205" lon="5.5125">
        <ele>218.36</ele>
        <time>2018-06-16T07:51:12Z</time>
      </trkpt>
      <trkpt lat="43.32213" lon="5.51251">
        <ele>219.8</ele>
        <time>2018-06-16T07:51:23Z</time>
      </trkpt>
      <trkpt lat="43.3222" lon="5.51253">
        <ele>220.76</ele>
        <time>2018-06-16T07:51:34Z</time>
      </trkpt>
      <trkpt lat="43.32231" lon="5.51254">
        <ele>222.68</ele>
        <time>2018-06-16T07:51:48Z</time>
      </trkpt>
      <trkpt lat="43.32244" lon="5.51254">
        <ele>224.61</ele>
        <time>2018-06-16T07:52:02Z</time>
      </trkpt>
      <trkpt lat="43.32248" lon="5.51255">
        <ele>225.09</ele>
        <time>2018-06-16T07:52:06Z</time>
      </trkpt>
      <trkpt lat="43.32252" lon="5.51257">
        <ele>226.05</ele>
        <time>2018-06-16T07:52:15Z</time>
      </trkpt>
      <trkpt lat="43.32258" lon="5.51258">
        <ele>226.53</ele>
        <time>2018-06-16T07:52:21Z</time>
      </trkpt>
      <trkpt lat="43.32265" lon="5.51259">
        <ele>227.01</ele>
        <time>2018-06-16T07:52:30Z</time>
      </trkpt>
      <trkpt lat="43.3227" lon="5.5126">
        <ele>228.45</ele>
        <time>2018-06-16T07:52:42Z</time>
      </trkpt>
      <trkpt lat="43.32283" lon="5.51262">
        <ele>229.89</ele>
        <time>2018-06-16T07:52:57Z</time>
      </trkpt>
      <trkpt lat="43.32286" lon="5.51262">
        <ele>230.85</ele>
        <time>2018-06-16T07:53:00Z</time>
      </trkpt>
      <trkpt lat="43.32294" lon="5.51261">
        <ele>232.3</ele>
        <time>2018-06-16T07:53:12Z</time>
      </trkpt>
      <trkpt lat="43.32294" lon="5.51261">
        <ele>231.81</ele>
        <time>2018-06-16T07:53:13Z</time>
      </trkpt>
      <trkpt lat="43.32303" lon="5.51263">
        <ele>233.26</ele>
        <time>2018-06-16T07:53:24Z</time>
      </trkpt>
      <trkpt lat="43.32311" lon="5.51265">
        <ele>234.7</ele>
        <time>2018-06-16T07:53:35Z</time>
      </trkpt>
      <trkpt lat="43.32321" lon="5.51269">
        <ele>235.18</ele>
        <time>2018-06-16T07:53:48Z</time>
      </trkpt>
      <trkpt lat="43.32326" lon="5.51275">
        <ele>236.14</ele>
        <time>2018-06-16T07:53:57Z</time>
      </trkpt>
      <trkpt lat="43.32332" lon="5.51285">
        <ele>237.1</ele>
        <time>2018-06-16T07:54:08Z</time>
      </trkpt>
      <trkpt lat="43.32339" lon="5.51291">
        <ele>238.54</ele>
        <time>2018-06-16T07:54:20Z</time>
      </trkpt>
      <trkpt lat="43.32345" lon="5.51304">
        <ele>239.02</ele>
        <time>2018-06-16T07:54:33Z</time>
      </trkpt>
      <trkpt lat="43.32348" lon="5.51316">
        <ele>238.54</ele>
        <time>2018-06-16T07:54:43Z</time>
      </trkpt>
      <trkpt lat="43.32349" lon="5.51322">
        <ele>238.54</ele>
        <time>2018-06-16T07:54:48Z</time>
      </trkpt>
      <trkpt lat="43.32349" lon="5.51331">
        <ele>237.58</ele>
        <time>2018-06-16T07:54:59Z</time>
      </trkpt>
      <trkpt lat="43.32352" lon="5.51336">
        <ele>237.1</ele>
        <time>2018-06-16T07:55:06Z</time>
      </trkpt>
      <trkpt lat="43.32361" lon="5.51345">
        <ele>235.18</ele>
        <time>2018-06-16T07:55:19Z</time>
      </trkpt>
      <trkpt lat="43.32366" lon="5.51349">
        <ele>234.7</ele>
        <time>2018-06-16T07:55:23Z</time>
      </trkpt>
      <trkpt lat="43.3237" lon="5.5135">
        <ele>234.22</ele>
        <time>2018-06-16T07:55:27Z</time>
      </trkpt>
      <trkpt lat="43.32375" lon="5.51349">
        <ele>233.74</ele>
        <time>2018-06-16T07:55:32Z</time>
      </trkpt>
      <trkpt lat="43.32381" lon="5.51351">
        <ele>233.26</ele>
        <time>2018-06-16T07:55:38Z</time>
      </trkpt>
      <trkpt lat="43.32391" lon="5.51354">
        <ele>233.26</ele>
        <time>2018-06-16T07:55:50Z</time>
      </trkpt>
      <trkpt lat="43.32397" lon="5.51355">
        <ele>232.78</ele>
        <time>2018-06-16T07:55:54Z</time>
      </trkpt>
      <trkpt lat="43.32409" lon="5.51363">
        <ele>233.26</ele>
        <time>2018-06-16T07:56:08Z</time>
      </trkpt>
      <trkpt lat="43.32411" lon="5.51363">
        <ele>233.26</ele>
        <time>2018-06-16T07:56:12Z</time>
      </trkpt>
      <trkpt lat="43.3242" lon="5.51363">
        <ele>234.7</ele>
        <time>2018-06-16T07:56:21Z</time>
      </trkpt>
      <trkpt lat="43.32436" lon="5.51362">
        <ele>235.18</ele>
        <time>2018-06-16T07:56:38Z</time>
      </trkpt>
      <trkpt lat="43.32453" lon="5.5136">
        <ele>236.14</ele>
        <time>2018-06-16T07:56:52Z</time>
      </trkpt>
      <trkpt lat="43.32462" lon="5.51358">
        <ele>236.62</ele>
        <time>2018-06-16T07:57:05Z</time>
      </trkpt>
      <trkpt lat="43.32467" lon="5.51359">
        <ele>237.58</ele>
        <time>2018-06-16T07:57:11Z</time>
      </trkpt>
      <trkpt lat="43.32475" lon="5.51361">
        <ele>239.02</ele>
        <time>2018-06-16T07:57:21Z</time>
      </trkpt>
      <trkpt lat="43.32479" lon="5.51361">
        <ele>239.51</ele>
        <time>2018-06-16T07:57:34Z</time>
      </trkpt>
      <trkpt lat="43.32485" lon="5.51362">
        <ele>240.47</ele>
        <time>2018-06-16T07:57:52Z</time>
      </trkpt>
      <trkpt lat="43.32487" lon="5.51364">
        <ele>241.43</ele>
        <time>2018-06-16T07:58:04Z</time>
      </trkpt>
      <trkpt lat="43.32487" lon="5.51364">
        <ele>241.43</ele>
        <time>2018-06-16T07:58:28Z</time>
      </trkpt>
      <trkpt lat="43.32494" lon="5.51363">
        <ele>243.83</ele>
        <time>2018-06-16T07:58:45Z</time>
      </trkpt>
      <trkpt lat="43.32506" lon="5.51359">
        <ele>245.75</ele>
        <time>2018-06-16T07:59:02Z</time>
      </trkpt>
      <trkpt lat="43.32516" lon="5.51368">
        <ele>248.16</ele>
        <time>2018-06-16T07:59:19Z</time>
      </trkpt>
      <trkpt lat="43.32525" lon="5.51373">
        <ele>250.56</ele>
        <time>2018-06-16T07:59:34Z</time>
      </trkpt>
      <trkpt lat="43.32538" lon="5.51375">
        <ele>252</ele>
        <time>2018-06-16T07:59:49Z</time>
      </trkpt>
      <trkpt lat="43.32543" lon="5.51374">
        <ele>252.96</ele>
        <time>2018-06-16T08:00:01Z</time>
      </trkpt>
      <trkpt lat="43.32554" lon="5.51374">
        <ele>255.37</ele>
        <time>2018-06-16T08:00:19Z</time>
      </trkpt>
      <trkpt lat="43.32559" lon="5.51368">
        <ele>255.85</ele>
        <time>2018-06-16T08:00:28Z</time>
      </trkpt>
      <trkpt lat="43.32559" lon="5.51366">
        <ele>256.33</ele>
        <time>2018-06-16T08:00:41Z</time>
      </trkpt>
      <trkpt lat="43.32561" lon="5.51364">
        <ele>256.81</ele>
        <time>2018-06-16T08:00:58Z</time>
      </trkpt>
      <trkpt lat="43.32567" lon="5.51366">
        <ele>258.25</ele>
        <time>2018-06-16T08:01:10Z</time>
      </trkpt>
      <trkpt lat="43.32578" lon="5.51363">
        <ele>260.17</ele>
        <time>2018-06-16T08:01:23Z</time>
      </trkpt>
      <trkpt lat="43.32585" lon="5.51362">
        <ele>261.62</ele>
        <time>2018-06-16T08:01:39Z</time>
      </trkpt>
      <trkpt lat="43.32597" lon="5.51359">
        <ele>264.02</ele>
        <time>2018-06-16T08:01:55Z</time>
      </trkpt>
      <trkpt lat="43.32601" lon="5.51358">
        <ele>265.94</ele>
        <time>2018-06-16T08:02:07Z</time>
      </trkpt>
      <trkpt lat="43.32612" lon="5.51359">
        <ele>266.9</ele>
        <time>2018-06-16T08:02:21Z</time>
      </trkpt>
      <trkpt lat="43.32615" lon="5.5136">
        <ele>266.9</ele>
        <time>2018-06-16T08:02:23Z</time>
      </trkpt>
      <trkpt lat="43.32622" lon="5.51365">
        <ele>267.86</ele>
        <time>2018-06-16T08:02:33Z</time>
      </trkpt>
      <trkpt lat="43.32622" lon="5.51366">
        <ele>267.86</ele>
        <time>2018-06-16T08:02:34Z</time>
      </trkpt>
      <trkpt lat="43.32627" lon="5.51372">
        <ele>267.86</ele>
        <time>2018-06-16T08:02:43Z</time>
      </trkpt>
      <trkpt lat="43.32628" lon="5.51374">
        <ele>268.83</ele>
        <time>2018-06-16T08:02:46Z</time>
      </trkpt>
      <trkpt lat="43.32636" lon="5.51383">
        <ele>269.79</ele>
        <time>2018-06-16T08:03:00Z</time>
      </trkpt>
      <trkpt lat="43.32643" lon="5.51395">
        <ele>270.75</ele>
        <time>2018-06-16T08:03:15Z</time>
      </trkpt>
      <trkpt lat="43.32646" lon="5.51406">
        <ele>272.19</ele>
        <time>2018-06-16T08:03:30Z</time>
      </trkpt>
      <trkpt lat="43.32654" lon="5.51412">
        <ele>274.11</ele>
        <time>2018-06-16T08:03:43Z</time>
      </trkpt>
      <trkpt lat="43.32666" lon="5.51415">
        <ele>275.56</ele>
        <time>2018-06-16T08:04:02Z</time>
      </trkpt>
      <trkpt lat="43.32674" lon="5.51422">
        <ele>277.96</ele>
        <time>2018-06-16T08:04:19Z</time>
      </trkpt>
      <trkpt lat="43.3268" lon="5.51425">
        <ele>278.92</ele>
        <time>2018-06-16T08:04:32Z</time>
      </trkpt>
      <trkpt lat="43.32688" lon="5.51426">
        <ele>280.84</ele>
        <time>2018-06-16T08:04:44Z</time>
      </trkpt>
      <trkpt lat="43.32694" lon="5.51427">
        <ele>281.32</ele>
        <time>2018-06-16T08:04:54Z</time>
      </trkpt>
      <trkpt lat="43.32698" lon="5.51428">
        <ele>282.77</ele>
        <time>2018-06-16T08:05:04Z</time>
      </trkpt>
      <trkpt lat="43.32707" lon="5.51428">
        <ele>284.21</ele>
        <time>2018-06-16T08:05:19Z</time>
      </trkpt>
      <trkpt lat="43.32715" lon="5.51425">
        <ele>285.17</ele>
        <time>2018-06-16T08:05:30Z</time>
      </trkpt>
      <trkpt lat="43.32722" lon="5.51424">
        <ele>285.65</ele>
        <time>2018-06-16T08:05:42Z</time>
      </trkpt>
      <trkpt lat="43.32727" lon="5.51421">
        <ele>286.61</ele>
        <time>2018-06-16T08:05:55Z</time>
      </trkpt>
      <trkpt lat="43.32728" lon="5.51421">
        <ele>286.61</ele>
        <time>2018-06-16T08:05:56Z</time>
      </trkpt>
      <trkpt lat="43.32733" lon="5.51416">
        <ele>287.57</ele>
        <time>2018-06-16T08:06:07Z</time>
      </trkpt>
      <trkpt lat="43.3274" lon="5.51407">
        <ele>289.49</ele>
        <time>2018-06-16T08:06:25Z</time>
      </trkpt>
      <trkpt lat="43.32741" lon="5.51406">
        <ele>289.97</ele>
        <time>2018-06-16T08:06:32Z</time>
      </trkpt>
      <trkpt lat="43.3274" lon="5.51397">
        <ele>290.94</ele>
        <time>2018-06-16T08:06:44Z</time>
      </trkpt>
      <trkpt lat="43.32738" lon="5.51396">
        <ele>292.38</ele>
        <time>2018-06-16T08:06:56Z</time>
      </trkpt>
      <trkpt lat="43.32735" lon="5.51389">
        <ele>293.82</ele>
        <time>2018-06-16T08:07:07Z</time>
      </trkpt>
      <trkpt lat="43.32733" lon="5.51381">
        <ele>294.78</ele>
        <time>2018-06-16T08:07:18Z</time>
      </trkpt>
      <trkpt lat="43.32733" lon="5.51373">
        <ele>295.26</ele>
        <time>2018-06-16T08:07:28Z</time>
      </trkpt>
      <trkpt lat="43.32734" lon="5.51367">
        <ele>297.18</ele>
        <time>2018-06-16T08:07:38Z</time>
      </trkpt>
      <trkpt lat="43.32738" lon="5.51359">
        <ele>298.15</ele>
        <time>2018-06-16T08:07:50Z</time>
      </trkpt>
      <trkpt lat="43.32738" lon="5.51357">
        <ele>298.15</ele>
        <time>2018-06-16T08:08:12Z</time>
      </trkpt>
      <trkpt lat="43.32739" lon="5.51357">
        <ele>298.63</ele>
        <time>2018-06-16T08:08:30Z</time>
      </trkpt>
      <trkpt lat="43.32739" lon="5.51356">
        <ele>299.11</ele>
        <time>2018-06-16T08:08:43Z</time>
      </trkpt>
      <trkpt lat="43.32739" lon="5.51356">
        <ele>298.15</ele>
        <time>2018-06-16T08:09:02Z</time>
      </trkpt>
      <trkpt lat="43.32739" lon="5.51355">
        <ele>298.15</ele>
        <time>2018-06-16T08:09:17Z</time>
      </trkpt>
      <trkpt lat="43.32739" lon="5.51355">
        <ele>297.67</ele>
        <time>2018-06-16T08:09:32Z</time>
      </trkpt>
      <trkpt lat="43.3274" lon="5.51355">
        <ele>298.63</ele>
        <time>2018-06-16T08:09:49Z</time>
      </trkpt>
      <trkpt lat="43.3274" lon="5.51354">
        <ele>298.63</ele>
        <time>2018-06-16T08:10:11Z</time>
      </trkpt>
      <trkpt lat="43.3274" lon="5.51354">
        <ele>299.11</ele>
        <time>2018-06-16T08:10:33Z</time>
      </trkpt>
      <trkpt lat="43.32741" lon="5.51354">
        <ele>298.63</ele>
        <time>2018-06-16T08:10:55Z</time>
      </trkpt>
      <trkpt lat="43.32741" lon="5.51354">
        <ele>299.11</ele>
        <time>2018-06-16T08:11:13Z</time>
      </trkpt>
      <trkpt lat="43.32744" lon="5.51355">
        <ele>299.59</ele>
        <time>2018-06-16T08:11:31Z</time>
      </trkpt>
      <trkpt lat="43.32751" lon="5.5136">
        <ele>300.55</ele>
        <time>2018-06-16T08:11:45Z</time>
      </trkpt>
      <trkpt lat="43.32758" lon="5.51363">
        <ele>301.51</ele>
        <time>2018-06-16T08:11:56Z</time>
      </trkpt>
      <trkpt lat="43.32762" lon="5.51367">
        <ele>302.47</ele>
        <time>2018-06-16T08:12:07Z</time>
      </trkpt>
      <trkpt lat="43.32768" lon="5.5137">
        <ele>302.95</ele>
        <time>2018-06-16T08:12:15Z</time>
      </trkpt>
      <trkpt lat="43.32776" lon="5.51378">
        <ele>304.39</ele>
        <time>2018-06-16T08:12:29Z</time>
      </trkpt>
      <trkpt lat="43.32785" lon="5.51383">
        <ele>305.84</ele>
        <time>2018-06-16T08:12:45Z</time>
      </trkpt>
      <trkpt lat="43.32789" lon="5.51388">
        <ele>306.8</ele>
        <time>2018-06-16T08:12:55Z</time>
      </trkpt>
      <trkpt lat="43.32792" lon="5.51391">
        <ele>307.76</ele>
        <time>2018-06-16T08:13:02Z</time>
      </trkpt>
      <trkpt lat="43.32797" lon="5.51399">
        <ele>309.2</ele>
        <time>2018-06-16T08:13:15Z</time>
      </trkpt>
      <trkpt lat="43.32806" lon="5.51409">
        <ele>310.16</ele>
        <time>2018-06-16T08:13:29Z</time>
      </trkpt>
      <trkpt lat="43.32808" lon="5.51411">
        <ele>311.6</ele>
        <time>2018-06-16T08:13:42Z</time>
      </trkpt>
      <trkpt lat="43.32811" lon="5.51412">
        <ele>313.05</ele>
        <time>2018-06-16T08:13:53Z</time>
      </trkpt>
      <trkpt lat="43.32814" lon="5.51412">
        <ele>314.49</ele>
        <time>2018-06-16T08:14:08Z</time>
      </trkpt>
      <trkpt lat="43.32816" lon="5.51414">
        <ele>315.93</ele>
        <time>2018-06-16T08:14:18Z</time>
      </trkpt>
      <trkpt lat="43.32818" lon="5.51415">
        <ele>317.37</ele>
        <time>2018-06-16T08:14:33Z</time>
      </trkpt>
      <trkpt lat="43.32819" lon="5.51415">
        <ele>318.33</ele>
        <time>2018-06-16T08:14:45Z</time>
      </trkpt>
      <trkpt lat="43.32826" lon="5.51418">
        <ele>318.81</ele>
        <time>2018-06-16T08:14:57Z</time>
      </trkpt>
      <trkpt lat="43.32827" lon="5.51419">
        <ele>318.33</ele>
        <time>2018-06-16T08:14:59Z</time>
      </trkpt>
      <trkpt lat="43.32831" lon="5.5142">
        <ele>319.3</ele>
        <time>2018-06-16T08:15:09Z</time>
      </trkpt>
      <trkpt lat="43.32833" lon="5.51421">
        <ele>318.81</ele>
        <time>2018-06-16T08:15:13Z</time>
      </trkpt>
      <trkpt lat="43.3284" lon="5.51428">
        <ele>319.3</ele>
        <time>2018-06-16T08:15:21Z</time>
      </trkpt>
      <trkpt lat="43.3285" lon="5.51436">
        <ele>320.26</ele>
        <time>2018-06-16T08:15:32Z</time>
      </trkpt>
      <trkpt lat="43.32857" lon="5.5144">
        <ele>319.3</ele>
        <time>2018-06-16T08:15:40Z</time>
      </trkpt>
      <trkpt lat="43.32865" lon="5.51449">
        <ele>320.26</ele>
        <time>2018-06-16T08:15:52Z</time>
      </trkpt>
      <trkpt lat="43.32873" lon="5.51453">
        <ele>320.74</ele>
        <time>2018-06-16T08:16:01Z</time>
      </trkpt>
      <trkpt lat="43.32881" lon="5.51456">
        <ele>321.22</ele>
        <time>2018-06-16T08:16:08Z</time>
      </trkpt>
      <trkpt lat="43.32885" lon="5.51459">
        <ele>321.22</ele>
        <time>2018-06-16T08:16:12Z</time>
      </trkpt>
      <trkpt lat="43.32887" lon="5.51463">
        <ele>321.22</ele>
        <time>2018-06-16T08:16:17Z</time>
      </trkpt>
      <trkpt lat="43.3289" lon="5.51466">
        <ele>321.22</ele>
        <time>2018-06-16T08:16:20Z</time>
      </trkpt>
      <trkpt lat="43.32895" lon="5.51469">
        <ele>321.22</ele>
        <time>2018-06-16T08:16:26Z</time>
      </trkpt>
      <trkpt lat="43.32906" lon="5.51474">
        <ele>321.22</ele>
        <time>2018-06-16T08:16:37Z</time>
      </trkpt>
      <trkpt lat="43.32908" lon="5.51476">
        <ele>321.22</ele>
        <time>2018-06-16T08:16:40Z</time>
      </trkpt>
      <trkpt lat="43.32912" lon="5.5148">
        <ele>320.74</ele>
        <time>2018-06-16T08:16:45Z</time>
      </trkpt>
      <trkpt lat="43.32915" lon="5.51481">
        <ele>320.74</ele>
        <time>2018-06-16T08:16:49Z</time>
      </trkpt>
      <trkpt lat="43.32916" lon="5.51483">
        <ele>320.74</ele>
        <time>2018-06-16T08:16:51Z</time>
      </trkpt>
      <trkpt lat="43.32924" lon="5.51492">
        <ele>320.74</ele>
        <time>2018-06-16T08:17:01Z</time>
      </trkpt>
      <trkpt lat="43.3293" lon="5.51497">
        <ele>320.26</ele>
        <time>2018-06-16T08:17:08Z</time>
      </trkpt>
      <trkpt lat="43.32936" lon="5.51503">
        <ele>320.26</ele>
        <time>2018-06-16T08:17:14Z</time>
      </trkpt>
      <trkpt lat="43.32938" lon="5.51504">
        <ele>319.78</ele>
        <time>2018-06-16T08:17:16Z</time>
      </trkpt>
      <trkpt lat="43.32941" lon="5.51511">
        <ele>320.26</ele>
        <time>2018-06-16T08:17:20Z</time>
      </trkpt>
      <trkpt lat="43.32942" lon="5.51514">
        <ele>320.26</ele>
        <time>2018-06-16T08:17:23Z</time>
      </trkpt>
      <trkpt lat="43.32949" lon="5.51528">
        <ele>320.26</ele>
        <time>2018-06-16T08:17:34Z</time>
      </trkpt>
      <trkpt lat="43.32954" lon="5.5154">
        <ele>320.26</ele>
        <time>2018-06-16T08:17:46Z</time>
      </trkpt>
      <trkpt lat="43.32961" lon="5.51545">
        <ele>319.78</ele>
        <time>2018-06-16T08:18:00Z</time>
      </trkpt>
      <trkpt lat="43.32968" lon="5.51549">
        <ele>319.3</ele>
        <time>2018-06-16T08:18:11Z</time>
      </trkpt>
      <trkpt lat="43.32973" lon="5.51551">
        <ele>319.3</ele>
        <time>2018-06-16T08:18:16Z</time>
      </trkpt>
      <trkpt lat="43.32974" lon="5.51552">
        <ele>318.81</ele>
        <time>2018-06-16T08:18:18Z</time>
      </trkpt>
      <trkpt lat="43.32979" lon="5.51555">
        <ele>318.81</ele>
        <time>2018-06-16T08:18:22Z</time>
      </trkpt>
      <trkpt lat="43.32981" lon="5.51556">
        <ele>318.81</ele>
        <time>2018-06-16T08:18:31Z</time>
      </trkpt>
      <trkpt lat="43.32983" lon="5.51559">
        <ele>318.81</ele>
        <time>2018-06-16T08:18:34Z</time>
      </trkpt>
      <trkpt lat="43.32987" lon="5.51559">
        <ele>318.81</ele>
        <time>2018-06-16T08:18:37Z</time>
      </trkpt>
      <trkpt lat="43.33" lon="5.51563">
        <ele>321.22</ele>
        <time>2018-06-16T08:18:52Z</time>
      </trkpt>
      <trkpt lat="43.33014" lon="5.51564">
        <ele>323.14</ele>
        <time>2018-06-16T08:19:10Z</time>
      </trkpt>
      <trkpt lat="43.33022" lon="5.51566">
        <ele>324.58</ele>
        <time>2018-06-16T08:19:23Z</time>
      </trkpt>
      <trkpt lat="43.3303" lon="5.51559">
        <ele>326.5</ele>
        <time>2018-06-16T08:19:38Z</time>
      </trkpt>
      <trkpt lat="43.33036" lon="5.51552">
        <ele>327.95</ele>
        <time>2018-06-16T08:19:53Z</time>
      </trkpt>
      <trkpt lat="43.3304" lon="5.51548">
        <ele>328.43</ele>
        <time>2018-06-16T08:19:59Z</time>
      </trkpt>
      <trkpt lat="43.33042" lon="5.51544">
        <ele>329.39</ele>
        <time>2018-06-16T08:20:05Z</time>
      </trkpt>
      <trkpt lat="43.33046" lon="5.51541">
        <ele>330.35</ele>
        <time>2018-06-16T08:20:11Z</time>
      </trkpt>
      <trkpt lat="43.33048" lon="5.5154">
        <ele>329.87</ele>
        <time>2018-06-16T08:20:13Z</time>
      </trkpt>
      <trkpt lat="43.33053" lon="5.51533">
        <ele>330.35</ele>
        <time>2018-06-16T08:20:23Z</time>
      </trkpt>
      <trkpt lat="43.3306" lon="5.51526">
        <ele>331.31</ele>
        <time>2018-06-16T08:20:35Z</time>
      </trkpt>
      <trkpt lat="43.33065" lon="5.51518">
        <ele>331.79</ele>
        <time>2018-06-16T08:20:46Z</time>
      </trkpt>
      <trkpt lat="43.33071" lon="5.51509">
        <ele>332.75</ele>
        <time>2018-06-16T08:20:58Z</time>
      </trkpt>
      <trkpt lat="43.33075" lon="5.51504">
        <ele>334.2</ele>
        <time>2018-06-16T08:21:07Z</time>
      </trkpt>
      <trkpt lat="43.3308" lon="5.515">
        <ele>334.2</ele>
        <time>2018-06-16T08:21:18Z</time>
      </trkpt>
      <trkpt lat="43.33082" lon="5.51498">
        <ele>334.2</ele>
        <time>2018-06-16T08:21:20Z</time>
      </trkpt>
      <trkpt lat="43.33084" lon="5.51497">
        <ele>334.68</ele>
        <time>2018-06-16T08:21:22Z</time>
      </trkpt>
      <trkpt lat="43.33086" lon="5.51495">
        <ele>334.2</ele>
        <time>2018-06-16T08:21:26Z</time>
      </trkpt>
      <trkpt lat="43.33094" lon="5.51487">
        <ele>334.68</ele>
        <time>2018-06-16T08:21:37Z</time>
      </trkpt>
      <trkpt lat="43.33099" lon="5.51481">
        <ele>335.16</ele>
        <time>2018-06-16T08:21:45Z</time>
      </trkpt>
      <trkpt lat="43.33104" lon="5.51477">
        <ele>336.12</ele>
        <time>2018-06-16T08:21:52Z</time>
      </trkpt>
      <trkpt lat="43.33112" lon="5.51467">
        <ele>336.6</ele>
        <time>2018-06-16T08:22:06Z</time>
      </trkpt>
      <trkpt lat="43.33115" lon="5.5146">
        <ele>336.6</ele>
        <time>2018-06-16T08:22:14Z</time>
      </trkpt>
      <trkpt lat="43.33116" lon="5.51457">
        <ele>338.04</ele>
        <time>2018-06-16T08:22:17Z</time>
      </trkpt>
      <trkpt lat="43.33123" lon="5.51452">
        <ele>338.52</ele>
        <time>2018-06-16T08:22:31Z</time>
      </trkpt>
      <trkpt lat="43.33131" lon="5.51446">
        <ele>339.96</ele>
        <time>2018-06-16T08:22:44Z</time>
      </trkpt>
      <trkpt lat="43.33133" lon="5.51445">
        <ele>339.96</ele>
        <time>2018-06-16T08:22:47Z</time>
      </trkpt>
      <trkpt lat="43.33141" lon="5.51443">
        <ele>340.44</ele>
        <time>2018-06-16T08:23:02Z</time>
      </trkpt>
      <trkpt lat="43.33141" lon="5.51443">
        <ele>340.92</ele>
        <time>2018-06-16T08:23:07Z</time>
      </trkpt>
      <trkpt lat="43.33147" lon="5.51443">
        <ele>341.41</ele>
        <time>2018-06-16T08:23:14Z</time>
      </trkpt>
      <trkpt lat="43.33148" lon="5.51443">
        <ele>340.92</ele>
        <time>2018-06-16T08:23:16Z</time>
      </trkpt>
      <trkpt lat="43.33157" lon="5.51444">
        <ele>342.37</ele>
        <time>2018-06-16T08:23:29Z</time>
      </trkpt>
      <trkpt lat="43.33162" lon="5.51445">
        <ele>343.33</ele>
        <time>2018-06-16T08:23:37Z</time>
      </trkpt>
      <trkpt lat="43.33165" lon="5.51445">
        <ele>343.81</ele>
        <time>2018-06-16T08:23:40Z</time>
      </trkpt>
      <trkpt lat="43.33173" lon="5.51445">
        <ele>344.77</ele>
        <time>2018-06-16T08:23:53Z</time>
      </trkpt>
      <trkpt lat="43.33177" lon="5.51447">
        <ele>345.73</ele>
        <time>2018-06-16T08:24:00Z</time>
      </trkpt>
      <trkpt lat="43.33186" lon="5.5145">
        <ele>346.69</ele>
        <time>2018-06-16T08:24:13Z</time>
      </trkpt>
      <trkpt lat="43.33192" lon="5.51453">
        <ele>347.65</ele>
        <time>2018-06-16T08:24:24Z</time>
      </trkpt>
      <trkpt lat="43.33197" lon="5.51455">
        <ele>348.62</ele>
        <time>2018-06-16T08:24:32Z</time>
      </trkpt>
      <trkpt lat="43.33197" lon="5.51455">
        <ele>348.62</ele>
        <time>2018-06-16T08:24:34Z</time>
      </trkpt>
      <trkpt lat="43.33205" lon="5.51457">
        <ele>349.58</ele>
        <time>2018-06-16T08:24:45Z</time>
      </trkpt>
      <trkpt lat="43.33214" lon="5.51459">
        <ele>351.5</ele>
        <time>2018-06-16T08:25:01Z</time>
      </trkpt>
      <trkpt lat="43.33219" lon="5.51459">
        <ele>351.98</ele>
        <time>2018-06-16T08:25:14Z</time>
      </trkpt>
      <trkpt lat="43.33222" lon="5.51462">
        <ele>352.46</ele>
        <time>2018-06-16T08:25:34Z</time>
      </trkpt>
      <trkpt lat="43.33222" lon="5.51461">
        <ele>352.94</ele>
        <time>2018-06-16T08:25:48Z</time>
      </trkpt>
      <trkpt lat="43.33223" lon="5.51461">
        <ele>351.98</ele>
        <time>2018-06-16T08:26:10Z</time>
      </trkpt>
      <trkpt lat="43.33224" lon="5.51462">
        <ele>351.98</ele>
        <time>2018-06-16T08:26:20Z</time>
      </trkpt>
      <trkpt lat="43.33225" lon="5.51461">
        <ele>352.94</ele>
        <time>2018-06-16T08:26:34Z</time>
      </trkpt>
      <trkpt lat="43.33225" lon="5.51461">
        <ele>352.46</ele>
        <time>2018-06-16T08:26:48Z</time>
      </trkpt>
      <trkpt lat="43.33227" lon="5.51461">
        <ele>352.94</ele>
        <time>2018-06-16T08:27:06Z</time>
      </trkpt>
      <trkpt lat="43.33227" lon="5.51462">
        <ele>352.94</ele>
        <time>2018-06-16T08:27:26Z</time>
      </trkpt>
      <trkpt lat="43.33228" lon="5.51463">
        <ele>352.94</ele>
        <time>2018-06-16T08:27:46Z</time>
      </trkpt>
      <trkpt lat="43.33228" lon="5.51464">
        <ele>352.46</ele>
        <time>2018-06-16T08:27:58Z</time>
      </trkpt>
      <trkpt lat="43.33228" lon="5.51465">
        <ele>352.94</ele>
        <time>2018-06-16T08:28:09Z</time>
      </trkpt>
      <trkpt lat="43.33231" lon="5.51465">
        <ele>352.94</ele>
        <time>2018-06-16T08:28:21Z</time>
      </trkpt>
      <trkpt lat="43.33232" lon="5.51464">
        <ele>352.46</ele>
        <time>2018-06-16T08:28:45Z</time>
      </trkpt>
      <trkpt lat="43.33234" lon="5.51465">
        <ele>352.46</ele>
        <time>2018-06-16T08:29:05Z</time>
      </trkpt>
      <trkpt lat="43.3324" lon="5.51466">
        <ele>352.46</ele>
        <time>2018-06-16T08:29:13Z</time>
      </trkpt>
      <trkpt lat="43.33244" lon="5.51465">
        <ele>351.98</ele>
        <time>2018-06-16T08:29:17Z</time>
      </trkpt>
      <trkpt lat="43.33248" lon="5.51464">
        <ele>352.46</ele>
        <time>2018-06-16T08:29:21Z</time>
      </trkpt>
      <trkpt lat="43.33251" lon="5.51464">
        <ele>351.98</ele>
        <time>2018-06-16T08:29:24Z</time>
      </trkpt>
      <trkpt lat="43.33255" lon="5.51463">
        <ele>351.98</ele>
        <time>2018-06-16T08:29:30Z</time>
      </trkpt>
      <trkpt lat="43.3327" lon="5.51457">
        <ele>351.98</ele>
        <time>2018-06-16T08:29:44Z</time>
      </trkpt>
      <trkpt lat="43.3328" lon="5.51452">
        <ele>351.98</ele>
        <time>2018-06-16T08:29:55Z</time>
      </trkpt>
      <trkpt lat="43.33289" lon="5.51451">
        <ele>351.5</ele>
        <time>2018-06-16T08:30:07Z</time>
      </trkpt>
      <trkpt lat="43.33299" lon="5.51455">
        <ele>350.06</ele>
        <time>2018-06-16T08:30:18Z</time>
      </trkpt>
      <trkpt lat="43.33305" lon="5.51462">
        <ele>349.1</ele>
        <time>2018-06-16T08:30:28Z</time>
      </trkpt>
      <trkpt lat="43.33311" lon="5.5147">
        <ele>347.65</ele>
        <time>2018-06-16T08:30:40Z</time>
      </trkpt>
      <trkpt lat="43.33312" lon="5.5147">
        <ele>347.65</ele>
        <time>2018-06-16T08:30:41Z</time>
      </trkpt>
      <trkpt lat="43.33317" lon="5.51476">
        <ele>347.17</ele>
        <time>2018-06-16T08:30:47Z</time>
      </trkpt>
      <trkpt lat="43.33326" lon="5.51485">
        <ele>346.21</ele>
        <time>2018-06-16T08:30:59Z</time>
      </trkpt>
      <trkpt lat="43.33336" lon="5.51486">
        <ele>344.77</ele>
        <time>2018-06-16T08:31:12Z</time>
      </trkpt>
      <trkpt lat="43.33341" lon="5.5148">
        <ele>344.29</ele>
        <time>2018-06-16T08:31:22Z</time>
      </trkpt>
      <trkpt lat="43.33341" lon="5.51468">
        <ele>342.37</ele>
        <time>2018-06-16T08:31:34Z</time>
      </trkpt>
      <trkpt lat="43.33339" lon="5.51465">
        <ele>341.89</ele>
        <time>2018-06-16T08:31:37Z</time>
      </trkpt>
      <trkpt lat="43.33333" lon="5.51461">
        <ele>340.44</ele>
        <time>2018-06-16T08:31:44Z</time>
      </trkpt>
      <trkpt lat="43.33331" lon="5.5146">
        <ele>339.96</ele>
        <time>2018-06-16T08:31:47Z</time>
      </trkpt>
      <trkpt lat="43.33323" lon="5.51455">
        <ele>339</ele>
        <time>2018-06-16T08:31:58Z</time>
      </trkpt>
      <trkpt lat="43.33322" lon="5.51452">
        <ele>338.04</ele>
        <time>2018-06-16T08:32:06Z</time>
      </trkpt>
      <trkpt lat="43.33326" lon="5.51445">
        <ele>336.6</ele>
        <time>2018-06-16T08:32:16Z</time>
      </trkpt>
      <trkpt lat="43.33327" lon="5.51444">
        <ele>336.6</ele>
        <time>2018-06-16T08:32:17Z</time>
      </trkpt>
      <trkpt lat="43.33334" lon="5.51445">
        <ele>335.16</ele>
        <time>2018-06-16T08:32:29Z</time>
      </trkpt>
      <trkpt lat="43.33338" lon="5.51443">
        <ele>335.64</ele>
        <time>2018-06-16T08:32:35Z</time>
      </trkpt>
      <trkpt lat="43.33344" lon="5.5144">
        <ele>334.2</ele>
        <time>2018-06-16T08:32:44Z</time>
      </trkpt>
      <trkpt lat="43.33346" lon="5.51436">
        <ele>333.71</ele>
        <time>2018-06-16T08:32:47Z</time>
      </trkpt>
      <trkpt lat="43.3335" lon="5.51435">
        <ele>333.23</ele>
        <time>2018-06-16T08:32:52Z</time>
      </trkpt>
      <trkpt lat="43.33355" lon="5.51431">
        <ele>332.27</ele>
        <time>2018-06-16T08:33:02Z</time>
      </trkpt>
      <trkpt lat="43.33357" lon="5.51428">
        <ele>332.75</ele>
        <time>2018-06-16T08:33:04Z</time>
      </trkpt>
      <trkpt lat="43.33359" lon="5.51425">
        <ele>332.27</ele>
        <time>2018-06-16T08:33:06Z</time>
      </trkpt>
      <trkpt lat="43.33369" lon="5.51418">
        <ele>332.27</ele>
        <time>2018-06-16T08:33:17Z</time>
      </trkpt>
      <trkpt lat="43.33374" lon="5.51418">
        <ele>332.75</ele>
        <time>2018-06-16T08:33:23Z</time>
      </trkpt>
      <trkpt lat="43.33384" lon="5.51419">
        <ele>334.2</ele>
        <time>2018-06-16T08:33:36Z</time>
      </trkpt>
      <trkpt lat="43.33393" lon="5.51421">
        <ele>334.2</ele>
        <time>2018-06-16T08:33:45Z</time>
      </trkpt>
      <trkpt lat="43.33397" lon="5.51419">
        <ele>334.68</ele>
        <time>2018-06-16T08:33:49Z</time>
      </trkpt>
      <trkpt lat="43.334" lon="5.5142">
        <ele>334.68</ele>
        <time>2018-06-16T08:33:52Z</time>
      </trkpt>
      <trkpt lat="43.33409" lon="5.51418">
        <ele>334.2</ele>
        <time>2018-06-16T08:33:59Z</time>
      </trkpt>
      <trkpt lat="43.3342" lon="5.51421">
        <ele>334.68</ele>
        <time>2018-06-16T08:34:10Z</time>
      </trkpt>
      <trkpt lat="43.33426" lon="5.51425">
        <ele>334.2</ele>
        <time>2018-06-16T08:34:20Z</time>
      </trkpt>
      <trkpt lat="43.33432" lon="5.5143">
        <ele>335.16</ele>
        <time>2018-06-16T08:34:30Z</time>
      </trkpt>
      <trkpt lat="43.33436" lon="5.51435">
        <ele>336.12</ele>
        <time>2018-06-16T08:34:39Z</time>
      </trkpt>
      <trkpt lat="43.33444" lon="5.51443">
        <ele>337.08</ele>
        <time>2018-06-16T08:34:48Z</time>
      </trkpt>
      <trkpt lat="43.33448" lon="5.51447">
        <ele>338.04</ele>
        <time>2018-06-16T08:34:53Z</time>
      </trkpt>
      <trkpt lat="43.33452" lon="5.5145">
        <ele>338.04</ele>
        <time>2018-06-16T08:34:57Z</time>
      </trkpt>
      <trkpt lat="43.33454" lon="5.51452">
        <ele>338.04</ele>
        <time>2018-06-16T08:34:59Z</time>
      </trkpt>
      <trkpt lat="43.33459" lon="5.51456">
        <ele>338.04</ele>
        <time>2018-06-16T08:35:05Z</time>
      </trkpt>
      <trkpt lat="43.33463" lon="5.5146">
        <ele>338.52</ele>
        <time>2018-06-16T08:35:11Z</time>
      </trkpt>
      <trkpt lat="43.33465" lon="5.51464">
        <ele>338.52</ele>
        <time>2018-06-16T08:35:16Z</time>
      </trkpt>
      <trkpt lat="43.33468" lon="5.51468">
        <ele>338.52</ele>
        <time>2018-06-16T08:35:20Z</time>
      </trkpt>
      <trkpt lat="43.33477" lon="5.51484">
        <ele>339.48</ele>
        <time>2018-06-16T08:35:34Z</time>
      </trkpt>
      <trkpt lat="43.33478" lon="5.51487">
        <ele>339.48</ele>
        <time>2018-06-16T08:35:37Z</time>
      </trkpt>
      <trkpt lat="43.33481" lon="5.51491">
        <ele>339.48</ele>
        <time>2018-06-16T08:35:43Z</time>
      </trkpt>
      <trkpt lat="43.33486" lon="5.51495">
        <ele>339</ele>
        <time>2018-06-16T08:35:56Z</time>
      </trkpt>
      <trkpt lat="43.33486" lon="5.51496">
        <ele>339</ele>
        <time>2018-06-16T08:36:14Z</time>
      </trkpt>
      <trkpt lat="43.33488" lon="5.51498">
        <ele>339</ele>
        <time>2018-06-16T08:36:33Z</time>
      </trkpt>
      <trkpt lat="43.33489" lon="5.51497">
        <ele>339</ele>
        <time>2018-06-16T08:36:44Z</time>
      </trkpt>
      <trkpt lat="43.33498" lon="5.51496">
        <ele>338.52</ele>
        <time>2018-06-16T08:36:54Z</time>
      </trkpt>
      <trkpt lat="43.33507" lon="5.51499">
        <ele>340.44</ele>
        <time>2018-06-16T08:37:08Z</time>
      </trkpt>
      <trkpt lat="43.33509" lon="5.515">
        <ele>341.41</ele>
        <time>2018-06-16T08:37:15Z</time>
      </trkpt>
      <trkpt lat="43.33517" lon="5.51503">
        <ele>342.37</ele>
        <time>2018-06-16T08:37:30Z</time>
      </trkpt>
      <trkpt lat="43.33521" lon="5.51505">
        <ele>341.89</ele>
        <time>2018-06-16T08:37:36Z</time>
      </trkpt>
      <trkpt lat="43.33525" lon="5.51506">
        <ele>342.85</ele>
        <time>2018-06-16T08:37:45Z</time>
      </trkpt>
      <trkpt lat="43.3353" lon="5.51509">
        <ele>343.33</ele>
        <time>2018-06-16T08:37:55Z</time>
      </trkpt>
      <trkpt lat="43.33536" lon="5.51513">
        <ele>342.85</ele>
        <time>2018-06-16T08:38:06Z</time>
      </trkpt>
      <trkpt lat="43.33542" lon="5.51515">
        <ele>343.81</ele>
        <time>2018-06-16T08:38:17Z</time>
      </trkpt>
      <trkpt lat="43.33546" lon="5.51517">
        <ele>344.29</ele>
        <time>2018-06-16T08:38:22Z</time>
      </trkpt>
      <trkpt lat="43.3355" lon="5.51519">
        <ele>344.29</ele>
        <time>2018-06-16T08:38:25Z</time>
      </trkpt>
      <trkpt lat="43.33556" lon="5.51522">
        <ele>344.29</ele>
        <time>2018-06-16T08:38:33Z</time>
      </trkpt>
      <trkpt lat="43.33556" lon="5.51523">
        <ele>344.77</ele>
        <time>2018-06-16T08:38:34Z</time>
      </trkpt>
      <trkpt lat="43.33564" lon="5.51532">
        <ele>344.77</ele>
        <time>2018-06-16T08:38:48Z</time>
      </trkpt>
      <trkpt lat="43.33568" lon="5.51538">
        <ele>344.77</ele>
        <time>2018-06-16T08:39:03Z</time>
      </trkpt>
      <trkpt lat="43.33571" lon="5.51541">
        <ele>345.25</ele>
        <time>2018-06-16T08:39:13Z</time>
      </trkpt>
      <trkpt lat="43.33574" lon="5.51544">
        <ele>345.73</ele>
        <time>2018-06-16T08:39:23Z</time>
      </trkpt>
      <trkpt lat="43.33582" lon="5.51548">
        <ele>345.73</ele>
        <time>2018-06-16T08:39:35Z</time>
      </trkpt>
      <trkpt lat="43.33587" lon="5.51555">
        <ele>346.21</ele>
        <time>2018-06-16T08:39:49Z</time>
      </trkpt>
      <trkpt lat="43.3359" lon="5.51566">
        <ele>346.21</ele>
        <time>2018-06-16T08:40:03Z</time>
      </trkpt>
      <trkpt lat="43.3359" lon="5.51569">
        <ele>346.69</ele>
        <time>2018-06-16T08:40:07Z</time>
      </trkpt>
      <trkpt lat="43.33592" lon="5.51572">
        <ele>346.21</ele>
        <time>2018-06-16T08:40:14Z</time>
      </trkpt>
      <trkpt lat="43.33593" lon="5.51574">
        <ele>346.69</ele>
        <time>2018-06-16T08:40:27Z</time>
      </trkpt>
      <trkpt lat="43.33596" lon="5.51582">
        <ele>347.17</ele>
        <time>2018-06-16T08:40:36Z</time>
      </trkpt>
      <trkpt lat="43.33597" lon="5.51586">
        <ele>346.69</ele>
        <time>2018-06-16T08:40:46Z</time>
      </trkpt>
      <trkpt lat="43.33597" lon="5.51586">
        <ele>346.69</ele>
        <time>2018-06-16T08:40:47Z</time>
      </trkpt>
      <trkpt lat="43.33601" lon="5.51593">
        <ele>347.17</ele>
        <time>2018-06-16T08:40:57Z</time>
      </trkpt>
      <trkpt lat="43.33604" lon="5.51598">
        <ele>347.17</ele>
        <time>2018-06-16T08:41:08Z</time>
      </trkpt>
      <trkpt lat="43.33605" lon="5.516">
        <ele>347.65</ele>
        <time>2018-06-16T08:41:18Z</time>
      </trkpt>
      <trkpt lat="43.33607" lon="5.51603">
        <ele>347.17</ele>
        <time>2018-06-16T08:41:22Z</time>
      </trkpt>
      <trkpt lat="43.33606" lon="5.51607">
        <ele>347.17</ele>
        <time>2018-06-16T08:41:26Z</time>
      </trkpt>
      <trkpt lat="43.3361" lon="5.51614">
        <ele>348.13</ele>
        <time>2018-06-16T08:41:36Z</time>
      </trkpt>
      <trkpt lat="43.33609" lon="5.51621">
        <ele>348.13</ele>
        <time>2018-06-16T08:41:45Z</time>
      </trkpt>
      <trkpt lat="43.33609" lon="5.51634">
        <ele>348.62</ele>
        <time>2018-06-16T08:41:56Z</time>
      </trkpt>
      <trkpt lat="43.33607" lon="5.51649">
        <ele>349.1</ele>
        <time>2018-06-16T08:42:07Z</time>
      </trkpt>
      <trkpt lat="43.33611" lon="5.51659">
        <ele>349.58</ele>
        <time>2018-06-16T08:42:17Z</time>
      </trkpt>
      <trkpt lat="43.33611" lon="5.51661">
        <ele>349.58</ele>
        <time>2018-06-16T08:42:21Z</time>
      </trkpt>
      <trkpt lat="43.33613" lon="5.51664">
        <ele>349.1</ele>
        <time>2018-06-16T08:42:24Z</time>
      </trkpt>
      <trkpt lat="43.33618" lon="5.51668">
        <ele>350.06</ele>
        <time>2018-06-16T08:42:34Z</time>
      </trkpt>
      <trkpt lat="43.33625" lon="5.51673">
        <ele>349.58</ele>
        <time>2018-06-16T08:42:42Z</time>
      </trkpt>
      <trkpt lat="43.33632" lon="5.51677">
        <ele>350.54</ele>
        <time>2018-06-16T08:42:49Z</time>
      </trkpt>
      <trkpt lat="43.33634" lon="5.51679">
        <ele>351.5</ele>
        <time>2018-06-16T08:42:53Z</time>
      </trkpt>
      <trkpt lat="43.33642" lon="5.51688">
        <ele>351.98</ele>
        <time>2018-06-16T08:43:05Z</time>
      </trkpt>
      <trkpt lat="43.33644" lon="5.51689">
        <ele>352.46</ele>
        <time>2018-06-16T08:43:07Z</time>
      </trkpt>
      <trkpt lat="43.33648" lon="5.51694">
        <ele>352.94</ele>
        <time>2018-06-16T08:43:13Z</time>
      </trkpt>
      <trkpt lat="43.33657" lon="5.517">
        <ele>351.98</ele>
        <time>2018-06-16T08:43:23Z</time>
      </trkpt>
      <trkpt lat="43.33657" lon="5.51701">
        <ele>352.46</ele>
        <time>2018-06-16T08:43:24Z</time>
      </trkpt>
      <trkpt lat="43.33662" lon="5.51709">
        <ele>353.42</ele>
        <time>2018-06-16T08:43:36Z</time>
      </trkpt>
      <trkpt lat="43.33664" lon="5.5171">
        <ele>353.9</ele>
        <time>2018-06-16T08:43:40Z</time>
      </trkpt>
      <trkpt lat="43.33671" lon="5.51718">
        <ele>353.9</ele>
        <time>2018-06-16T08:43:53Z</time>
      </trkpt>
      <trkpt lat="43.33672" lon="5.5172">
        <ele>354.86</ele>
        <time>2018-06-16T08:44:05Z</time>
      </trkpt>
      <trkpt lat="43.33672" lon="5.51727">
        <ele>355.34</ele>
        <time>2018-06-16T08:44:14Z</time>
      </trkpt>
      <trkpt lat="43.33671" lon="5.51743">
        <ele>355.83</ele>
        <time>2018-06-16T08:44:28Z</time>
      </trkpt>
      <trkpt lat="43.3367" lon="5.51756">
        <ele>357.27</ele>
        <time>2018-06-16T08:44:40Z</time>
      </trkpt>
      <trkpt lat="43.33672" lon="5.51761">
        <ele>357.75</ele>
        <time>2018-06-16T08:44:48Z</time>
      </trkpt>
      <trkpt lat="43.33674" lon="5.51769">
        <ele>358.23</ele>
        <time>2018-06-16T08:44:57Z</time>
      </trkpt>
      <trkpt lat="43.33676" lon="5.51771">
        <ele>358.71</ele>
        <time>2018-06-16T08:45:05Z</time>
      </trkpt>
      <trkpt lat="43.33677" lon="5.51772">
        <ele>359.19</ele>
        <time>2018-06-16T08:45:08Z</time>
      </trkpt>
      <trkpt lat="43.33682" lon="5.51778">
        <ele>359.67</ele>
        <time>2018-06-16T08:45:19Z</time>
      </trkpt>
      <trkpt lat="43.33686" lon="5.5178">
        <ele>360.63</ele>
        <time>2018-06-16T08:45:31Z</time>
      </trkpt>
      <trkpt lat="43.33687" lon="5.51779">
        <ele>360.63</ele>
        <time>2018-06-16T08:45:42Z</time>
      </trkpt>
      <trkpt lat="43.33692" lon="5.51779">
        <ele>361.11</ele>
        <time>2018-06-16T08:45:52Z</time>
      </trkpt>
      <trkpt lat="43.33695" lon="5.51786">
        <ele>363.04</ele>
        <time>2018-06-16T08:46:03Z</time>
      </trkpt>
      <trkpt lat="43.33697" lon="5.51787">
        <ele>363.04</ele>
        <time>2018-06-16T08:46:15Z</time>
      </trkpt>
      <trkpt lat="43.33699" lon="5.51788">
        <ele>364</ele>
        <time>2018-06-16T08:46:25Z</time>
      </trkpt>
      <trkpt lat="43.337" lon="5.51791">
        <ele>364</ele>
        <time>2018-06-16T08:46:28Z</time>
      </trkpt>
      <trkpt lat="43.33703" lon="5.51792">
        <ele>364</ele>
        <time>2018-06-16T08:46:33Z</time>
      </trkpt>
      <trkpt lat="43.33708" lon="5.51795">
        <ele>365.92</ele>
        <time>2018-06-16T08:46:46Z</time>
      </trkpt>
      <trkpt lat="43.33709" lon="5.51795">
        <ele>365.92</ele>
        <time>2018-06-16T08:46:47Z</time>
      </trkpt>
      <trkpt lat="43.33711" lon="5.51797">
        <ele>366.88</ele>
        <time>2018-06-16T08:46:58Z</time>
      </trkpt>
      <trkpt lat="43.33713" lon="5.51797">
        <ele>366.4</ele>
        <time>2018-06-16T08:47:10Z</time>
      </trkpt>
      <trkpt lat="43.33715" lon="5.518">
        <ele>366.4</ele>
        <time>2018-06-16T08:47:20Z</time>
      </trkpt>
      <trkpt lat="43.3372" lon="5.51805">
        <ele>366.4</ele>
        <time>2018-06-16T08:47:43Z</time>
      </trkpt>
      <trkpt lat="43.33721" lon="5.51804">
        <ele>366.4</ele>
        <time>2018-06-16T08:47:57Z</time>
      </trkpt>
      <trkpt lat="43.33721" lon="5.51805">
        <ele>365.92</ele>
        <time>2018-06-16T08:48:17Z</time>
      </trkpt>
      <trkpt lat="43.33722" lon="5.51806">
        <ele>365.92</ele>
        <time>2018-06-16T08:48:28Z</time>
      </trkpt>
      <trkpt lat="43.33723" lon="5.51801">
        <ele>365.92</ele>
        <time>2018-06-16T08:48:42Z</time>
      </trkpt>
      <trkpt lat="43.33724" lon="5.51802">
        <ele>366.4</ele>
        <time>2018-06-16T08:48:56Z</time>
      </trkpt>
      <trkpt lat="43.33724" lon="5.51804">
        <ele>365.92</ele>
        <time>2018-06-16T08:49:14Z</time>
      </trkpt>
      <trkpt lat="43.33724" lon="5.51804">
        <ele>365.44</ele>
        <time>2018-06-16T08:49:37Z</time>
      </trkpt>
      <trkpt lat="43.33724" lon="5.51803">
        <ele>365.44</ele>
        <time>2018-06-16T08:49:50Z</time>
      </trkpt>
      <trkpt lat="43.33724" lon="5.51803">
        <ele>365.92</ele>
        <time>2018-06-16T08:50:07Z</time>
      </trkpt>
      <trkpt lat="43.33723" lon="5.51802">
        <ele>365.92</ele>
        <time>2018-06-16T08:50:09Z</time>
      </trkpt>
      <trkpt lat="43.33721" lon="5.518">
        <ele>365.92</ele>
        <time>2018-06-16T08:50:20Z</time>
      </trkpt>
      <trkpt lat="43.33719" lon="5.51802">
        <ele>365.92</ele>
        <time>2018-06-16T08:50:39Z</time>
      </trkpt>
      <trkpt lat="43.3372" lon="5.51804">
        <ele>366.4</ele>
        <time>2018-06-16T08:50:53Z</time>
      </trkpt>
      <trkpt lat="43.3372" lon="5.51805">
        <ele>366.4</ele>
        <time>2018-06-16T08:51:03Z</time>
      </trkpt>
      <trkpt lat="43.33718" lon="5.51806">
        <ele>366.4</ele>
        <time>2018-06-16T08:51:28Z</time>
      </trkpt>
      <trkpt lat="43.33721" lon="5.51803">
        <ele>365.92</ele>
        <time>2018-06-16T08:51:44Z</time>
      </trkpt>
      <trkpt lat="43.33722" lon="5.51803">
        <ele>366.88</ele>
        <time>2018-06-16T08:51:57Z</time>
      </trkpt>
      <trkpt lat="43.33721" lon="5.51803">
        <ele>366.4</ele>
        <time>2018-06-16T08:52:09Z</time>
      </trkpt>
      <trkpt lat="43.3372" lon="5.51803">
        <ele>365.92</ele>
        <time>2018-06-16T08:52:17Z</time>
      </trkpt>
      <trkpt lat="43.33719" lon="5.51803">
        <ele>366.4</ele>
        <time>2018-06-16T08:52:27Z</time>
      </trkpt>
      <trkpt lat="43.3372" lon="5.51804">
        <ele>365.92</ele>
        <time>2018-06-16T08:52:37Z</time>
      </trkpt>
      <trkpt lat="43.33719" lon="5.51805">
        <ele>366.88</ele>
        <time>2018-06-16T08:52:48Z</time>
      </trkpt>
      <trkpt lat="43.3372" lon="5.51805">
        <ele>367.36</ele>
        <time>2018-06-16T08:52:58Z</time>
      </trkpt>
      <trkpt lat="43.3372" lon="5.51805">
        <ele>367.84</ele>
        <time>2018-06-16T08:53:13Z</time>
      </trkpt>
      <trkpt lat="43.33721" lon="5.51806">
        <ele>368.32</ele>
        <time>2018-06-16T08:53:27Z</time>
      </trkpt>
      <trkpt lat="43.33722" lon="5.51807">
        <ele>368.8</ele>
        <time>2018-06-16T08:53:39Z</time>
      </trkpt>
      <trkpt lat="43.33722" lon="5.51808">
        <ele>369.28</ele>
        <time>2018-06-16T08:53:59Z</time>
      </trkpt>
      <trkpt lat="43.33723" lon="5.5181">
        <ele>370.24</ele>
        <time>2018-06-16T08:54:09Z</time>
      </trkpt>
      <trkpt lat="43.33725" lon="5.51811">
        <ele>370.73</ele>
        <time>2018-06-16T08:54:21Z</time>
      </trkpt>
      <trkpt lat="43.33727" lon="5.51812">
        <ele>371.69</ele>
        <time>2018-06-16T08:54:29Z</time>
      </trkpt>
      <trkpt lat="43.33728" lon="5.51817">
        <ele>372.65</ele>
        <time>2018-06-16T08:54:40Z</time>
      </trkpt>
      <trkpt lat="43.33728" lon="5.5182">
        <ele>373.13</ele>
        <time>2018-06-16T08:54:50Z</time>
      </trkpt>
      <trkpt lat="43.33725" lon="5.51829">
        <ele>374.09</ele>
        <time>2018-06-16T08:55:03Z</time>
      </trkpt>
      <trkpt lat="43.33726" lon="5.51831">
        <ele>375.05</ele>
        <time>2018-06-16T08:55:06Z</time>
      </trkpt>
      <trkpt lat="43.33728" lon="5.51846">
        <ele>375.53</ele>
        <time>2018-06-16T08:55:21Z</time>
      </trkpt>
      <trkpt lat="43.3373" lon="5.51848">
        <ele>376.49</ele>
        <time>2018-06-16T08:55:25Z</time>
      </trkpt>
      <trkpt lat="43.33732" lon="5.51853">
        <ele>376.49</ele>
        <time>2018-06-16T08:55:32Z</time>
      </trkpt>
      <trkpt lat="43.33734" lon="5.5186">
        <ele>377.45</ele>
        <time>2018-06-16T08:55:44Z</time>
      </trkpt>
      <trkpt lat="43.33738" lon="5.51866">
        <ele>378.42</ele>
        <time>2018-06-16T08:55:55Z</time>
      </trkpt>
      <trkpt lat="43.33739" lon="5.51866">
        <ele>378.42</ele>
        <time>2018-06-16T08:55:58Z</time>
      </trkpt>
      <trkpt lat="43.33742" lon="5.51871">
        <ele>379.38</ele>
        <time>2018-06-16T08:56:03Z</time>
      </trkpt>
      <trkpt lat="43.33747" lon="5.51877">
        <ele>379.86</ele>
        <time>2018-06-16T08:56:12Z</time>
      </trkpt>
      <trkpt lat="43.33753" lon="5.51882">
        <ele>381.78</ele>
        <time>2018-06-16T08:56:24Z</time>
      </trkpt>
      <trkpt lat="43.33761" lon="5.51886">
        <ele>382.26</ele>
        <time>2018-06-16T08:56:37Z</time>
      </trkpt>
      <trkpt lat="43.33767" lon="5.51888">
        <ele>384.18</ele>
        <time>2018-06-16T08:56:51Z</time>
      </trkpt>
      <trkpt lat="43.33773" lon="5.51894">
        <ele>384.66</ele>
        <time>2018-06-16T08:57:05Z</time>
      </trkpt>
      <trkpt lat="43.33776" lon="5.51897">
        <ele>385.63</ele>
        <time>2018-06-16T08:57:12Z</time>
      </trkpt>
      <trkpt lat="43.33781" lon="5.51901">
        <ele>385.63</ele>
        <time>2018-06-16T08:57:24Z</time>
      </trkpt>
      <trkpt lat="43.33784" lon="5.51906">
        <ele>386.11</ele>
        <time>2018-06-16T08:57:35Z</time>
      </trkpt>
      <trkpt lat="43.33786" lon="5.51911">
        <ele>387.07</ele>
        <time>2018-06-16T08:57:45Z</time>
      </trkpt>
      <trkpt lat="43.33789" lon="5.51914">
        <ele>388.03</ele>
        <time>2018-06-16T08:58:01Z</time>
      </trkpt>
      <trkpt lat="43.33789" lon="5.51914">
        <ele>388.51</ele>
        <time>2018-06-16T08:58:15Z</time>
      </trkpt>
      <trkpt lat="43.33791" lon="5.51915">
        <ele>388.51</ele>
        <time>2018-06-16T08:58:35Z</time>
      </trkpt>
      <trkpt lat="43.33791" lon="5.51915">
        <ele>388.51</ele>
        <time>2018-06-16T08:59:03Z</time>
      </trkpt>
      <trkpt lat="43.33794" lon="5.51921">
        <ele>389.95</ele>
        <time>2018-06-16T08:59:16Z</time>
      </trkpt>
      <trkpt lat="43.33793" lon="5.51922">
        <ele>389.47</ele>
        <time>2018-06-16T08:59:30Z</time>
      </trkpt>
      <trkpt lat="43.33787" lon="5.5192">
        <ele>390.43</ele>
        <time>2018-06-16T08:59:43Z</time>
      </trkpt>
      <trkpt lat="43.33785" lon="5.51921">
        <ele>390.43</ele>
        <time>2018-06-16T08:59:55Z</time>
      </trkpt>
      <trkpt lat="43.33784" lon="5.51922">
        <ele>390.43</ele>
        <time>2018-06-16T09:00:12Z</time>
      </trkpt>
      <trkpt lat="43.33785" lon="5.5192">
        <ele>389.95</ele>
        <time>2018-06-16T09:00:27Z</time>
      </trkpt>
      <trkpt lat="43.33788" lon="5.51921">
        <ele>390.43</ele>
        <time>2018-06-16T09:00:41Z</time>
      </trkpt>
      <trkpt lat="43.33788" lon="5.51921">
        <ele>390.43</ele>
        <time>2018-06-16T09:00:58Z</time>
      </trkpt>
      <trkpt lat="43.33788" lon="5.51921">
        <ele>390.91</ele>
        <time>2018-06-16T09:01:11Z</time>
      </trkpt>
      <trkpt lat="43.33788" lon="5.51919">
        <ele>390.91</ele>
        <time>2018-06-16T09:01:22Z</time>
      </trkpt>
      <trkpt lat="43.33788" lon="5.51919">
        <ele>390.43</ele>
        <time>2018-06-16T09:01:47Z</time>
      </trkpt>
      <trkpt lat="43.33788" lon="5.51919">
        <ele>390.91</ele>
        <time>2018-06-16T09:02:16Z</time>
      </trkpt>
      <trkpt lat="43.33789" lon="5.51923">
        <ele>391.39</ele>
        <time>2018-06-16T09:02:28Z</time>
      </trkpt>
      <trkpt lat="43.3379" lon="5.51923">
        <ele>391.87</ele>
        <time>2018-06-16T09:02:48Z</time>
      </trkpt>
      <trkpt lat="43.33791" lon="5.51924">
        <ele>391.39</ele>
        <time>2018-06-16T09:03:07Z</time>
      </trkpt>
      <trkpt lat="43.3379" lon="5.51921">
        <ele>391.39</ele>
        <time>2018-06-16T09:03:20Z</time>
      </trkpt>
      <trkpt lat="43.3379" lon="5.51922">
        <ele>390.91</ele>
        <time>2018-06-16T09:03:33Z</time>
      </trkpt>
      <trkpt lat="43.33792" lon="5.51921">
        <ele>389.95</ele>
        <time>2018-06-16T09:03:43Z</time>
      </trkpt>
      <trkpt lat="43.33793" lon="5.5192">
        <ele>388.99</ele>
        <time>2018-06-16T09:03:56Z</time>
      </trkpt>
      <trkpt lat="43.33794" lon="5.51919">
        <ele>389.47</ele>
        <time>2018-06-16T09:04:11Z</time>
      </trkpt>
      <trkpt lat="43.33793" lon="5.51914">
        <ele>388.51</ele>
        <time>2018-06-16T09:04:21Z</time>
      </trkpt>
      <trkpt lat="43.33788" lon="5.51914">
        <ele>388.51</ele>
        <time>2018-06-16T09:04:32Z</time>
      </trkpt>
      <trkpt lat="43.3379" lon="5.51917">
        <ele>388.99</ele>
        <time>2018-06-16T09:04:39Z</time>
      </trkpt>
      <trkpt lat="43.33793" lon="5.51921">
        <ele>390.91</ele>
        <time>2018-06-16T09:04:52Z</time>
      </trkpt>
      <trkpt lat="43.33791" lon="5.51924">
        <ele>391.39</ele>
        <time>2018-06-16T09:05:02Z</time>
      </trkpt>
      <trkpt lat="43.33792" lon="5.51923">
        <ele>391.87</ele>
        <time>2018-06-16T09:05:14Z</time>
      </trkpt>
      <trkpt lat="43.33791" lon="5.51922">
        <ele>391.39</ele>
        <time>2018-06-16T09:05:26Z</time>
      </trkpt>
      <trkpt lat="43.33792" lon="5.51924">
        <ele>391.87</ele>
        <time>2018-06-16T09:05:42Z</time>
      </trkpt>
      <trkpt lat="43.33793" lon="5.51927">
        <ele>391.87</ele>
        <time>2018-06-16T09:05:59Z</time>
      </trkpt>
      <trkpt lat="43.33794" lon="5.51929">
        <ele>392.84</ele>
        <time>2018-06-16T09:06:11Z</time>
      </trkpt>
      <trkpt lat="43.33794" lon="5.5193">
        <ele>392.84</ele>
        <time>2018-06-16T09:06:13Z</time>
      </trkpt>
      <trkpt lat="43.33792" lon="5.51936">
        <ele>394.28</ele>
        <time>2018-06-16T09:06:22Z</time>
      </trkpt>
      <trkpt lat="43.33792" lon="5.5194">
        <ele>395.24</ele>
        <time>2018-06-16T09:06:35Z</time>
      </trkpt>
      <trkpt lat="43.33791" lon="5.51943">
        <ele>395.72</ele>
        <time>2018-06-16T09:06:47Z</time>
      </trkpt>
      <trkpt lat="43.33789" lon="5.51945">
        <ele>396.2</ele>
        <time>2018-06-16T09:06:51Z</time>
      </trkpt>
      <trkpt lat="43.3379" lon="5.51951">
        <ele>397.16</ele>
        <time>2018-06-16T09:06:57Z</time>
      </trkpt>
      <trkpt lat="43.33796" lon="5.51961">
        <ele>398.6</ele>
        <time>2018-06-16T09:07:10Z</time>
      </trkpt>
      <trkpt lat="43.33798" lon="5.51966">
        <ele>399.08</ele>
        <time>2018-06-16T09:07:21Z</time>
      </trkpt>
      <trkpt lat="43.33798" lon="5.51967">
        <ele>399.57</ele>
        <time>2018-06-16T09:07:33Z</time>
      </trkpt>
      <trkpt lat="43.33798" lon="5.51967">
        <ele>399.57</ele>
        <time>2018-06-16T09:07:56Z</time>
      </trkpt>
      <trkpt lat="43.338" lon="5.51972">
        <ele>399.57</ele>
        <time>2018-06-16T09:08:06Z</time>
      </trkpt>
      <trkpt lat="43.33803" lon="5.51982">
        <ele>401.49</ele>
        <time>2018-06-16T09:08:18Z</time>
      </trkpt>
      <trkpt lat="43.33807" lon="5.51991">
        <ele>402.45</ele>
        <time>2018-06-16T09:08:29Z</time>
      </trkpt>
      <trkpt lat="43.3381" lon="5.51999">
        <ele>403.41</ele>
        <time>2018-06-16T09:08:40Z</time>
      </trkpt>
      <trkpt lat="43.33813" lon="5.52006">
        <ele>404.37</ele>
        <time>2018-06-16T09:08:51Z</time>
      </trkpt>
      <trkpt lat="43.33818" lon="5.52011">
        <ele>404.85</ele>
        <time>2018-06-16T09:08:59Z</time>
      </trkpt>
      <trkpt lat="43.33821" lon="5.5202">
        <ele>406.77</ele>
        <time>2018-06-16T09:09:12Z</time>
      </trkpt>
      <trkpt lat="43.33825" lon="5.5203">
        <ele>408.22</ele>
        <time>2018-06-16T09:09:25Z</time>
      </trkpt>
      <trkpt lat="43.33829" lon="5.52037">
        <ele>409.66</ele>
        <time>2018-06-16T09:09:40Z</time>
      </trkpt>
      <trkpt lat="43.3383" lon="5.52041">
        <ele>410.62</ele>
        <time>2018-06-16T09:09:53Z</time>
      </trkpt>
      <trkpt lat="43.33833" lon="5.52051">
        <ele>412.06</ele>
        <time>2018-06-16T09:10:06Z</time>
      </trkpt>
      <trkpt lat="43.33837" lon="5.52055">
        <ele>413.5</ele>
        <time>2018-06-16T09:10:16Z</time>
      </trkpt>
      <trkpt lat="43.3384" lon="5.5206">
        <ele>413.98</ele>
        <time>2018-06-16T09:10:27Z</time>
      </trkpt>
      <trkpt lat="43.33841" lon="5.52065">
        <ele>415.43</ele>
        <time>2018-06-16T09:10:39Z</time>
      </trkpt>
      <trkpt lat="43.33843" lon="5.52072">
        <ele>416.39</ele>
        <time>2018-06-16T09:10:49Z</time>
      </trkpt>
      <trkpt lat="43.33843" lon="5.52072">
        <ele>415.91</ele>
        <time>2018-06-16T09:10:50Z</time>
      </trkpt>
      <trkpt lat="43.33845" lon="5.52076">
        <ele>416.87</ele>
        <time>2018-06-16T09:10:59Z</time>
      </trkpt>
      <trkpt lat="43.33845" lon="5.52076">
        <ele>416.39</ele>
        <time>2018-06-16T09:11:01Z</time>
      </trkpt>
      <trkpt lat="43.33846" lon="5.52079">
        <ele>417.83</ele>
        <time>2018-06-16T09:11:10Z</time>
      </trkpt>
      <trkpt lat="43.33849" lon="5.52086">
        <ele>418.79</ele>
        <time>2018-06-16T09:11:22Z</time>
      </trkpt>
      <trkpt lat="43.33854" lon="5.52092">
        <ele>420.23</ele>
        <time>2018-06-16T09:11:31Z</time>
      </trkpt>
      <trkpt lat="43.33856" lon="5.52096">
        <ele>420.71</ele>
        <time>2018-06-16T09:11:39Z</time>
      </trkpt>
      <trkpt lat="43.33857" lon="5.521">
        <ele>421.68</ele>
        <time>2018-06-16T09:11:49Z</time>
      </trkpt>
      <trkpt lat="43.33857" lon="5.52101">
        <ele>422.16</ele>
        <time>2018-06-16T09:12:02Z</time>
      </trkpt>
      <trkpt lat="43.33858" lon="5.52102">
        <ele>422.16</ele>
        <time>2018-06-16T09:12:19Z</time>
      </trkpt>
      <trkpt lat="43.33858" lon="5.52106">
        <ele>423.12</ele>
        <time>2018-06-16T09:12:35Z</time>
      </trkpt>
      <trkpt lat="43.33859" lon="5.52109">
        <ele>423.6</ele>
        <time>2018-06-16T09:12:51Z</time>
      </trkpt>
      <trkpt lat="43.33858" lon="5.52111">
        <ele>424.08</ele>
        <time>2018-06-16T09:13:05Z</time>
      </trkpt>
      <trkpt lat="43.33858" lon="5.52111">
        <ele>424.08</ele>
        <time>2018-06-16T09:13:20Z</time>
      </trkpt>
      <trkpt lat="43.33858" lon="5.52112">
        <ele>424.08</ele>
        <time>2018-06-16T09:13:36Z</time>
      </trkpt>
      <trkpt lat="43.33858" lon="5.52112">
        <ele>424.08</ele>
        <time>2018-06-16T09:13:53Z</time>
      </trkpt>
      <trkpt lat="43.33854" lon="5.52114">
        <ele>425.04</ele>
        <time>2018-06-16T09:14:07Z</time>
      </trkpt>
      <trkpt lat="43.33852" lon="5.52121">
        <ele>426.96</ele>
        <time>2018-06-16T09:14:19Z</time>
      </trkpt>
      <trkpt lat="43.33851" lon="5.52124">
        <ele>428.4</ele>
        <time>2018-06-16T09:14:28Z</time>
      </trkpt>
      <trkpt lat="43.33848" lon="5.52126">
        <ele>429.85</ele>
        <time>2018-06-16T09:14:38Z</time>
      </trkpt>
      <trkpt lat="43.33847" lon="5.52128">
        <ele>430.81</ele>
        <time>2018-06-16T09:14:42Z</time>
      </trkpt>
      <trkpt lat="43.33847" lon="5.52129">
        <ele>430.33</ele>
        <time>2018-06-16T09:14:57Z</time>
      </trkpt>
      <trkpt lat="43.33848" lon="5.5213">
        <ele>430.33</ele>
        <time>2018-06-16T09:15:15Z</time>
      </trkpt>
      <trkpt lat="43.33848" lon="5.5213">
        <ele>430.81</ele>
        <time>2018-06-16T09:15:41Z</time>
      </trkpt>
      <trkpt lat="43.33847" lon="5.52134">
        <ele>432.73</ele>
        <time>2018-06-16T09:15:52Z</time>
      </trkpt>
      <trkpt lat="43.33845" lon="5.52139">
        <ele>433.21</ele>
        <time>2018-06-16T09:16:01Z</time>
      </trkpt>
      <trkpt lat="43.33843" lon="5.52144">
        <ele>434.65</ele>
        <time>2018-06-16T09:16:08Z</time>
      </trkpt>
      <trkpt lat="43.33842" lon="5.52149">
        <ele>435.61</ele>
        <time>2018-06-16T09:16:19Z</time>
      </trkpt>
      <trkpt lat="43.33843" lon="5.52152">
        <ele>437.06</ele>
        <time>2018-06-16T09:16:31Z</time>
      </trkpt>
      <trkpt lat="43.33842" lon="5.52152">
        <ele>437.54</ele>
        <time>2018-06-16T09:16:34Z</time>
      </trkpt>
      <trkpt lat="43.33841" lon="5.52159">
        <ele>437.54</ele>
        <time>2018-06-16T09:16:47Z</time>
      </trkpt>
      <trkpt lat="43.33841" lon="5.52161">
        <ele>438.02</ele>
        <time>2018-06-16T09:17:01Z</time>
      </trkpt>
      <trkpt lat="43.33841" lon="5.52162">
        <ele>438.98</ele>
        <time>2018-06-16T09:17:12Z</time>
      </trkpt>
      <trkpt lat="43.3384" lon="5.52168">
        <ele>440.42</ele>
        <time>2018-06-16T09:17:24Z</time>
      </trkpt>
      <trkpt lat="43.33843" lon="5.52176">
        <ele>441.86</ele>
        <time>2018-06-16T09:17:38Z</time>
      </trkpt>
      <trkpt lat="43.33843" lon="5.52179">
        <ele>442.82</ele>
        <time>2018-06-16T09:17:51Z</time>
      </trkpt>
      <trkpt lat="43.33842" lon="5.52178">
        <ele>442.82</ele>
        <time>2018-06-16T09:18:05Z</time>
      </trkpt>
      <trkpt lat="43.33841" lon="5.52181">
        <ele>443.31</ele>
        <time>2018-06-16T09:18:17Z</time>
      </trkpt>
      <trkpt lat="43.33839" lon="5.52189">
        <ele>445.71</ele>
        <time>2018-06-16T09:18:32Z</time>
      </trkpt>
      <trkpt lat="43.33838" lon="5.52192">
        <ele>446.67</ele>
        <time>2018-06-16T09:18:44Z</time>
      </trkpt>
      <trkpt lat="43.3384" lon="5.52198">
        <ele>448.11</ele>
        <time>2018-06-16T09:18:56Z</time>
      </trkpt>
      <trkpt lat="43.33841" lon="5.52201">
        <ele>449.55</ele>
        <time>2018-06-16T09:19:07Z</time>
      </trkpt>
      <trkpt lat="43.3384" lon="5.52201">
        <ele>450.03</ele>
        <time>2018-06-16T09:19:23Z</time>
      </trkpt>
      <trkpt lat="43.33836" lon="5.52202">
        <ele>450.52</ele>
        <time>2018-06-16T09:19:38Z</time>
      </trkpt>
      <trkpt lat="43.33836" lon="5.52207">
        <ele>452.44</ele>
        <time>2018-06-16T09:19:48Z</time>
      </trkpt>
      <trkpt lat="43.33834" lon="5.52212">
        <ele>453.88</ele>
        <time>2018-06-16T09:19:58Z</time>
      </trkpt>
      <trkpt lat="43.33832" lon="5.52216">
        <ele>455.32</ele>
        <time>2018-06-16T09:20:09Z</time>
      </trkpt>
      <trkpt lat="43.33831" lon="5.52219">
        <ele>455.32</ele>
        <time>2018-06-16T09:20:21Z</time>
      </trkpt>
      <trkpt lat="43.33831" lon="5.52218">
        <ele>455.8</ele>
        <time>2018-06-16T09:20:37Z</time>
      </trkpt>
      <trkpt lat="43.33831" lon="5.52218">
        <ele>456.28</ele>
        <time>2018-06-16T09:20:54Z</time>
      </trkpt>
      <trkpt lat="43.33831" lon="5.5222">
        <ele>455.8</ele>
        <time>2018-06-16T09:21:05Z</time>
      </trkpt>
      <trkpt lat="43.33832" lon="5.5222">
        <ele>455.8</ele>
        <time>2018-06-16T09:21:29Z</time>
      </trkpt>
      <trkpt lat="43.33832" lon="5.52221">
        <ele>456.28</ele>
        <time>2018-06-16T09:21:59Z</time>
      </trkpt>
      <trkpt lat="43.33832" lon="5.52219">
        <ele>455.8</ele>
        <time>2018-06-16T09:22:21Z</time>
      </trkpt>
      <trkpt lat="43.33832" lon="5.5222">
        <ele>456.76</ele>
        <time>2018-06-16T09:22:50Z</time>
      </trkpt>
      <trkpt lat="43.33832" lon="5.5222">
        <ele>456.28</ele>
        <time>2018-06-16T09:23:21Z</time>
      </trkpt>
      <trkpt lat="43.33831" lon="5.52219">
        <ele>457.24</ele>
        <time>2018-06-16T09:23:36Z</time>
      </trkpt>
      <trkpt lat="43.33831" lon="5.5222">
        <ele>457.24</ele>
        <time>2018-06-16T09:23:49Z</time>
      </trkpt>
      <trkpt lat="43.3383" lon="5.52219">
        <ele>458.69</ele>
        <time>2018-06-16T09:24:01Z</time>
      </trkpt>
      <trkpt lat="43.33825" lon="5.52222">
        <ele>460.61</ele>
        <time>2018-06-16T09:24:15Z</time>
      </trkpt>
      <trkpt lat="43.33821" lon="5.52221">
        <ele>462.05</ele>
        <time>2018-06-16T09:24:26Z</time>
      </trkpt>
      <trkpt lat="43.33819" lon="5.52226">
        <ele>463.49</ele>
        <time>2018-06-16T09:24:38Z</time>
      </trkpt>
      <trkpt lat="43.3382" lon="5.52234">
        <ele>465.42</ele>
        <time>2018-06-16T09:24:52Z</time>
      </trkpt>
      <trkpt lat="43.3382" lon="5.52235">
        <ele>466.38</ele>
        <time>2018-06-16T09:25:03Z</time>
      </trkpt>
      <trkpt lat="43.33819" lon="5.52237">
        <ele>466.86</ele>
        <time>2018-06-16T09:25:12Z</time>
      </trkpt>
      <trkpt lat="43.33818" lon="5.52242">
        <ele>468.3</ele>
        <time>2018-06-16T09:25:24Z</time>
      </trkpt>
      <trkpt lat="43.33822" lon="5.52246">
        <ele>469.74</ele>
        <time>2018-06-16T09:25:34Z</time>
      </trkpt>
      <trkpt lat="43.33819" lon="5.52249">
        <ele>470.7</ele>
        <time>2018-06-16T09:25:47Z</time>
      </trkpt>
      <trkpt lat="43.3382" lon="5.52251">
        <ele>471.66</ele>
        <time>2018-06-16T09:26:01Z</time>
      </trkpt>
      <trkpt lat="43.33817" lon="5.52251">
        <ele>473.11</ele>
        <time>2018-06-16T09:26:11Z</time>
      </trkpt>
      <trkpt lat="43.33816" lon="5.5225">
        <ele>473.11</ele>
        <time>2018-06-16T09:26:27Z</time>
      </trkpt>
      <trkpt lat="43.33816" lon="5.52251">
        <ele>473.11</ele>
        <time>2018-06-16T09:26:42Z</time>
      </trkpt>
      <trkpt lat="43.33817" lon="5.52255">
        <ele>474.07</ele>
        <time>2018-06-16T09:27:02Z</time>
      </trkpt>
      <trkpt lat="43.33813" lon="5.52259">
        <ele>475.03</ele>
        <time>2018-06-16T09:27:12Z</time>
      </trkpt>
      <trkpt lat="43.33812" lon="5.5226">
        <ele>475.99</ele>
        <time>2018-06-16T09:27:24Z</time>
      </trkpt>
      <trkpt lat="43.33812" lon="5.5226">
        <ele>476.95</ele>
        <time>2018-06-16T09:27:40Z</time>
      </trkpt>
      <trkpt lat="43.3381" lon="5.52265">
        <ele>477.91</ele>
        <time>2018-06-16T09:27:51Z</time>
      </trkpt>
      <trkpt lat="43.33809" lon="5.52267">
        <ele>478.87</ele>
        <time>2018-06-16T09:28:03Z</time>
      </trkpt>
      <trkpt lat="43.33808" lon="5.52267">
        <ele>478.39</ele>
        <time>2018-06-16T09:28:17Z</time>
      </trkpt>
      <trkpt lat="43.33807" lon="5.5227">
        <ele>480.32</ele>
        <time>2018-06-16T09:28:27Z</time>
      </trkpt>
      <trkpt lat="43.33806" lon="5.52272">
        <ele>481.76</ele>
        <time>2018-06-16T09:28:40Z</time>
      </trkpt>
      <trkpt lat="43.33808" lon="5.52274">
        <ele>482.72</ele>
        <time>2018-06-16T09:28:51Z</time>
      </trkpt>
      <trkpt lat="43.33809" lon="5.52278">
        <ele>483.68</ele>
        <time>2018-06-16T09:29:02Z</time>
      </trkpt>
      <trkpt lat="43.3381" lon="5.52278">
        <ele>483.68</ele>
        <time>2018-06-16T09:29:19Z</time>
      </trkpt>
      <trkpt lat="43.33809" lon="5.52279">
        <ele>483.2</ele>
        <time>2018-06-16T09:29:43Z</time>
      </trkpt>
      <trkpt lat="43.33809" lon="5.5228">
        <ele>483.2</ele>
        <time>2018-06-16T09:30:14Z</time>
      </trkpt>
      <trkpt lat="43.3381" lon="5.52279">
        <ele>483.2</ele>
        <time>2018-06-16T09:30:35Z</time>
      </trkpt>
      <trkpt lat="43.3381" lon="5.52278">
        <ele>483.68</ele>
        <time>2018-06-16T09:31:03Z</time>
      </trkpt>
      <trkpt lat="43.3381" lon="5.52278">
        <ele>482.72</ele>
        <time>2018-06-16T09:31:31Z</time>
      </trkpt>
      <trkpt lat="43.33811" lon="5.52278">
        <ele>484.16</ele>
        <time>2018-06-16T09:31:52Z</time>
      </trkpt>
      <trkpt lat="43.33811" lon="5.52278">
        <ele>484.16</ele>
        <time>2018-06-16T09:32:04Z</time>
      </trkpt>
      <trkpt lat="43.33813" lon="5.52283">
        <ele>485.6</ele>
        <time>2018-06-16T09:32:14Z</time>
      </trkpt>
      <trkpt lat="43.33811" lon="5.52289">
        <ele>487.05</ele>
        <time>2018-06-16T09:32:28Z</time>
      </trkpt>
      <trkpt lat="43.33811" lon="5.52293">
        <ele>488.97</ele>
        <time>2018-06-16T09:32:40Z</time>
      </trkpt>
      <trkpt lat="43.33811" lon="5.52297">
        <ele>490.41</ele>
        <time>2018-06-16T09:32:52Z</time>
      </trkpt>
      <trkpt lat="43.33812" lon="5.52302">
        <ele>491.37</ele>
        <time>2018-06-16T09:33:05Z</time>
      </trkpt>
      <trkpt lat="43.33813" lon="5.52305">
        <ele>492.81</ele>
        <time>2018-06-16T09:33:19Z</time>
      </trkpt>
      <trkpt lat="43.33813" lon="5.52308">
        <ele>494.26</ele>
        <time>2018-06-16T09:33:34Z</time>
      </trkpt>
      <trkpt lat="43.33814" lon="5.5231">
        <ele>495.22</ele>
        <time>2018-06-16T09:33:45Z</time>
      </trkpt>
      <trkpt lat="43.33814" lon="5.52311">
        <ele>496.66</ele>
        <time>2018-06-16T09:34:00Z</time>
      </trkpt>
      <trkpt lat="43.33812" lon="5.52311">
        <ele>497.14</ele>
        <time>2018-06-16T09:34:09Z</time>
      </trkpt>
      <trkpt lat="43.33813" lon="5.52315">
        <ele>498.1</ele>
        <time>2018-06-16T09:34:21Z</time>
      </trkpt>
      <trkpt lat="43.33814" lon="5.52316">
        <ele>498.58</ele>
        <time>2018-06-16T09:34:39Z</time>
      </trkpt>
      <trkpt lat="43.33814" lon="5.52317">
        <ele>499.06</ele>
        <time>2018-06-16T09:34:56Z</time>
      </trkpt>
      <trkpt lat="43.33814" lon="5.52317">
        <ele>499.06</ele>
        <time>2018-06-16T09:35:13Z</time>
      </trkpt>
      <trkpt lat="43.33815" lon="5.52319">
        <ele>500.02</ele>
        <time>2018-06-16T09:35:23Z</time>
      </trkpt>
      <trkpt lat="43.33814" lon="5.52323">
        <ele>500.5</ele>
        <time>2018-06-16T09:35:34Z</time>
      </trkpt>
      <trkpt lat="43.33814" lon="5.52324">
        <ele>501.95</ele>
        <time>2018-06-16T09:35:43Z</time>
      </trkpt>
      <trkpt lat="43.33815" lon="5.52328">
        <ele>502.43</ele>
        <time>2018-06-16T09:35:55Z</time>
      </trkpt>
      <trkpt lat="43.33816" lon="5.52332">
        <ele>504.35</ele>
        <time>2018-06-16T09:36:09Z</time>
      </trkpt>
      <trkpt lat="43.33816" lon="5.52334">
        <ele>504.35</ele>
        <time>2018-06-16T09:36:23Z</time>
      </trkpt>
      <trkpt lat="43.33816" lon="5.52334">
        <ele>504.83</ele>
        <time>2018-06-16T09:36:42Z</time>
      </trkpt>
      <trkpt lat="43.33817" lon="5.52335">
        <ele>505.31</ele>
        <time>2018-06-16T09:36:58Z</time>
      </trkpt>
      <trkpt lat="43.33815" lon="5.52337">
        <ele>506.27</ele>
        <time>2018-06-16T09:37:10Z</time>
      </trkpt>
      <trkpt lat="43.33815" lon="5.52339">
        <ele>506.75</ele>
        <time>2018-06-16T09:37:25Z</time>
      </trkpt>
      <trkpt lat="43.33813" lon="5.5234">
        <ele>507.23</ele>
        <time>2018-06-16T09:37:45Z</time>
      </trkpt>
      <trkpt lat="43.33814" lon="5.52341">
        <ele>507.23</ele>
        <time>2018-06-16T09:38:02Z</time>
      </trkpt>
      <trkpt lat="43.33814" lon="5.52341">
        <ele>507.23</ele>
        <time>2018-06-16T09:38:15Z</time>
      </trkpt>
      <trkpt lat="43.33814" lon="5.52342">
        <ele>507.23</ele>
        <time>2018-06-16T09:38:42Z</time>
      </trkpt>
      <trkpt lat="43.33813" lon="5.52341">
        <ele>507.23</ele>
        <time>2018-06-16T09:39:06Z</time>
      </trkpt>
      <trkpt lat="43.33814" lon="5.52341">
        <ele>507.23</ele>
        <time>2018-06-16T09:39:31Z</time>
      </trkpt>
      <trkpt lat="43.33814" lon="5.52341">
        <ele>507.71</ele>
        <time>2018-06-16T09:39:55Z</time>
      </trkpt>
      <trkpt lat="43.33814" lon="5.52342">
        <ele>507.23</ele>
        <time>2018-06-16T09:40:13Z</time>
      </trkpt>
      <trkpt lat="43.33814" lon="5.52342">
        <ele>507.71</ele>
        <time>2018-06-16T09:40:40Z</time>
      </trkpt>
      <trkpt lat="43.33814" lon="5.52341">
        <ele>507.23</ele>
        <time>2018-06-16T09:41:11Z</time>
      </trkpt>
      <trkpt lat="43.33815" lon="5.52341">
        <ele>507.71</ele>
        <time>2018-06-16T09:41:28Z</time>
      </trkpt>
      <trkpt lat="43.33815" lon="5.52342">
        <ele>507.71</ele>
        <time>2018-06-16T09:41:44Z</time>
      </trkpt>
      <trkpt lat="43.33815" lon="5.52342">
        <ele>507.71</ele>
        <time>2018-06-16T09:42:05Z</time>
      </trkpt>
      <trkpt lat="43.33815" lon="5.52342">
        <ele>507.71</ele>
        <time>2018-06-16T09:42:34Z</time>
      </trkpt>
      <trkpt lat="43.33815" lon="5.52341">
        <ele>507.71</ele>
        <time>2018-06-16T09:42:55Z</time>
      </trkpt>
      <trkpt lat="43.33816" lon="5.52341">
        <ele>507.71</ele>
        <time>2018-06-16T09:43:14Z</time>
      </trkpt>
      <trkpt lat="43.33816" lon="5.52341">
        <ele>507.23</ele>
        <time>2018-06-16T09:43:36Z</time>
      </trkpt>
      <trkpt lat="43.33816" lon="5.52341">
        <ele>507.23</ele>
        <time>2018-06-16T09:43:56Z</time>
      </trkpt>
      <trkpt lat="43.33816" lon="5.52341">
        <ele>507.23</ele>
        <time>2018-06-16T09:43:57Z</time>
      </trkpt>
      <trkpt lat="43.33816" lon="5.5234">
        <ele>507.71</ele>
        <time>2018-06-16T09:44:06Z</time>
      </trkpt>
      <trkpt lat="43.33817" lon="5.52341">
        <ele>507.71</ele>
        <time>2018-06-16T09:44:19Z</time>
      </trkpt>
      <trkpt lat="43.33817" lon="5.52341">
        <ele>507.71</ele>
        <time>2018-06-16T09:44:31Z</time>
      </trkpt>
      <trkpt lat="43.33818" lon="5.52344">
        <ele>509.16</ele>
        <time>2018-06-16T09:44:42Z</time>
      </trkpt>
      <trkpt lat="43.33821" lon="5.52346">
        <ele>511.08</ele>
        <time>2018-06-16T09:44:55Z</time>
      </trkpt>
      <trkpt lat="43.33822" lon="5.5235">
        <ele>512.04</ele>
        <time>2018-06-16T09:45:07Z</time>
      </trkpt>
      <trkpt lat="43.33822" lon="5.52354">
        <ele>513.96</ele>
        <time>2018-06-16T09:45:21Z</time>
      </trkpt>
      <trkpt lat="43.33823" lon="5.52356">
        <ele>514.92</ele>
        <time>2018-06-16T09:45:33Z</time>
      </trkpt>
      <trkpt lat="43.33824" lon="5.52359">
        <ele>516.37</ele>
        <time>2018-06-16T09:45:44Z</time>
      </trkpt>
      <trkpt lat="43.33824" lon="5.52361">
        <ele>516.85</ele>
        <time>2018-06-16T09:45:57Z</time>
      </trkpt>
      <trkpt lat="43.33824" lon="5.52363">
        <ele>517.33</ele>
        <time>2018-06-16T09:46:08Z</time>
      </trkpt>
      <trkpt lat="43.33824" lon="5.52366">
        <ele>518.29</ele>
        <time>2018-06-16T09:46:20Z</time>
      </trkpt>
      <trkpt lat="43.33825" lon="5.52366">
        <ele>518.77</ele>
        <time>2018-06-16T09:46:26Z</time>
      </trkpt>
      <trkpt lat="43.33825" lon="5.52368">
        <ele>519.73</ele>
        <time>2018-06-16T09:46:38Z</time>
      </trkpt>
      <trkpt lat="43.33827" lon="5.52369">
        <ele>520.21</ele>
        <time>2018-06-16T09:46:51Z</time>
      </trkpt>
      <trkpt lat="43.33826" lon="5.5237">
        <ele>521.17</ele>
        <time>2018-06-16T09:46:53Z</time>
      </trkpt>
      <trkpt lat="43.33827" lon="5.52373">
        <ele>521.65</ele>
        <time>2018-06-16T09:47:04Z</time>
      </trkpt>
      <trkpt lat="43.33827" lon="5.52375">
        <ele>522.61</ele>
        <time>2018-06-16T09:47:19Z</time>
      </trkpt>
      <trkpt lat="43.33827" lon="5.52376">
        <ele>523.09</ele>
        <time>2018-06-16T09:47:35Z</time>
      </trkpt>
      <trkpt lat="43.33827" lon="5.52377">
        <ele>522.61</ele>
        <time>2018-06-16T09:47:52Z</time>
      </trkpt>
      <trkpt lat="43.33827" lon="5.52377">
        <ele>523.58</ele>
        <time>2018-06-16T09:48:06Z</time>
      </trkpt>
      <trkpt lat="43.33827" lon="5.52377">
        <ele>523.58</ele>
        <time>2018-06-16T09:48:10Z</time>
      </trkpt>
      <trkpt lat="43.33829" lon="5.5238">
        <ele>525.02</ele>
        <time>2018-06-16T09:48:20Z</time>
      </trkpt>
      <trkpt lat="43.3383" lon="5.52385">
        <ele>526.46</ele>
        <time>2018-06-16T09:48:28Z</time>
      </trkpt>
      <trkpt lat="43.33827" lon="5.52389">
        <ele>527.9</ele>
        <time>2018-06-16T09:48:41Z</time>
      </trkpt>
      <trkpt lat="43.33827" lon="5.52395">
        <ele>530.3</ele>
        <time>2018-06-16T09:48:53Z</time>
      </trkpt>
      <trkpt lat="43.33828" lon="5.52399">
        <ele>531.75</ele>
        <time>2018-06-16T09:49:05Z</time>
      </trkpt>
      <trkpt lat="43.33826" lon="5.52405">
        <ele>533.19</ele>
        <time>2018-06-16T09:49:15Z</time>
      </trkpt>
      <trkpt lat="43.33824" lon="5.52408">
        <ele>533.67</ele>
        <time>2018-06-16T09:49:24Z</time>
      </trkpt>
      <trkpt lat="43.33823" lon="5.52407">
        <ele>534.63</ele>
        <time>2018-06-16T09:49:32Z</time>
      </trkpt>
      <trkpt lat="43.33819" lon="5.52407">
        <ele>535.59</ele>
        <time>2018-06-16T09:49:42Z</time>
      </trkpt>
      <trkpt lat="43.33817" lon="5.52412">
        <ele>535.59</ele>
        <time>2018-06-16T09:49:52Z</time>
      </trkpt>
      <trkpt lat="43.33816" lon="5.52415">
        <ele>536.07</ele>
        <time>2018-06-16T09:50:04Z</time>
      </trkpt>
      <trkpt lat="43.33816" lon="5.52415">
        <ele>536.55</ele>
        <time>2018-06-16T09:50:23Z</time>
      </trkpt>
      <trkpt lat="43.33816" lon="5.52417">
        <ele>536.07</ele>
        <time>2018-06-16T09:50:39Z</time>
      </trkpt>
      <trkpt lat="43.33811" lon="5.52422">
        <ele>535.11</ele>
        <time>2018-06-16T09:50:53Z</time>
      </trkpt>
      <trkpt lat="43.33809" lon="5.52423">
        <ele>534.15</ele>
        <time>2018-06-16T09:51:03Z</time>
      </trkpt>
      <trkpt lat="43.33808" lon="5.52428">
        <ele>534.63</ele>
        <time>2018-06-16T09:51:13Z</time>
      </trkpt>
      <trkpt lat="43.33808" lon="5.52436">
        <ele>534.15</ele>
        <time>2018-06-16T09:51:24Z</time>
      </trkpt>
      <trkpt lat="43.33811" lon="5.52437">
        <ele>534.63</ele>
        <time>2018-06-16T09:51:35Z</time>
      </trkpt>
      <trkpt lat="43.33812" lon="5.52436">
        <ele>535.59</ele>
        <time>2018-06-16T09:51:46Z</time>
      </trkpt>
      <trkpt lat="43.33812" lon="5.52436">
        <ele>535.59</ele>
        <time>2018-06-16T09:51:57Z</time>
      </trkpt>
      <trkpt lat="43.33812" lon="5.52437">
        <ele>535.11</ele>
        <time>2018-06-16T09:52:08Z</time>
      </trkpt>
      <trkpt lat="43.33812" lon="5.52439">
        <ele>535.59</ele>
        <time>2018-06-16T09:52:20Z</time>
      </trkpt>
      <trkpt lat="43.33807" lon="5.52441">
        <ele>534.15</ele>
        <time>2018-06-16T09:52:32Z</time>
      </trkpt>
      <trkpt lat="43.33807" lon="5.52443">
        <ele>533.67</ele>
        <time>2018-06-16T09:52:45Z</time>
      </trkpt>
      <trkpt lat="43.33807" lon="5.52444">
        <ele>532.71</ele>
        <time>2018-06-16T09:52:54Z</time>
      </trkpt>
      <trkpt lat="43.33805" lon="5.52444">
        <ele>532.71</ele>
        <time>2018-06-16T09:53:05Z</time>
      </trkpt>
      <trkpt lat="43.33809" lon="5.52447">
        <ele>533.19</ele>
        <time>2018-06-16T09:53:17Z</time>
      </trkpt>
      <trkpt lat="43.3381" lon="5.52449">
        <ele>533.19</ele>
        <time>2018-06-16T09:53:26Z</time>
      </trkpt>
      <trkpt lat="43.33809" lon="5.52448">
        <ele>532.71</ele>
        <time>2018-06-16T09:53:43Z</time>
      </trkpt>
      <trkpt lat="43.33808" lon="5.52447">
        <ele>532.71</ele>
        <time>2018-06-16T09:53:56Z</time>
      </trkpt>
      <trkpt lat="43.33808" lon="5.52447">
        <ele>532.71</ele>
        <time>2018-06-16T09:54:06Z</time>
      </trkpt>
      <trkpt lat="43.33807" lon="5.52446">
        <ele>532.71</ele>
        <time>2018-06-16T09:54:19Z</time>
      </trkpt>
      <trkpt lat="43.33808" lon="5.52446">
        <ele>533.67</ele>
        <time>2018-06-16T09:54:28Z</time>
      </trkpt>
      <trkpt lat="43.3381" lon="5.52446">
        <ele>533.67</ele>
        <time>2018-06-16T09:54:42Z</time>
      </trkpt>
      <trkpt lat="43.33809" lon="5.52444">
        <ele>534.15</ele>
        <time>2018-06-16T09:54:54Z</time>
      </trkpt>
      <trkpt lat="43.33805" lon="5.52444">
        <ele>533.67</ele>
        <time>2018-06-16T09:55:08Z</time>
      </trkpt>
      <trkpt lat="43.33805" lon="5.52443">
        <ele>534.15</ele>
        <time>2018-06-16T09:55:09Z</time>
      </trkpt>
      <trkpt lat="43.33802" lon="5.52444">
        <ele>532.71</ele>
        <time>2018-06-16T09:55:20Z</time>
      </trkpt>
      <trkpt lat="43.338" lon="5.52445">
        <ele>532.71</ele>
        <time>2018-06-16T09:55:29Z</time>
      </trkpt>
      <trkpt lat="43.33803" lon="5.52446">
        <ele>532.71</ele>
        <time>2018-06-16T09:55:38Z</time>
      </trkpt>
      <trkpt lat="43.33804" lon="5.52445">
        <ele>532.71</ele>
        <time>2018-06-16T09:55:49Z</time>
      </trkpt>
      <trkpt lat="43.33804" lon="5.52445">
        <ele>532.71</ele>
        <time>2018-06-16T09:56:02Z</time>
      </trkpt>
      <trkpt lat="43.33808" lon="5.52446">
        <ele>533.19</ele>
        <time>2018-06-16T09:56:13Z</time>
      </trkpt>
      <trkpt lat="43.3381" lon="5.52447">
        <ele>533.19</ele>
        <time>2018-06-16T09:56:27Z</time>
      </trkpt>
      <trkpt lat="43.33812" lon="5.52449">
        <ele>533.67</ele>
        <time>2018-06-16T09:56:38Z</time>
      </trkpt>
      <trkpt lat="43.33813" lon="5.52452">
        <ele>532.71</ele>
        <time>2018-06-16T09:56:48Z</time>
      </trkpt>
      <trkpt lat="43.33812" lon="5.52451">
        <ele>532.71</ele>
        <time>2018-06-16T09:56:57Z</time>
      </trkpt>
      <trkpt lat="43.33813" lon="5.52452">
        <ele>532.71</ele>
        <time>2018-06-16T09:57:13Z</time>
      </trkpt>
      <trkpt lat="43.33814" lon="5.52451">
        <ele>533.19</ele>
        <time>2018-06-16T09:57:25Z</time>
      </trkpt>
      <trkpt lat="43.33814" lon="5.52453">
        <ele>532.71</ele>
        <time>2018-06-16T09:57:37Z</time>
      </trkpt>
      <trkpt lat="43.33817" lon="5.52456">
        <ele>532.23</ele>
        <time>2018-06-16T09:57:50Z</time>
      </trkpt>
      <trkpt lat="43.33818" lon="5.52456">
        <ele>531.75</ele>
        <time>2018-06-16T09:58:01Z</time>
      </trkpt>
      <trkpt lat="43.33821" lon="5.52456">
        <ele>533.19</ele>
        <time>2018-06-16T09:58:13Z</time>
      </trkpt>
      <trkpt lat="43.3382" lon="5.52456">
        <ele>533.19</ele>
        <time>2018-06-16T09:58:22Z</time>
      </trkpt>
      <trkpt lat="43.33821" lon="5.52453">
        <ele>534.63</ele>
        <time>2018-06-16T09:58:31Z</time>
      </trkpt>
      <trkpt lat="43.33821" lon="5.52452">
        <ele>533.67</ele>
        <time>2018-06-16T09:58:33Z</time>
      </trkpt>
      <trkpt lat="43.33819" lon="5.52451">
        <ele>534.15</ele>
        <time>2018-06-16T09:58:36Z</time>
      </trkpt>
      <trkpt lat="43.33819" lon="5.5245">
        <ele>534.63</ele>
        <time>2018-06-16T09:58:46Z</time>
      </trkpt>
      <trkpt lat="43.33816" lon="5.52448">
        <ele>534.63</ele>
        <time>2018-06-16T09:58:58Z</time>
      </trkpt>
      <trkpt lat="43.33815" lon="5.52444">
        <ele>535.59</ele>
        <time>2018-06-16T09:59:10Z</time>
      </trkpt>
      <trkpt lat="43.33815" lon="5.52442">
        <ele>536.07</ele>
        <time>2018-06-16T09:59:20Z</time>
      </trkpt>
      <trkpt lat="43.33815" lon="5.52438">
        <ele>536.55</ele>
        <time>2018-06-16T09:59:30Z</time>
      </trkpt>
      <trkpt lat="43.33815" lon="5.52438">
        <ele>537.03</ele>
        <time>2018-06-16T09:59:31Z</time>
      </trkpt>
      <trkpt lat="43.33814" lon="5.52436">
        <ele>536.55</ele>
        <time>2018-06-16T09:59:43Z</time>
      </trkpt>
      <trkpt lat="43.33814" lon="5.52436">
        <ele>536.55</ele>
        <time>2018-06-16T09:59:59Z</time>
      </trkpt>
      <trkpt lat="43.33814" lon="5.52436">
        <ele>536.55</ele>
        <time>2018-06-16T10:00:11Z</time>
      </trkpt>
      <trkpt lat="43.33814" lon="5.52436">
        <ele>537.03</ele>
        <time>2018-06-16T10:00:22Z</time>
      </trkpt>
      <trkpt lat="43.33813" lon="5.52436">
        <ele>536.55</ele>
        <time>2018-06-16T10:00:40Z</time>
      </trkpt>
      <trkpt lat="43.33814" lon="5.52436">
        <ele>536.55</ele>
        <time>2018-06-16T10:00:54Z</time>
      </trkpt>
      <trkpt lat="43.33815" lon="5.52436">
        <ele>537.03</ele>
        <time>2018-06-16T10:01:08Z</time>
      </trkpt>
      <trkpt lat="43.33815" lon="5.52436">
        <ele>536.07</ele>
        <time>2018-06-16T10:01:23Z</time>
      </trkpt>
      <trkpt lat="43.33815" lon="5.52436">
        <ele>537.51</ele>
        <time>2018-06-16T10:01:44Z</time>
      </trkpt>
      <trkpt lat="43.33815" lon="5.52436">
        <ele>537.51</ele>
        <time>2018-06-16T10:02:08Z</time>
      </trkpt>
      <trkpt lat="43.33815" lon="5.52436">
        <ele>537.03</ele>
        <time>2018-06-16T10:02:32Z</time>
      </trkpt>
      <trkpt lat="43.33814" lon="5.52436">
        <ele>536.55</ele>
        <time>2018-06-16T10:02:49Z</time>
      </trkpt>
      <trkpt lat="43.33814" lon="5.52433">
        <ele>536.07</ele>
        <time>2018-06-16T10:03:10Z</time>
      </trkpt>
      <trkpt lat="43.33815" lon="5.52432">
        <ele>537.51</ele>
        <time>2018-06-16T10:03:21Z</time>
      </trkpt>
      <trkpt lat="43.33815" lon="5.52431">
        <ele>536.55</ele>
        <time>2018-06-16T10:03:35Z</time>
      </trkpt>
      <trkpt lat="43.33815" lon="5.52431">
        <ele>537.51</ele>
        <time>2018-06-16T10:03:47Z</time>
      </trkpt>
      <trkpt lat="43.33815" lon="5.5243">
        <ele>537.51</ele>
        <time>2018-06-16T10:04:06Z</time>
      </trkpt>
      <trkpt lat="43.33815" lon="5.52431">
        <ele>537.03</ele>
        <time>2018-06-16T10:04:31Z</time>
      </trkpt>
      <trkpt lat="43.33816" lon="5.52428">
        <ele>537.03</ele>
        <time>2018-06-16T10:04:42Z</time>
      </trkpt>
      <trkpt lat="43.33818" lon="5.52426">
        <ele>537.51</ele>
        <time>2018-06-16T10:04:56Z</time>
      </trkpt>
      <trkpt lat="43.33817" lon="5.52426">
        <ele>537.51</ele>
        <time>2018-06-16T10:05:15Z</time>
      </trkpt>
      <trkpt lat="43.33817" lon="5.52426">
        <ele>537.51</ele>
        <time>2018-06-16T10:05:34Z</time>
      </trkpt>
      <trkpt lat="43.33818" lon="5.52426">
        <ele>537.51</ele>
        <time>2018-06-16T10:05:50Z</time>
      </trkpt>
      <trkpt lat="43.33817" lon="5.52426">
        <ele>537.51</ele>
        <time>2018-06-16T10:06:14Z</time>
      </trkpt>
      <trkpt lat="43.33817" lon="5.52425">
        <ele>537.51</ele>
        <time>2018-06-16T10:06:32Z</time>
      </trkpt>
      <trkpt lat="43.33817" lon="5.52423">
        <ele>537.51</ele>
        <time>2018-06-16T10:06:43Z</time>
      </trkpt>
      <trkpt lat="43.33817" lon="5.52424">
        <ele>537.51</ele>
        <time>2018-06-16T10:07:00Z</time>
      </trkpt>
      <trkpt lat="43.33816" lon="5.52424">
        <ele>537.99</ele>
        <time>2018-06-16T10:07:15Z</time>
      </trkpt>
      <trkpt lat="43.33816" lon="5.52422">
        <ele>537.99</ele>
        <time>2018-06-16T10:07:27Z</time>
      </trkpt>
      <trkpt lat="43.33815" lon="5.52423">
        <ele>537.03</ele>
        <time>2018-06-16T10:07:43Z</time>
      </trkpt>
      <trkpt lat="43.33814" lon="5.52425">
        <ele>536.55</ele>
        <time>2018-06-16T10:08:08Z</time>
      </trkpt>
      <trkpt lat="43.33814" lon="5.52425">
        <ele>537.51</ele>
        <time>2018-06-16T10:08:34Z</time>
      </trkpt>
      <trkpt lat="43.33814" lon="5.52425">
        <ele>537.03</ele>
        <time>2018-06-16T10:08:55Z</time>
      </trkpt>
      <trkpt lat="43.33814" lon="5.52424">
        <ele>537.51</ele>
        <time>2018-06-16T10:09:13Z</time>
      </trkpt>
      <trkpt lat="43.33815" lon="5.52424">
        <ele>537.03</ele>
        <time>2018-06-16T10:09:49Z</time>
      </trkpt>
      <trkpt lat="43.33815" lon="5.52424">
        <ele>537.51</ele>
        <time>2018-06-16T10:10:12Z</time>
      </trkpt>
      <trkpt lat="43.33815" lon="5.52424">
        <ele>537.03</ele>
        <time>2018-06-16T10:10:40Z</time>
      </trkpt>
      <trkpt lat="43.33815" lon="5.52424">
        <ele>536.55</ele>
        <time>2018-06-16T10:11:10Z</time>
      </trkpt>
      <trkpt lat="43.33815" lon="5.52424">
        <ele>536.55</ele>
        <time>2018-06-16T10:11:32Z</time>
      </trkpt>
      <trkpt lat="43.33815" lon="5.52424">
        <ele>537.51</ele>
        <time>2018-06-16T10:12:01Z</time>
      </trkpt>
      <trkpt lat="43.33815" lon="5.52424">
        <ele>537.51</ele>
        <time>2018-06-16T10:12:29Z</time>
      </trkpt>
      <trkpt lat="43.33815" lon="5.52424">
        <ele>537.03</ele>
        <time>2018-06-16T10:12:56Z</time>
      </trkpt>
      <trkpt lat="43.33815" lon="5.52424">
        <ele>537.03</ele>
        <time>2018-06-16T10:13:26Z</time>
      </trkpt>
      <trkpt lat="43.33815" lon="5.52424">
        <ele>537.03</ele>
        <time>2018-06-16T10:13:40Z</time>
      </trkpt>
      <trkpt lat="43.33815" lon="5.52424">
        <ele>537.51</ele>
        <time>2018-06-16T10:14:02Z</time>
      </trkpt>
      <trkpt lat="43.33815" lon="5.52424">
        <ele>537.51</ele>
        <time>2018-06-16T10:14:31Z</time>
      </trkpt>
      <trkpt lat="43.33815" lon="5.52424">
        <ele>537.03</ele>
        <time>2018-06-16T10:14:57Z</time>
      </trkpt>
      <trkpt lat="43.33814" lon="5.52423">
        <ele>537.51</ele>
        <time>2018-06-16T10:15:29Z</time>
      </trkpt>
      <trkpt lat="43.33814" lon="5.52423">
        <ele>537.51</ele>
        <time>2018-06-16T10:15:59Z</time>
      </trkpt>
      <trkpt lat="43.33815" lon="5.52423">
        <ele>537.51</ele>
        <time>2018-06-16T10:16:23Z</time>
      </trkpt>
      <trkpt lat="43.33815" lon="5.52424">
        <ele>537.99</ele>
        <time>2018-06-16T10:16:39Z</time>
      </trkpt>
      <trkpt lat="43.33815" lon="5.52423">
        <ele>537.99</ele>
        <time>2018-06-16T10:16:55Z</time>
      </trkpt>
      <trkpt lat="43.33816" lon="5.52423">
        <ele>537.99</ele>
        <time>2018-06-16T10:17:10Z</time>
      </trkpt>
      <trkpt lat="43.33816" lon="5.52423">
        <ele>537.99</ele>
        <time>2018-06-16T10:17:29Z</time>
      </trkpt>
      <trkpt lat="43.33816" lon="5.52424">
        <ele>537.51</ele>
        <time>2018-06-16T10:17:47Z</time>
      </trkpt>
      <trkpt lat="43.33816" lon="5.52423">
        <ele>538.48</ele>
        <time>2018-06-16T10:18:10Z</time>
      </trkpt>
      <trkpt lat="43.33816" lon="5.52424">
        <ele>537.51</ele>
        <time>2018-06-16T10:18:23Z</time>
      </trkpt>
      <trkpt lat="43.33816" lon="5.52424">
        <ele>537.99</ele>
        <time>2018-06-16T10:18:41Z</time>
      </trkpt>
      <trkpt lat="43.33816" lon="5.52424">
        <ele>538.48</ele>
        <time>2018-06-16T10:18:53Z</time>
      </trkpt>
      <trkpt lat="43.33817" lon="5.52425">
        <ele>538.48</ele>
        <time>2018-06-16T10:19:02Z</time>
      </trkpt>
      <trkpt lat="43.33821" lon="5.52432">
        <ele>538.96</ele>
        <time>2018-06-16T10:19:13Z</time>
      </trkpt>
      <trkpt lat="43.33824" lon="5.52438">
        <ele>538.96</ele>
        <time>2018-06-16T10:19:23Z</time>
      </trkpt>
      <trkpt lat="43.33828" lon="5.52444">
        <ele>538.96</ele>
        <time>2018-06-16T10:19:33Z</time>
      </trkpt>
      <trkpt lat="43.3383" lon="5.52449">
        <ele>538.48</ele>
        <time>2018-06-16T10:19:49Z</time>
      </trkpt>
      <trkpt lat="43.33831" lon="5.52453">
        <ele>537.99</ele>
        <time>2018-06-16T10:19:54Z</time>
      </trkpt>
      <trkpt lat="43.33831" lon="5.52456">
        <ele>537.51</ele>
        <time>2018-06-16T10:19:57Z</time>
      </trkpt>
      <trkpt lat="43.33833" lon="5.52457">
        <ele>537.51</ele>
        <time>2018-06-16T10:20:01Z</time>
      </trkpt>
      <trkpt lat="43.33833" lon="5.52459">
        <ele>537.51</ele>
        <time>2018-06-16T10:20:03Z</time>
      </trkpt>
      <trkpt lat="43.33836" lon="5.52463">
        <ele>536.55</ele>
        <time>2018-06-16T10:20:10Z</time>
      </trkpt>
      <trkpt lat="43.33838" lon="5.5247">
        <ele>535.59</ele>
        <time>2018-06-16T10:20:21Z</time>
      </trkpt>
      <trkpt lat="43.33842" lon="5.52481">
        <ele>534.63</ele>
        <time>2018-06-16T10:20:32Z</time>
      </trkpt>
      <trkpt lat="43.33842" lon="5.52484">
        <ele>534.63</ele>
        <time>2018-06-16T10:20:34Z</time>
      </trkpt>
      <trkpt lat="43.33846" lon="5.52491">
        <ele>535.11</ele>
        <time>2018-06-16T10:20:47Z</time>
      </trkpt>
      <trkpt lat="43.33846" lon="5.52491">
        <ele>534.63</ele>
        <time>2018-06-16T10:20:48Z</time>
      </trkpt>
      <trkpt lat="43.33846" lon="5.52495">
        <ele>534.63</ele>
        <time>2018-06-16T10:20:51Z</time>
      </trkpt>
      <trkpt lat="43.33848" lon="5.52503">
        <ele>534.15</ele>
        <time>2018-06-16T10:20:59Z</time>
      </trkpt>
      <trkpt lat="43.33848" lon="5.5251">
        <ele>532.71</ele>
        <time>2018-06-16T10:21:10Z</time>
      </trkpt>
      <trkpt lat="43.3385" lon="5.52521">
        <ele>532.71</ele>
        <time>2018-06-16T10:21:19Z</time>
      </trkpt>
      <trkpt lat="43.33857" lon="5.52539">
        <ele>533.67</ele>
        <time>2018-06-16T10:21:36Z</time>
      </trkpt>
      <trkpt lat="43.33859" lon="5.52548">
        <ele>531.75</ele>
        <time>2018-06-16T10:21:49Z</time>
      </trkpt>
      <trkpt lat="43.33862" lon="5.5255">
        <ele>531.27</ele>
        <time>2018-06-16T10:21:54Z</time>
      </trkpt>
      <trkpt lat="43.33864" lon="5.52554">
        <ele>531.75</ele>
        <time>2018-06-16T10:21:59Z</time>
      </trkpt>
      <trkpt lat="43.33865" lon="5.52561">
        <ele>532.23</ele>
        <time>2018-06-16T10:22:04Z</time>
      </trkpt>
      <trkpt lat="43.33869" lon="5.52568">
        <ele>532.71</ele>
        <time>2018-06-16T10:22:15Z</time>
      </trkpt>
      <trkpt lat="43.33872" lon="5.52575">
        <ele>533.19</ele>
        <time>2018-06-16T10:22:24Z</time>
      </trkpt>
      <trkpt lat="43.33872" lon="5.52578">
        <ele>533.67</ele>
        <time>2018-06-16T10:22:27Z</time>
      </trkpt>
      <trkpt lat="43.33872" lon="5.52583">
        <ele>533.19</ele>
        <time>2018-06-16T10:22:30Z</time>
      </trkpt>
      <trkpt lat="43.33874" lon="5.52587">
        <ele>533.67</ele>
        <time>2018-06-16T10:22:33Z</time>
      </trkpt>
      <trkpt lat="43.33875" lon="5.5259">
        <ele>533.19</ele>
        <time>2018-06-16T10:22:35Z</time>
      </trkpt>
      <trkpt lat="43.3388" lon="5.526">
        <ele>533.19</ele>
        <time>2018-06-16T10:22:43Z</time>
      </trkpt>
      <trkpt lat="43.3389" lon="5.52616">
        <ele>532.71</ele>
        <time>2018-06-16T10:22:57Z</time>
      </trkpt>
      <trkpt lat="43.33892" lon="5.52619">
        <ele>533.67</ele>
        <time>2018-06-16T10:23:03Z</time>
      </trkpt>
      <trkpt lat="43.33896" lon="5.52629">
        <ele>532.23</ele>
        <time>2018-06-16T10:23:15Z</time>
      </trkpt>
      <trkpt lat="43.33899" lon="5.52637">
        <ele>531.27</ele>
        <time>2018-06-16T10:23:24Z</time>
      </trkpt>
      <trkpt lat="43.339" lon="5.52642">
        <ele>530.79</ele>
        <time>2018-06-16T10:23:29Z</time>
      </trkpt>
      <trkpt lat="43.33904" lon="5.5265">
        <ele>530.3</ele>
        <time>2018-06-16T10:23:38Z</time>
      </trkpt>
      <trkpt lat="43.33906" lon="5.52654">
        <ele>530.79</ele>
        <time>2018-06-16T10:23:42Z</time>
      </trkpt>
      <trkpt lat="43.33906" lon="5.52665">
        <ele>530.3</ele>
        <time>2018-06-16T10:23:53Z</time>
      </trkpt>
      <trkpt lat="43.33906" lon="5.52665">
        <ele>531.27</ele>
        <time>2018-06-16T10:23:56Z</time>
      </trkpt>
      <trkpt lat="43.33907" lon="5.52667">
        <ele>531.27</ele>
        <time>2018-06-16T10:24:00Z</time>
      </trkpt>
      <trkpt lat="43.33909" lon="5.5267">
        <ele>530.3</ele>
        <time>2018-06-16T10:24:04Z</time>
      </trkpt>
      <trkpt lat="43.3391" lon="5.52676">
        <ele>530.3</ele>
        <time>2018-06-16T10:24:08Z</time>
      </trkpt>
      <trkpt lat="43.33911" lon="5.52679">
        <ele>530.3</ele>
        <time>2018-06-16T10:24:10Z</time>
      </trkpt>
      <trkpt lat="43.33914" lon="5.52686">
        <ele>529.82</ele>
        <time>2018-06-16T10:24:21Z</time>
      </trkpt>
      <trkpt lat="43.33915" lon="5.52688">
        <ele>529.82</ele>
        <time>2018-06-16T10:24:24Z</time>
      </trkpt>
      <trkpt lat="43.33916" lon="5.52691">
        <ele>529.82</ele>
        <time>2018-06-16T10:24:33Z</time>
      </trkpt>
      <trkpt lat="43.33917" lon="5.52693">
        <ele>529.34</ele>
        <time>2018-06-16T10:24:35Z</time>
      </trkpt>
      <trkpt lat="43.3392" lon="5.52704">
        <ele>529.82</ele>
        <time>2018-06-16T10:24:44Z</time>
      </trkpt>
      <trkpt lat="43.33924" lon="5.52709">
        <ele>529.82</ele>
        <time>2018-06-16T10:24:50Z</time>
      </trkpt>
      <trkpt lat="43.33931" lon="5.5272">
        <ele>530.3</ele>
        <time>2018-06-16T10:25:03Z</time>
      </trkpt>
      <trkpt lat="43.33934" lon="5.52729">
        <ele>530.3</ele>
        <time>2018-06-16T10:25:11Z</time>
      </trkpt>
      <trkpt lat="43.33938" lon="5.52738">
        <ele>529.34</ele>
        <time>2018-06-16T10:25:22Z</time>
      </trkpt>
      <trkpt lat="43.33938" lon="5.52741">
        <ele>529.82</ele>
        <time>2018-06-16T10:25:24Z</time>
      </trkpt>
      <trkpt lat="43.33941" lon="5.52751">
        <ele>529.82</ele>
        <time>2018-06-16T10:25:33Z</time>
      </trkpt>
      <trkpt lat="43.33945" lon="5.5276">
        <ele>530.3</ele>
        <time>2018-06-16T10:25:43Z</time>
      </trkpt>
      <trkpt lat="43.33946" lon="5.52762">
        <ele>529.82</ele>
        <time>2018-06-16T10:25:45Z</time>
      </trkpt>
      <trkpt lat="43.33946" lon="5.52764">
        <ele>530.3</ele>
        <time>2018-06-16T10:25:47Z</time>
      </trkpt>
      <trkpt lat="43.33948" lon="5.52767">
        <ele>529.82</ele>
        <time>2018-06-16T10:25:50Z</time>
      </trkpt>
      <trkpt lat="43.33954" lon="5.5278">
        <ele>530.3</ele>
        <time>2018-06-16T10:26:04Z</time>
      </trkpt>
      <trkpt lat="43.33955" lon="5.52784">
        <ele>529.34</ele>
        <time>2018-06-16T10:26:09Z</time>
      </trkpt>
      <trkpt lat="43.33956" lon="5.52788">
        <ele>530.3</ele>
        <time>2018-06-16T10:26:12Z</time>
      </trkpt>
      <trkpt lat="43.3396" lon="5.52794">
        <ele>530.3</ele>
        <time>2018-06-16T10:26:17Z</time>
      </trkpt>
      <trkpt lat="43.33963" lon="5.52799">
        <ele>530.3</ele>
        <time>2018-06-16T10:26:22Z</time>
      </trkpt>
      <trkpt lat="43.33966" lon="5.52806">
        <ele>530.3</ele>
        <time>2018-06-16T10:26:30Z</time>
      </trkpt>
      <trkpt lat="43.3397" lon="5.52814">
        <ele>530.79</ele>
        <time>2018-06-16T10:26:39Z</time>
      </trkpt>
      <trkpt lat="43.3397" lon="5.52816">
        <ele>530.79</ele>
        <time>2018-06-16T10:26:41Z</time>
      </trkpt>
      <trkpt lat="43.3397" lon="5.52819">
        <ele>531.27</ele>
        <time>2018-06-16T10:26:44Z</time>
      </trkpt>
      <trkpt lat="43.33973" lon="5.52827">
        <ele>531.75</ele>
        <time>2018-06-16T10:26:53Z</time>
      </trkpt>
      <trkpt lat="43.33974" lon="5.52835">
        <ele>532.71</ele>
        <time>2018-06-16T10:27:04Z</time>
      </trkpt>
      <trkpt lat="43.33974" lon="5.52836">
        <ele>532.71</ele>
        <time>2018-06-16T10:27:05Z</time>
      </trkpt>
      <trkpt lat="43.33976" lon="5.52842">
        <ele>532.71</ele>
        <time>2018-06-16T10:27:17Z</time>
      </trkpt>
      <trkpt lat="43.33979" lon="5.52851">
        <ele>533.67</ele>
        <time>2018-06-16T10:27:29Z</time>
      </trkpt>
      <trkpt lat="43.33981" lon="5.52858">
        <ele>534.15</ele>
        <time>2018-06-16T10:27:38Z</time>
      </trkpt>
      <trkpt lat="43.33984" lon="5.52866">
        <ele>534.63</ele>
        <time>2018-06-16T10:27:50Z</time>
      </trkpt>
      <trkpt lat="43.33989" lon="5.52878">
        <ele>536.07</ele>
        <time>2018-06-16T10:28:03Z</time>
      </trkpt>
      <trkpt lat="43.33989" lon="5.52879">
        <ele>535.59</ele>
        <time>2018-06-16T10:28:06Z</time>
      </trkpt>
      <trkpt lat="43.33994" lon="5.52887">
        <ele>536.55</ele>
        <time>2018-06-16T10:28:18Z</time>
      </trkpt>
      <trkpt lat="43.33994" lon="5.52894">
        <ele>536.55</ele>
        <time>2018-06-16T10:28:24Z</time>
      </trkpt>
      <trkpt lat="43.33997" lon="5.52905">
        <ele>537.03</ele>
        <time>2018-06-16T10:28:37Z</time>
      </trkpt>
      <trkpt lat="43.33997" lon="5.52906">
        <ele>537.51</ele>
        <time>2018-06-16T10:28:38Z</time>
      </trkpt>
      <trkpt lat="43.33997" lon="5.52909">
        <ele>537.99</ele>
        <time>2018-06-16T10:28:42Z</time>
      </trkpt>
      <trkpt lat="43.33998" lon="5.52912">
        <ele>537.51</ele>
        <time>2018-06-16T10:28:45Z</time>
      </trkpt>
      <trkpt lat="43.34" lon="5.52923">
        <ele>538.48</ele>
        <time>2018-06-16T10:28:56Z</time>
      </trkpt>
      <trkpt lat="43.34" lon="5.52928">
        <ele>537.99</ele>
        <time>2018-06-16T10:29:01Z</time>
      </trkpt>
      <trkpt lat="43.34002" lon="5.52938">
        <ele>537.99</ele>
        <time>2018-06-16T10:29:13Z</time>
      </trkpt>
      <trkpt lat="43.34003" lon="5.5295">
        <ele>538.48</ele>
        <time>2018-06-16T10:29:26Z</time>
      </trkpt>
      <trkpt lat="43.34005" lon="5.52958">
        <ele>538.96</ele>
        <time>2018-06-16T10:29:35Z</time>
      </trkpt>
      <trkpt lat="43.34007" lon="5.52961">
        <ele>539.92</ele>
        <time>2018-06-16T10:29:47Z</time>
      </trkpt>
      <trkpt lat="43.34009" lon="5.52968">
        <ele>540.88</ele>
        <time>2018-06-16T10:29:56Z</time>
      </trkpt>
      <trkpt lat="43.34012" lon="5.52978">
        <ele>541.36</ele>
        <time>2018-06-16T10:30:07Z</time>
      </trkpt>
      <trkpt lat="43.34013" lon="5.52988">
        <ele>541.84</ele>
        <time>2018-06-16T10:30:18Z</time>
      </trkpt>
      <trkpt lat="43.34013" lon="5.5299">
        <ele>541.36</ele>
        <time>2018-06-16T10:30:33Z</time>
      </trkpt>
      <trkpt lat="43.34016" lon="5.52997">
        <ele>542.8</ele>
        <time>2018-06-16T10:30:43Z</time>
      </trkpt>
      <trkpt lat="43.34017" lon="5.53007">
        <ele>543.76</ele>
        <time>2018-06-16T10:30:56Z</time>
      </trkpt>
      <trkpt lat="43.34017" lon="5.53014">
        <ele>544.72</ele>
        <time>2018-06-16T10:31:06Z</time>
      </trkpt>
      <trkpt lat="43.3402" lon="5.53023">
        <ele>545.69</ele>
        <time>2018-06-16T10:31:16Z</time>
      </trkpt>
      <trkpt lat="43.34019" lon="5.53025">
        <ele>546.17</ele>
        <time>2018-06-16T10:31:20Z</time>
      </trkpt>
      <trkpt lat="43.34021" lon="5.53033">
        <ele>546.65</ele>
        <time>2018-06-16T10:31:29Z</time>
      </trkpt>
      <trkpt lat="43.34025" lon="5.53042">
        <ele>548.09</ele>
        <time>2018-06-16T10:31:42Z</time>
      </trkpt>
      <trkpt lat="43.34026" lon="5.53046">
        <ele>549.05</ele>
        <time>2018-06-16T10:31:54Z</time>
      </trkpt>
      <trkpt lat="43.34027" lon="5.53049">
        <ele>549.53</ele>
        <time>2018-06-16T10:31:58Z</time>
      </trkpt>
      <trkpt lat="43.34032" lon="5.53055">
        <ele>550.01</ele>
        <time>2018-06-16T10:32:10Z</time>
      </trkpt>
      <trkpt lat="43.3404" lon="5.53062">
        <ele>551.93</ele>
        <time>2018-06-16T10:32:23Z</time>
      </trkpt>
      <trkpt lat="43.34046" lon="5.53064">
        <ele>550.97</ele>
        <time>2018-06-16T10:32:33Z</time>
      </trkpt>
      <trkpt lat="43.34052" lon="5.53066">
        <ele>551.93</ele>
        <time>2018-06-16T10:32:43Z</time>
      </trkpt>
      <trkpt lat="43.34054" lon="5.53066">
        <ele>552.9</ele>
        <time>2018-06-16T10:32:48Z</time>
      </trkpt>
      <trkpt lat="43.34056" lon="5.53066">
        <ele>553.86</ele>
        <time>2018-06-16T10:32:54Z</time>
      </trkpt>
      <trkpt lat="43.3406" lon="5.53068">
        <ele>554.34</ele>
        <time>2018-06-16T10:33:05Z</time>
      </trkpt>
      <trkpt lat="43.34063" lon="5.53069">
        <ele>555.3</ele>
        <time>2018-06-16T10:33:16Z</time>
      </trkpt>
      <trkpt lat="43.34071" lon="5.53074">
        <ele>555.78</ele>
        <time>2018-06-16T10:33:31Z</time>
      </trkpt>
      <trkpt lat="43.34078" lon="5.53076">
        <ele>557.7</ele>
        <time>2018-06-16T10:33:44Z</time>
      </trkpt>
      <trkpt lat="43.3408" lon="5.53077">
        <ele>557.22</ele>
        <time>2018-06-16T10:33:54Z</time>
      </trkpt>
      <trkpt lat="43.34081" lon="5.53078">
        <ele>557.22</ele>
        <time>2018-06-16T10:34:08Z</time>
      </trkpt>
      <trkpt lat="43.34083" lon="5.53079">
        <ele>556.74</ele>
        <time>2018-06-16T10:34:22Z</time>
      </trkpt>
      <trkpt lat="43.34084" lon="5.5308">
        <ele>556.74</ele>
        <time>2018-06-16T10:34:45Z</time>
      </trkpt>
      <trkpt lat="43.34086" lon="5.53081">
        <ele>557.7</ele>
        <time>2018-06-16T10:34:56Z</time>
      </trkpt>
      <trkpt lat="43.34092" lon="5.53091">
        <ele>557.7</ele>
        <time>2018-06-16T10:35:09Z</time>
      </trkpt>
      <trkpt lat="43.34097" lon="5.53101">
        <ele>558.66</ele>
        <time>2018-06-16T10:35:22Z</time>
      </trkpt>
      <trkpt lat="43.341" lon="5.53102">
        <ele>558.66</ele>
        <time>2018-06-16T10:35:43Z</time>
      </trkpt>
      <trkpt lat="43.34101" lon="5.53102">
        <ele>558.66</ele>
        <time>2018-06-16T10:36:01Z</time>
      </trkpt>
      <trkpt lat="43.34101" lon="5.53102">
        <ele>558.66</ele>
        <time>2018-06-16T10:36:16Z</time>
      </trkpt>
      <trkpt lat="43.34102" lon="5.53102">
        <ele>558.66</ele>
        <time>2018-06-16T10:36:45Z</time>
      </trkpt>
      <trkpt lat="43.34102" lon="5.53102">
        <ele>559.62</ele>
        <time>2018-06-16T10:37:02Z</time>
      </trkpt>
      <trkpt lat="43.34104" lon="5.53109">
        <ele>559.62</ele>
        <time>2018-06-16T10:37:22Z</time>
      </trkpt>
      <trkpt lat="43.34104" lon="5.53111">
        <ele>560.11</ele>
        <time>2018-06-16T10:37:24Z</time>
      </trkpt>
      <trkpt lat="43.34105" lon="5.53114">
        <ele>560.11</ele>
        <time>2018-06-16T10:37:27Z</time>
      </trkpt>
      <trkpt lat="43.34105" lon="5.53116">
        <ele>560.11</ele>
        <time>2018-06-16T10:37:29Z</time>
      </trkpt>
      <trkpt lat="43.34107" lon="5.5312">
        <ele>560.11</ele>
        <time>2018-06-16T10:37:32Z</time>
      </trkpt>
      <trkpt lat="43.34107" lon="5.53123">
        <ele>560.11</ele>
        <time>2018-06-16T10:37:34Z</time>
      </trkpt>
      <trkpt lat="43.34108" lon="5.53125">
        <ele>561.07</ele>
        <time>2018-06-16T10:37:36Z</time>
      </trkpt>
      <trkpt lat="43.34108" lon="5.53131">
        <ele>560.59</ele>
        <time>2018-06-16T10:37:40Z</time>
      </trkpt>
      <trkpt lat="43.34112" lon="5.53144">
        <ele>562.03</ele>
        <time>2018-06-16T10:37:54Z</time>
      </trkpt>
      <trkpt lat="43.34113" lon="5.53152">
        <ele>562.99</ele>
        <time>2018-06-16T10:38:05Z</time>
      </trkpt>
      <trkpt lat="43.34113" lon="5.53166">
        <ele>563.95</ele>
        <time>2018-06-16T10:38:19Z</time>
      </trkpt>
      <trkpt lat="43.34113" lon="5.53173">
        <ele>565.39</ele>
        <time>2018-06-16T10:38:37Z</time>
      </trkpt>
      <trkpt lat="43.34115" lon="5.53179">
        <ele>565.87</ele>
        <time>2018-06-16T10:38:47Z</time>
      </trkpt>
      <trkpt lat="43.34114" lon="5.53188">
        <ele>566.83</ele>
        <time>2018-06-16T10:38:57Z</time>
      </trkpt>
      <trkpt lat="43.34116" lon="5.53195">
        <ele>567.8</ele>
        <time>2018-06-16T10:39:07Z</time>
      </trkpt>
      <trkpt lat="43.34117" lon="5.53197">
        <ele>568.28</ele>
        <time>2018-06-16T10:39:09Z</time>
      </trkpt>
      <trkpt lat="43.34121" lon="5.53203">
        <ele>569.24</ele>
        <time>2018-06-16T10:39:22Z</time>
      </trkpt>
      <trkpt lat="43.34127" lon="5.53209">
        <ele>569.72</ele>
        <time>2018-06-16T10:39:34Z</time>
      </trkpt>
      <trkpt lat="43.34134" lon="5.5321">
        <ele>570.68</ele>
        <time>2018-06-16T10:39:44Z</time>
      </trkpt>
      <trkpt lat="43.34143" lon="5.53213">
        <ele>570.68</ele>
        <time>2018-06-16T10:39:58Z</time>
      </trkpt>
      <trkpt lat="43.34144" lon="5.53211">
        <ele>570.68</ele>
        <time>2018-06-16T10:40:07Z</time>
      </trkpt>
      <trkpt lat="43.34146" lon="5.53211">
        <ele>570.68</ele>
        <time>2018-06-16T10:40:12Z</time>
      </trkpt>
      <trkpt lat="43.34152" lon="5.53211">
        <ele>571.64</ele>
        <time>2018-06-16T10:40:22Z</time>
      </trkpt>
      <trkpt lat="43.3416" lon="5.5321">
        <ele>572.12</ele>
        <time>2018-06-16T10:40:31Z</time>
      </trkpt>
      <trkpt lat="43.34161" lon="5.5321">
        <ele>572.12</ele>
        <time>2018-06-16T10:40:32Z</time>
      </trkpt>
      <trkpt lat="43.34163" lon="5.5321">
        <ele>572.6</ele>
        <time>2018-06-16T10:40:34Z</time>
      </trkpt>
      <trkpt lat="43.34166" lon="5.53211">
        <ele>573.08</ele>
        <time>2018-06-16T10:40:40Z</time>
      </trkpt>
      <trkpt lat="43.34168" lon="5.53212">
        <ele>572.6</ele>
        <time>2018-06-16T10:40:43Z</time>
      </trkpt>
      <trkpt lat="43.34171" lon="5.53211">
        <ele>573.08</ele>
        <time>2018-06-16T10:40:46Z</time>
      </trkpt>
      <trkpt lat="43.34172" lon="5.53212">
        <ele>573.56</ele>
        <time>2018-06-16T10:40:49Z</time>
      </trkpt>
      <trkpt lat="43.34174" lon="5.53212">
        <ele>572.6</ele>
        <time>2018-06-16T10:40:54Z</time>
      </trkpt>
      <trkpt lat="43.3418" lon="5.53211">
        <ele>575.01</ele>
        <time>2018-06-16T10:41:05Z</time>
      </trkpt>
      <trkpt lat="43.34188" lon="5.53211">
        <ele>575.49</ele>
        <time>2018-06-16T10:41:18Z</time>
      </trkpt>
      <trkpt lat="43.34195" lon="5.53215">
        <ele>575.01</ele>
        <time>2018-06-16T10:41:29Z</time>
      </trkpt>
      <trkpt lat="43.34205" lon="5.53218">
        <ele>575.01</ele>
        <time>2018-06-16T10:41:41Z</time>
      </trkpt>
      <trkpt lat="43.34206" lon="5.53218">
        <ele>575.49</ele>
        <time>2018-06-16T10:41:44Z</time>
      </trkpt>
      <trkpt lat="43.34213" lon="5.53224">
        <ele>575.01</ele>
        <time>2018-06-16T10:41:54Z</time>
      </trkpt>
      <trkpt lat="43.34213" lon="5.53223">
        <ele>575.49</ele>
        <time>2018-06-16T10:41:55Z</time>
      </trkpt>
      <trkpt lat="43.34216" lon="5.53224">
        <ele>575.49</ele>
        <time>2018-06-16T10:41:58Z</time>
      </trkpt>
      <trkpt lat="43.34221" lon="5.53227">
        <ele>575.97</ele>
        <time>2018-06-16T10:42:07Z</time>
      </trkpt>
      <trkpt lat="43.34227" lon="5.53231">
        <ele>575.97</ele>
        <time>2018-06-16T10:42:16Z</time>
      </trkpt>
      <trkpt lat="43.3423" lon="5.53237">
        <ele>575.97</ele>
        <time>2018-06-16T10:42:26Z</time>
      </trkpt>
      <trkpt lat="43.34234" lon="5.53249">
        <ele>576.45</ele>
        <time>2018-06-16T10:42:39Z</time>
      </trkpt>
      <trkpt lat="43.34241" lon="5.53263">
        <ele>576.45</ele>
        <time>2018-06-16T10:42:54Z</time>
      </trkpt>
      <trkpt lat="43.34246" lon="5.53276">
        <ele>576.45</ele>
        <time>2018-06-16T10:43:07Z</time>
      </trkpt>
      <trkpt lat="43.34253" lon="5.53285">
        <ele>576.45</ele>
        <time>2018-06-16T10:43:19Z</time>
      </trkpt>
      <trkpt lat="43.34263" lon="5.53293">
        <ele>576.45</ele>
        <time>2018-06-16T10:43:33Z</time>
      </trkpt>
      <trkpt lat="43.34271" lon="5.53298">
        <ele>576.45</ele>
        <time>2018-06-16T10:43:46Z</time>
      </trkpt>
      <trkpt lat="43.34281" lon="5.53302">
        <ele>575.49</ele>
        <time>2018-06-16T10:43:58Z</time>
      </trkpt>
      <trkpt lat="43.34289" lon="5.5331">
        <ele>575.97</ele>
        <time>2018-06-16T10:44:11Z</time>
      </trkpt>
      <trkpt lat="43.34293" lon="5.53319">
        <ele>576.45</ele>
        <time>2018-06-16T10:44:24Z</time>
      </trkpt>
      <trkpt lat="43.34296" lon="5.53329">
        <ele>576.45</ele>
        <time>2018-06-16T10:44:36Z</time>
      </trkpt>
      <trkpt lat="43.343" lon="5.53335">
        <ele>577.89</ele>
        <time>2018-06-16T10:44:49Z</time>
      </trkpt>
      <trkpt lat="43.34303" lon="5.53342">
        <ele>578.37</ele>
        <time>2018-06-16T10:45:01Z</time>
      </trkpt>
      <trkpt lat="43.34307" lon="5.53347">
        <ele>579.81</ele>
        <time>2018-06-16T10:45:12Z</time>
      </trkpt>
      <trkpt lat="43.34309" lon="5.53352">
        <ele>581.73</ele>
        <time>2018-06-16T10:45:26Z</time>
      </trkpt>
      <trkpt lat="43.3431" lon="5.53358">
        <ele>582.22</ele>
        <time>2018-06-16T10:45:38Z</time>
      </trkpt>
      <trkpt lat="43.34311" lon="5.5336">
        <ele>582.7</ele>
        <time>2018-06-16T10:45:45Z</time>
      </trkpt>
      <trkpt lat="43.34317" lon="5.53371">
        <ele>583.18</ele>
        <time>2018-06-16T10:45:57Z</time>
      </trkpt>
      <trkpt lat="43.34322" lon="5.5338">
        <ele>584.14</ele>
        <time>2018-06-16T10:46:11Z</time>
      </trkpt>
      <trkpt lat="43.34328" lon="5.53388">
        <ele>584.62</ele>
        <time>2018-06-16T10:46:21Z</time>
      </trkpt>
      <trkpt lat="43.34337" lon="5.534">
        <ele>586.06</ele>
        <time>2018-06-16T10:46:34Z</time>
      </trkpt>
      <trkpt lat="43.34338" lon="5.53401">
        <ele>585.58</ele>
        <time>2018-06-16T10:46:40Z</time>
      </trkpt>
      <trkpt lat="43.34335" lon="5.53413">
        <ele>585.1</ele>
        <time>2018-06-16T10:46:51Z</time>
      </trkpt>
      <trkpt lat="43.34336" lon="5.53415">
        <ele>585.1</ele>
        <time>2018-06-16T10:47:02Z</time>
      </trkpt>
      <trkpt lat="43.34336" lon="5.53414">
        <ele>585.58</ele>
        <time>2018-06-16T10:47:18Z</time>
      </trkpt>
      <trkpt lat="43.34336" lon="5.53414">
        <ele>585.58</ele>
        <time>2018-06-16T10:47:30Z</time>
      </trkpt>
      <trkpt lat="43.34337" lon="5.53415">
        <ele>585.1</ele>
        <time>2018-06-16T10:47:46Z</time>
      </trkpt>
      <trkpt lat="43.34336" lon="5.53416">
        <ele>585.1</ele>
        <time>2018-06-16T10:47:55Z</time>
      </trkpt>
      <trkpt lat="43.34336" lon="5.53417">
        <ele>585.58</ele>
        <time>2018-06-16T10:48:16Z</time>
      </trkpt>
      <trkpt lat="43.34335" lon="5.53417">
        <ele>585.1</ele>
        <time>2018-06-16T10:48:35Z</time>
      </trkpt>
      <trkpt lat="43.34334" lon="5.53417">
        <ele>585.58</ele>
        <time>2018-06-16T10:48:58Z</time>
      </trkpt>
      <trkpt lat="43.34334" lon="5.53418">
        <ele>585.58</ele>
        <time>2018-06-16T10:49:20Z</time>
      </trkpt>
      <trkpt lat="43.34334" lon="5.53417">
        <ele>585.58</ele>
        <time>2018-06-16T10:49:37Z</time>
      </trkpt>
      <trkpt lat="43.34335" lon="5.53416">
        <ele>585.58</ele>
        <time>2018-06-16T10:49:56Z</time>
      </trkpt>
      <trkpt lat="43.34339" lon="5.53409">
        <ele>586.54</ele>
        <time>2018-06-16T10:50:08Z</time>
      </trkpt>
      <trkpt lat="43.34345" lon="5.53409">
        <ele>588.46</ele>
        <time>2018-06-16T10:50:20Z</time>
      </trkpt>
      <trkpt lat="43.34349" lon="5.53407">
        <ele>587.5</ele>
        <time>2018-06-16T10:50:31Z</time>
      </trkpt>
      <trkpt lat="43.34356" lon="5.53409">
        <ele>589.43</ele>
        <time>2018-06-16T10:50:44Z</time>
      </trkpt>
      <trkpt lat="43.34358" lon="5.53409">
        <ele>588.95</ele>
        <time>2018-06-16T10:50:59Z</time>
      </trkpt>
      <trkpt lat="43.34365" lon="5.5341">
        <ele>590.87</ele>
        <time>2018-06-16T10:51:10Z</time>
      </trkpt>
      <trkpt lat="43.34369" lon="5.53413">
        <ele>590.87</ele>
        <time>2018-06-16T10:51:17Z</time>
      </trkpt>
      <trkpt lat="43.34378" lon="5.53412">
        <ele>592.79</ele>
        <time>2018-06-16T10:51:29Z</time>
      </trkpt>
      <trkpt lat="43.34387" lon="5.53409">
        <ele>595.19</ele>
        <time>2018-06-16T10:51:44Z</time>
      </trkpt>
      <trkpt lat="43.34393" lon="5.53407">
        <ele>595.67</ele>
        <time>2018-06-16T10:51:56Z</time>
      </trkpt>
      <trkpt lat="43.344" lon="5.53403">
        <ele>597.12</ele>
        <time>2018-06-16T10:52:09Z</time>
      </trkpt>
      <trkpt lat="43.34406" lon="5.53401">
        <ele>597.6</ele>
        <time>2018-06-16T10:52:19Z</time>
      </trkpt>
      <trkpt lat="43.34412" lon="5.53398">
        <ele>597.6</ele>
        <time>2018-06-16T10:52:28Z</time>
      </trkpt>
      <trkpt lat="43.34417" lon="5.53397">
        <ele>597.6</ele>
        <time>2018-06-16T10:52:37Z</time>
      </trkpt>
      <trkpt lat="43.34419" lon="5.53395">
        <ele>597.6</ele>
        <time>2018-06-16T10:52:39Z</time>
      </trkpt>
      <trkpt lat="43.34422" lon="5.53395">
        <ele>597.6</ele>
        <time>2018-06-16T10:52:41Z</time>
      </trkpt>
      <trkpt lat="43.34425" lon="5.53393">
        <ele>598.08</ele>
        <time>2018-06-16T10:52:54Z</time>
      </trkpt>
      <trkpt lat="43.34429" lon="5.5339">
        <ele>598.08</ele>
        <time>2018-06-16T10:53:07Z</time>
      </trkpt>
      <trkpt lat="43.34432" lon="5.53386">
        <ele>598.56</ele>
        <time>2018-06-16T10:53:19Z</time>
      </trkpt>
      <trkpt lat="43.34433" lon="5.53385">
        <ele>598.08</ele>
        <time>2018-06-16T10:53:21Z</time>
      </trkpt>
      <trkpt lat="43.34437" lon="5.53383">
        <ele>599.52</ele>
        <time>2018-06-16T10:53:26Z</time>
      </trkpt>
      <trkpt lat="43.3445" lon="5.53378">
        <ele>599.04</ele>
        <time>2018-06-16T10:53:41Z</time>
      </trkpt>
      <trkpt lat="43.34452" lon="5.53378">
        <ele>599.52</ele>
        <time>2018-06-16T10:53:52Z</time>
      </trkpt>
      <trkpt lat="43.34457" lon="5.53379">
        <ele>600</ele>
        <time>2018-06-16T10:53:56Z</time>
      </trkpt>
      <trkpt lat="43.34459" lon="5.53379">
        <ele>600</ele>
        <time>2018-06-16T10:53:58Z</time>
      </trkpt>
      <trkpt lat="43.34466" lon="5.53382">
        <ele>600</ele>
        <time>2018-06-16T10:54:06Z</time>
      </trkpt>
      <trkpt lat="43.34468" lon="5.53385">
        <ele>600</ele>
        <time>2018-06-16T10:54:11Z</time>
      </trkpt>
      <trkpt lat="43.34475" lon="5.53391">
        <ele>600.48</ele>
        <time>2018-06-16T10:54:25Z</time>
      </trkpt>
      <trkpt lat="43.34483" lon="5.53397">
        <ele>601.92</ele>
        <time>2018-06-16T10:54:36Z</time>
      </trkpt>
      <trkpt lat="43.34488" lon="5.53402">
        <ele>601.92</ele>
        <time>2018-06-16T10:54:46Z</time>
      </trkpt>
      <trkpt lat="43.34497" lon="5.5341">
        <ele>603.36</ele>
        <time>2018-06-16T10:54:58Z</time>
      </trkpt>
      <trkpt lat="43.34498" lon="5.5341">
        <ele>603.36</ele>
        <time>2018-06-16T10:55:02Z</time>
      </trkpt>
      <trkpt lat="43.34507" lon="5.53415">
        <ele>604.33</ele>
        <time>2018-06-16T10:55:14Z</time>
      </trkpt>
      <trkpt lat="43.34514" lon="5.53416">
        <ele>605.29</ele>
        <time>2018-06-16T10:55:26Z</time>
      </trkpt>
      <trkpt lat="43.34521" lon="5.5342">
        <ele>606.25</ele>
        <time>2018-06-16T10:55:39Z</time>
      </trkpt>
      <trkpt lat="43.3452" lon="5.5342">
        <ele>605.77</ele>
        <time>2018-06-16T10:55:50Z</time>
      </trkpt>
      <trkpt lat="43.34518" lon="5.53418">
        <ele>605.77</ele>
        <time>2018-06-16T10:56:06Z</time>
      </trkpt>
      <trkpt lat="43.34518" lon="5.53417">
        <ele>606.25</ele>
        <time>2018-06-16T10:56:22Z</time>
      </trkpt>
      <trkpt lat="43.34519" lon="5.53419">
        <ele>606.25</ele>
        <time>2018-06-16T10:56:41Z</time>
      </trkpt>
      <trkpt lat="43.34519" lon="5.53419">
        <ele>605.77</ele>
        <time>2018-06-16T10:56:58Z</time>
      </trkpt>
      <trkpt lat="43.34518" lon="5.5342">
        <ele>605.77</ele>
        <time>2018-06-16T10:57:21Z</time>
      </trkpt>
      <trkpt lat="43.34518" lon="5.5342">
        <ele>605.77</ele>
        <time>2018-06-16T10:57:44Z</time>
      </trkpt>
      <trkpt lat="43.34517" lon="5.53421">
        <ele>605.77</ele>
        <time>2018-06-16T10:58:14Z</time>
      </trkpt>
      <trkpt lat="43.34518" lon="5.5342">
        <ele>605.77</ele>
        <time>2018-06-16T10:58:39Z</time>
      </trkpt>
      <trkpt lat="43.34521" lon="5.5342">
        <ele>606.25</ele>
        <time>2018-06-16T10:58:52Z</time>
      </trkpt>
      <trkpt lat="43.34529" lon="5.53423">
        <ele>607.69</ele>
        <time>2018-06-16T10:59:06Z</time>
      </trkpt>
      <trkpt lat="43.34536" lon="5.53428">
        <ele>608.17</ele>
        <time>2018-06-16T10:59:16Z</time>
      </trkpt>
      <trkpt lat="43.34544" lon="5.53436">
        <ele>609.61</ele>
        <time>2018-06-16T10:59:30Z</time>
      </trkpt>
      <trkpt lat="43.34551" lon="5.53445">
        <ele>610.57</ele>
        <time>2018-06-16T10:59:45Z</time>
      </trkpt>
      <trkpt lat="43.34555" lon="5.53451">
        <ele>611.54</ele>
        <time>2018-06-16T10:59:58Z</time>
      </trkpt>
      <trkpt lat="43.34563" lon="5.53456">
        <ele>612.98</ele>
        <time>2018-06-16T11:00:13Z</time>
      </trkpt>
      <trkpt lat="43.34567" lon="5.53458">
        <ele>613.94</ele>
        <time>2018-06-16T11:00:24Z</time>
      </trkpt>
      <trkpt lat="43.34573" lon="5.53457">
        <ele>614.9</ele>
        <time>2018-06-16T11:00:34Z</time>
      </trkpt>
      <trkpt lat="43.34582" lon="5.53457">
        <ele>615.86</ele>
        <time>2018-06-16T11:00:47Z</time>
      </trkpt>
      <trkpt lat="43.34588" lon="5.53452">
        <ele>617.78</ele>
        <time>2018-06-16T11:00:59Z</time>
      </trkpt>
      <trkpt lat="43.34589" lon="5.53449">
        <ele>618.26</ele>
        <time>2018-06-16T11:01:12Z</time>
      </trkpt>
      <trkpt lat="43.34588" lon="5.53447">
        <ele>617.78</ele>
        <time>2018-06-16T11:01:23Z</time>
      </trkpt>
      <trkpt lat="43.34589" lon="5.53446">
        <ele>617.78</ele>
        <time>2018-06-16T11:01:36Z</time>
      </trkpt>
      <trkpt lat="43.34588" lon="5.53445">
        <ele>617.78</ele>
        <time>2018-06-16T11:01:47Z</time>
      </trkpt>
      <trkpt lat="43.34589" lon="5.53442">
        <ele>617.78</ele>
        <time>2018-06-16T11:02:02Z</time>
      </trkpt>
      <trkpt lat="43.34588" lon="5.53442">
        <ele>617.3</ele>
        <time>2018-06-16T11:02:25Z</time>
      </trkpt>
      <trkpt lat="43.34587" lon="5.53442">
        <ele>617.3</ele>
        <time>2018-06-16T11:02:41Z</time>
      </trkpt>
      <trkpt lat="43.34586" lon="5.53442">
        <ele>617.78</ele>
        <time>2018-06-16T11:03:01Z</time>
      </trkpt>
      <trkpt lat="43.34585" lon="5.53444">
        <ele>618.26</ele>
        <time>2018-06-16T11:03:27Z</time>
      </trkpt>
      <trkpt lat="43.34584" lon="5.53445">
        <ele>617.3</ele>
        <time>2018-06-16T11:03:42Z</time>
      </trkpt>
      <trkpt lat="43.34584" lon="5.53446">
        <ele>617.3</ele>
        <time>2018-06-16T11:04:05Z</time>
      </trkpt>
      <trkpt lat="43.34584" lon="5.53448">
        <ele>617.3</ele>
        <time>2018-06-16T11:04:29Z</time>
      </trkpt>
      <trkpt lat="43.34584" lon="5.53448">
        <ele>617.3</ele>
        <time>2018-06-16T11:04:53Z</time>
      </trkpt>
      <trkpt lat="43.34584" lon="5.53449">
        <ele>617.3</ele>
        <time>2018-06-16T11:05:19Z</time>
      </trkpt>
      <trkpt lat="43.346" lon="5.53438">
        <ele>596.64</ele>
        <time>2018-06-16T11:12:24Z</time>
      </trkpt>
      <trkpt lat="43.34596" lon="5.53439">
        <ele>596.15</ele>
        <time>2018-06-16T11:12:25Z</time>
      </trkpt>
      <trkpt lat="43.34584" lon="5.53453">
        <ele>599.52</ele>
        <time>2018-06-16T11:12:38Z</time>
      </trkpt>
      <trkpt lat="43.34585" lon="5.5345">
        <ele>602.4</ele>
        <time>2018-06-16T11:12:41Z</time>
      </trkpt>
      <trkpt lat="43.34585" lon="5.53449">
        <ele>603.85</ele>
        <time>2018-06-16T11:12:43Z</time>
      </trkpt>
      <trkpt lat="43.34585" lon="5.53444">
        <ele>607.21</ele>
        <time>2018-06-16T11:12:53Z</time>
      </trkpt>
      <trkpt lat="43.34585" lon="5.53445">
        <ele>610.57</ele>
        <time>2018-06-16T11:12:58Z</time>
      </trkpt>
      <trkpt lat="43.34584" lon="5.53446">
        <ele>612.02</ele>
        <time>2018-06-16T11:13:00Z</time>
      </trkpt>
      <trkpt lat="43.34585" lon="5.53448">
        <ele>614.9</ele>
        <time>2018-06-16T11:13:05Z</time>
      </trkpt>
      <trkpt lat="43.34586" lon="5.53448">
        <ele>617.78</ele>
        <time>2018-06-16T11:13:10Z</time>
      </trkpt>
      <trkpt lat="43.34587" lon="5.53447">
        <ele>619.71</ele>
        <time>2018-06-16T11:13:14Z</time>
      </trkpt>
      <trkpt lat="43.34587" lon="5.53447">
        <ele>620.67</ele>
        <time>2018-06-16T11:13:16Z</time>
      </trkpt>
      <trkpt lat="43.34587" lon="5.53449">
        <ele>624.03</ele>
        <time>2018-06-16T11:13:24Z</time>
      </trkpt>
      <trkpt lat="43.34586" lon="5.53452">
        <ele>627.4</ele>
        <time>2018-06-16T11:13:42Z</time>
      </trkpt>
      <trkpt lat="43.34585" lon="5.53449">
        <ele>628.84</ele>
        <time>2018-06-16T11:14:04Z</time>
      </trkpt>
      <trkpt lat="43.34586" lon="5.53447">
        <ele>627.88</ele>
        <time>2018-06-16T11:14:26Z</time>
      </trkpt>
      <trkpt lat="43.34587" lon="5.53448">
        <ele>627.4</ele>
        <time>2018-06-16T11:14:45Z</time>
      </trkpt>
      <trkpt lat="43.34587" lon="5.53448">
        <ele>627.88</ele>
        <time>2018-06-16T11:15:08Z</time>
      </trkpt>
      <trkpt lat="43.34586" lon="5.53448">
        <ele>627.4</ele>
        <time>2018-06-16T11:15:29Z</time>
      </trkpt>
      <trkpt lat="43.34586" lon="5.53448">
        <ele>627.4</ele>
        <time>2018-06-16T11:15:47Z</time>
      </trkpt>
      <trkpt lat="43.34585" lon="5.53449">
        <ele>627.4</ele>
        <time>2018-06-16T11:16:08Z</time>
      </trkpt>
      <trkpt lat="43.34584" lon="5.5345">
        <ele>627.88</ele>
        <time>2018-06-16T11:16:30Z</time>
      </trkpt>
      <trkpt lat="43.34583" lon="5.53448">
        <ele>628.36</ele>
        <time>2018-06-16T11:16:58Z</time>
      </trkpt>
      <trkpt lat="43.34583" lon="5.53448">
        <ele>627.88</ele>
        <time>2018-06-16T11:17:19Z</time>
      </trkpt>
      <trkpt lat="43.34583" lon="5.53449">
        <ele>627.4</ele>
        <time>2018-06-16T11:17:42Z</time>
      </trkpt>
      <trkpt lat="43.34584" lon="5.53449">
        <ele>628.36</ele>
        <time>2018-06-16T11:18:05Z</time>
      </trkpt>
      <trkpt lat="43.34583" lon="5.53447">
        <ele>627.88</ele>
        <time>2018-06-16T11:18:24Z</time>
      </trkpt>
      <trkpt lat="43.34581" lon="5.53445">
        <ele>627.4</ele>
        <time>2018-06-16T11:18:41Z</time>
      </trkpt>
      <trkpt lat="43.34581" lon="5.53445">
        <ele>627.88</ele>
        <time>2018-06-16T11:19:06Z</time>
      </trkpt>
      <trkpt lat="43.34582" lon="5.53445">
        <ele>627.88</ele>
        <time>2018-06-16T11:19:26Z</time>
      </trkpt>
      <trkpt lat="43.34584" lon="5.53441">
        <ele>627.88</ele>
        <time>2018-06-16T11:19:51Z</time>
      </trkpt>
      <trkpt lat="43.34585" lon="5.53447">
        <ele>627.88</ele>
        <time>2018-06-16T11:20:17Z</time>
      </trkpt>
      <trkpt lat="43.34584" lon="5.53449">
        <ele>627.4</ele>
        <time>2018-06-16T11:20:47Z</time>
      </trkpt>
      <trkpt lat="43.34585" lon="5.53449">
        <ele>627.4</ele>
        <time>2018-06-16T11:21:18Z</time>
      </trkpt>
      <trkpt lat="43.34586" lon="5.53449">
        <ele>627.4</ele>
        <time>2018-06-16T11:21:48Z</time>
      </trkpt>
      <trkpt lat="43.34584" lon="5.53449">
        <ele>627.4</ele>
        <time>2018-06-16T11:22:23Z</time>
      </trkpt>
      <trkpt lat="43.34585" lon="5.53449">
        <ele>627.4</ele>
        <time>2018-06-16T11:22:54Z</time>
      </trkpt>
      <trkpt lat="43.34585" lon="5.53449">
        <ele>627.88</ele>
        <time>2018-06-16T11:23:25Z</time>
      </trkpt>
      <trkpt lat="43.34584" lon="5.5345">
        <ele>627.4</ele>
        <time>2018-06-16T11:23:57Z</time>
      </trkpt>
      <trkpt lat="43.34585" lon="5.5345">
        <ele>627.4</ele>
        <time>2018-06-16T11:24:16Z</time>
      </trkpt>
      <trkpt lat="43.34584" lon="5.53452">
        <ele>627.4</ele>
        <time>2018-06-16T11:24:37Z</time>
      </trkpt>
      <trkpt lat="43.34583" lon="5.53451">
        <ele>626.92</ele>
        <time>2018-06-16T11:25:01Z</time>
      </trkpt>
      <trkpt lat="43.34586" lon="5.53451">
        <ele>627.4</ele>
        <time>2018-06-16T11:25:23Z</time>
      </trkpt>
      <trkpt lat="43.34587" lon="5.5345">
        <ele>627.4</ele>
        <time>2018-06-16T11:25:43Z</time>
      </trkpt>
      <trkpt lat="43.34586" lon="5.53449">
        <ele>627.4</ele>
        <time>2018-06-16T11:26:08Z</time>
      </trkpt>
      <trkpt lat="43.34585" lon="5.53448">
        <ele>627.4</ele>
        <time>2018-06-16T11:26:31Z</time>
      </trkpt>
      <trkpt lat="43.34585" lon="5.53449">
        <ele>626.92</ele>
        <time>2018-06-16T11:26:53Z</time>
      </trkpt>
      <trkpt lat="43.34584" lon="5.53449">
        <ele>626.92</ele>
        <time>2018-06-16T11:27:11Z</time>
      </trkpt>
      <trkpt lat="43.34584" lon="5.5345">
        <ele>626.92</ele>
        <time>2018-06-16T11:27:33Z</time>
      </trkpt>
      <trkpt lat="43.34584" lon="5.53451">
        <ele>626.92</ele>
        <time>2018-06-16T11:27:55Z</time>
      </trkpt>
      <trkpt lat="43.34583" lon="5.53451">
        <ele>627.4</ele>
        <time>2018-06-16T11:28:20Z</time>
      </trkpt>
      <trkpt lat="43.34582" lon="5.53451">
        <ele>626.92</ele>
        <time>2018-06-16T11:28:43Z</time>
      </trkpt>
      <trkpt lat="43.34582" lon="5.53451">
        <ele>626.92</ele>
        <time>2018-06-16T11:29:04Z</time>
      </trkpt>
      <trkpt lat="43.34582" lon="5.53451">
        <ele>626.92</ele>
        <time>2018-06-16T11:29:32Z</time>
      </trkpt>
      <trkpt lat="43.34582" lon="5.53451">
        <ele>626.92</ele>
        <time>2018-06-16T11:29:58Z</time>
      </trkpt>
      <trkpt lat="43.34582" lon="5.53451">
        <ele>626.44</ele>
        <time>2018-06-16T11:30:27Z</time>
      </trkpt>
      <trkpt lat="43.34583" lon="5.53451">
        <ele>626.44</ele>
        <time>2018-06-16T11:30:53Z</time>
      </trkpt>
      <trkpt lat="43.34583" lon="5.53451">
        <ele>625.96</ele>
        <time>2018-06-16T11:31:16Z</time>
      </trkpt>
      <trkpt lat="43.34583" lon="5.5345">
        <ele>626.44</ele>
        <time>2018-06-16T11:31:41Z</time>
      </trkpt>
      <trkpt lat="43.34584" lon="5.5345">
        <ele>627.4</ele>
        <time>2018-06-16T11:31:52Z</time>
      </trkpt>
      <trkpt lat="43.34585" lon="5.53445">
        <ele>627.4</ele>
        <time>2018-06-16T11:32:05Z</time>
      </trkpt>
      <trkpt lat="43.34585" lon="5.53444">
        <ele>626.92</ele>
        <time>2018-06-16T11:32:20Z</time>
      </trkpt>
      <trkpt lat="43.34583" lon="5.53449">
        <ele>626.44</ele>
        <time>2018-06-16T11:32:35Z</time>
      </trkpt>
      <trkpt lat="43.34583" lon="5.53444">
        <ele>626.92</ele>
        <time>2018-06-16T11:32:49Z</time>
      </trkpt>
      <trkpt lat="43.34588" lon="5.53448">
        <ele>626.44</ele>
        <time>2018-06-16T11:33:09Z</time>
      </trkpt>
      <trkpt lat="43.34586" lon="5.53452">
        <ele>625.96</ele>
        <time>2018-06-16T11:33:32Z</time>
      </trkpt>
      <trkpt lat="43.34586" lon="5.53452">
        <ele>625.47</ele>
        <time>2018-06-16T11:33:57Z</time>
      </trkpt>
      <trkpt lat="43.34585" lon="5.53451">
        <ele>625.96</ele>
        <time>2018-06-16T11:34:22Z</time>
      </trkpt>
      <trkpt lat="43.34585" lon="5.53451">
        <ele>625.96</ele>
        <time>2018-06-16T11:34:45Z</time>
      </trkpt>
      <trkpt lat="43.34585" lon="5.53451">
        <ele>625.96</ele>
        <time>2018-06-16T11:35:16Z</time>
      </trkpt>
      <trkpt lat="43.34584" lon="5.5345">
        <ele>625.47</ele>
        <time>2018-06-16T11:35:46Z</time>
      </trkpt>
      <trkpt lat="43.34584" lon="5.5345">
        <ele>625.47</ele>
        <time>2018-06-16T11:36:15Z</time>
      </trkpt>
      <trkpt lat="43.34584" lon="5.5345">
        <ele>625.47</ele>
        <time>2018-06-16T11:36:44Z</time>
      </trkpt>
      <trkpt lat="43.34584" lon="5.5345">
        <ele>626.44</ele>
        <time>2018-06-16T11:37:18Z</time>
      </trkpt>
      <trkpt lat="43.34584" lon="5.53451">
        <ele>626.44</ele>
        <time>2018-06-16T11:37:46Z</time>
      </trkpt>
      <trkpt lat="43.34583" lon="5.53452">
        <ele>625.96</ele>
        <time>2018-06-16T11:38:22Z</time>
      </trkpt>
      <trkpt lat="43.34583" lon="5.53451">
        <ele>625.47</ele>
        <time>2018-06-16T11:38:59Z</time>
      </trkpt>
      <trkpt lat="43.34583" lon="5.53451">
        <ele>625.96</ele>
        <time>2018-06-16T11:39:25Z</time>
      </trkpt>
      <trkpt lat="43.34583" lon="5.5345">
        <ele>625.47</ele>
        <time>2018-06-16T11:39:46Z</time>
      </trkpt>
      <trkpt lat="43.34583" lon="5.5345">
        <ele>625.47</ele>
        <time>2018-06-16T11:40:08Z</time>
      </trkpt>
      <trkpt lat="43.34584" lon="5.53449">
        <ele>624.99</ele>
        <time>2018-06-16T11:40:31Z</time>
      </trkpt>
      <trkpt lat="43.34583" lon="5.53448">
        <ele>625.47</ele>
        <time>2018-06-16T11:40:51Z</time>
      </trkpt>
      <trkpt lat="43.34583" lon="5.53447">
        <ele>625.47</ele>
        <time>2018-06-16T11:41:08Z</time>
      </trkpt>
      <trkpt lat="43.34583" lon="5.53447">
        <ele>625.96</ele>
        <time>2018-06-16T11:41:27Z</time>
      </trkpt>
      <trkpt lat="43.34583" lon="5.53447">
        <ele>625.47</ele>
        <time>2018-06-16T11:41:47Z</time>
      </trkpt>
      <trkpt lat="43.34583" lon="5.53447">
        <ele>625.47</ele>
        <time>2018-06-16T11:42:05Z</time>
      </trkpt>
      <trkpt lat="43.34584" lon="5.53448">
        <ele>624.99</ele>
        <time>2018-06-16T11:42:26Z</time>
      </trkpt>
      <trkpt lat="43.34585" lon="5.53449">
        <ele>625.47</ele>
        <time>2018-06-16T11:42:55Z</time>
      </trkpt>
      <trkpt lat="43.34585" lon="5.53449">
        <ele>625.47</ele>
        <time>2018-06-16T11:43:20Z</time>
      </trkpt>
      <trkpt lat="43.34585" lon="5.53449">
        <ele>625.47</ele>
        <time>2018-06-16T11:43:38Z</time>
      </trkpt>
      <trkpt lat="43.34584" lon="5.53449">
        <ele>625.47</ele>
        <time>2018-06-16T11:44:03Z</time>
      </trkpt>
      <trkpt lat="43.34584" lon="5.53449">
        <ele>624.51</ele>
        <time>2018-06-16T11:44:35Z</time>
      </trkpt>
      <trkpt lat="43.34585" lon="5.53449">
        <ele>624.51</ele>
        <time>2018-06-16T11:44:57Z</time>
      </trkpt>
      <trkpt lat="43.34584" lon="5.53448">
        <ele>624.99</ele>
        <time>2018-06-16T11:45:23Z</time>
      </trkpt>
      <trkpt lat="43.34584" lon="5.53447">
        <ele>624.99</ele>
        <time>2018-06-16T11:45:48Z</time>
      </trkpt>
      <trkpt lat="43.34583" lon="5.53446">
        <ele>624.51</ele>
        <time>2018-06-16T11:46:17Z</time>
      </trkpt>
      <trkpt lat="43.34583" lon="5.53447">
        <ele>624.99</ele>
        <time>2018-06-16T11:46:43Z</time>
      </trkpt>
      <trkpt lat="43.34584" lon="5.53447">
        <ele>624.51</ele>
        <time>2018-06-16T11:47:14Z</time>
      </trkpt>
      <trkpt lat="43.34584" lon="5.53446">
        <ele>624.51</ele>
        <time>2018-06-16T11:47:44Z</time>
      </trkpt>
      <trkpt lat="43.34583" lon="5.53446">
        <ele>624.51</ele>
        <time>2018-06-16T11:48:06Z</time>
      </trkpt>
      <trkpt lat="43.34583" lon="5.53446">
        <ele>624.51</ele>
        <time>2018-06-16T11:48:33Z</time>
      </trkpt>
      <trkpt lat="43.34584" lon="5.53445">
        <ele>624.51</ele>
        <time>2018-06-16T11:48:59Z</time>
      </trkpt>
      <trkpt lat="43.34584" lon="5.53447">
        <ele>624.99</ele>
        <time>2018-06-16T11:49:24Z</time>
      </trkpt>
      <trkpt lat="43.34586" lon="5.53448">
        <ele>624.51</ele>
        <time>2018-06-16T11:49:53Z</time>
      </trkpt>
      <trkpt lat="43.34586" lon="5.53448">
        <ele>624.51</ele>
        <time>2018-06-16T11:50:19Z</time>
      </trkpt>
      <trkpt lat="43.34588" lon="5.53447">
        <ele>625.47</ele>
        <time>2018-06-16T11:50:36Z</time>
      </trkpt>
      <trkpt lat="43.34589" lon="5.53447">
        <ele>624.99</ele>
        <time>2018-06-16T11:50:48Z</time>
      </trkpt>
      <trkpt lat="43.34585" lon="5.53447">
        <ele>624.51</ele>
        <time>2018-06-16T11:51:01Z</time>
      </trkpt>
      <trkpt lat="43.34586" lon="5.53449">
        <ele>624.99</ele>
        <time>2018-06-16T11:51:12Z</time>
      </trkpt>
      <trkpt lat="43.34586" lon="5.53449">
        <ele>625.47</ele>
        <time>2018-06-16T11:51:13Z</time>
      </trkpt>
      <trkpt lat="43.34589" lon="5.53449">
        <ele>624.51</ele>
        <time>2018-06-16T11:51:27Z</time>
      </trkpt>
      <trkpt lat="43.34589" lon="5.5345">
        <ele>624.99</ele>
        <time>2018-06-16T11:51:52Z</time>
      </trkpt>
      <trkpt lat="43.34589" lon="5.53451">
        <ele>625.47</ele>
        <time>2018-06-16T11:52:21Z</time>
      </trkpt>
      <trkpt lat="43.34588" lon="5.53457">
        <ele>624.99</ele>
        <time>2018-06-16T11:52:39Z</time>
      </trkpt>
      <trkpt lat="43.34585" lon="5.53451">
        <ele>625.47</ele>
        <time>2018-06-16T11:53:07Z</time>
      </trkpt>
      <trkpt lat="43.34585" lon="5.5345">
        <ele>625.47</ele>
        <time>2018-06-16T11:53:30Z</time>
      </trkpt>
      <trkpt lat="43.34585" lon="5.53453">
        <ele>625.47</ele>
        <time>2018-06-16T11:53:55Z</time>
      </trkpt>
      <trkpt lat="43.34589" lon="5.53446">
        <ele>625.96</ele>
        <time>2018-06-16T11:54:14Z</time>
      </trkpt>
      <trkpt lat="43.34589" lon="5.53446">
        <ele>624.99</ele>
        <time>2018-06-16T11:54:27Z</time>
      </trkpt>
      <trkpt lat="43.34588" lon="5.53444">
        <ele>624.99</ele>
        <time>2018-06-16T11:54:49Z</time>
      </trkpt>
      <trkpt lat="43.34587" lon="5.53443">
        <ele>624.99</ele>
        <time>2018-06-16T11:55:09Z</time>
      </trkpt>
      <trkpt lat="43.34587" lon="5.53444">
        <ele>625.47</ele>
        <time>2018-06-16T11:55:29Z</time>
      </trkpt>
      <trkpt lat="43.34587" lon="5.53445">
        <ele>624.99</ele>
        <time>2018-06-16T11:55:57Z</time>
      </trkpt>
      <trkpt lat="43.34586" lon="5.53444">
        <ele>624.99</ele>
        <time>2018-06-16T11:56:14Z</time>
      </trkpt>
      <trkpt lat="43.34586" lon="5.53444">
        <ele>624.99</ele>
        <time>2018-06-16T11:56:35Z</time>
      </trkpt>
      <trkpt lat="43.34586" lon="5.53446">
        <ele>624.99</ele>
        <time>2018-06-16T11:56:54Z</time>
      </trkpt>
      <trkpt lat="43.34585" lon="5.53447">
        <ele>624.99</ele>
        <time>2018-06-16T11:57:11Z</time>
      </trkpt>
      <trkpt lat="43.34586" lon="5.53448">
        <ele>625.96</ele>
        <time>2018-06-16T11:57:34Z</time>
      </trkpt>
      <trkpt lat="43.34586" lon="5.53449">
        <ele>625.96</ele>
        <time>2018-06-16T11:57:49Z</time>
      </trkpt>
      <trkpt lat="43.34585" lon="5.53449">
        <ele>624.99</ele>
        <time>2018-06-16T11:58:09Z</time>
      </trkpt>
      <trkpt lat="43.34584" lon="5.5345">
        <ele>624.99</ele>
        <time>2018-06-16T11:58:28Z</time>
      </trkpt>
      <trkpt lat="43.34585" lon="5.53451">
        <ele>624.99</ele>
        <time>2018-06-16T11:59:01Z</time>
      </trkpt>
      <trkpt lat="43.34586" lon="5.53449">
        <ele>625.47</ele>
        <time>2018-06-16T11:59:18Z</time>
      </trkpt>
      <trkpt lat="43.34586" lon="5.53449">
        <ele>624.99</ele>
        <time>2018-06-16T11:59:44Z</time>
      </trkpt>
      <trkpt lat="43.34585" lon="5.53448">
        <ele>624.99</ele>
        <time>2018-06-16T12:00:01Z</time>
      </trkpt>
      <trkpt lat="43.34585" lon="5.53447">
        <ele>624.51</ele>
        <time>2018-06-16T12:00:20Z</time>
      </trkpt>
      <trkpt lat="43.34585" lon="5.53446">
        <ele>624.51</ele>
        <time>2018-06-16T12:00:41Z</time>
      </trkpt>
      <trkpt lat="43.34586" lon="5.53446">
        <ele>624.99</ele>
        <time>2018-06-16T12:00:59Z</time>
      </trkpt>
      <trkpt lat="43.34586" lon="5.53445">
        <ele>624.51</ele>
        <time>2018-06-16T12:01:16Z</time>
      </trkpt>
      <trkpt lat="43.34587" lon="5.53446">
        <ele>624.99</ele>
        <time>2018-06-16T12:01:41Z</time>
      </trkpt>
      <trkpt lat="43.34587" lon="5.53449">
        <ele>624.51</ele>
        <time>2018-06-16T12:01:54Z</time>
      </trkpt>
      <trkpt lat="43.34585" lon="5.53445">
        <ele>624.99</ele>
        <time>2018-06-16T12:02:03Z</time>
      </trkpt>
      <trkpt lat="43.34585" lon="5.53446">
        <ele>624.03</ele>
        <time>2018-06-16T12:02:15Z</time>
      </trkpt>
      <trkpt lat="43.34585" lon="5.53448">
        <ele>624.51</ele>
        <time>2018-06-16T12:02:36Z</time>
      </trkpt>
      <trkpt lat="43.34584" lon="5.5345">
        <ele>624.03</ele>
        <time>2018-06-16T12:03:01Z</time>
      </trkpt>
      <trkpt lat="43.34585" lon="5.53452">
        <ele>624.51</ele>
        <time>2018-06-16T12:03:29Z</time>
      </trkpt>
      <trkpt lat="43.34584" lon="5.53453">
        <ele>624.99</ele>
        <time>2018-06-16T12:03:56Z</time>
      </trkpt>
      <trkpt lat="43.34582" lon="5.53447">
        <ele>624.99</ele>
        <time>2018-06-16T12:04:16Z</time>
      </trkpt>
      <trkpt lat="43.34583" lon="5.53445">
        <ele>624.03</ele>
        <time>2018-06-16T12:04:34Z</time>
      </trkpt>
      <trkpt lat="43.34583" lon="5.53444">
        <ele>624.99</ele>
        <time>2018-06-16T12:04:53Z</time>
      </trkpt>
      <trkpt lat="43.34584" lon="5.53444">
        <ele>624.51</ele>
        <time>2018-06-16T12:05:10Z</time>
      </trkpt>
      <trkpt lat="43.34584" lon="5.53443">
        <ele>624.51</ele>
        <time>2018-06-16T12:05:28Z</time>
      </trkpt>
      <trkpt lat="43.34584" lon="5.53442">
        <ele>624.99</ele>
        <time>2018-06-16T12:05:42Z</time>
      </trkpt>
      <trkpt lat="43.34584" lon="5.53444">
        <ele>624.51</ele>
        <time>2018-06-16T12:05:53Z</time>
      </trkpt>
      <trkpt lat="43.34584" lon="5.53445">
        <ele>624.51</ele>
        <time>2018-06-16T12:06:09Z</time>
      </trkpt>
      <trkpt lat="43.34584" lon="5.53445">
        <ele>624.99</ele>
        <time>2018-06-16T12:06:27Z</time>
      </trkpt>
      <trkpt lat="43.34585" lon="5.53445">
        <ele>624.99</ele>
        <time>2018-06-16T12:06:45Z</time>
      </trkpt>
      <trkpt lat="43.34585" lon="5.53446">
        <ele>624.99</ele>
        <time>2018-06-16T12:07:00Z</time>
      </trkpt>
      <trkpt lat="43.34585" lon="5.53446">
        <ele>624.51</ele>
        <time>2018-06-16T12:07:23Z</time>
      </trkpt>
      <trkpt lat="43.34585" lon="5.53447">
        <ele>624.99</ele>
        <time>2018-06-16T12:07:41Z</time>
      </trkpt>
      <trkpt lat="43.34587" lon="5.53445">
        <ele>625.47</ele>
        <time>2018-06-16T12:07:56Z</time>
      </trkpt>
      <trkpt lat="43.3459" lon="5.53445">
        <ele>625.47</ele>
        <time>2018-06-16T12:08:07Z</time>
      </trkpt>
      <trkpt lat="43.34588" lon="5.53447">
        <ele>624.99</ele>
        <time>2018-06-16T12:08:19Z</time>
      </trkpt>
      <trkpt lat="43.34589" lon="5.53447">
        <ele>625.47</ele>
        <time>2018-06-16T12:08:33Z</time>
      </trkpt>
      <trkpt lat="43.34589" lon="5.53446">
        <ele>624.99</ele>
        <time>2018-06-16T12:08:35Z</time>
      </trkpt>
      <trkpt lat="43.34588" lon="5.53449">
        <ele>624.99</ele>
        <time>2018-06-16T12:08:45Z</time>
      </trkpt>
      <trkpt lat="43.34587" lon="5.53462">
        <ele>624.03</ele>
        <time>2018-06-16T12:08:59Z</time>
      </trkpt>
      <trkpt lat="43.34587" lon="5.53473">
        <ele>623.55</ele>
        <time>2018-06-16T12:09:10Z</time>
      </trkpt>
      <trkpt lat="43.34583" lon="5.53478">
        <ele>622.59</ele>
        <time>2018-06-16T12:09:20Z</time>
      </trkpt>
      <trkpt lat="43.34581" lon="5.53479">
        <ele>622.11</ele>
        <time>2018-06-16T12:09:23Z</time>
      </trkpt>
      <trkpt lat="43.34578" lon="5.53488">
        <ele>620.67</ele>
        <time>2018-06-16T12:09:35Z</time>
      </trkpt>
      <trkpt lat="43.34576" lon="5.53492">
        <ele>619.23</ele>
        <time>2018-06-16T12:09:45Z</time>
      </trkpt>
      <trkpt lat="43.34572" lon="5.53499">
        <ele>618.26</ele>
        <time>2018-06-16T12:09:54Z</time>
      </trkpt>
      <trkpt lat="43.3457" lon="5.53501">
        <ele>617.3</ele>
        <time>2018-06-16T12:09:57Z</time>
      </trkpt>
      <trkpt lat="43.34565" lon="5.53507">
        <ele>615.86</ele>
        <time>2018-06-16T12:10:07Z</time>
      </trkpt>
      <trkpt lat="43.34564" lon="5.53513">
        <ele>615.86</ele>
        <time>2018-06-16T12:10:13Z</time>
      </trkpt>
      <trkpt lat="43.34562" lon="5.53518">
        <ele>614.42</ele>
        <time>2018-06-16T12:10:19Z</time>
      </trkpt>
      <trkpt lat="43.34559" lon="5.53523">
        <ele>614.42</ele>
        <time>2018-06-16T12:10:25Z</time>
      </trkpt>
      <trkpt lat="43.34559" lon="5.53529">
        <ele>613.94</ele>
        <time>2018-06-16T12:10:30Z</time>
      </trkpt>
      <trkpt lat="43.34558" lon="5.53533">
        <ele>613.46</ele>
        <time>2018-06-16T12:10:34Z</time>
      </trkpt>
      <trkpt lat="43.34558" lon="5.53543">
        <ele>613.46</ele>
        <time>2018-06-16T12:10:43Z</time>
      </trkpt>
      <trkpt lat="43.34555" lon="5.53554">
        <ele>613.46</ele>
        <time>2018-06-16T12:10:55Z</time>
      </trkpt>
      <trkpt lat="43.34552" lon="5.53561">
        <ele>612.5</ele>
        <time>2018-06-16T12:11:03Z</time>
      </trkpt>
      <trkpt lat="43.34548" lon="5.53569">
        <ele>612.5</ele>
        <time>2018-06-16T12:11:09Z</time>
      </trkpt>
      <trkpt lat="43.34545" lon="5.53578">
        <ele>612.02</ele>
        <time>2018-06-16T12:11:18Z</time>
      </trkpt>
      <trkpt lat="43.34543" lon="5.53586">
        <ele>610.57</ele>
        <time>2018-06-16T12:11:24Z</time>
      </trkpt>
      <trkpt lat="43.3454" lon="5.53596">
        <ele>610.09</ele>
        <time>2018-06-16T12:11:32Z</time>
      </trkpt>
      <trkpt lat="43.34539" lon="5.53605">
        <ele>609.61</ele>
        <time>2018-06-16T12:11:39Z</time>
      </trkpt>
      <trkpt lat="43.34538" lon="5.53612">
        <ele>609.13</ele>
        <time>2018-06-16T12:11:45Z</time>
      </trkpt>
      <trkpt lat="43.34536" lon="5.53623">
        <ele>607.21</ele>
        <time>2018-06-16T12:11:57Z</time>
      </trkpt>
      <trkpt lat="43.34534" lon="5.53628">
        <ele>606.25</ele>
        <time>2018-06-16T12:12:06Z</time>
      </trkpt>
      <trkpt lat="43.34534" lon="5.53632">
        <ele>604.33</ele>
        <time>2018-06-16T12:12:16Z</time>
      </trkpt>
      <trkpt lat="43.34531" lon="5.53637">
        <ele>602.88</ele>
        <time>2018-06-16T12:12:27Z</time>
      </trkpt>
      <trkpt lat="43.34529" lon="5.53647">
        <ele>600.48</ele>
        <time>2018-06-16T12:12:40Z</time>
      </trkpt>
      <trkpt lat="43.3453" lon="5.53658">
        <ele>599.04</ele>
        <time>2018-06-16T12:12:51Z</time>
      </trkpt>
      <trkpt lat="43.34528" lon="5.53663">
        <ele>597.6</ele>
        <time>2018-06-16T12:13:00Z</time>
      </trkpt>
      <trkpt lat="43.34528" lon="5.53666">
        <ele>598.08</ele>
        <time>2018-06-16T12:13:08Z</time>
      </trkpt>
      <trkpt lat="43.34528" lon="5.53668">
        <ele>597.12</ele>
        <time>2018-06-16T12:13:22Z</time>
      </trkpt>
      <trkpt lat="43.34526" lon="5.5367">
        <ele>597.12</ele>
        <time>2018-06-16T12:13:35Z</time>
      </trkpt>
      <trkpt lat="43.34524" lon="5.53667">
        <ele>596.15</ele>
        <time>2018-06-16T12:13:55Z</time>
      </trkpt>
      <trkpt lat="43.34522" lon="5.53666">
        <ele>596.15</ele>
        <time>2018-06-16T12:13:57Z</time>
      </trkpt>
      <trkpt lat="43.34514" lon="5.53659">
        <ele>595.67</ele>
        <time>2018-06-16T12:14:06Z</time>
      </trkpt>
      <trkpt lat="43.34555" lon="5.53665">
        <ele>596.64</ele>
        <time>2018-06-16T12:18:21Z</time>
      </trkpt>
      <trkpt lat="43.34531" lon="5.53666">
        <ele>597.12</ele>
        <time>2018-06-16T12:18:29Z</time>
      </trkpt>
      <trkpt lat="43.34529" lon="5.53668">
        <ele>596.64</ele>
        <time>2018-06-16T12:18:39Z</time>
      </trkpt>
      <trkpt lat="43.34528" lon="5.53667">
        <ele>596.64</ele>
        <time>2018-06-16T12:18:53Z</time>
      </trkpt>
      <trkpt lat="43.34526" lon="5.53666">
        <ele>596.64</ele>
        <time>2018-06-16T12:19:12Z</time>
      </trkpt>
      <trkpt lat="43.34525" lon="5.53666">
        <ele>596.15</ele>
        <time>2018-06-16T12:19:35Z</time>
      </trkpt>
      <trkpt lat="43.34524" lon="5.53664">
        <ele>596.64</ele>
        <time>2018-06-16T12:20:02Z</time>
      </trkpt>
      <trkpt lat="43.34525" lon="5.53665">
        <ele>595.67</ele>
        <time>2018-06-16T12:20:26Z</time>
      </trkpt>
      <trkpt lat="43.34526" lon="5.53665">
        <ele>596.15</ele>
        <time>2018-06-16T12:20:48Z</time>
      </trkpt>
      <trkpt lat="43.34525" lon="5.53665">
        <ele>596.15</ele>
        <time>2018-06-16T12:21:09Z</time>
      </trkpt>
      <trkpt lat="43.34526" lon="5.53667">
        <ele>596.64</ele>
        <time>2018-06-16T12:21:26Z</time>
      </trkpt>
      <trkpt lat="43.34526" lon="5.53667">
        <ele>596.15</ele>
        <time>2018-06-16T12:21:47Z</time>
      </trkpt>
      <trkpt lat="43.34525" lon="5.53668">
        <ele>595.67</ele>
        <time>2018-06-16T12:21:59Z</time>
      </trkpt>
      <trkpt lat="43.34525" lon="5.53673">
        <ele>594.23</ele>
        <time>2018-06-16T12:22:11Z</time>
      </trkpt>
      <trkpt lat="43.34524" lon="5.53677">
        <ele>593.75</ele>
        <time>2018-06-16T12:22:14Z</time>
      </trkpt>
      <trkpt lat="43.34525" lon="5.53685">
        <ele>593.75</ele>
        <time>2018-06-16T12:22:20Z</time>
      </trkpt>
      <trkpt lat="43.34525" lon="5.53697">
        <ele>593.75</ele>
        <time>2018-06-16T12:22:29Z</time>
      </trkpt>
      <trkpt lat="43.34525" lon="5.537">
        <ele>593.75</ele>
        <time>2018-06-16T12:22:31Z</time>
      </trkpt>
      <trkpt lat="43.34524" lon="5.53716">
        <ele>594.23</ele>
        <time>2018-06-16T12:22:43Z</time>
      </trkpt>
      <trkpt lat="43.34523" lon="5.53727">
        <ele>594.71</ele>
        <time>2018-06-16T12:22:53Z</time>
      </trkpt>
      <trkpt lat="43.34523" lon="5.5374">
        <ele>595.19</ele>
        <time>2018-06-16T12:23:02Z</time>
      </trkpt>
      <trkpt lat="43.34522" lon="5.53756">
        <ele>594.71</ele>
        <time>2018-06-16T12:23:16Z</time>
      </trkpt>
      <trkpt lat="43.34513" lon="5.53764">
        <ele>594.23</ele>
        <time>2018-06-16T12:23:30Z</time>
      </trkpt>
      <trkpt lat="43.34507" lon="5.53764">
        <ele>594.71</ele>
        <time>2018-06-16T12:23:44Z</time>
      </trkpt>
      <trkpt lat="43.34501" lon="5.53764">
        <ele>597.12</ele>
        <time>2018-06-16T12:23:58Z</time>
      </trkpt>
      <trkpt lat="43.34491" lon="5.53767">
        <ele>599.04</ele>
        <time>2018-06-16T12:24:14Z</time>
      </trkpt>
      <trkpt lat="43.34487" lon="5.53769">
        <ele>600.96</ele>
        <time>2018-06-16T12:24:27Z</time>
      </trkpt>
      <trkpt lat="43.34482" lon="5.53769">
        <ele>601.92</ele>
        <time>2018-06-16T12:24:36Z</time>
      </trkpt>
      <trkpt lat="43.34477" lon="5.53772">
        <ele>603.85</ele>
        <time>2018-06-16T12:24:51Z</time>
      </trkpt>
      <trkpt lat="43.34473" lon="5.53773">
        <ele>605.29</ele>
        <time>2018-06-16T12:25:03Z</time>
      </trkpt>
      <trkpt lat="43.34467" lon="5.53768">
        <ele>605.29</ele>
        <time>2018-06-16T12:25:12Z</time>
      </trkpt>
      <trkpt lat="43.3446" lon="5.53766">
        <ele>603.85</ele>
        <time>2018-06-16T12:25:23Z</time>
      </trkpt>
      <trkpt lat="43.34459" lon="5.53765">
        <ele>603.85</ele>
        <time>2018-06-16T12:25:26Z</time>
      </trkpt>
      <trkpt lat="43.34447" lon="5.53765">
        <ele>603.85</ele>
        <time>2018-06-16T12:25:38Z</time>
      </trkpt>
      <trkpt lat="43.34441" lon="5.53767">
        <ele>603.85</ele>
        <time>2018-06-16T12:25:43Z</time>
      </trkpt>
      <trkpt lat="43.34438" lon="5.5377">
        <ele>603.36</ele>
        <time>2018-06-16T12:25:47Z</time>
      </trkpt>
      <trkpt lat="43.34437" lon="5.53772">
        <ele>604.33</ele>
        <time>2018-06-16T12:25:49Z</time>
      </trkpt>
      <trkpt lat="43.34434" lon="5.53777">
        <ele>603.36</ele>
        <time>2018-06-16T12:25:54Z</time>
      </trkpt>
      <trkpt lat="43.3443" lon="5.53794">
        <ele>604.81</ele>
        <time>2018-06-16T12:26:09Z</time>
      </trkpt>
      <trkpt lat="43.34428" lon="5.538">
        <ele>604.81</ele>
        <time>2018-06-16T12:26:16Z</time>
      </trkpt>
      <trkpt lat="43.34426" lon="5.53813">
        <ele>605.29</ele>
        <time>2018-06-16T12:26:29Z</time>
      </trkpt>
      <trkpt lat="43.34426" lon="5.53814">
        <ele>605.29</ele>
        <time>2018-06-16T12:26:30Z</time>
      </trkpt>
      <trkpt lat="43.34424" lon="5.53826">
        <ele>605.77</ele>
        <time>2018-06-16T12:26:42Z</time>
      </trkpt>
      <trkpt lat="43.34421" lon="5.53842">
        <ele>604.33</ele>
        <time>2018-06-16T12:26:54Z</time>
      </trkpt>
      <trkpt lat="43.34418" lon="5.53848">
        <ele>604.33</ele>
        <time>2018-06-16T12:26:59Z</time>
      </trkpt>
      <trkpt lat="43.34417" lon="5.53854">
        <ele>604.33</ele>
        <time>2018-06-16T12:27:03Z</time>
      </trkpt>
      <trkpt lat="43.34416" lon="5.53863">
        <ele>604.81</ele>
        <time>2018-06-16T12:27:09Z</time>
      </trkpt>
      <trkpt lat="43.34416" lon="5.53873">
        <ele>603.85</ele>
        <time>2018-06-16T12:27:18Z</time>
      </trkpt>
      <trkpt lat="43.34416" lon="5.53877">
        <ele>603.36</ele>
        <time>2018-06-16T12:27:21Z</time>
      </trkpt>
      <trkpt lat="43.34419" lon="5.53891">
        <ele>602.4</ele>
        <time>2018-06-16T12:27:34Z</time>
      </trkpt>
      <trkpt lat="43.34416" lon="5.53898">
        <ele>600.96</ele>
        <time>2018-06-16T12:27:47Z</time>
      </trkpt>
      <trkpt lat="43.34415" lon="5.53898">
        <ele>600.48</ele>
        <time>2018-06-16T12:27:48Z</time>
      </trkpt>
      <trkpt lat="43.34414" lon="5.53903">
        <ele>599.04</ele>
        <time>2018-06-16T12:27:58Z</time>
      </trkpt>
      <trkpt lat="43.34414" lon="5.53908">
        <ele>597.12</ele>
        <time>2018-06-16T12:28:10Z</time>
      </trkpt>
      <trkpt lat="43.34413" lon="5.53916">
        <ele>596.64</ele>
        <time>2018-06-16T12:28:17Z</time>
      </trkpt>
      <trkpt lat="43.34416" lon="5.53922">
        <ele>596.64</ele>
        <time>2018-06-16T12:28:29Z</time>
      </trkpt>
      <trkpt lat="43.34417" lon="5.53922">
        <ele>597.12</ele>
        <time>2018-06-16T12:28:42Z</time>
      </trkpt>
      <trkpt lat="43.34418" lon="5.53922">
        <ele>597.12</ele>
        <time>2018-06-16T12:28:47Z</time>
      </trkpt>
      <trkpt lat="43.3442" lon="5.5393">
        <ele>597.6</ele>
        <time>2018-06-16T12:28:57Z</time>
      </trkpt>
      <trkpt lat="43.34421" lon="5.53934">
        <ele>597.6</ele>
        <time>2018-06-16T12:29:03Z</time>
      </trkpt>
      <trkpt lat="43.34425" lon="5.53943">
        <ele>598.08</ele>
        <time>2018-06-16T12:29:12Z</time>
      </trkpt>
      <trkpt lat="43.34427" lon="5.5395">
        <ele>599.04</ele>
        <time>2018-06-16T12:29:22Z</time>
      </trkpt>
      <trkpt lat="43.34432" lon="5.53955">
        <ele>599.04</ele>
        <time>2018-06-16T12:29:33Z</time>
      </trkpt>
      <trkpt lat="43.34434" lon="5.53954">
        <ele>599.04</ele>
        <time>2018-06-16T12:29:44Z</time>
      </trkpt>
      <trkpt lat="43.34435" lon="5.53953">
        <ele>599.52</ele>
        <time>2018-06-16T12:30:02Z</time>
      </trkpt>
      <trkpt lat="43.34433" lon="5.53955">
        <ele>599.04</ele>
        <time>2018-06-16T12:30:20Z</time>
      </trkpt>
      <trkpt lat="43.3443" lon="5.53957">
        <ele>598.08</ele>
        <time>2018-06-16T12:30:34Z</time>
      </trkpt>
      <trkpt lat="43.34429" lon="5.53957">
        <ele>598.56</ele>
        <time>2018-06-16T12:30:47Z</time>
      </trkpt>
      <trkpt lat="43.3443" lon="5.53957">
        <ele>598.56</ele>
        <time>2018-06-16T12:30:58Z</time>
      </trkpt>
      <trkpt lat="43.34429" lon="5.53957">
        <ele>597.6</ele>
        <time>2018-06-16T12:31:16Z</time>
      </trkpt>
      <trkpt lat="43.34429" lon="5.53957">
        <ele>599.04</ele>
        <time>2018-06-16T12:31:30Z</time>
      </trkpt>
      <trkpt lat="43.34429" lon="5.53957">
        <ele>599.04</ele>
        <time>2018-06-16T12:31:48Z</time>
      </trkpt>
      <trkpt lat="43.34429" lon="5.53957">
        <ele>599.04</ele>
        <time>2018-06-16T12:32:08Z</time>
      </trkpt>
      <trkpt lat="43.34429" lon="5.53957">
        <ele>598.56</ele>
        <time>2018-06-16T12:32:36Z</time>
      </trkpt>
      <trkpt lat="43.34428" lon="5.53958">
        <ele>599.04</ele>
        <time>2018-06-16T12:32:57Z</time>
      </trkpt>
      <trkpt lat="43.34428" lon="5.53957">
        <ele>598.56</ele>
        <time>2018-06-16T12:33:24Z</time>
      </trkpt>
      <trkpt lat="43.34429" lon="5.53958">
        <ele>599.52</ele>
        <time>2018-06-16T12:33:52Z</time>
      </trkpt>
      <trkpt lat="43.34428" lon="5.5396">
        <ele>599.52</ele>
        <time>2018-06-16T12:34:07Z</time>
      </trkpt>
      <trkpt lat="43.34428" lon="5.5396">
        <ele>599.52</ele>
        <time>2018-06-16T12:34:31Z</time>
      </trkpt>
      <trkpt lat="43.34428" lon="5.53961">
        <ele>599.52</ele>
        <time>2018-06-16T12:34:54Z</time>
      </trkpt>
      <trkpt lat="43.34429" lon="5.53961">
        <ele>599.04</ele>
        <time>2018-06-16T12:35:18Z</time>
      </trkpt>
      <trkpt lat="43.34427" lon="5.53963">
        <ele>599.04</ele>
        <time>2018-06-16T12:35:39Z</time>
      </trkpt>
      <trkpt lat="43.34427" lon="5.53963">
        <ele>599.52</ele>
        <time>2018-06-16T12:35:59Z</time>
      </trkpt>
      <trkpt lat="43.34424" lon="5.53969">
        <ele>600.48</ele>
        <time>2018-06-16T12:36:10Z</time>
      </trkpt>
      <trkpt lat="43.34423" lon="5.53972">
        <ele>600</ele>
        <time>2018-06-16T12:36:15Z</time>
      </trkpt>
      <trkpt lat="43.34422" lon="5.53977">
        <ele>600.48</ele>
        <time>2018-06-16T12:36:20Z</time>
      </trkpt>
      <trkpt lat="43.34421" lon="5.53988">
        <ele>600</ele>
        <time>2018-06-16T12:36:30Z</time>
      </trkpt>
      <trkpt lat="43.3442" lon="5.5399">
        <ele>600</ele>
        <time>2018-06-16T12:36:38Z</time>
      </trkpt>
      <trkpt lat="43.34416" lon="5.54002">
        <ele>601.44</ele>
        <time>2018-06-16T12:36:49Z</time>
      </trkpt>
      <trkpt lat="43.34415" lon="5.54011">
        <ele>601.44</ele>
        <time>2018-06-16T12:37:01Z</time>
      </trkpt>
      <trkpt lat="43.34412" lon="5.54015">
        <ele>601.92</ele>
        <time>2018-06-16T12:37:09Z</time>
      </trkpt>
      <trkpt lat="43.34407" lon="5.54018">
        <ele>602.88</ele>
        <time>2018-06-16T12:37:20Z</time>
      </trkpt>
      <trkpt lat="43.34404" lon="5.54021">
        <ele>603.85</ele>
        <time>2018-06-16T12:37:29Z</time>
      </trkpt>
      <trkpt lat="43.34404" lon="5.54022">
        <ele>603.85</ele>
        <time>2018-06-16T12:37:30Z</time>
      </trkpt>
      <trkpt lat="43.34401" lon="5.54027">
        <ele>604.33</ele>
        <time>2018-06-16T12:37:39Z</time>
      </trkpt>
      <trkpt lat="43.34397" lon="5.54027">
        <ele>604.81</ele>
        <time>2018-06-16T12:37:48Z</time>
      </trkpt>
      <trkpt lat="43.34391" lon="5.54026">
        <ele>606.73</ele>
        <time>2018-06-16T12:38:03Z</time>
      </trkpt>
      <trkpt lat="43.34385" lon="5.54024">
        <ele>608.17</ele>
        <time>2018-06-16T12:38:16Z</time>
      </trkpt>
      <trkpt lat="43.3438" lon="5.54027">
        <ele>608.17</ele>
        <time>2018-06-16T12:38:27Z</time>
      </trkpt>
      <trkpt lat="43.34371" lon="5.54027">
        <ele>609.13</ele>
        <time>2018-06-16T12:38:38Z</time>
      </trkpt>
      <trkpt lat="43.34369" lon="5.54026">
        <ele>610.09</ele>
        <time>2018-06-16T12:38:48Z</time>
      </trkpt>
      <trkpt lat="43.34368" lon="5.54025">
        <ele>610.09</ele>
        <time>2018-06-16T12:38:59Z</time>
      </trkpt>
      <trkpt lat="43.34365" lon="5.54024">
        <ele>610.57</ele>
        <time>2018-06-16T12:39:10Z</time>
      </trkpt>
      <trkpt lat="43.34361" lon="5.54023">
        <ele>611.54</ele>
        <time>2018-06-16T12:39:21Z</time>
      </trkpt>
      <trkpt lat="43.34356" lon="5.54021">
        <ele>612.5</ele>
        <time>2018-06-16T12:39:32Z</time>
      </trkpt>
      <trkpt lat="43.3435" lon="5.54024">
        <ele>613.46</ele>
        <time>2018-06-16T12:39:41Z</time>
      </trkpt>
      <trkpt lat="43.34343" lon="5.5403">
        <ele>613.94</ele>
        <time>2018-06-16T12:39:52Z</time>
      </trkpt>
      <trkpt lat="43.34337" lon="5.54031">
        <ele>615.38</ele>
        <time>2018-06-16T12:40:03Z</time>
      </trkpt>
      <trkpt lat="43.34333" lon="5.54033">
        <ele>616.82</ele>
        <time>2018-06-16T12:40:15Z</time>
      </trkpt>
      <trkpt lat="43.34327" lon="5.54035">
        <ele>617.78</ele>
        <time>2018-06-16T12:40:27Z</time>
      </trkpt>
      <trkpt lat="43.34321" lon="5.54039">
        <ele>619.23</ele>
        <time>2018-06-16T12:40:43Z</time>
      </trkpt>
      <trkpt lat="43.34316" lon="5.54043">
        <ele>620.19</ele>
        <time>2018-06-16T12:40:55Z</time>
      </trkpt>
      <trkpt lat="43.3431" lon="5.54049">
        <ele>621.15</ele>
        <time>2018-06-16T12:41:08Z</time>
      </trkpt>
      <trkpt lat="43.34304" lon="5.54052">
        <ele>622.11</ele>
        <time>2018-06-16T12:41:18Z</time>
      </trkpt>
      <trkpt lat="43.34303" lon="5.54053">
        <ele>622.59</ele>
        <time>2018-06-16T12:41:22Z</time>
      </trkpt>
      <trkpt lat="43.343" lon="5.54061">
        <ele>623.07</ele>
        <time>2018-06-16T12:41:32Z</time>
      </trkpt>
      <trkpt lat="43.34294" lon="5.54069">
        <ele>623.07</ele>
        <time>2018-06-16T12:41:43Z</time>
      </trkpt>
      <trkpt lat="43.34291" lon="5.54079">
        <ele>623.55</ele>
        <time>2018-06-16T12:41:55Z</time>
      </trkpt>
      <trkpt lat="43.34287" lon="5.54089">
        <ele>624.51</ele>
        <time>2018-06-16T12:42:06Z</time>
      </trkpt>
      <trkpt lat="43.34286" lon="5.54092">
        <ele>625.47</ele>
        <time>2018-06-16T12:42:15Z</time>
      </trkpt>
      <trkpt lat="43.34286" lon="5.54095">
        <ele>624.99</ele>
        <time>2018-06-16T12:42:27Z</time>
      </trkpt>
      <trkpt lat="43.34285" lon="5.54097">
        <ele>625.47</ele>
        <time>2018-06-16T12:42:31Z</time>
      </trkpt>
      <trkpt lat="43.34284" lon="5.54103">
        <ele>625.96</ele>
        <time>2018-06-16T12:42:40Z</time>
      </trkpt>
      <trkpt lat="43.34285" lon="5.54106">
        <ele>626.44</ele>
        <time>2018-06-16T12:42:45Z</time>
      </trkpt>
      <trkpt lat="43.34286" lon="5.54111">
        <ele>627.88</ele>
        <time>2018-06-16T12:42:51Z</time>
      </trkpt>
      <trkpt lat="43.34288" lon="5.54117">
        <ele>628.36</ele>
        <time>2018-06-16T12:43:00Z</time>
      </trkpt>
      <trkpt lat="43.34288" lon="5.54119">
        <ele>628.36</ele>
        <time>2018-06-16T12:43:03Z</time>
      </trkpt>
      <trkpt lat="43.34284" lon="5.54128">
        <ele>629.32</ele>
        <time>2018-06-16T12:43:14Z</time>
      </trkpt>
      <trkpt lat="43.34279" lon="5.54136">
        <ele>629.8</ele>
        <time>2018-06-16T12:43:26Z</time>
      </trkpt>
      <trkpt lat="43.34272" lon="5.54147">
        <ele>632.68</ele>
        <time>2018-06-16T12:43:43Z</time>
      </trkpt>
      <trkpt lat="43.34269" lon="5.54158">
        <ele>634.13</ele>
        <time>2018-06-16T12:43:57Z</time>
      </trkpt>
      <trkpt lat="43.34266" lon="5.54167">
        <ele>635.57</ele>
        <time>2018-06-16T12:44:13Z</time>
      </trkpt>
      <trkpt lat="43.34263" lon="5.54175">
        <ele>636.53</ele>
        <time>2018-06-16T12:44:25Z</time>
      </trkpt>
      <trkpt lat="43.34261" lon="5.54183">
        <ele>637.49</ele>
        <time>2018-06-16T12:44:35Z</time>
      </trkpt>
      <trkpt lat="43.34261" lon="5.54185">
        <ele>637.97</ele>
        <time>2018-06-16T12:44:40Z</time>
      </trkpt>
      <trkpt lat="43.34258" lon="5.5419">
        <ele>639.41</ele>
        <time>2018-06-16T12:44:52Z</time>
      </trkpt>
      <trkpt lat="43.34256" lon="5.54193">
        <ele>639.41</ele>
        <time>2018-06-16T12:44:57Z</time>
      </trkpt>
      <trkpt lat="43.34255" lon="5.54198">
        <ele>640.86</ele>
        <time>2018-06-16T12:45:07Z</time>
      </trkpt>
      <trkpt lat="43.34255" lon="5.54202">
        <ele>640.86</ele>
        <time>2018-06-16T12:45:10Z</time>
      </trkpt>
      <trkpt lat="43.34254" lon="5.54206">
        <ele>640.86</ele>
        <time>2018-06-16T12:45:15Z</time>
      </trkpt>
      <trkpt lat="43.3425" lon="5.54212">
        <ele>642.78</ele>
        <time>2018-06-16T12:45:26Z</time>
      </trkpt>
      <trkpt lat="43.34245" lon="5.54217">
        <ele>643.26</ele>
        <time>2018-06-16T12:45:36Z</time>
      </trkpt>
      <trkpt lat="43.34243" lon="5.54219">
        <ele>643.26</ele>
        <time>2018-06-16T12:45:40Z</time>
      </trkpt>
      <trkpt lat="43.34238" lon="5.54222">
        <ele>643.74</ele>
        <time>2018-06-16T12:45:46Z</time>
      </trkpt>
      <trkpt lat="43.34236" lon="5.5422">
        <ele>643.74</ele>
        <time>2018-06-16T12:45:49Z</time>
      </trkpt>
      <trkpt lat="43.34229" lon="5.54221">
        <ele>644.22</ele>
        <time>2018-06-16T12:45:59Z</time>
      </trkpt>
      <trkpt lat="43.34228" lon="5.54222">
        <ele>644.22</ele>
        <time>2018-06-16T12:46:01Z</time>
      </trkpt>
      <trkpt lat="43.34226" lon="5.54225">
        <ele>644.22</ele>
        <time>2018-06-16T12:46:04Z</time>
      </trkpt>
      <trkpt lat="43.34225" lon="5.54233">
        <ele>646.14</ele>
        <time>2018-06-16T12:46:14Z</time>
      </trkpt>
      <trkpt lat="43.34225" lon="5.54239">
        <ele>646.62</ele>
        <time>2018-06-16T12:46:24Z</time>
      </trkpt>
      <trkpt lat="43.34224" lon="5.54245">
        <ele>647.59</ele>
        <time>2018-06-16T12:46:33Z</time>
      </trkpt>
      <trkpt lat="43.34224" lon="5.54253">
        <ele>649.03</ele>
        <time>2018-06-16T12:46:44Z</time>
      </trkpt>
      <trkpt lat="43.34225" lon="5.54259">
        <ele>650.95</ele>
        <time>2018-06-16T12:46:55Z</time>
      </trkpt>
      <trkpt lat="43.34225" lon="5.54263">
        <ele>651.43</ele>
        <time>2018-06-16T12:47:05Z</time>
      </trkpt>
      <trkpt lat="43.34226" lon="5.54269">
        <ele>652.39</ele>
        <time>2018-06-16T12:47:14Z</time>
      </trkpt>
      <trkpt lat="43.34225" lon="5.54274">
        <ele>653.35</ele>
        <time>2018-06-16T12:47:25Z</time>
      </trkpt>
      <trkpt lat="43.34225" lon="5.54279">
        <ele>654.8</ele>
        <time>2018-06-16T12:47:38Z</time>
      </trkpt>
      <trkpt lat="43.34224" lon="5.54285">
        <ele>655.28</ele>
        <time>2018-06-16T12:47:44Z</time>
      </trkpt>
      <trkpt lat="43.34224" lon="5.54288">
        <ele>655.28</ele>
        <time>2018-06-16T12:47:47Z</time>
      </trkpt>
      <trkpt lat="43.34225" lon="5.54292">
        <ele>656.24</ele>
        <time>2018-06-16T12:48:01Z</time>
      </trkpt>
      <trkpt lat="43.34225" lon="5.54294">
        <ele>657.2</ele>
        <time>2018-06-16T12:48:12Z</time>
      </trkpt>
      <trkpt lat="43.34225" lon="5.54296">
        <ele>657.2</ele>
        <time>2018-06-16T12:48:14Z</time>
      </trkpt>
      <trkpt lat="43.34224" lon="5.54301">
        <ele>658.16</ele>
        <time>2018-06-16T12:48:23Z</time>
      </trkpt>
      <trkpt lat="43.34222" lon="5.54307">
        <ele>660.08</ele>
        <time>2018-06-16T12:48:39Z</time>
      </trkpt>
      <trkpt lat="43.34222" lon="5.5431">
        <ele>660.56</ele>
        <time>2018-06-16T12:48:48Z</time>
      </trkpt>
      <trkpt lat="43.34222" lon="5.54316">
        <ele>661.52</ele>
        <time>2018-06-16T12:49:01Z</time>
      </trkpt>
      <trkpt lat="43.34221" lon="5.54318">
        <ele>661.04</ele>
        <time>2018-06-16T12:49:13Z</time>
      </trkpt>
      <trkpt lat="43.34221" lon="5.54317">
        <ele>661.52</ele>
        <time>2018-06-16T12:49:29Z</time>
      </trkpt>
      <trkpt lat="43.34221" lon="5.54317">
        <ele>662.01</ele>
        <time>2018-06-16T12:49:57Z</time>
      </trkpt>
      <trkpt lat="43.34221" lon="5.54318">
        <ele>661.52</ele>
        <time>2018-06-16T12:50:20Z</time>
      </trkpt>
      <trkpt lat="43.34221" lon="5.54318">
        <ele>662.49</ele>
        <time>2018-06-16T12:50:48Z</time>
      </trkpt>
      <trkpt lat="43.3422" lon="5.54322">
        <ele>663.93</ele>
        <time>2018-06-16T12:51:00Z</time>
      </trkpt>
      <trkpt lat="43.34221" lon="5.54329">
        <ele>664.41</ele>
        <time>2018-06-16T12:51:10Z</time>
      </trkpt>
      <trkpt lat="43.3422" lon="5.54338">
        <ele>666.81</ele>
        <time>2018-06-16T12:51:23Z</time>
      </trkpt>
      <trkpt lat="43.3422" lon="5.54341">
        <ele>667.29</ele>
        <time>2018-06-16T12:51:31Z</time>
      </trkpt>
      <trkpt lat="43.34219" lon="5.54345">
        <ele>667.77</ele>
        <time>2018-06-16T12:51:42Z</time>
      </trkpt>
      <trkpt lat="43.34218" lon="5.5435">
        <ele>668.73</ele>
        <time>2018-06-16T12:51:51Z</time>
      </trkpt>
      <trkpt lat="43.34218" lon="5.54356">
        <ele>669.7</ele>
        <time>2018-06-16T12:52:01Z</time>
      </trkpt>
      <trkpt lat="43.34217" lon="5.54365">
        <ele>671.14</ele>
        <time>2018-06-16T12:52:12Z</time>
      </trkpt>
      <trkpt lat="43.34215" lon="5.54372">
        <ele>671.62</ele>
        <time>2018-06-16T12:52:21Z</time>
      </trkpt>
      <trkpt lat="43.34213" lon="5.5438">
        <ele>672.58</ele>
        <time>2018-06-16T12:52:31Z</time>
      </trkpt>
      <trkpt lat="43.34212" lon="5.54382">
        <ele>672.58</ele>
        <time>2018-06-16T12:52:33Z</time>
      </trkpt>
      <trkpt lat="43.34211" lon="5.54386">
        <ele>673.06</ele>
        <time>2018-06-16T12:52:37Z</time>
      </trkpt>
      <trkpt lat="43.34212" lon="5.54388">
        <ele>674.02</ele>
        <time>2018-06-16T12:52:42Z</time>
      </trkpt>
      <trkpt lat="43.3421" lon="5.54397">
        <ele>674.5</ele>
        <time>2018-06-16T12:52:53Z</time>
      </trkpt>
      <trkpt lat="43.34206" lon="5.54407">
        <ele>674.5</ele>
        <time>2018-06-16T12:53:04Z</time>
      </trkpt>
      <trkpt lat="43.34204" lon="5.54416">
        <ele>674.98</ele>
        <time>2018-06-16T12:53:17Z</time>
      </trkpt>
      <trkpt lat="43.34204" lon="5.54416">
        <ele>674.5</ele>
        <time>2018-06-16T12:53:27Z</time>
      </trkpt>
      <trkpt lat="43.34204" lon="5.54413">
        <ele>674.5</ele>
        <time>2018-06-16T12:53:31Z</time>
      </trkpt>
      <trkpt lat="43.34204" lon="5.54416">
        <ele>674.98</ele>
        <time>2018-06-16T12:53:41Z</time>
      </trkpt>
      <trkpt lat="43.34204" lon="5.54426">
        <ele>675.46</ele>
        <time>2018-06-16T12:53:55Z</time>
      </trkpt>
      <trkpt lat="43.34204" lon="5.54434">
        <ele>674.98</ele>
        <time>2018-06-16T12:54:04Z</time>
      </trkpt>
      <trkpt lat="43.34205" lon="5.54439">
        <ele>674.98</ele>
        <time>2018-06-16T12:54:07Z</time>
      </trkpt>
      <trkpt lat="43.34204" lon="5.54452">
        <ele>674.98</ele>
        <time>2018-06-16T12:54:19Z</time>
      </trkpt>
      <trkpt lat="43.34204" lon="5.54456">
        <ele>674.98</ele>
        <time>2018-06-16T12:54:34Z</time>
      </trkpt>
      <trkpt lat="43.34205" lon="5.54459">
        <ele>674.98</ele>
        <time>2018-06-16T12:54:36Z</time>
      </trkpt>
      <trkpt lat="43.34208" lon="5.54463">
        <ele>674.98</ele>
        <time>2018-06-16T12:54:41Z</time>
      </trkpt>
      <trkpt lat="43.34212" lon="5.54471">
        <ele>675.46</ele>
        <time>2018-06-16T12:54:50Z</time>
      </trkpt>
      <trkpt lat="43.34211" lon="5.54478">
        <ele>675.94</ele>
        <time>2018-06-16T12:54:57Z</time>
      </trkpt>
      <trkpt lat="43.34209" lon="5.54493">
        <ele>675.94</ele>
        <time>2018-06-16T12:55:08Z</time>
      </trkpt>
      <trkpt lat="43.34209" lon="5.54494">
        <ele>675.94</ele>
        <time>2018-06-16T12:55:09Z</time>
      </trkpt>
      <trkpt lat="43.3421" lon="5.54498">
        <ele>676.42</ele>
        <time>2018-06-16T12:55:12Z</time>
      </trkpt>
      <trkpt lat="43.34209" lon="5.54508">
        <ele>675.94</ele>
        <time>2018-06-16T12:55:20Z</time>
      </trkpt>
      <trkpt lat="43.34206" lon="5.54517">
        <ele>676.91</ele>
        <time>2018-06-16T12:55:28Z</time>
      </trkpt>
      <trkpt lat="43.34205" lon="5.5452">
        <ele>677.39</ele>
        <time>2018-06-16T12:55:31Z</time>
      </trkpt>
      <trkpt lat="43.34203" lon="5.54524">
        <ele>676.42</ele>
        <time>2018-06-16T12:55:35Z</time>
      </trkpt>
      <trkpt lat="43.342" lon="5.54533">
        <ele>676.91</ele>
        <time>2018-06-16T12:55:44Z</time>
      </trkpt>
      <trkpt lat="43.34195" lon="5.54537">
        <ele>676.42</ele>
        <time>2018-06-16T12:55:58Z</time>
      </trkpt>
      <trkpt lat="43.34191" lon="5.54538">
        <ele>676.91</ele>
        <time>2018-06-16T12:56:04Z</time>
      </trkpt>
      <trkpt lat="43.34187" lon="5.54538">
        <ele>674.5</ele>
        <time>2018-06-16T12:56:07Z</time>
      </trkpt>
      <trkpt lat="43.34179" lon="5.54545">
        <ele>674.98</ele>
        <time>2018-06-16T12:56:20Z</time>
      </trkpt>
      <trkpt lat="43.34176" lon="5.54543">
        <ele>674.98</ele>
        <time>2018-06-16T12:56:23Z</time>
      </trkpt>
      <trkpt lat="43.34167" lon="5.54545">
        <ele>674.02</ele>
        <time>2018-06-16T12:56:33Z</time>
      </trkpt>
      <trkpt lat="43.34162" lon="5.54543">
        <ele>674.02</ele>
        <time>2018-06-16T12:56:38Z</time>
      </trkpt>
      <trkpt lat="43.34157" lon="5.54544">
        <ele>673.06</ele>
        <time>2018-06-16T12:56:44Z</time>
      </trkpt>
      <trkpt lat="43.34152" lon="5.5455">
        <ele>672.58</ele>
        <time>2018-06-16T12:56:53Z</time>
      </trkpt>
      <trkpt lat="43.34149" lon="5.54555">
        <ele>672.58</ele>
        <time>2018-06-16T12:56:57Z</time>
      </trkpt>
      <trkpt lat="43.34147" lon="5.54561">
        <ele>672.1</ele>
        <time>2018-06-16T12:57:02Z</time>
      </trkpt>
      <trkpt lat="43.34144" lon="5.54571">
        <ele>672.1</ele>
        <time>2018-06-16T12:57:11Z</time>
      </trkpt>
      <trkpt lat="43.34144" lon="5.54579">
        <ele>672.1</ele>
        <time>2018-06-16T12:57:18Z</time>
      </trkpt>
      <trkpt lat="43.34143" lon="5.54582">
        <ele>672.58</ele>
        <time>2018-06-16T12:57:21Z</time>
      </trkpt>
      <trkpt lat="43.34139" lon="5.54596">
        <ele>671.62</ele>
        <time>2018-06-16T12:57:33Z</time>
      </trkpt>
      <trkpt lat="43.34138" lon="5.54599">
        <ele>672.1</ele>
        <time>2018-06-16T12:57:38Z</time>
      </trkpt>
      <trkpt lat="43.34139" lon="5.54604">
        <ele>672.1</ele>
        <time>2018-06-16T12:57:42Z</time>
      </trkpt>
      <trkpt lat="43.34141" lon="5.54612">
        <ele>672.1</ele>
        <time>2018-06-16T12:57:47Z</time>
      </trkpt>
      <trkpt lat="43.34142" lon="5.54616">
        <ele>672.58</ele>
        <time>2018-06-16T12:57:52Z</time>
      </trkpt>
      <trkpt lat="43.34144" lon="5.54621">
        <ele>672.1</ele>
        <time>2018-06-16T12:57:56Z</time>
      </trkpt>
      <trkpt lat="43.34145" lon="5.54625">
        <ele>672.1</ele>
        <time>2018-06-16T12:57:59Z</time>
      </trkpt>
      <trkpt lat="43.34147" lon="5.54637">
        <ele>673.06</ele>
        <time>2018-06-16T12:58:09Z</time>
      </trkpt>
      <trkpt lat="43.34151" lon="5.54646">
        <ele>673.06</ele>
        <time>2018-06-16T12:58:17Z</time>
      </trkpt>
      <trkpt lat="43.34152" lon="5.54657">
        <ele>673.06</ele>
        <time>2018-06-16T12:58:28Z</time>
      </trkpt>
      <trkpt lat="43.34149" lon="5.54661">
        <ele>672.58</ele>
        <time>2018-06-16T12:58:34Z</time>
      </trkpt>
      <trkpt lat="43.34146" lon="5.54668">
        <ele>671.62</ele>
        <time>2018-06-16T12:58:43Z</time>
      </trkpt>
      <trkpt lat="43.34143" lon="5.5467">
        <ele>671.14</ele>
        <time>2018-06-16T12:58:48Z</time>
      </trkpt>
      <trkpt lat="43.3414" lon="5.54675">
        <ele>669.7</ele>
        <time>2018-06-16T12:58:58Z</time>
      </trkpt>
      <trkpt lat="43.34139" lon="5.54676">
        <ele>669.7</ele>
        <time>2018-06-16T12:58:59Z</time>
      </trkpt>
      <trkpt lat="43.34133" lon="5.54685">
        <ele>668.73</ele>
        <time>2018-06-16T12:59:11Z</time>
      </trkpt>
      <trkpt lat="43.34127" lon="5.54692">
        <ele>667.77</ele>
        <time>2018-06-16T12:59:23Z</time>
      </trkpt>
      <trkpt lat="43.34121" lon="5.54692">
        <ele>666.33</ele>
        <time>2018-06-16T12:59:35Z</time>
      </trkpt>
      <trkpt lat="43.3412" lon="5.54692">
        <ele>665.85</ele>
        <time>2018-06-16T12:59:37Z</time>
      </trkpt>
      <trkpt lat="43.34117" lon="5.54692">
        <ele>665.37</ele>
        <time>2018-06-16T12:59:44Z</time>
      </trkpt>
      <trkpt lat="43.34113" lon="5.54693">
        <ele>664.41</ele>
        <time>2018-06-16T12:59:55Z</time>
      </trkpt>
      <trkpt lat="43.34113" lon="5.54693">
        <ele>663.93</ele>
        <time>2018-06-16T13:00:05Z</time>
      </trkpt>
      <trkpt lat="43.34111" lon="5.54695">
        <ele>662.49</ele>
        <time>2018-06-16T13:00:17Z</time>
      </trkpt>
      <trkpt lat="43.3411" lon="5.54696">
        <ele>661.52</ele>
        <time>2018-06-16T13:00:24Z</time>
      </trkpt>
      <trkpt lat="43.34109" lon="5.54696">
        <ele>660.56</ele>
        <time>2018-06-16T13:00:32Z</time>
      </trkpt>
      <trkpt lat="43.34102" lon="5.54698">
        <ele>659.6</ele>
        <time>2018-06-16T13:00:46Z</time>
      </trkpt>
      <trkpt lat="43.34097" lon="5.547">
        <ele>658.16</ele>
        <time>2018-06-16T13:00:58Z</time>
      </trkpt>
      <trkpt lat="43.34091" lon="5.54703">
        <ele>656.24</ele>
        <time>2018-06-16T13:01:09Z</time>
      </trkpt>
      <trkpt lat="43.3409" lon="5.54704">
        <ele>655.76</ele>
        <time>2018-06-16T13:01:21Z</time>
      </trkpt>
      <trkpt lat="43.34089" lon="5.54711">
        <ele>654.31</ele>
        <time>2018-06-16T13:01:36Z</time>
      </trkpt>
      <trkpt lat="43.34085" lon="5.54718">
        <ele>653.35</ele>
        <time>2018-06-16T13:01:47Z</time>
      </trkpt>
      <trkpt lat="43.34081" lon="5.54722">
        <ele>651.91</ele>
        <time>2018-06-16T13:01:57Z</time>
      </trkpt>
      <trkpt lat="43.3408" lon="5.54721">
        <ele>650.47</ele>
        <time>2018-06-16T13:02:07Z</time>
      </trkpt>
      <trkpt lat="43.34078" lon="5.54721">
        <ele>649.51</ele>
        <time>2018-06-16T13:02:18Z</time>
      </trkpt>
      <trkpt lat="43.34074" lon="5.54727">
        <ele>648.55</ele>
        <time>2018-06-16T13:02:29Z</time>
      </trkpt>
      <trkpt lat="43.34071" lon="5.54729">
        <ele>647.1</ele>
        <time>2018-06-16T13:02:40Z</time>
      </trkpt>
      <trkpt lat="43.34065" lon="5.54728">
        <ele>646.62</ele>
        <time>2018-06-16T13:02:52Z</time>
      </trkpt>
      <trkpt lat="43.34059" lon="5.54734">
        <ele>644.22</ele>
        <time>2018-06-16T13:03:02Z</time>
      </trkpt>
      <trkpt lat="43.34053" lon="5.54738">
        <ele>644.7</ele>
        <time>2018-06-16T13:03:13Z</time>
      </trkpt>
      <trkpt lat="43.34051" lon="5.54738">
        <ele>644.22</ele>
        <time>2018-06-16T13:03:14Z</time>
      </trkpt>
      <trkpt lat="43.34043" lon="5.54748">
        <ele>644.7</ele>
        <time>2018-06-16T13:03:28Z</time>
      </trkpt>
      <trkpt lat="43.34033" lon="5.54754">
        <ele>644.22</ele>
        <time>2018-06-16T13:03:40Z</time>
      </trkpt>
      <trkpt lat="43.34031" lon="5.54754">
        <ele>643.26</ele>
        <time>2018-06-16T13:03:52Z</time>
      </trkpt>
      <trkpt lat="43.34024" lon="5.54759">
        <ele>643.26</ele>
        <time>2018-06-16T13:04:04Z</time>
      </trkpt>
      <trkpt lat="43.34015" lon="5.54764">
        <ele>644.7</ele>
        <time>2018-06-16T13:04:14Z</time>
      </trkpt>
      <trkpt lat="43.34013" lon="5.54765">
        <ele>645.18</ele>
        <time>2018-06-16T13:04:16Z</time>
      </trkpt>
      <trkpt lat="43.34006" lon="5.54767">
        <ele>645.66</ele>
        <time>2018-06-16T13:04:22Z</time>
      </trkpt>
      <trkpt lat="43.34002" lon="5.54767">
        <ele>645.66</ele>
        <time>2018-06-16T13:04:30Z</time>
      </trkpt>
      <trkpt lat="43.33995" lon="5.54768">
        <ele>646.62</ele>
        <time>2018-06-16T13:04:41Z</time>
      </trkpt>
      <trkpt lat="43.3399" lon="5.54765">
        <ele>646.62</ele>
        <time>2018-06-16T13:04:51Z</time>
      </trkpt>
      <trkpt lat="43.33985" lon="5.54764">
        <ele>647.59</ele>
        <time>2018-06-16T13:04:56Z</time>
      </trkpt>
      <trkpt lat="43.3398" lon="5.54764">
        <ele>648.07</ele>
        <time>2018-06-16T13:05:07Z</time>
      </trkpt>
      <trkpt lat="43.33974" lon="5.54757">
        <ele>649.99</ele>
        <time>2018-06-16T13:05:19Z</time>
      </trkpt>
      <trkpt lat="43.33973" lon="5.54756">
        <ele>649.99</ele>
        <time>2018-06-16T13:05:21Z</time>
      </trkpt>
      <trkpt lat="43.33971" lon="5.54756">
        <ele>649.99</ele>
        <time>2018-06-16T13:05:23Z</time>
      </trkpt>
      <trkpt lat="43.33964" lon="5.54755">
        <ele>650.47</ele>
        <time>2018-06-16T13:05:33Z</time>
      </trkpt>
      <trkpt lat="43.33957" lon="5.54758">
        <ele>650.47</ele>
        <time>2018-06-16T13:05:44Z</time>
      </trkpt>
      <trkpt lat="43.33952" lon="5.54759">
        <ele>650.47</ele>
        <time>2018-06-16T13:05:50Z</time>
      </trkpt>
      <trkpt lat="43.33949" lon="5.54759">
        <ele>650.47</ele>
        <time>2018-06-16T13:05:54Z</time>
      </trkpt>
      <trkpt lat="43.33947" lon="5.54762">
        <ele>650.47</ele>
        <time>2018-06-16T13:06:07Z</time>
      </trkpt>
      <trkpt lat="43.33945" lon="5.54765">
        <ele>649.99</ele>
        <time>2018-06-16T13:06:25Z</time>
      </trkpt>
      <trkpt lat="43.33943" lon="5.54765">
        <ele>649.51</ele>
        <time>2018-06-16T13:06:27Z</time>
      </trkpt>
      <trkpt lat="43.33936" lon="5.54766">
        <ele>649.51</ele>
        <time>2018-06-16T13:06:37Z</time>
      </trkpt>
      <trkpt lat="43.33926" lon="5.54772">
        <ele>648.55</ele>
        <time>2018-06-16T13:06:51Z</time>
      </trkpt>
      <trkpt lat="43.33923" lon="5.54773">
        <ele>648.55</ele>
        <time>2018-06-16T13:06:55Z</time>
      </trkpt>
      <trkpt lat="43.33911" lon="5.54782">
        <ele>648.07</ele>
        <time>2018-06-16T13:07:11Z</time>
      </trkpt>
      <trkpt lat="43.3391" lon="5.54783">
        <ele>647.59</ele>
        <time>2018-06-16T13:07:13Z</time>
      </trkpt>
      <trkpt lat="43.33908" lon="5.54785">
        <ele>647.59</ele>
        <time>2018-06-16T13:07:17Z</time>
      </trkpt>
      <trkpt lat="43.33897" lon="5.54793">
        <ele>646.62</ele>
        <time>2018-06-16T13:07:31Z</time>
      </trkpt>
      <trkpt lat="43.33892" lon="5.54797">
        <ele>645.66</ele>
        <time>2018-06-16T13:07:38Z</time>
      </trkpt>
      <trkpt lat="43.3389" lon="5.54798">
        <ele>645.66</ele>
        <time>2018-06-16T13:07:40Z</time>
      </trkpt>
      <trkpt lat="43.33889" lon="5.54799">
        <ele>645.18</ele>
        <time>2018-06-16T13:07:42Z</time>
      </trkpt>
      <trkpt lat="43.33887" lon="5.54801">
        <ele>644.7</ele>
        <time>2018-06-16T13:07:44Z</time>
      </trkpt>
      <trkpt lat="43.33884" lon="5.54803">
        <ele>645.18</ele>
        <time>2018-06-16T13:07:48Z</time>
      </trkpt>
      <trkpt lat="43.3388" lon="5.54806">
        <ele>644.22</ele>
        <time>2018-06-16T13:07:53Z</time>
      </trkpt>
      <trkpt lat="43.33873" lon="5.54811">
        <ele>644.22</ele>
        <time>2018-06-16T13:08:04Z</time>
      </trkpt>
      <trkpt lat="43.33864" lon="5.54814">
        <ele>643.74</ele>
        <time>2018-06-16T13:08:13Z</time>
      </trkpt>
      <trkpt lat="43.33854" lon="5.54818">
        <ele>642.3</ele>
        <time>2018-06-16T13:08:25Z</time>
      </trkpt>
      <trkpt lat="43.33843" lon="5.54819">
        <ele>641.34</ele>
        <time>2018-06-16T13:08:36Z</time>
      </trkpt>
      <trkpt lat="43.33842" lon="5.54819">
        <ele>641.34</ele>
        <time>2018-06-16T13:08:37Z</time>
      </trkpt>
      <trkpt lat="43.33823" lon="5.54817">
        <ele>640.86</ele>
        <time>2018-06-16T13:08:55Z</time>
      </trkpt>
      <trkpt lat="43.33814" lon="5.54817">
        <ele>640.38</ele>
        <time>2018-06-16T13:09:05Z</time>
      </trkpt>
      <trkpt lat="43.33806" lon="5.54816">
        <ele>638.93</ele>
        <time>2018-06-16T13:09:15Z</time>
      </trkpt>
      <trkpt lat="43.33804" lon="5.54817">
        <ele>639.89</ele>
        <time>2018-06-16T13:09:18Z</time>
      </trkpt>
      <trkpt lat="43.33792" lon="5.54816">
        <ele>638.45</ele>
        <time>2018-06-16T13:09:30Z</time>
      </trkpt>
      <trkpt lat="43.33781" lon="5.54816">
        <ele>637.97</ele>
        <time>2018-06-16T13:09:43Z</time>
      </trkpt>
      <trkpt lat="43.33776" lon="5.54815">
        <ele>637.49</ele>
        <time>2018-06-16T13:09:48Z</time>
      </trkpt>
      <trkpt lat="43.33762" lon="5.54815">
        <ele>637.01</ele>
        <time>2018-06-16T13:10:02Z</time>
      </trkpt>
      <trkpt lat="43.33757" lon="5.54815">
        <ele>636.53</ele>
        <time>2018-06-16T13:10:06Z</time>
      </trkpt>
      <trkpt lat="43.33742" lon="5.54813">
        <ele>637.01</ele>
        <time>2018-06-16T13:10:22Z</time>
      </trkpt>
      <trkpt lat="43.33734" lon="5.54814">
        <ele>635.09</ele>
        <time>2018-06-16T13:10:30Z</time>
      </trkpt>
      <trkpt lat="43.33728" lon="5.54816">
        <ele>634.13</ele>
        <time>2018-06-16T13:10:38Z</time>
      </trkpt>
      <trkpt lat="43.33723" lon="5.54818">
        <ele>635.57</ele>
        <time>2018-06-16T13:10:45Z</time>
      </trkpt>
      <trkpt lat="43.33719" lon="5.54818">
        <ele>634.61</ele>
        <time>2018-06-16T13:10:48Z</time>
      </trkpt>
      <trkpt lat="43.33717" lon="5.54818">
        <ele>635.09</ele>
        <time>2018-06-16T13:10:51Z</time>
      </trkpt>
      <trkpt lat="43.33711" lon="5.5482">
        <ele>634.13</ele>
        <time>2018-06-16T13:10:56Z</time>
      </trkpt>
      <trkpt lat="43.33702" lon="5.54823">
        <ele>634.13</ele>
        <time>2018-06-16T13:11:09Z</time>
      </trkpt>
      <trkpt lat="43.33699" lon="5.54824">
        <ele>634.13</ele>
        <time>2018-06-16T13:11:14Z</time>
      </trkpt>
      <trkpt lat="43.3369" lon="5.54825">
        <ele>634.13</ele>
        <time>2018-06-16T13:11:25Z</time>
      </trkpt>
      <trkpt lat="43.33681" lon="5.54829">
        <ele>633.65</ele>
        <time>2018-06-16T13:11:36Z</time>
      </trkpt>
      <trkpt lat="43.3368" lon="5.54829">
        <ele>633.65</ele>
        <time>2018-06-16T13:11:37Z</time>
      </trkpt>
      <trkpt lat="43.33672" lon="5.5483">
        <ele>633.65</ele>
        <time>2018-06-16T13:11:46Z</time>
      </trkpt>
      <trkpt lat="43.3367" lon="5.5483">
        <ele>634.13</ele>
        <time>2018-06-16T13:11:48Z</time>
      </trkpt>
      <trkpt lat="43.33659" lon="5.54832">
        <ele>633.17</ele>
        <time>2018-06-16T13:12:02Z</time>
      </trkpt>
      <trkpt lat="43.33653" lon="5.54833">
        <ele>633.17</ele>
        <time>2018-06-16T13:12:08Z</time>
      </trkpt>
      <trkpt lat="43.33639" lon="5.54841">
        <ele>633.65</ele>
        <time>2018-06-16T13:12:22Z</time>
      </trkpt>
      <trkpt lat="43.33636" lon="5.54842">
        <ele>633.65</ele>
        <time>2018-06-16T13:12:25Z</time>
      </trkpt>
      <trkpt lat="43.3363" lon="5.5485">
        <ele>633.17</ele>
        <time>2018-06-16T13:12:34Z</time>
      </trkpt>
      <trkpt lat="43.33621" lon="5.54855">
        <ele>633.17</ele>
        <time>2018-06-16T13:12:43Z</time>
      </trkpt>
      <trkpt lat="43.33615" lon="5.5486">
        <ele>633.17</ele>
        <time>2018-06-16T13:12:50Z</time>
      </trkpt>
      <trkpt lat="43.33603" lon="5.5487">
        <ele>632.68</ele>
        <time>2018-06-16T13:13:05Z</time>
      </trkpt>
      <trkpt lat="43.33593" lon="5.54882">
        <ele>632.68</ele>
        <time>2018-06-16T13:13:19Z</time>
      </trkpt>
      <trkpt lat="43.33591" lon="5.54884">
        <ele>632.2</ele>
        <time>2018-06-16T13:13:22Z</time>
      </trkpt>
      <trkpt lat="43.33587" lon="5.54892">
        <ele>632.2</ele>
        <time>2018-06-16T13:13:29Z</time>
      </trkpt>
      <trkpt lat="43.33583" lon="5.54908">
        <ele>631.24</ele>
        <time>2018-06-16T13:13:43Z</time>
      </trkpt>
      <trkpt lat="43.33579" lon="5.54923">
        <ele>631.24</ele>
        <time>2018-06-16T13:13:55Z</time>
      </trkpt>
      <trkpt lat="43.33575" lon="5.5494">
        <ele>631.24</ele>
        <time>2018-06-16T13:14:08Z</time>
      </trkpt>
      <trkpt lat="43.33573" lon="5.54949">
        <ele>630.76</ele>
        <time>2018-06-16T13:14:14Z</time>
      </trkpt>
      <trkpt lat="43.3357" lon="5.54958">
        <ele>630.28</ele>
        <time>2018-06-16T13:14:21Z</time>
      </trkpt>
      <trkpt lat="43.33565" lon="5.54973">
        <ele>629.8</ele>
        <time>2018-06-16T13:14:33Z</time>
      </trkpt>
      <trkpt lat="43.33562" lon="5.54994">
        <ele>629.32</ele>
        <time>2018-06-16T13:14:48Z</time>
      </trkpt>
      <trkpt lat="43.33561" lon="5.54999">
        <ele>628.84</ele>
        <time>2018-06-16T13:14:52Z</time>
      </trkpt>
      <trkpt lat="43.3356" lon="5.55004">
        <ele>628.36</ele>
        <time>2018-06-16T13:14:56Z</time>
      </trkpt>
      <trkpt lat="43.33557" lon="5.55017">
        <ele>627.88</ele>
        <time>2018-06-16T13:15:08Z</time>
      </trkpt>
      <trkpt lat="43.33552" lon="5.55031">
        <ele>627.88</ele>
        <time>2018-06-16T13:15:19Z</time>
      </trkpt>
      <trkpt lat="43.33551" lon="5.55035">
        <ele>627.4</ele>
        <time>2018-06-16T13:15:23Z</time>
      </trkpt>
      <trkpt lat="43.33545" lon="5.55048">
        <ele>626.44</ele>
        <time>2018-06-16T13:15:34Z</time>
      </trkpt>
      <trkpt lat="43.33543" lon="5.55051">
        <ele>626.92</ele>
        <time>2018-06-16T13:15:36Z</time>
      </trkpt>
      <trkpt lat="43.33535" lon="5.55063">
        <ele>626.92</ele>
        <time>2018-06-16T13:15:46Z</time>
      </trkpt>
      <trkpt lat="43.33534" lon="5.55066">
        <ele>627.4</ele>
        <time>2018-06-16T13:15:48Z</time>
      </trkpt>
      <trkpt lat="43.33531" lon="5.55069">
        <ele>627.4</ele>
        <time>2018-06-16T13:15:51Z</time>
      </trkpt>
      <trkpt lat="43.33524" lon="5.55077">
        <ele>626.92</ele>
        <time>2018-06-16T13:16:02Z</time>
      </trkpt>
      <trkpt lat="43.33523" lon="5.55079">
        <ele>626.92</ele>
        <time>2018-06-16T13:16:04Z</time>
      </trkpt>
      <trkpt lat="43.33514" lon="5.55088">
        <ele>627.4</ele>
        <time>2018-06-16T13:16:17Z</time>
      </trkpt>
      <trkpt lat="43.33513" lon="5.5509">
        <ele>627.4</ele>
        <time>2018-06-16T13:16:25Z</time>
      </trkpt>
      <trkpt lat="43.33515" lon="5.55095">
        <ele>626.92</ele>
        <time>2018-06-16T13:16:29Z</time>
      </trkpt>
      <trkpt lat="43.3352" lon="5.55109">
        <ele>627.4</ele>
        <time>2018-06-16T13:16:42Z</time>
      </trkpt>
      <trkpt lat="43.3352" lon="5.55109">
        <ele>626.92</ele>
        <time>2018-06-16T13:16:54Z</time>
      </trkpt>
      <trkpt lat="43.3352" lon="5.55108">
        <ele>626.92</ele>
        <time>2018-06-16T13:17:06Z</time>
      </trkpt>
      <trkpt lat="43.3352" lon="5.55108">
        <ele>626.44</ele>
        <time>2018-06-16T13:17:18Z</time>
      </trkpt>
      <trkpt lat="43.3352" lon="5.55109">
        <ele>626.44</ele>
        <time>2018-06-16T13:17:31Z</time>
      </trkpt>
      <trkpt lat="43.3352" lon="5.55109">
        <ele>625.96</ele>
        <time>2018-06-16T13:17:59Z</time>
      </trkpt>
      <trkpt lat="43.3352" lon="5.55109">
        <ele>626.44</ele>
        <time>2018-06-16T13:18:23Z</time>
      </trkpt>
      <trkpt lat="43.3352" lon="5.55109">
        <ele>625.47</ele>
        <time>2018-06-16T13:18:29Z</time>
      </trkpt>
      <trkpt lat="43.3352" lon="5.5511">
        <ele>626.44</ele>
        <time>2018-06-16T13:18:44Z</time>
      </trkpt>
      <trkpt lat="43.3352" lon="5.5511">
        <ele>626.44</ele>
        <time>2018-06-16T13:19:01Z</time>
      </trkpt>
      <trkpt lat="43.3352" lon="5.5511">
        <ele>626.44</ele>
        <time>2018-06-16T13:19:27Z</time>
      </trkpt>
      <trkpt lat="43.3352" lon="5.55112">
        <ele>626.44</ele>
        <time>2018-06-16T13:19:39Z</time>
      </trkpt>
      <trkpt lat="43.33521" lon="5.5511">
        <ele>626.44</ele>
        <time>2018-06-16T13:19:49Z</time>
      </trkpt>
      <trkpt lat="43.33524" lon="5.55111">
        <ele>626.44</ele>
        <time>2018-06-16T13:19:55Z</time>
      </trkpt>
      <trkpt lat="43.3353" lon="5.55109">
        <ele>626.44</ele>
        <time>2018-06-16T13:20:01Z</time>
      </trkpt>
      <trkpt lat="43.33536" lon="5.55111">
        <ele>625.96</ele>
        <time>2018-06-16T13:20:08Z</time>
      </trkpt>
      <trkpt lat="43.33543" lon="5.55109">
        <ele>625.96</ele>
        <time>2018-06-16T13:20:20Z</time>
      </trkpt>
      <trkpt lat="43.33542" lon="5.55108">
        <ele>624.99</ele>
        <time>2018-06-16T13:20:33Z</time>
      </trkpt>
      <trkpt lat="43.33542" lon="5.55107">
        <ele>625.47</ele>
        <time>2018-06-16T13:20:52Z</time>
      </trkpt>
      <trkpt lat="43.33542" lon="5.55106">
        <ele>625.96</ele>
        <time>2018-06-16T13:21:07Z</time>
      </trkpt>
      <trkpt lat="43.33538" lon="5.55106">
        <ele>625.96</ele>
        <time>2018-06-16T13:21:20Z</time>
      </trkpt>
      <trkpt lat="43.33534" lon="5.55107">
        <ele>625.96</ele>
        <time>2018-06-16T13:21:26Z</time>
      </trkpt>
      <trkpt lat="43.33524" lon="5.55108">
        <ele>626.44</ele>
        <time>2018-06-16T13:21:39Z</time>
      </trkpt>
      <trkpt lat="43.33521" lon="5.55108">
        <ele>625.47</ele>
        <time>2018-06-16T13:21:52Z</time>
      </trkpt>
      <trkpt lat="43.33521" lon="5.55109">
        <ele>625.96</ele>
        <time>2018-06-16T13:22:21Z</time>
      </trkpt>
      <trkpt lat="43.33521" lon="5.55109">
        <ele>625.47</ele>
        <time>2018-06-16T13:22:49Z</time>
      </trkpt>
      <trkpt lat="43.33522" lon="5.55109">
        <ele>624.99</ele>
        <time>2018-06-16T13:23:23Z</time>
      </trkpt>
      <trkpt lat="43.33522" lon="5.55109">
        <ele>625.47</ele>
        <time>2018-06-16T13:23:56Z</time>
      </trkpt>
      <trkpt lat="43.33522" lon="5.5511">
        <ele>625.96</ele>
        <time>2018-06-16T13:24:26Z</time>
      </trkpt>
      <trkpt lat="43.33522" lon="5.55112">
        <ele>625.47</ele>
        <time>2018-06-16T13:24:47Z</time>
      </trkpt>
      <trkpt lat="43.33521" lon="5.55113">
        <ele>625.96</ele>
        <time>2018-06-16T13:25:21Z</time>
      </trkpt>
      <trkpt lat="43.33521" lon="5.55112">
        <ele>625.96</ele>
        <time>2018-06-16T13:25:53Z</time>
      </trkpt>
      <trkpt lat="43.33521" lon="5.55112">
        <ele>625.47</ele>
        <time>2018-06-16T13:26:17Z</time>
      </trkpt>
      <trkpt lat="43.33521" lon="5.55113">
        <ele>625.96</ele>
        <time>2018-06-16T13:26:28Z</time>
      </trkpt>
      <trkpt lat="43.33516" lon="5.55112">
        <ele>625.47</ele>
        <time>2018-06-16T13:26:34Z</time>
      </trkpt>
      <trkpt lat="43.33515" lon="5.5511">
        <ele>625.47</ele>
        <time>2018-06-16T13:26:36Z</time>
      </trkpt>
      <trkpt lat="43.33511" lon="5.55106">
        <ele>625.47</ele>
        <time>2018-06-16T13:26:41Z</time>
      </trkpt>
      <trkpt lat="43.33507" lon="5.55101">
        <ele>625.96</ele>
        <time>2018-06-16T13:26:47Z</time>
      </trkpt>
      <trkpt lat="43.33503" lon="5.55096">
        <ele>625.47</ele>
        <time>2018-06-16T13:26:55Z</time>
      </trkpt>
      <trkpt lat="43.33502" lon="5.55096">
        <ele>626.92</ele>
        <time>2018-06-16T13:27:01Z</time>
      </trkpt>
      <trkpt lat="43.33501" lon="5.55094">
        <ele>625.47</ele>
        <time>2018-06-16T13:27:03Z</time>
      </trkpt>
      <trkpt lat="43.335" lon="5.55093">
        <ele>625.47</ele>
        <time>2018-06-16T13:27:25Z</time>
      </trkpt>
      <trkpt lat="43.33501" lon="5.55091">
        <ele>625.47</ele>
        <time>2018-06-16T13:27:29Z</time>
      </trkpt>
      <trkpt lat="43.33502" lon="5.55089">
        <ele>625.96</ele>
        <time>2018-06-16T13:27:37Z</time>
      </trkpt>
      <trkpt lat="43.33503" lon="5.55091">
        <ele>625.96</ele>
        <time>2018-06-16T13:27:41Z</time>
      </trkpt>
      <trkpt lat="43.33504" lon="5.55092">
        <ele>626.92</ele>
        <time>2018-06-16T13:27:48Z</time>
      </trkpt>
      <trkpt lat="43.33504" lon="5.55092">
        <ele>625.96</ele>
        <time>2018-06-16T13:27:52Z</time>
      </trkpt>
      <trkpt lat="43.33509" lon="5.55092">
        <ele>626.44</ele>
        <time>2018-06-16T13:28:02Z</time>
      </trkpt>
      <trkpt lat="43.3351" lon="5.55093">
        <ele>626.92</ele>
        <time>2018-06-16T13:28:27Z</time>
      </trkpt>
      <trkpt lat="43.3351" lon="5.55092">
        <ele>626.44</ele>
        <time>2018-06-16T13:28:47Z</time>
      </trkpt>
      <trkpt lat="43.33507" lon="5.55092">
        <ele>626.44</ele>
        <time>2018-06-16T13:28:57Z</time>
      </trkpt>
      <trkpt lat="43.33511" lon="5.55094">
        <ele>626.44</ele>
        <time>2018-06-16T13:29:04Z</time>
      </trkpt>
      <trkpt lat="43.33517" lon="5.55105">
        <ele>626.44</ele>
        <time>2018-06-16T13:29:16Z</time>
      </trkpt>
      <trkpt lat="43.3352" lon="5.55107">
        <ele>626.44</ele>
        <time>2018-06-16T13:29:30Z</time>
      </trkpt>
      <trkpt lat="43.3352" lon="5.55107">
        <ele>625.96</ele>
        <time>2018-06-16T13:29:49Z</time>
      </trkpt>
      <trkpt lat="43.33521" lon="5.55109">
        <ele>626.44</ele>
        <time>2018-06-16T13:30:09Z</time>
      </trkpt>
      <trkpt lat="43.33518" lon="5.55109">
        <ele>625.47</ele>
        <time>2018-06-16T13:30:23Z</time>
      </trkpt>
      <trkpt lat="43.33517" lon="5.55105">
        <ele>626.44</ele>
        <time>2018-06-16T13:30:32Z</time>
      </trkpt>
      <trkpt lat="43.33515" lon="5.55104">
        <ele>625.96</ele>
        <time>2018-06-16T13:30:35Z</time>
      </trkpt>
      <trkpt lat="43.3351" lon="5.55105">
        <ele>626.92</ele>
        <time>2018-06-16T13:30:47Z</time>
      </trkpt>
      <trkpt lat="43.33512" lon="5.55104">
        <ele>626.44</ele>
        <time>2018-06-16T13:30:59Z</time>
      </trkpt>
      <trkpt lat="43.33514" lon="5.55104">
        <ele>626.44</ele>
        <time>2018-06-16T13:31:13Z</time>
      </trkpt>
      <trkpt lat="43.33516" lon="5.55107">
        <ele>626.44</ele>
        <time>2018-06-16T13:31:17Z</time>
      </trkpt>
      <trkpt lat="43.3352" lon="5.55113">
        <ele>626.44</ele>
        <time>2018-06-16T13:31:28Z</time>
      </trkpt>
      <trkpt lat="43.3352" lon="5.55109">
        <ele>625.96</ele>
        <time>2018-06-16T13:31:42Z</time>
      </trkpt>
      <trkpt lat="43.3352" lon="5.55109">
        <ele>625.96</ele>
        <time>2018-06-16T13:31:54Z</time>
      </trkpt>
      <trkpt lat="43.33519" lon="5.55109">
        <ele>626.44</ele>
        <time>2018-06-16T13:32:07Z</time>
      </trkpt>
      <trkpt lat="43.33521" lon="5.55109">
        <ele>626.44</ele>
        <time>2018-06-16T13:32:16Z</time>
      </trkpt>
      <trkpt lat="43.33521" lon="5.55109">
        <ele>626.44</ele>
        <time>2018-06-16T13:32:29Z</time>
      </trkpt>
      <trkpt lat="43.33521" lon="5.55109">
        <ele>626.44</ele>
        <time>2018-06-16T13:32:41Z</time>
      </trkpt>
      <trkpt lat="43.33518" lon="5.55107">
        <ele>626.44</ele>
        <time>2018-06-16T13:32:53Z</time>
      </trkpt>
      <trkpt lat="43.33519" lon="5.55109">
        <ele>625.96</ele>
        <time>2018-06-16T13:33:09Z</time>
      </trkpt>
      <trkpt lat="43.3352" lon="5.5511">
        <ele>625.96</ele>
        <time>2018-06-16T13:33:25Z</time>
      </trkpt>
      <trkpt lat="43.33519" lon="5.55109">
        <ele>625.96</ele>
        <time>2018-06-16T13:33:42Z</time>
      </trkpt>
      <trkpt lat="43.33519" lon="5.55109">
        <ele>626.92</ele>
        <time>2018-06-16T13:34:07Z</time>
      </trkpt>
      <trkpt lat="43.3352" lon="5.55109">
        <ele>626.44</ele>
        <time>2018-06-16T13:34:30Z</time>
      </trkpt>
      <trkpt lat="43.33519" lon="5.55107">
        <ele>626.44</ele>
        <time>2018-06-16T13:34:59Z</time>
      </trkpt>
      <trkpt lat="43.33518" lon="5.55105">
        <ele>626.44</ele>
        <time>2018-06-16T13:35:27Z</time>
      </trkpt>
      <trkpt lat="43.3352" lon="5.55105">
        <ele>626.44</ele>
        <time>2018-06-16T13:35:47Z</time>
      </trkpt>
      <trkpt lat="43.33531" lon="5.55108">
        <ele>626.44</ele>
        <time>2018-06-16T13:35:59Z</time>
      </trkpt>
      <trkpt lat="43.33533" lon="5.55111">
        <ele>626.44</ele>
        <time>2018-06-16T13:36:10Z</time>
      </trkpt>
      <trkpt lat="43.33532" lon="5.55113">
        <ele>626.44</ele>
        <time>2018-06-16T13:36:27Z</time>
      </trkpt>
      <trkpt lat="43.33531" lon="5.55114">
        <ele>625.96</ele>
        <time>2018-06-16T13:36:50Z</time>
      </trkpt>
      <trkpt lat="43.33532" lon="5.55115">
        <ele>626.44</ele>
        <time>2018-06-16T13:37:08Z</time>
      </trkpt>
      <trkpt lat="43.3353" lon="5.55116">
        <ele>626.92</ele>
        <time>2018-06-16T13:37:28Z</time>
      </trkpt>
      <trkpt lat="43.33526" lon="5.5511">
        <ele>626.44</ele>
        <time>2018-06-16T13:37:43Z</time>
      </trkpt>
      <trkpt lat="43.33525" lon="5.55108">
        <ele>627.4</ele>
        <time>2018-06-16T13:37:57Z</time>
      </trkpt>
      <trkpt lat="43.33527" lon="5.55103">
        <ele>626.92</ele>
        <time>2018-06-16T13:38:10Z</time>
      </trkpt>
      <trkpt lat="43.33526" lon="5.55116">
        <ele>627.88</ele>
        <time>2018-06-16T13:38:23Z</time>
      </trkpt>
      <trkpt lat="43.33522" lon="5.55125">
        <ele>627.4</ele>
        <time>2018-06-16T13:38:33Z</time>
      </trkpt>
      <trkpt lat="43.33516" lon="5.55139">
        <ele>627.4</ele>
        <time>2018-06-16T13:38:47Z</time>
      </trkpt>
      <trkpt lat="43.33507" lon="5.55146">
        <ele>627.4</ele>
        <time>2018-06-16T13:38:59Z</time>
      </trkpt>
      <trkpt lat="43.33505" lon="5.55157">
        <ele>627.88</ele>
        <time>2018-06-16T13:39:12Z</time>
      </trkpt>
      <trkpt lat="43.33504" lon="5.5516">
        <ele>627.4</ele>
        <time>2018-06-16T13:39:26Z</time>
      </trkpt>
      <trkpt lat="43.33504" lon="5.55159">
        <ele>627.88</ele>
        <time>2018-06-16T13:39:40Z</time>
      </trkpt>
      <trkpt lat="43.33504" lon="5.55158">
        <ele>627.88</ele>
        <time>2018-06-16T13:39:51Z</time>
      </trkpt>
      <trkpt lat="43.33508" lon="5.55148">
        <ele>627.4</ele>
        <time>2018-06-16T13:40:02Z</time>
      </trkpt>
      <trkpt lat="43.33513" lon="5.55139">
        <ele>627.4</ele>
        <time>2018-06-16T13:40:11Z</time>
      </trkpt>
      <trkpt lat="43.33514" lon="5.55125">
        <ele>626.92</ele>
        <time>2018-06-16T13:40:22Z</time>
      </trkpt>
      <trkpt lat="43.33521" lon="5.55112">
        <ele>627.4</ele>
        <time>2018-06-16T13:40:35Z</time>
      </trkpt>
      <trkpt lat="43.33522" lon="5.5511">
        <ele>627.4</ele>
        <time>2018-06-16T13:40:49Z</time>
      </trkpt>
      <trkpt lat="43.33521" lon="5.55109">
        <ele>626.92</ele>
        <time>2018-06-16T13:41:02Z</time>
      </trkpt>
      <trkpt lat="43.33522" lon="5.55108">
        <ele>627.4</ele>
        <time>2018-06-16T13:41:12Z</time>
      </trkpt>
      <trkpt lat="43.33521" lon="5.55108">
        <ele>627.4</ele>
        <time>2018-06-16T13:41:26Z</time>
      </trkpt>
      <trkpt lat="43.3352" lon="5.55108">
        <ele>627.4</ele>
        <time>2018-06-16T13:41:37Z</time>
      </trkpt>
      <trkpt lat="43.3352" lon="5.55109">
        <ele>627.88</ele>
        <time>2018-06-16T13:41:48Z</time>
      </trkpt>
      <trkpt lat="43.3352" lon="5.55109">
        <ele>627.4</ele>
        <time>2018-06-16T13:42:10Z</time>
      </trkpt>
      <trkpt lat="43.33519" lon="5.55109">
        <ele>627.88</ele>
        <time>2018-06-16T13:42:28Z</time>
      </trkpt>
      <trkpt lat="43.3352" lon="5.55109">
        <ele>627.4</ele>
        <time>2018-06-16T13:42:48Z</time>
      </trkpt>
      <trkpt lat="43.3352" lon="5.55109">
        <ele>626.92</ele>
        <time>2018-06-16T13:43:09Z</time>
      </trkpt>
      <trkpt lat="43.3352" lon="5.55109">
        <ele>627.88</ele>
        <time>2018-06-16T13:43:23Z</time>
      </trkpt>
      <trkpt lat="43.3352" lon="5.55109">
        <ele>626.92</ele>
        <time>2018-06-16T13:43:41Z</time>
      </trkpt>
      <trkpt lat="43.33517" lon="5.55106">
        <ele>626.92</ele>
        <time>2018-06-16T13:43:48Z</time>
      </trkpt>
      <trkpt lat="43.33515" lon="5.55103">
        <ele>627.4</ele>
        <time>2018-06-16T13:43:51Z</time>
      </trkpt>
      <trkpt lat="43.33509" lon="5.55093">
        <ele>627.4</ele>
        <time>2018-06-16T13:44:04Z</time>
      </trkpt>
      <trkpt lat="43.33509" lon="5.55092">
        <ele>627.88</ele>
        <time>2018-06-16T13:44:05Z</time>
      </trkpt>
      <trkpt lat="43.33501" lon="5.55088">
        <ele>627.4</ele>
        <time>2018-06-16T13:44:14Z</time>
      </trkpt>
      <trkpt lat="43.33497" lon="5.55085">
        <ele>626.44</ele>
        <time>2018-06-16T13:44:19Z</time>
      </trkpt>
      <trkpt lat="43.33495" lon="5.55083">
        <ele>626.44</ele>
        <time>2018-06-16T13:44:22Z</time>
      </trkpt>
      <trkpt lat="43.3349" lon="5.55078">
        <ele>625.47</ele>
        <time>2018-06-16T13:44:29Z</time>
      </trkpt>
      <trkpt lat="43.33488" lon="5.55077">
        <ele>625.47</ele>
        <time>2018-06-16T13:44:31Z</time>
      </trkpt>
      <trkpt lat="43.33485" lon="5.55071">
        <ele>624.51</ele>
        <time>2018-06-16T13:44:37Z</time>
      </trkpt>
      <trkpt lat="43.33477" lon="5.5506">
        <ele>623.55</ele>
        <time>2018-06-16T13:44:49Z</time>
      </trkpt>
      <trkpt lat="43.33471" lon="5.55052">
        <ele>623.07</ele>
        <time>2018-06-16T13:44:57Z</time>
      </trkpt>
      <trkpt lat="43.33467" lon="5.55046">
        <ele>622.59</ele>
        <time>2018-06-16T13:45:03Z</time>
      </trkpt>
      <trkpt lat="43.33465" lon="5.55043">
        <ele>621.63</ele>
        <time>2018-06-16T13:45:06Z</time>
      </trkpt>
      <trkpt lat="43.33461" lon="5.55033">
        <ele>621.63</ele>
        <time>2018-06-16T13:45:16Z</time>
      </trkpt>
      <trkpt lat="43.33456" lon="5.55016">
        <ele>619.23</ele>
        <time>2018-06-16T13:45:31Z</time>
      </trkpt>
      <trkpt lat="43.33455" lon="5.55006">
        <ele>618.26</ele>
        <time>2018-06-16T13:45:38Z</time>
      </trkpt>
      <trkpt lat="43.33451" lon="5.54985">
        <ele>618.26</ele>
        <time>2018-06-16T13:45:51Z</time>
      </trkpt>
      <trkpt lat="43.3345" lon="5.5498">
        <ele>617.78</ele>
        <time>2018-06-16T13:45:54Z</time>
      </trkpt>
      <trkpt lat="43.33447" lon="5.54963">
        <ele>617.78</ele>
        <time>2018-06-16T13:46:07Z</time>
      </trkpt>
      <trkpt lat="43.33443" lon="5.54945">
        <ele>617.3</ele>
        <time>2018-06-16T13:46:20Z</time>
      </trkpt>
      <trkpt lat="43.33442" lon="5.54941">
        <ele>617.3</ele>
        <time>2018-06-16T13:46:24Z</time>
      </trkpt>
      <trkpt lat="43.33442" lon="5.54936">
        <ele>617.3</ele>
        <time>2018-06-16T13:46:27Z</time>
      </trkpt>
      <trkpt lat="43.33439" lon="5.54923">
        <ele>616.34</ele>
        <time>2018-06-16T13:46:35Z</time>
      </trkpt>
      <trkpt lat="43.33437" lon="5.54916">
        <ele>616.34</ele>
        <time>2018-06-16T13:46:40Z</time>
      </trkpt>
      <trkpt lat="43.33434" lon="5.54908">
        <ele>615.38</ele>
        <time>2018-06-16T13:46:46Z</time>
      </trkpt>
      <trkpt lat="43.33434" lon="5.54906">
        <ele>615.38</ele>
        <time>2018-06-16T13:46:48Z</time>
      </trkpt>
      <trkpt lat="43.3343" lon="5.5489">
        <ele>613.94</ele>
        <time>2018-06-16T13:47:01Z</time>
      </trkpt>
      <trkpt lat="43.33429" lon="5.54886">
        <ele>614.42</ele>
        <time>2018-06-16T13:47:04Z</time>
      </trkpt>
      <trkpt lat="43.3343" lon="5.54881">
        <ele>614.42</ele>
        <time>2018-06-16T13:47:08Z</time>
      </trkpt>
      <trkpt lat="43.33429" lon="5.54869">
        <ele>613.94</ele>
        <time>2018-06-16T13:47:17Z</time>
      </trkpt>
      <trkpt lat="43.33429" lon="5.54863">
        <ele>614.42</ele>
        <time>2018-06-16T13:47:21Z</time>
      </trkpt>
      <trkpt lat="43.33429" lon="5.5486">
        <ele>614.42</ele>
        <time>2018-06-16T13:47:23Z</time>
      </trkpt>
      <trkpt lat="43.33429" lon="5.54855">
        <ele>613.94</ele>
        <time>2018-06-16T13:47:26Z</time>
      </trkpt>
      <trkpt lat="43.33429" lon="5.54851">
        <ele>614.42</ele>
        <time>2018-06-16T13:47:29Z</time>
      </trkpt>
      <trkpt lat="43.33429" lon="5.54841">
        <ele>614.42</ele>
        <time>2018-06-16T13:47:36Z</time>
      </trkpt>
      <trkpt lat="43.33428" lon="5.54821">
        <ele>615.38</ele>
        <time>2018-06-16T13:47:48Z</time>
      </trkpt>
      <trkpt lat="43.33428" lon="5.5482">
        <ele>615.38</ele>
        <time>2018-06-16T13:47:49Z</time>
      </trkpt>
      <trkpt lat="43.33428" lon="5.54817">
        <ele>615.86</ele>
        <time>2018-06-16T13:47:51Z</time>
      </trkpt>
      <trkpt lat="43.33428" lon="5.54802">
        <ele>617.3</ele>
        <time>2018-06-16T13:48:04Z</time>
      </trkpt>
      <trkpt lat="43.33428" lon="5.548">
        <ele>616.82</ele>
        <time>2018-06-16T13:48:06Z</time>
      </trkpt>
      <trkpt lat="43.33428" lon="5.54798">
        <ele>617.3</ele>
        <time>2018-06-16T13:48:08Z</time>
      </trkpt>
      <trkpt lat="43.3343" lon="5.54782">
        <ele>618.75</ele>
        <time>2018-06-16T13:48:20Z</time>
      </trkpt>
      <trkpt lat="43.33429" lon="5.54779">
        <ele>618.26</ele>
        <time>2018-06-16T13:48:22Z</time>
      </trkpt>
      <trkpt lat="43.33431" lon="5.54777">
        <ele>618.26</ele>
        <time>2018-06-16T13:48:24Z</time>
      </trkpt>
      <trkpt lat="43.33431" lon="5.54772">
        <ele>618.26</ele>
        <time>2018-06-16T13:48:28Z</time>
      </trkpt>
      <trkpt lat="43.33432" lon="5.54768">
        <ele>618.26</ele>
        <time>2018-06-16T13:48:31Z</time>
      </trkpt>
      <trkpt lat="43.33432" lon="5.54759">
        <ele>617.78</ele>
        <time>2018-06-16T13:48:37Z</time>
      </trkpt>
      <trkpt lat="43.33432" lon="5.54744">
        <ele>617.78</ele>
        <time>2018-06-16T13:48:48Z</time>
      </trkpt>
      <trkpt lat="43.33434" lon="5.54727">
        <ele>617.78</ele>
        <time>2018-06-16T13:49:00Z</time>
      </trkpt>
      <trkpt lat="43.33435" lon="5.54711">
        <ele>618.75</ele>
        <time>2018-06-16T13:49:12Z</time>
      </trkpt>
      <trkpt lat="43.33429" lon="5.54695">
        <ele>618.26</ele>
        <time>2018-06-16T13:49:25Z</time>
      </trkpt>
      <trkpt lat="43.33427" lon="5.54693">
        <ele>617.78</ele>
        <time>2018-06-16T13:49:31Z</time>
      </trkpt>
      <trkpt lat="43.33415" lon="5.54682">
        <ele>616.34</ele>
        <time>2018-06-16T13:49:46Z</time>
      </trkpt>
      <trkpt lat="43.33415" lon="5.54682">
        <ele>616.34</ele>
        <time>2018-06-16T13:49:47Z</time>
      </trkpt>
      <trkpt lat="43.33411" lon="5.5468">
        <ele>615.86</ele>
        <time>2018-06-16T13:49:58Z</time>
      </trkpt>
      <trkpt lat="43.3341" lon="5.54678">
        <ele>615.38</ele>
        <time>2018-06-16T13:50:01Z</time>
      </trkpt>
      <trkpt lat="43.33409" lon="5.54677">
        <ele>615.86</ele>
        <time>2018-06-16T13:50:03Z</time>
      </trkpt>
      <trkpt lat="43.33404" lon="5.54674">
        <ele>615.38</ele>
        <time>2018-06-16T13:50:07Z</time>
      </trkpt>
      <trkpt lat="43.33401" lon="5.54674">
        <ele>614.42</ele>
        <time>2018-06-16T13:50:11Z</time>
      </trkpt>
      <trkpt lat="43.33396" lon="5.54666">
        <ele>614.9</ele>
        <time>2018-06-16T13:50:19Z</time>
      </trkpt>
      <trkpt lat="43.33387" lon="5.54653">
        <ele>614.42</ele>
        <time>2018-06-16T13:50:31Z</time>
      </trkpt>
      <trkpt lat="43.33385" lon="5.54651">
        <ele>614.42</ele>
        <time>2018-06-16T13:50:34Z</time>
      </trkpt>
      <trkpt lat="43.3338" lon="5.54643">
        <ele>614.9</ele>
        <time>2018-06-16T13:50:42Z</time>
      </trkpt>
      <trkpt lat="43.33379" lon="5.5464">
        <ele>614.9</ele>
        <time>2018-06-16T13:50:46Z</time>
      </trkpt>
      <trkpt lat="43.33373" lon="5.54633">
        <ele>614.9</ele>
        <time>2018-06-16T13:50:53Z</time>
      </trkpt>
      <trkpt lat="43.33366" lon="5.54616">
        <ele>614.9</ele>
        <time>2018-06-16T13:51:09Z</time>
      </trkpt>
      <trkpt lat="43.33365" lon="5.5461">
        <ele>614.9</ele>
        <time>2018-06-16T13:51:25Z</time>
      </trkpt>
      <trkpt lat="43.33365" lon="5.5461">
        <ele>614.9</ele>
        <time>2018-06-16T13:51:49Z</time>
      </trkpt>
      <trkpt lat="43.33365" lon="5.54611">
        <ele>615.38</ele>
        <time>2018-06-16T13:52:08Z</time>
      </trkpt>
      <trkpt lat="43.33364" lon="5.54599">
        <ele>614.42</ele>
        <time>2018-06-16T13:52:24Z</time>
      </trkpt>
      <trkpt lat="43.33365" lon="5.54595">
        <ele>614.42</ele>
        <time>2018-06-16T13:52:27Z</time>
      </trkpt>
      <trkpt lat="43.33366" lon="5.54581">
        <ele>613.46</ele>
        <time>2018-06-16T13:52:38Z</time>
      </trkpt>
      <trkpt lat="43.33365" lon="5.54564">
        <ele>612.98</ele>
        <time>2018-06-16T13:52:52Z</time>
      </trkpt>
      <trkpt lat="43.33365" lon="5.54562">
        <ele>612.98</ele>
        <time>2018-06-16T13:52:53Z</time>
      </trkpt>
      <trkpt lat="43.33364" lon="5.54554">
        <ele>612.5</ele>
        <time>2018-06-16T13:52:58Z</time>
      </trkpt>
      <trkpt lat="43.33365" lon="5.54543">
        <ele>612.02</ele>
        <time>2018-06-16T13:53:06Z</time>
      </trkpt>
      <trkpt lat="43.33365" lon="5.5454">
        <ele>612.02</ele>
        <time>2018-06-16T13:53:08Z</time>
      </trkpt>
      <trkpt lat="43.3336" lon="5.54522">
        <ele>611.06</ele>
        <time>2018-06-16T13:53:21Z</time>
      </trkpt>
      <trkpt lat="43.33359" lon="5.5452">
        <ele>611.06</ele>
        <time>2018-06-16T13:53:23Z</time>
      </trkpt>
      <trkpt lat="43.33354" lon="5.54511">
        <ele>611.06</ele>
        <time>2018-06-16T13:53:32Z</time>
      </trkpt>
      <trkpt lat="43.33352" lon="5.54505">
        <ele>610.09</ele>
        <time>2018-06-16T13:53:36Z</time>
      </trkpt>
      <trkpt lat="43.33349" lon="5.54498">
        <ele>609.61</ele>
        <time>2018-06-16T13:53:42Z</time>
      </trkpt>
      <trkpt lat="43.33348" lon="5.54496">
        <ele>609.61</ele>
        <time>2018-06-16T13:53:44Z</time>
      </trkpt>
      <trkpt lat="43.33346" lon="5.54489">
        <ele>609.61</ele>
        <time>2018-06-16T13:53:49Z</time>
      </trkpt>
      <trkpt lat="43.33342" lon="5.54482">
        <ele>608.65</ele>
        <time>2018-06-16T13:53:55Z</time>
      </trkpt>
      <trkpt lat="43.33336" lon="5.54471">
        <ele>608.17</ele>
        <time>2018-06-16T13:54:08Z</time>
      </trkpt>
      <trkpt lat="43.33331" lon="5.5446">
        <ele>607.69</ele>
        <time>2018-06-16T13:54:17Z</time>
      </trkpt>
      <trkpt lat="43.33323" lon="5.54444">
        <ele>605.77</ele>
        <time>2018-06-16T13:54:30Z</time>
      </trkpt>
      <trkpt lat="43.33317" lon="5.5443">
        <ele>604.33</ele>
        <time>2018-06-16T13:54:43Z</time>
      </trkpt>
      <trkpt lat="43.33313" lon="5.54413">
        <ele>602.4</ele>
        <time>2018-06-16T13:54:56Z</time>
      </trkpt>
      <trkpt lat="43.33308" lon="5.54397">
        <ele>602.4</ele>
        <time>2018-06-16T13:55:07Z</time>
      </trkpt>
      <trkpt lat="43.33308" lon="5.54393">
        <ele>601.92</ele>
        <time>2018-06-16T13:55:11Z</time>
      </trkpt>
      <trkpt lat="43.33306" lon="5.54388">
        <ele>601.92</ele>
        <time>2018-06-16T13:55:15Z</time>
      </trkpt>
      <trkpt lat="43.33304" lon="5.54383">
        <ele>601.44</ele>
        <time>2018-06-16T13:55:19Z</time>
      </trkpt>
      <trkpt lat="43.33304" lon="5.5438">
        <ele>600.48</ele>
        <time>2018-06-16T13:55:21Z</time>
      </trkpt>
      <trkpt lat="43.33298" lon="5.54363">
        <ele>600</ele>
        <time>2018-06-16T13:55:34Z</time>
      </trkpt>
      <trkpt lat="43.33295" lon="5.5435">
        <ele>599.04</ele>
        <time>2018-06-16T13:55:44Z</time>
      </trkpt>
      <trkpt lat="43.33293" lon="5.54348">
        <ele>599.04</ele>
        <time>2018-06-16T13:55:46Z</time>
      </trkpt>
      <trkpt lat="43.33292" lon="5.54344">
        <ele>598.56</ele>
        <time>2018-06-16T13:55:50Z</time>
      </trkpt>
      <trkpt lat="43.33291" lon="5.5434">
        <ele>598.56</ele>
        <time>2018-06-16T13:55:53Z</time>
      </trkpt>
      <trkpt lat="43.33288" lon="5.54335">
        <ele>598.08</ele>
        <time>2018-06-16T13:55:58Z</time>
      </trkpt>
      <trkpt lat="43.33283" lon="5.54322">
        <ele>596.15</ele>
        <time>2018-06-16T13:56:09Z</time>
      </trkpt>
      <trkpt lat="43.33283" lon="5.54316">
        <ele>596.64</ele>
        <time>2018-06-16T13:56:22Z</time>
      </trkpt>
      <trkpt lat="43.33284" lon="5.54305">
        <ele>596.64</ele>
        <time>2018-06-16T13:56:34Z</time>
      </trkpt>
      <trkpt lat="43.33287" lon="5.54302">
        <ele>596.64</ele>
        <time>2018-06-16T13:56:48Z</time>
      </trkpt>
      <trkpt lat="43.33291" lon="5.543">
        <ele>596.64</ele>
        <time>2018-06-16T13:57:01Z</time>
      </trkpt>
      <trkpt lat="43.33292" lon="5.54299">
        <ele>597.12</ele>
        <time>2018-06-16T13:57:15Z</time>
      </trkpt>
      <trkpt lat="43.33295" lon="5.54301">
        <ele>598.08</ele>
        <time>2018-06-16T13:57:25Z</time>
      </trkpt>
      <trkpt lat="43.33297" lon="5.543">
        <ele>598.56</ele>
        <time>2018-06-16T13:57:41Z</time>
      </trkpt>
      <trkpt lat="43.33298" lon="5.54301">
        <ele>598.08</ele>
        <time>2018-06-16T13:58:00Z</time>
      </trkpt>
      <trkpt lat="43.33301" lon="5.543">
        <ele>598.56</ele>
        <time>2018-06-16T13:58:16Z</time>
      </trkpt>
      <trkpt lat="43.33303" lon="5.54297">
        <ele>598.56</ele>
        <time>2018-06-16T13:58:30Z</time>
      </trkpt>
      <trkpt lat="43.33304" lon="5.54295">
        <ele>599.04</ele>
        <time>2018-06-16T13:58:48Z</time>
      </trkpt>
      <trkpt lat="43.33304" lon="5.54299">
        <ele>599.04</ele>
        <time>2018-06-16T13:59:00Z</time>
      </trkpt>
      <trkpt lat="43.33303" lon="5.54304">
        <ele>599.04</ele>
        <time>2018-06-16T13:59:10Z</time>
      </trkpt>
      <trkpt lat="43.33304" lon="5.54307">
        <ele>599.04</ele>
        <time>2018-06-16T13:59:21Z</time>
      </trkpt>
      <trkpt lat="43.33306" lon="5.54311">
        <ele>600</ele>
        <time>2018-06-16T13:59:34Z</time>
      </trkpt>
      <trkpt lat="43.33309" lon="5.54312">
        <ele>600</ele>
        <time>2018-06-16T13:59:48Z</time>
      </trkpt>
      <trkpt lat="43.3331" lon="5.54312">
        <ele>600.48</ele>
        <time>2018-06-16T14:00:07Z</time>
      </trkpt>
      <trkpt lat="43.33311" lon="5.5431">
        <ele>600</ele>
        <time>2018-06-16T14:00:25Z</time>
      </trkpt>
      <trkpt lat="43.33312" lon="5.54304">
        <ele>600</ele>
        <time>2018-06-16T14:00:31Z</time>
      </trkpt>
      <trkpt lat="43.33311" lon="5.54297">
        <ele>599.52</ele>
        <time>2018-06-16T14:00:41Z</time>
      </trkpt>
      <trkpt lat="43.33309" lon="5.54296">
        <ele>600</ele>
        <time>2018-06-16T14:00:52Z</time>
      </trkpt>
      <trkpt lat="43.33308" lon="5.54295">
        <ele>599.52</ele>
        <time>2018-06-16T14:01:03Z</time>
      </trkpt>
      <trkpt lat="43.33303" lon="5.54295">
        <ele>599.52</ele>
        <time>2018-06-16T14:01:15Z</time>
      </trkpt>
      <trkpt lat="43.33302" lon="5.54294">
        <ele>598.56</ele>
        <time>2018-06-16T14:01:28Z</time>
      </trkpt>
      <trkpt lat="43.33299" lon="5.54295">
        <ele>598.56</ele>
        <time>2018-06-16T14:01:34Z</time>
      </trkpt>
      <trkpt lat="43.33295" lon="5.54293">
        <ele>597.12</ele>
        <time>2018-06-16T14:01:37Z</time>
      </trkpt>
      <trkpt lat="43.33294" lon="5.54291">
        <ele>597.6</ele>
        <time>2018-06-16T14:01:39Z</time>
      </trkpt>
      <trkpt lat="43.33293" lon="5.54294">
        <ele>597.6</ele>
        <time>2018-06-16T14:01:51Z</time>
      </trkpt>
      <trkpt lat="43.33292" lon="5.54295">
        <ele>597.6</ele>
        <time>2018-06-16T14:02:06Z</time>
      </trkpt>
      <trkpt lat="43.33293" lon="5.54295">
        <ele>597.6</ele>
        <time>2018-06-16T14:02:20Z</time>
      </trkpt>
      <trkpt lat="43.33297" lon="5.54287">
        <ele>598.56</ele>
        <time>2018-06-16T14:02:31Z</time>
      </trkpt>
      <trkpt lat="43.33297" lon="5.54285">
        <ele>597.6</ele>
        <time>2018-06-16T14:02:34Z</time>
      </trkpt>
      <trkpt lat="43.33296" lon="5.54282">
        <ele>597.6</ele>
        <time>2018-06-16T14:02:40Z</time>
      </trkpt>
      <trkpt lat="43.33298" lon="5.5428">
        <ele>598.08</ele>
        <time>2018-06-16T14:02:45Z</time>
      </trkpt>
      <trkpt lat="43.333" lon="5.54275">
        <ele>598.08</ele>
        <time>2018-06-16T14:02:49Z</time>
      </trkpt>
      <trkpt lat="43.333" lon="5.54265">
        <ele>599.04</ele>
        <time>2018-06-16T14:03:00Z</time>
      </trkpt>
      <trkpt lat="43.33299" lon="5.5426">
        <ele>598.56</ele>
        <time>2018-06-16T14:03:06Z</time>
      </trkpt>
      <trkpt lat="43.33297" lon="5.54253">
        <ele>598.08</ele>
        <time>2018-06-16T14:03:17Z</time>
      </trkpt>
      <trkpt lat="43.33289" lon="5.54238">
        <ele>597.6</ele>
        <time>2018-06-16T14:03:32Z</time>
      </trkpt>
      <trkpt lat="43.33289" lon="5.54233">
        <ele>597.6</ele>
        <time>2018-06-16T14:03:41Z</time>
      </trkpt>
      <trkpt lat="43.33291" lon="5.54229">
        <ele>597.12</ele>
        <time>2018-06-16T14:03:53Z</time>
      </trkpt>
      <trkpt lat="43.33289" lon="5.54225">
        <ele>597.6</ele>
        <time>2018-06-16T14:04:06Z</time>
      </trkpt>
      <trkpt lat="43.33285" lon="5.54222">
        <ele>597.6</ele>
        <time>2018-06-16T14:04:16Z</time>
      </trkpt>
      <trkpt lat="43.33284" lon="5.54216">
        <ele>597.6</ele>
        <time>2018-06-16T14:04:31Z</time>
      </trkpt>
      <trkpt lat="43.33281" lon="5.54213">
        <ele>597.6</ele>
        <time>2018-06-16T14:04:45Z</time>
      </trkpt>
      <trkpt lat="43.33279" lon="5.54205">
        <ele>596.64</ele>
        <time>2018-06-16T14:05:00Z</time>
      </trkpt>
      <trkpt lat="43.33279" lon="5.54202">
        <ele>597.6</ele>
        <time>2018-06-16T14:05:10Z</time>
      </trkpt>
      <trkpt lat="43.33279" lon="5.54199">
        <ele>597.6</ele>
        <time>2018-06-16T14:05:23Z</time>
      </trkpt>
      <trkpt lat="43.33281" lon="5.54192">
        <ele>598.08</ele>
        <time>2018-06-16T14:05:36Z</time>
      </trkpt>
      <trkpt lat="43.33283" lon="5.54187">
        <ele>598.56</ele>
        <time>2018-06-16T14:05:48Z</time>
      </trkpt>
      <trkpt lat="43.33282" lon="5.54186">
        <ele>598.08</ele>
        <time>2018-06-16T14:06:01Z</time>
      </trkpt>
      <trkpt lat="43.33277" lon="5.54188">
        <ele>597.6</ele>
        <time>2018-06-16T14:06:12Z</time>
      </trkpt>
      <trkpt lat="43.33273" lon="5.54189">
        <ele>597.6</ele>
        <time>2018-06-16T14:06:17Z</time>
      </trkpt>
      <trkpt lat="43.33266" lon="5.54189">
        <ele>597.12</ele>
        <time>2018-06-16T14:06:26Z</time>
      </trkpt>
      <trkpt lat="43.33262" lon="5.54188">
        <ele>596.15</ele>
        <time>2018-06-16T14:06:36Z</time>
      </trkpt>
      <trkpt lat="43.3326" lon="5.54188">
        <ele>596.15</ele>
        <time>2018-06-16T14:06:56Z</time>
      </trkpt>
      <trkpt lat="43.33259" lon="5.54188">
        <ele>595.67</ele>
        <time>2018-06-16T14:07:09Z</time>
      </trkpt>
      <trkpt lat="43.33258" lon="5.54187">
        <ele>595.67</ele>
        <time>2018-06-16T14:07:16Z</time>
      </trkpt>
      <trkpt lat="43.33255" lon="5.54181">
        <ele>595.19</ele>
        <time>2018-06-16T14:07:28Z</time>
      </trkpt>
      <trkpt lat="43.33256" lon="5.54179">
        <ele>595.19</ele>
        <time>2018-06-16T14:07:39Z</time>
      </trkpt>
      <trkpt lat="43.33256" lon="5.54179">
        <ele>594.71</ele>
        <time>2018-06-16T14:07:41Z</time>
      </trkpt>
      <trkpt lat="43.33253" lon="5.54176">
        <ele>595.19</ele>
        <time>2018-06-16T14:07:50Z</time>
      </trkpt>
      <trkpt lat="43.33254" lon="5.54174">
        <ele>595.19</ele>
        <time>2018-06-16T14:08:09Z</time>
      </trkpt>
      <trkpt lat="43.33254" lon="5.54173">
        <ele>594.71</ele>
        <time>2018-06-16T14:08:23Z</time>
      </trkpt>
      <trkpt lat="43.33255" lon="5.54173">
        <ele>594.71</ele>
        <time>2018-06-16T14:08:32Z</time>
      </trkpt>
      <trkpt lat="43.3325" lon="5.54169">
        <ele>594.23</ele>
        <time>2018-06-16T14:08:41Z</time>
      </trkpt>
      <trkpt lat="43.33251" lon="5.54168">
        <ele>593.75</ele>
        <time>2018-06-16T14:08:54Z</time>
      </trkpt>
      <trkpt lat="43.3325" lon="5.54169">
        <ele>593.27</ele>
        <time>2018-06-16T14:09:03Z</time>
      </trkpt>
      <trkpt lat="43.3325" lon="5.54169">
        <ele>593.27</ele>
        <time>2018-06-16T14:09:13Z</time>
      </trkpt>
      <trkpt lat="43.33251" lon="5.54169">
        <ele>594.23</ele>
        <time>2018-06-16T14:09:27Z</time>
      </trkpt>
      <trkpt lat="43.3325" lon="5.54169">
        <ele>593.75</ele>
        <time>2018-06-16T14:09:41Z</time>
      </trkpt>
      <trkpt lat="43.33251" lon="5.54168">
        <ele>594.23</ele>
        <time>2018-06-16T14:09:56Z</time>
      </trkpt>
      <trkpt lat="43.33251" lon="5.54169">
        <ele>593.75</ele>
        <time>2018-06-16T14:10:11Z</time>
      </trkpt>
      <trkpt lat="43.3325" lon="5.54169">
        <ele>593.75</ele>
        <time>2018-06-16T14:10:31Z</time>
      </trkpt>
      <trkpt lat="43.3325" lon="5.54168">
        <ele>593.75</ele>
        <time>2018-06-16T14:10:40Z</time>
      </trkpt>
      <trkpt lat="43.33251" lon="5.54169">
        <ele>594.23</ele>
        <time>2018-06-16T14:10:54Z</time>
      </trkpt>
      <trkpt lat="43.33251" lon="5.54169">
        <ele>593.75</ele>
        <time>2018-06-16T14:11:04Z</time>
      </trkpt>
      <trkpt lat="43.33251" lon="5.54168">
        <ele>594.23</ele>
        <time>2018-06-16T14:11:13Z</time>
      </trkpt>
      <trkpt lat="43.33251" lon="5.5417">
        <ele>594.23</ele>
        <time>2018-06-16T14:11:22Z</time>
      </trkpt>
      <trkpt lat="43.33251" lon="5.54171">
        <ele>594.23</ele>
        <time>2018-06-16T14:11:31Z</time>
      </trkpt>
      <trkpt lat="43.33251" lon="5.54171">
        <ele>594.23</ele>
        <time>2018-06-16T14:11:40Z</time>
      </trkpt>
      <trkpt lat="43.33251" lon="5.5417">
        <ele>594.23</ele>
        <time>2018-06-16T14:11:45Z</time>
      </trkpt>
      <trkpt lat="43.33252" lon="5.54172">
        <ele>594.23</ele>
        <time>2018-06-16T14:11:55Z</time>
      </trkpt>
      <trkpt lat="43.33249" lon="5.54171">
        <ele>593.75</ele>
        <time>2018-06-16T14:12:03Z</time>
      </trkpt>
      <trkpt lat="43.33246" lon="5.54171">
        <ele>593.75</ele>
        <time>2018-06-16T14:12:06Z</time>
      </trkpt>
      <trkpt lat="43.33244" lon="5.54172">
        <ele>593.27</ele>
        <time>2018-06-16T14:12:09Z</time>
      </trkpt>
      <trkpt lat="43.33237" lon="5.54168">
        <ele>592.31</ele>
        <time>2018-06-16T14:12:22Z</time>
      </trkpt>
      <trkpt lat="43.33238" lon="5.5416">
        <ele>591.83</ele>
        <time>2018-06-16T14:12:31Z</time>
      </trkpt>
      <trkpt lat="43.33239" lon="5.54158">
        <ele>591.83</ele>
        <time>2018-06-16T14:12:33Z</time>
      </trkpt>
      <trkpt lat="43.33239" lon="5.54152">
        <ele>591.83</ele>
        <time>2018-06-16T14:12:38Z</time>
      </trkpt>
      <trkpt lat="43.33242" lon="5.5414">
        <ele>589.91</ele>
        <time>2018-06-16T14:12:50Z</time>
      </trkpt>
      <trkpt lat="43.33245" lon="5.54125">
        <ele>590.39</ele>
        <time>2018-06-16T14:13:02Z</time>
      </trkpt>
      <trkpt lat="43.33238" lon="5.54114">
        <ele>588.95</ele>
        <time>2018-06-16T14:13:11Z</time>
      </trkpt>
      <trkpt lat="43.33233" lon="5.54098">
        <ele>587.5</ele>
        <time>2018-06-16T14:13:23Z</time>
      </trkpt>
      <trkpt lat="43.33233" lon="5.54097">
        <ele>587.98</ele>
        <time>2018-06-16T14:13:24Z</time>
      </trkpt>
      <trkpt lat="43.33232" lon="5.54091">
        <ele>587.02</ele>
        <time>2018-06-16T14:13:28Z</time>
      </trkpt>
      <trkpt lat="43.33234" lon="5.5408">
        <ele>586.54</ele>
        <time>2018-06-16T14:13:40Z</time>
      </trkpt>
      <trkpt lat="43.33235" lon="5.5407">
        <ele>585.1</ele>
        <time>2018-06-16T14:13:50Z</time>
      </trkpt>
      <trkpt lat="43.33235" lon="5.54068">
        <ele>585.1</ele>
        <time>2018-06-16T14:13:51Z</time>
      </trkpt>
      <trkpt lat="43.33238" lon="5.5406">
        <ele>585.58</ele>
        <time>2018-06-16T14:13:59Z</time>
      </trkpt>
      <trkpt lat="43.33242" lon="5.54054">
        <ele>585.1</ele>
        <time>2018-06-16T14:14:13Z</time>
      </trkpt>
      <trkpt lat="43.33245" lon="5.54054">
        <ele>585.58</ele>
        <time>2018-06-16T14:14:23Z</time>
      </trkpt>
      <trkpt lat="43.33245" lon="5.54053">
        <ele>586.06</ele>
        <time>2018-06-16T14:14:39Z</time>
      </trkpt>
      <trkpt lat="43.33242" lon="5.54052">
        <ele>585.58</ele>
        <time>2018-06-16T14:14:52Z</time>
      </trkpt>
      <trkpt lat="43.33239" lon="5.54056">
        <ele>585.58</ele>
        <time>2018-06-16T14:15:03Z</time>
      </trkpt>
      <trkpt lat="43.33235" lon="5.54059">
        <ele>585.1</ele>
        <time>2018-06-16T14:15:08Z</time>
      </trkpt>
      <trkpt lat="43.33235" lon="5.54063">
        <ele>585.58</ele>
        <time>2018-06-16T14:15:10Z</time>
      </trkpt>
      <trkpt lat="43.33235" lon="5.54076">
        <ele>586.06</ele>
        <time>2018-06-16T14:15:20Z</time>
      </trkpt>
      <trkpt lat="43.33234" lon="5.54088">
        <ele>587.02</ele>
        <time>2018-06-16T14:15:31Z</time>
      </trkpt>
      <trkpt lat="43.33234" lon="5.54097">
        <ele>587.5</ele>
        <time>2018-06-16T14:15:39Z</time>
      </trkpt>
      <trkpt lat="43.33238" lon="5.54109">
        <ele>588.46</ele>
        <time>2018-06-16T14:15:50Z</time>
      </trkpt>
      <trkpt lat="43.33239" lon="5.54111">
        <ele>589.43</ele>
        <time>2018-06-16T14:15:53Z</time>
      </trkpt>
      <trkpt lat="43.33242" lon="5.54118">
        <ele>589.91</ele>
        <time>2018-06-16T14:16:03Z</time>
      </trkpt>
      <trkpt lat="43.33242" lon="5.5412">
        <ele>590.39</ele>
        <time>2018-06-16T14:16:05Z</time>
      </trkpt>
      <trkpt lat="43.33243" lon="5.54125">
        <ele>590.39</ele>
        <time>2018-06-16T14:16:08Z</time>
      </trkpt>
      <trkpt lat="43.33241" lon="5.54129">
        <ele>590.39</ele>
        <time>2018-06-16T14:16:12Z</time>
      </trkpt>
      <trkpt lat="43.33241" lon="5.54133">
        <ele>590.39</ele>
        <time>2018-06-16T14:16:16Z</time>
      </trkpt>
      <trkpt lat="43.3324" lon="5.54146">
        <ele>591.35</ele>
        <time>2018-06-16T14:16:28Z</time>
      </trkpt>
      <trkpt lat="43.3324" lon="5.54152">
        <ele>591.35</ele>
        <time>2018-06-16T14:16:32Z</time>
      </trkpt>
      <trkpt lat="43.33239" lon="5.54154">
        <ele>591.35</ele>
        <time>2018-06-16T14:16:34Z</time>
      </trkpt>
      <trkpt lat="43.33238" lon="5.54159">
        <ele>591.83</ele>
        <time>2018-06-16T14:16:38Z</time>
      </trkpt>
      <trkpt lat="43.33234" lon="5.54165">
        <ele>591.35</ele>
        <time>2018-06-16T14:16:46Z</time>
      </trkpt>
      <trkpt lat="43.33225" lon="5.54167">
        <ele>590.87</ele>
        <time>2018-06-16T14:16:54Z</time>
      </trkpt>
      <trkpt lat="43.33219" lon="5.54172">
        <ele>590.87</ele>
        <time>2018-06-16T14:17:00Z</time>
      </trkpt>
      <trkpt lat="43.33216" lon="5.54173">
        <ele>590.39</ele>
        <time>2018-06-16T14:17:04Z</time>
      </trkpt>
      <trkpt lat="43.33216" lon="5.54175">
        <ele>590.39</ele>
        <time>2018-06-16T14:17:07Z</time>
      </trkpt>
      <trkpt lat="43.33211" lon="5.54176">
        <ele>589.43</ele>
        <time>2018-06-16T14:17:20Z</time>
      </trkpt>
      <trkpt lat="43.3321" lon="5.54176">
        <ele>589.43</ele>
        <time>2018-06-16T14:17:36Z</time>
      </trkpt>
      <trkpt lat="43.3321" lon="5.54174">
        <ele>589.43</ele>
        <time>2018-06-16T14:17:52Z</time>
      </trkpt>
      <trkpt lat="43.33206" lon="5.54173">
        <ele>589.43</ele>
        <time>2018-06-16T14:18:03Z</time>
      </trkpt>
      <trkpt lat="43.332" lon="5.54172">
        <ele>587.98</ele>
        <time>2018-06-16T14:18:15Z</time>
      </trkpt>
      <trkpt lat="43.332" lon="5.54172">
        <ele>587.98</ele>
        <time>2018-06-16T14:18:34Z</time>
      </trkpt>
      <trkpt lat="43.332" lon="5.54174">
        <ele>587.98</ele>
        <time>2018-06-16T14:18:36Z</time>
      </trkpt>
      <trkpt lat="43.33201" lon="5.54178">
        <ele>587.98</ele>
        <time>2018-06-16T14:18:40Z</time>
      </trkpt>
      <trkpt lat="43.33192" lon="5.54192">
        <ele>587.02</ele>
        <time>2018-06-16T14:18:53Z</time>
      </trkpt>
      <trkpt lat="43.3319" lon="5.54196">
        <ele>586.54</ele>
        <time>2018-06-16T14:18:56Z</time>
      </trkpt>
      <trkpt lat="43.3318" lon="5.54202">
        <ele>584.62</ele>
        <time>2018-06-16T14:19:09Z</time>
      </trkpt>
      <trkpt lat="43.33173" lon="5.54206">
        <ele>584.14</ele>
        <time>2018-06-16T14:19:17Z</time>
      </trkpt>
      <trkpt lat="43.33169" lon="5.54216">
        <ele>583.18</ele>
        <time>2018-06-16T14:19:25Z</time>
      </trkpt>
      <trkpt lat="43.33165" lon="5.54223">
        <ele>582.22</ele>
        <time>2018-06-16T14:19:31Z</time>
      </trkpt>
      <trkpt lat="43.33159" lon="5.54222">
        <ele>580.77</ele>
        <time>2018-06-16T14:19:41Z</time>
      </trkpt>
      <trkpt lat="43.33155" lon="5.5422">
        <ele>580.29</ele>
        <time>2018-06-16T14:19:44Z</time>
      </trkpt>
      <trkpt lat="43.33148" lon="5.54215">
        <ele>578.85</ele>
        <time>2018-06-16T14:19:51Z</time>
      </trkpt>
      <trkpt lat="43.33138" lon="5.5421">
        <ele>577.41</ele>
        <time>2018-06-16T14:20:01Z</time>
      </trkpt>
      <trkpt lat="43.33122" lon="5.54201">
        <ele>575.01</ele>
        <time>2018-06-16T14:20:17Z</time>
      </trkpt>
      <trkpt lat="43.33113" lon="5.54182">
        <ele>573.08</ele>
        <time>2018-06-16T14:20:32Z</time>
      </trkpt>
      <trkpt lat="43.33113" lon="5.5418">
        <ele>573.08</ele>
        <time>2018-06-16T14:20:33Z</time>
      </trkpt>
      <trkpt lat="43.33112" lon="5.54177">
        <ele>572.12</ele>
        <time>2018-06-16T14:20:36Z</time>
      </trkpt>
      <trkpt lat="43.33107" lon="5.54171">
        <ele>572.12</ele>
        <time>2018-06-16T14:20:40Z</time>
      </trkpt>
      <trkpt lat="43.33104" lon="5.54158">
        <ele>570.68</ele>
        <time>2018-06-16T14:20:49Z</time>
      </trkpt>
      <trkpt lat="43.33103" lon="5.54148">
        <ele>570.2</ele>
        <time>2018-06-16T14:20:55Z</time>
      </trkpt>
      <trkpt lat="43.33103" lon="5.54144">
        <ele>569.24</ele>
        <time>2018-06-16T14:20:57Z</time>
      </trkpt>
      <trkpt lat="43.33099" lon="5.54137">
        <ele>569.24</ele>
        <time>2018-06-16T14:21:02Z</time>
      </trkpt>
      <trkpt lat="43.33097" lon="5.54127">
        <ele>568.76</ele>
        <time>2018-06-16T14:21:10Z</time>
      </trkpt>
      <trkpt lat="43.33092" lon="5.54117">
        <ele>567.32</ele>
        <time>2018-06-16T14:21:19Z</time>
      </trkpt>
      <trkpt lat="43.33088" lon="5.54109">
        <ele>566.35</ele>
        <time>2018-06-16T14:21:30Z</time>
      </trkpt>
      <trkpt lat="43.33086" lon="5.54107">
        <ele>565.39</ele>
        <time>2018-06-16T14:21:35Z</time>
      </trkpt>
      <trkpt lat="43.33081" lon="5.54103">
        <ele>564.91</ele>
        <time>2018-06-16T14:21:40Z</time>
      </trkpt>
      <trkpt lat="43.33073" lon="5.54107">
        <ele>563.47</ele>
        <time>2018-06-16T14:21:49Z</time>
      </trkpt>
      <trkpt lat="43.33064" lon="5.54117">
        <ele>562.03</ele>
        <time>2018-06-16T14:22:01Z</time>
      </trkpt>
      <trkpt lat="43.33063" lon="5.54123">
        <ele>561.55</ele>
        <time>2018-06-16T14:22:05Z</time>
      </trkpt>
      <trkpt lat="43.3306" lon="5.54127">
        <ele>561.07</ele>
        <time>2018-06-16T14:22:16Z</time>
      </trkpt>
      <trkpt lat="43.33052" lon="5.54137">
        <ele>560.11</ele>
        <time>2018-06-16T14:22:26Z</time>
      </trkpt>
      <trkpt lat="43.33042" lon="5.54135">
        <ele>558.66</ele>
        <time>2018-06-16T14:22:34Z</time>
      </trkpt>
      <trkpt lat="43.33036" lon="5.54127">
        <ele>556.74</ele>
        <time>2018-06-16T14:22:42Z</time>
      </trkpt>
      <trkpt lat="43.33033" lon="5.54122">
        <ele>556.26</ele>
        <time>2018-06-16T14:22:48Z</time>
      </trkpt>
      <trkpt lat="43.33025" lon="5.5411">
        <ele>555.78</ele>
        <time>2018-06-16T14:23:00Z</time>
      </trkpt>
      <trkpt lat="43.33021" lon="5.54103">
        <ele>554.82</ele>
        <time>2018-06-16T14:23:09Z</time>
      </trkpt>
      <trkpt lat="43.33019" lon="5.54102">
        <ele>553.86</ele>
        <time>2018-06-16T14:23:11Z</time>
      </trkpt>
      <trkpt lat="43.33013" lon="5.54089">
        <ele>552.41</ele>
        <time>2018-06-16T14:23:24Z</time>
      </trkpt>
      <trkpt lat="43.33013" lon="5.54086">
        <ele>551.93</ele>
        <time>2018-06-16T14:23:38Z</time>
      </trkpt>
      <trkpt lat="43.33011" lon="5.54072">
        <ele>550.97</ele>
        <time>2018-06-16T14:23:46Z</time>
      </trkpt>
      <trkpt lat="43.3301" lon="5.5406">
        <ele>550.01</ele>
        <time>2018-06-16T14:23:54Z</time>
      </trkpt>
      <trkpt lat="43.33013" lon="5.54052">
        <ele>548.57</ele>
        <time>2018-06-16T14:24:01Z</time>
      </trkpt>
      <trkpt lat="43.33013" lon="5.54048">
        <ele>548.57</ele>
        <time>2018-06-16T14:24:04Z</time>
      </trkpt>
      <trkpt lat="43.33014" lon="5.54039">
        <ele>547.13</ele>
        <time>2018-06-16T14:24:12Z</time>
      </trkpt>
      <trkpt lat="43.33014" lon="5.54028">
        <ele>546.17</ele>
        <time>2018-06-16T14:24:22Z</time>
      </trkpt>
      <trkpt lat="43.33013" lon="5.54023">
        <ele>545.2</ele>
        <time>2018-06-16T14:24:30Z</time>
      </trkpt>
      <trkpt lat="43.33011" lon="5.54019">
        <ele>544.72</ele>
        <time>2018-06-16T14:24:33Z</time>
      </trkpt>
      <trkpt lat="43.33008" lon="5.54013">
        <ele>544.24</ele>
        <time>2018-06-16T14:24:37Z</time>
      </trkpt>
      <trkpt lat="43.33006" lon="5.54006">
        <ele>544.72</ele>
        <time>2018-06-16T14:24:42Z</time>
      </trkpt>
      <trkpt lat="43.33001" lon="5.53991">
        <ele>543.28</ele>
        <time>2018-06-16T14:24:56Z</time>
      </trkpt>
      <trkpt lat="43.32998" lon="5.53978">
        <ele>542.32</ele>
        <time>2018-06-16T14:25:06Z</time>
      </trkpt>
      <trkpt lat="43.32995" lon="5.53971">
        <ele>541.84</ele>
        <time>2018-06-16T14:25:10Z</time>
      </trkpt>
      <trkpt lat="43.32994" lon="5.53966">
        <ele>540.88</ele>
        <time>2018-06-16T14:25:13Z</time>
      </trkpt>
      <trkpt lat="43.32989" lon="5.5395">
        <ele>540.4</ele>
        <time>2018-06-16T14:25:23Z</time>
      </trkpt>
      <trkpt lat="43.32991" lon="5.53935">
        <ele>538.96</ele>
        <time>2018-06-16T14:25:34Z</time>
      </trkpt>
      <trkpt lat="43.32992" lon="5.53926">
        <ele>538.48</ele>
        <time>2018-06-16T14:25:41Z</time>
      </trkpt>
      <trkpt lat="43.32994" lon="5.53917">
        <ele>538.48</ele>
        <time>2018-06-16T14:25:53Z</time>
      </trkpt>
      <trkpt lat="43.33" lon="5.53901">
        <ele>537.03</ele>
        <time>2018-06-16T14:26:05Z</time>
      </trkpt>
      <trkpt lat="43.33001" lon="5.53897">
        <ele>536.55</ele>
        <time>2018-06-16T14:26:08Z</time>
      </trkpt>
      <trkpt lat="43.33001" lon="5.53878">
        <ele>535.59</ele>
        <time>2018-06-16T14:26:19Z</time>
      </trkpt>
      <trkpt lat="43.33004" lon="5.53874">
        <ele>535.59</ele>
        <time>2018-06-16T14:26:24Z</time>
      </trkpt>
      <trkpt lat="43.33006" lon="5.53871">
        <ele>535.11</ele>
        <time>2018-06-16T14:26:27Z</time>
      </trkpt>
      <trkpt lat="43.33006" lon="5.53867">
        <ele>535.11</ele>
        <time>2018-06-16T14:26:30Z</time>
      </trkpt>
      <trkpt lat="43.33006" lon="5.53862">
        <ele>534.63</ele>
        <time>2018-06-16T14:26:33Z</time>
      </trkpt>
      <trkpt lat="43.33005" lon="5.53857">
        <ele>534.63</ele>
        <time>2018-06-16T14:26:39Z</time>
      </trkpt>
      <trkpt lat="43.33006" lon="5.53851">
        <ele>534.15</ele>
        <time>2018-06-16T14:26:43Z</time>
      </trkpt>
      <trkpt lat="43.33004" lon="5.53842">
        <ele>533.67</ele>
        <time>2018-06-16T14:26:49Z</time>
      </trkpt>
      <trkpt lat="43.33005" lon="5.53836">
        <ele>533.19</ele>
        <time>2018-06-16T14:26:53Z</time>
      </trkpt>
      <trkpt lat="43.33006" lon="5.53821">
        <ele>531.75</ele>
        <time>2018-06-16T14:27:04Z</time>
      </trkpt>
      <trkpt lat="43.33005" lon="5.53812">
        <ele>531.27</ele>
        <time>2018-06-16T14:27:09Z</time>
      </trkpt>
      <trkpt lat="43.33003" lon="5.53799">
        <ele>530.79</ele>
        <time>2018-06-16T14:27:17Z</time>
      </trkpt>
      <trkpt lat="43.33" lon="5.53793">
        <ele>530.3</ele>
        <time>2018-06-16T14:27:21Z</time>
      </trkpt>
      <trkpt lat="43.33002" lon="5.53781">
        <ele>529.34</ele>
        <time>2018-06-16T14:27:30Z</time>
      </trkpt>
      <trkpt lat="43.33003" lon="5.53774">
        <ele>528.86</ele>
        <time>2018-06-16T14:27:35Z</time>
      </trkpt>
      <trkpt lat="43.33003" lon="5.53771">
        <ele>528.86</ele>
        <time>2018-06-16T14:27:39Z</time>
      </trkpt>
      <trkpt lat="43.33001" lon="5.53765">
        <ele>528.38</ele>
        <time>2018-06-16T14:27:43Z</time>
      </trkpt>
      <trkpt lat="43.33001" lon="5.5376">
        <ele>527.9</ele>
        <time>2018-06-16T14:27:47Z</time>
      </trkpt>
      <trkpt lat="43.33" lon="5.53752">
        <ele>527.42</ele>
        <time>2018-06-16T14:27:53Z</time>
      </trkpt>
      <trkpt lat="43.33" lon="5.53749">
        <ele>526.46</ele>
        <time>2018-06-16T14:27:55Z</time>
      </trkpt>
      <trkpt lat="43.32998" lon="5.53743">
        <ele>526.94</ele>
        <time>2018-06-16T14:27:59Z</time>
      </trkpt>
      <trkpt lat="43.32999" lon="5.53735">
        <ele>526.46</ele>
        <time>2018-06-16T14:28:06Z</time>
      </trkpt>
      <trkpt lat="43.33003" lon="5.53721">
        <ele>525.98</ele>
        <time>2018-06-16T14:28:17Z</time>
      </trkpt>
      <trkpt lat="43.33003" lon="5.53719">
        <ele>525.5</ele>
        <time>2018-06-16T14:28:18Z</time>
      </trkpt>
      <trkpt lat="43.33005" lon="5.53713">
        <ele>525.02</ele>
        <time>2018-06-16T14:28:23Z</time>
      </trkpt>
      <trkpt lat="43.33007" lon="5.53704">
        <ele>525.02</ele>
        <time>2018-06-16T14:28:29Z</time>
      </trkpt>
      <trkpt lat="43.33009" lon="5.53703">
        <ele>524.06</ele>
        <time>2018-06-16T14:28:32Z</time>
      </trkpt>
      <trkpt lat="43.33009" lon="5.53699">
        <ele>524.06</ele>
        <time>2018-06-16T14:28:35Z</time>
      </trkpt>
      <trkpt lat="43.3301" lon="5.53696">
        <ele>523.58</ele>
        <time>2018-06-16T14:28:37Z</time>
      </trkpt>
      <trkpt lat="43.33011" lon="5.53693">
        <ele>524.06</ele>
        <time>2018-06-16T14:28:40Z</time>
      </trkpt>
      <trkpt lat="43.33018" lon="5.53679">
        <ele>523.09</ele>
        <time>2018-06-16T14:28:54Z</time>
      </trkpt>
      <trkpt lat="43.33024" lon="5.5367">
        <ele>521.17</ele>
        <time>2018-06-16T14:29:06Z</time>
      </trkpt>
      <trkpt lat="43.33029" lon="5.53662">
        <ele>520.21</ele>
        <time>2018-06-16T14:29:14Z</time>
      </trkpt>
      <trkpt lat="43.33031" lon="5.53656">
        <ele>519.25</ele>
        <time>2018-06-16T14:29:21Z</time>
      </trkpt>
      <trkpt lat="43.33028" lon="5.53644">
        <ele>517.81</ele>
        <time>2018-06-16T14:29:33Z</time>
      </trkpt>
      <trkpt lat="43.33015" lon="5.53629">
        <ele>515.88</ele>
        <time>2018-06-16T14:29:46Z</time>
      </trkpt>
      <trkpt lat="43.3301" lon="5.53626">
        <ele>514.92</ele>
        <time>2018-06-16T14:29:54Z</time>
      </trkpt>
      <trkpt lat="43.33006" lon="5.53626">
        <ele>514.92</ele>
        <time>2018-06-16T14:29:57Z</time>
      </trkpt>
      <trkpt lat="43.32997" lon="5.53615">
        <ele>513</ele>
        <time>2018-06-16T14:30:10Z</time>
      </trkpt>
      <trkpt lat="43.32995" lon="5.53608">
        <ele>513.48</ele>
        <time>2018-06-16T14:30:25Z</time>
      </trkpt>
      <trkpt lat="43.32996" lon="5.536">
        <ele>513.48</ele>
        <time>2018-06-16T14:30:36Z</time>
      </trkpt>
      <trkpt lat="43.32996" lon="5.53596">
        <ele>512.52</ele>
        <time>2018-06-16T14:30:50Z</time>
      </trkpt>
      <trkpt lat="43.32997" lon="5.53594">
        <ele>513</ele>
        <time>2018-06-16T14:31:03Z</time>
      </trkpt>
      <trkpt lat="43.32999" lon="5.53591">
        <ele>512.52</ele>
        <time>2018-06-16T14:31:17Z</time>
      </trkpt>
      <trkpt lat="43.33002" lon="5.53591">
        <ele>512.04</ele>
        <time>2018-06-16T14:31:31Z</time>
      </trkpt>
      <trkpt lat="43.33004" lon="5.53591">
        <ele>511.08</ele>
        <time>2018-06-16T14:31:44Z</time>
      </trkpt>
      <trkpt lat="43.33006" lon="5.53591">
        <ele>510.12</ele>
        <time>2018-06-16T14:31:57Z</time>
      </trkpt>
      <trkpt lat="43.3301" lon="5.5359">
        <ele>509.16</ele>
        <time>2018-06-16T14:32:10Z</time>
      </trkpt>
      <trkpt lat="43.33011" lon="5.53591">
        <ele>507.23</ele>
        <time>2018-06-16T14:32:23Z</time>
      </trkpt>
      <trkpt lat="43.33016" lon="5.5359">
        <ele>506.27</ele>
        <time>2018-06-16T14:32:34Z</time>
      </trkpt>
      <trkpt lat="43.33018" lon="5.5359">
        <ele>506.27</ele>
        <time>2018-06-16T14:32:48Z</time>
      </trkpt>
      <trkpt lat="43.3302" lon="5.5359">
        <ele>505.79</ele>
        <time>2018-06-16T14:33:03Z</time>
      </trkpt>
      <trkpt lat="43.33021" lon="5.5359">
        <ele>504.83</ele>
        <time>2018-06-16T14:33:16Z</time>
      </trkpt>
      <trkpt lat="43.33022" lon="5.53587">
        <ele>503.87</ele>
        <time>2018-06-16T14:33:29Z</time>
      </trkpt>
      <trkpt lat="43.33024" lon="5.53587">
        <ele>502.91</ele>
        <time>2018-06-16T14:33:39Z</time>
      </trkpt>
      <trkpt lat="43.33025" lon="5.53588">
        <ele>502.43</ele>
        <time>2018-06-16T14:33:43Z</time>
      </trkpt>
      <trkpt lat="43.33031" lon="5.53595">
        <ele>501.95</ele>
        <time>2018-06-16T14:33:53Z</time>
      </trkpt>
      <trkpt lat="43.33035" lon="5.53599">
        <ele>500.98</ele>
        <time>2018-06-16T14:34:03Z</time>
      </trkpt>
      <trkpt lat="43.33041" lon="5.536">
        <ele>499.06</ele>
        <time>2018-06-16T14:34:16Z</time>
      </trkpt>
      <trkpt lat="43.33043" lon="5.53601">
        <ele>498.1</ele>
        <time>2018-06-16T14:34:28Z</time>
      </trkpt>
      <trkpt lat="43.33045" lon="5.53602">
        <ele>496.66</ele>
        <time>2018-06-16T14:34:41Z</time>
      </trkpt>
      <trkpt lat="43.33048" lon="5.53604">
        <ele>496.18</ele>
        <time>2018-06-16T14:34:52Z</time>
      </trkpt>
      <trkpt lat="43.33052" lon="5.53605">
        <ele>496.18</ele>
        <time>2018-06-16T14:35:09Z</time>
      </trkpt>
      <trkpt lat="43.33054" lon="5.53606">
        <ele>496.18</ele>
        <time>2018-06-16T14:35:23Z</time>
      </trkpt>
      <trkpt lat="43.33056" lon="5.53607">
        <ele>495.7</ele>
        <time>2018-06-16T14:35:37Z</time>
      </trkpt>
      <trkpt lat="43.33058" lon="5.53607">
        <ele>495.22</ele>
        <time>2018-06-16T14:35:52Z</time>
      </trkpt>
      <trkpt lat="43.3306" lon="5.53608">
        <ele>494.74</ele>
        <time>2018-06-16T14:36:05Z</time>
      </trkpt>
      <trkpt lat="43.33061" lon="5.53608">
        <ele>494.74</ele>
        <time>2018-06-16T14:36:07Z</time>
      </trkpt>
      <trkpt lat="43.33067" lon="5.53607">
        <ele>494.26</ele>
        <time>2018-06-16T14:36:18Z</time>
      </trkpt>
      <trkpt lat="43.33069" lon="5.53608">
        <ele>492.33</ele>
        <time>2018-06-16T14:36:32Z</time>
      </trkpt>
      <trkpt lat="43.33071" lon="5.53608">
        <ele>491.37</ele>
        <time>2018-06-16T14:36:43Z</time>
      </trkpt>
      <trkpt lat="43.33074" lon="5.53608">
        <ele>491.37</ele>
        <time>2018-06-16T14:36:56Z</time>
      </trkpt>
      <trkpt lat="43.33075" lon="5.53608">
        <ele>494.74</ele>
        <time>2018-06-16T14:37:03Z</time>
      </trkpt>
      <trkpt lat="43.33075" lon="5.53608">
        <ele>490.89</ele>
        <time>2018-06-16T14:37:04Z</time>
      </trkpt>
      <trkpt lat="43.33075" lon="5.53608">
        <ele>490.89</ele>
        <time>2018-06-16T14:37:05Z</time>
      </trkpt>
      <trkpt lat="43.33075" lon="5.53608">
        <ele>490.41</ele>
        <time>2018-06-16T14:37:11Z</time>
      </trkpt>
      <trkpt lat="43.33079" lon="5.53606">
        <ele>489.45</ele>
        <time>2018-06-16T14:37:20Z</time>
      </trkpt>
      <trkpt lat="43.33082" lon="5.53608">
        <ele>490.41</ele>
        <time>2018-06-16T14:37:34Z</time>
      </trkpt>
      <trkpt lat="43.33087" lon="5.53606">
        <ele>488.01</ele>
        <time>2018-06-16T14:37:46Z</time>
      </trkpt>
      <trkpt lat="43.33102" lon="5.53598">
        <ele>487.53</ele>
        <time>2018-06-16T14:37:59Z</time>
      </trkpt>
      <trkpt lat="43.33105" lon="5.53596">
        <ele>488.01</ele>
        <time>2018-06-16T14:38:02Z</time>
      </trkpt>
      <trkpt lat="43.33109" lon="5.53596">
        <ele>488.01</ele>
        <time>2018-06-16T14:38:07Z</time>
      </trkpt>
      <trkpt lat="43.33113" lon="5.53594">
        <ele>487.53</ele>
        <time>2018-06-16T14:38:12Z</time>
      </trkpt>
      <trkpt lat="43.33117" lon="5.53594">
        <ele>487.53</ele>
        <time>2018-06-16T14:38:15Z</time>
      </trkpt>
      <trkpt lat="43.33129" lon="5.53588">
        <ele>486.56</ele>
        <time>2018-06-16T14:38:29Z</time>
      </trkpt>
      <trkpt lat="43.33131" lon="5.53587">
        <ele>486.56</ele>
        <time>2018-06-16T14:38:41Z</time>
      </trkpt>
      <trkpt lat="43.33132" lon="5.53586">
        <ele>486.56</ele>
        <time>2018-06-16T14:38:52Z</time>
      </trkpt>
      <trkpt lat="43.33132" lon="5.53586">
        <ele>486.56</ele>
        <time>2018-06-16T14:39:10Z</time>
      </trkpt>
      <trkpt lat="43.33131" lon="5.53585">
        <ele>486.08</ele>
        <time>2018-06-16T14:39:25Z</time>
      </trkpt>
      <trkpt lat="43.33133" lon="5.53584">
        <ele>484.64</ele>
        <time>2018-06-16T14:39:38Z</time>
      </trkpt>
      <trkpt lat="43.33133" lon="5.53584">
        <ele>485.12</ele>
        <time>2018-06-16T14:39:50Z</time>
      </trkpt>
      <trkpt lat="43.33133" lon="5.53582">
        <ele>484.64</ele>
        <time>2018-06-16T14:40:03Z</time>
      </trkpt>
      <trkpt lat="43.33134" lon="5.53582">
        <ele>484.16</ele>
        <time>2018-06-16T14:40:19Z</time>
      </trkpt>
      <trkpt lat="43.3313" lon="5.53581">
        <ele>483.2</ele>
        <time>2018-06-16T14:40:31Z</time>
      </trkpt>
      <trkpt lat="43.33127" lon="5.53582">
        <ele>481.28</ele>
        <time>2018-06-16T14:40:42Z</time>
      </trkpt>
      <trkpt lat="43.33126" lon="5.53585">
        <ele>480.32</ele>
        <time>2018-06-16T14:40:55Z</time>
      </trkpt>
      <trkpt lat="43.33125" lon="5.53585">
        <ele>478.87</ele>
        <time>2018-06-16T14:41:08Z</time>
      </trkpt>
      <trkpt lat="43.33124" lon="5.53585">
        <ele>478.39</ele>
        <time>2018-06-16T14:41:19Z</time>
      </trkpt>
      <trkpt lat="43.33121" lon="5.53581">
        <ele>477.91</ele>
        <time>2018-06-16T14:41:28Z</time>
      </trkpt>
      <trkpt lat="43.33117" lon="5.53579">
        <ele>476.47</ele>
        <time>2018-06-16T14:41:39Z</time>
      </trkpt>
      <trkpt lat="43.33115" lon="5.53578">
        <ele>476.47</ele>
        <time>2018-06-16T14:41:50Z</time>
      </trkpt>
      <trkpt lat="43.33114" lon="5.53578">
        <ele>475.99</ele>
        <time>2018-06-16T14:42:02Z</time>
      </trkpt>
      <trkpt lat="43.33111" lon="5.53577">
        <ele>475.99</ele>
        <time>2018-06-16T14:42:13Z</time>
      </trkpt>
      <trkpt lat="43.3311" lon="5.536">
        <ele>475.51</ele>
        <time>2018-06-16T14:42:35Z</time>
      </trkpt>
      <trkpt lat="43.33106" lon="5.53613">
        <ele>475.03</ele>
        <time>2018-06-16T14:42:52Z</time>
      </trkpt>
      <trkpt lat="43.33098" lon="5.53603">
        <ele>475.03</ele>
        <time>2018-06-16T14:43:15Z</time>
      </trkpt>
      <trkpt lat="43.33096" lon="5.53609">
        <ele>475.51</ele>
        <time>2018-06-16T14:43:35Z</time>
      </trkpt>
      <trkpt lat="43.33088" lon="5.53614">
        <ele>475.03</ele>
        <time>2018-06-16T14:43:55Z</time>
      </trkpt>
      <trkpt lat="43.33095" lon="5.53593">
        <ele>475.51</ele>
        <time>2018-06-16T14:45:43Z</time>
      </trkpt>
      <trkpt lat="43.331" lon="5.53594">
        <ele>475.51</ele>
        <time>2018-06-16T14:46:09Z</time>
      </trkpt>
      <trkpt lat="43.33097" lon="5.53596">
        <ele>475.51</ele>
        <time>2018-06-16T14:46:27Z</time>
      </trkpt>
      <trkpt lat="43.331" lon="5.53596">
        <ele>476.47</ele>
        <time>2018-06-16T14:46:45Z</time>
      </trkpt>
      <trkpt lat="43.33098" lon="5.53596">
        <ele>475.51</ele>
        <time>2018-06-16T14:46:59Z</time>
      </trkpt>
      <trkpt lat="43.33098" lon="5.53602">
        <ele>476.47</ele>
        <time>2018-06-16T14:47:17Z</time>
      </trkpt>
      <trkpt lat="43.33111" lon="5.53605">
        <ele>476.47</ele>
        <time>2018-06-16T14:47:36Z</time>
      </trkpt>
      <trkpt lat="43.33113" lon="5.53598">
        <ele>476.47</ele>
        <time>2018-06-16T14:47:41Z</time>
      </trkpt>
      <trkpt lat="43.33113" lon="5.53583">
        <ele>476.95</ele>
        <time>2018-06-16T14:47:53Z</time>
      </trkpt>
      <trkpt lat="43.33115" lon="5.53583">
        <ele>476.95</ele>
        <time>2018-06-16T14:48:04Z</time>
      </trkpt>
      <trkpt lat="43.33113" lon="5.53581">
        <ele>477.43</ele>
        <time>2018-06-16T14:48:16Z</time>
      </trkpt>
      <trkpt lat="43.33108" lon="5.53575">
        <ele>476.47</ele>
        <time>2018-06-16T14:48:34Z</time>
      </trkpt>
      <trkpt lat="43.33109" lon="5.53576">
        <ele>475.51</ele>
        <time>2018-06-16T14:48:43Z</time>
      </trkpt>
      <trkpt lat="43.3311" lon="5.53577">
        <ele>475.03</ele>
        <time>2018-06-16T14:48:54Z</time>
      </trkpt>
      <trkpt lat="43.33109" lon="5.53578">
        <ele>473.59</ele>
        <time>2018-06-16T14:49:03Z</time>
      </trkpt>
      <trkpt lat="43.33107" lon="5.5358">
        <ele>472.14</ele>
        <time>2018-06-16T14:49:15Z</time>
      </trkpt>
      <trkpt lat="43.33107" lon="5.53581">
        <ele>471.66</ele>
        <time>2018-06-16T14:49:22Z</time>
      </trkpt>
      <trkpt lat="43.33103" lon="5.5357">
        <ele>470.22</ele>
        <time>2018-06-16T14:49:36Z</time>
      </trkpt>
      <trkpt lat="43.33104" lon="5.53563">
        <ele>468.3</ele>
        <time>2018-06-16T14:49:50Z</time>
      </trkpt>
      <trkpt lat="43.33106" lon="5.53557">
        <ele>466.86</ele>
        <time>2018-06-16T14:50:02Z</time>
      </trkpt>
      <trkpt lat="43.33104" lon="5.5355">
        <ele>464.93</ele>
        <time>2018-06-16T14:50:13Z</time>
      </trkpt>
      <trkpt lat="43.33106" lon="5.5354">
        <ele>463.49</ele>
        <time>2018-06-16T14:50:24Z</time>
      </trkpt>
      <trkpt lat="43.33104" lon="5.53534">
        <ele>461.57</ele>
        <time>2018-06-16T14:50:36Z</time>
      </trkpt>
      <trkpt lat="43.33103" lon="5.53531">
        <ele>460.61</ele>
        <time>2018-06-16T14:50:49Z</time>
      </trkpt>
      <trkpt lat="43.33102" lon="5.53527">
        <ele>458.21</ele>
        <time>2018-06-16T14:51:03Z</time>
      </trkpt>
      <trkpt lat="43.33101" lon="5.53524">
        <ele>457.72</ele>
        <time>2018-06-16T14:51:14Z</time>
      </trkpt>
      <trkpt lat="43.33101" lon="5.53524">
        <ele>457.24</ele>
        <time>2018-06-16T14:51:15Z</time>
      </trkpt>
      <trkpt lat="43.33101" lon="5.5352">
        <ele>455.8</ele>
        <time>2018-06-16T14:51:25Z</time>
      </trkpt>
      <trkpt lat="43.33101" lon="5.53515">
        <ele>455.8</ele>
        <time>2018-06-16T14:51:29Z</time>
      </trkpt>
      <trkpt lat="43.33099" lon="5.5351">
        <ele>454.36</ele>
        <time>2018-06-16T14:51:41Z</time>
      </trkpt>
      <trkpt lat="43.33095" lon="5.53508">
        <ele>452.92</ele>
        <time>2018-06-16T14:51:55Z</time>
      </trkpt>
      <trkpt lat="43.33096" lon="5.53505">
        <ele>451.48</ele>
        <time>2018-06-16T14:52:05Z</time>
      </trkpt>
      <trkpt lat="43.33095" lon="5.53498">
        <ele>450.52</ele>
        <time>2018-06-16T14:52:19Z</time>
      </trkpt>
      <trkpt lat="43.33095" lon="5.53494">
        <ele>448.59</ele>
        <time>2018-06-16T14:52:27Z</time>
      </trkpt>
      <trkpt lat="43.33094" lon="5.53491">
        <ele>447.63</ele>
        <time>2018-06-16T14:52:36Z</time>
      </trkpt>
      <trkpt lat="43.33092" lon="5.53483">
        <ele>446.19</ele>
        <time>2018-06-16T14:52:48Z</time>
      </trkpt>
      <trkpt lat="43.33088" lon="5.53484">
        <ele>445.71</ele>
        <time>2018-06-16T14:52:58Z</time>
      </trkpt>
      <trkpt lat="43.33085" lon="5.53483">
        <ele>445.23</ele>
        <time>2018-06-16T14:53:06Z</time>
      </trkpt>
      <trkpt lat="43.33073" lon="5.53482">
        <ele>443.79</ele>
        <time>2018-06-16T14:53:20Z</time>
      </trkpt>
      <trkpt lat="43.33065" lon="5.53473">
        <ele>443.79</ele>
        <time>2018-06-16T14:53:33Z</time>
      </trkpt>
      <trkpt lat="43.33054" lon="5.53463">
        <ele>444.27</ele>
        <time>2018-06-16T14:53:45Z</time>
      </trkpt>
      <trkpt lat="43.3305" lon="5.53458">
        <ele>442.82</ele>
        <time>2018-06-16T14:53:55Z</time>
      </trkpt>
      <trkpt lat="43.33047" lon="5.53455">
        <ele>442.34</ele>
        <time>2018-06-16T14:53:58Z</time>
      </trkpt>
      <trkpt lat="43.33045" lon="5.53451">
        <ele>441.86</ele>
        <time>2018-06-16T14:54:01Z</time>
      </trkpt>
      <trkpt lat="43.33042" lon="5.53446">
        <ele>441.86</ele>
        <time>2018-06-16T14:54:04Z</time>
      </trkpt>
      <trkpt lat="43.33037" lon="5.53435">
        <ele>440.42</ele>
        <time>2018-06-16T14:54:14Z</time>
      </trkpt>
      <trkpt lat="43.33034" lon="5.53433">
        <ele>440.42</ele>
        <time>2018-06-16T14:54:17Z</time>
      </trkpt>
      <trkpt lat="43.33025" lon="5.53419">
        <ele>438.98</ele>
        <time>2018-06-16T14:54:30Z</time>
      </trkpt>
      <trkpt lat="43.3302" lon="5.53413">
        <ele>438.02</ele>
        <time>2018-06-16T14:54:35Z</time>
      </trkpt>
      <trkpt lat="43.33012" lon="5.53393">
        <ele>437.54</ele>
        <time>2018-06-16T14:54:50Z</time>
      </trkpt>
      <trkpt lat="43.33011" lon="5.53389">
        <ele>438.02</ele>
        <time>2018-06-16T14:54:53Z</time>
      </trkpt>
      <trkpt lat="43.33007" lon="5.53375">
        <ele>438.02</ele>
        <time>2018-06-16T14:55:08Z</time>
      </trkpt>
      <trkpt lat="43.33005" lon="5.5337">
        <ele>436.1</ele>
        <time>2018-06-16T14:55:13Z</time>
      </trkpt>
      <trkpt lat="43.33002" lon="5.53365">
        <ele>436.1</ele>
        <time>2018-06-16T14:55:19Z</time>
      </trkpt>
      <trkpt lat="43.32999" lon="5.53354">
        <ele>434.65</ele>
        <time>2018-06-16T14:55:34Z</time>
      </trkpt>
      <trkpt lat="43.32996" lon="5.53345">
        <ele>432.25</ele>
        <time>2018-06-16T14:55:46Z</time>
      </trkpt>
      <trkpt lat="43.3299" lon="5.53336">
        <ele>430.81</ele>
        <time>2018-06-16T14:55:59Z</time>
      </trkpt>
      <trkpt lat="43.32985" lon="5.53327">
        <ele>427.44</ele>
        <time>2018-06-16T14:56:13Z</time>
      </trkpt>
      <trkpt lat="43.32983" lon="5.53322">
        <ele>426.48</ele>
        <time>2018-06-16T14:56:20Z</time>
      </trkpt>
      <trkpt lat="43.32977" lon="5.5331">
        <ele>425.52</ele>
        <time>2018-06-16T14:56:32Z</time>
      </trkpt>
      <trkpt lat="43.32975" lon="5.53307">
        <ele>424.56</ele>
        <time>2018-06-16T14:56:35Z</time>
      </trkpt>
      <trkpt lat="43.32972" lon="5.53304">
        <ele>424.56</ele>
        <time>2018-06-16T14:56:39Z</time>
      </trkpt>
      <trkpt lat="43.32968" lon="5.53294">
        <ele>423.6</ele>
        <time>2018-06-16T14:56:47Z</time>
      </trkpt>
      <trkpt lat="43.32967" lon="5.53291">
        <ele>422.64</ele>
        <time>2018-06-16T14:56:49Z</time>
      </trkpt>
      <trkpt lat="43.32961" lon="5.53277">
        <ele>422.64</ele>
        <time>2018-06-16T14:57:00Z</time>
      </trkpt>
      <trkpt lat="43.32959" lon="5.53273">
        <ele>421.19</ele>
        <time>2018-06-16T14:57:04Z</time>
      </trkpt>
      <trkpt lat="43.32958" lon="5.53269">
        <ele>421.19</ele>
        <time>2018-06-16T14:57:17Z</time>
      </trkpt>
      <trkpt lat="43.32957" lon="5.53265">
        <ele>420.71</ele>
        <time>2018-06-16T14:57:22Z</time>
      </trkpt>
      <trkpt lat="43.32956" lon="5.53263">
        <ele>420.71</ele>
        <time>2018-06-16T14:57:24Z</time>
      </trkpt>
      <trkpt lat="43.32952" lon="5.53255">
        <ele>416.39</ele>
        <time>2018-06-16T14:57:32Z</time>
      </trkpt>
      <trkpt lat="43.32952" lon="5.53254">
        <ele>419.75</ele>
        <time>2018-06-16T14:57:33Z</time>
      </trkpt>
      <trkpt lat="43.3295" lon="5.5325">
        <ele>419.27</ele>
        <time>2018-06-16T14:57:37Z</time>
      </trkpt>
      <trkpt lat="43.32943" lon="5.53237">
        <ele>417.83</ele>
        <time>2018-06-16T14:57:49Z</time>
      </trkpt>
      <trkpt lat="43.32941" lon="5.53235">
        <ele>416.87</ele>
        <time>2018-06-16T14:57:53Z</time>
      </trkpt>
      <trkpt lat="43.32939" lon="5.53231">
        <ele>416.87</ele>
        <time>2018-06-16T14:57:57Z</time>
      </trkpt>
      <trkpt lat="43.32937" lon="5.53226">
        <ele>416.39</ele>
        <time>2018-06-16T14:58:02Z</time>
      </trkpt>
      <trkpt lat="43.32932" lon="5.53217">
        <ele>414.95</ele>
        <time>2018-06-16T14:58:12Z</time>
      </trkpt>
      <trkpt lat="43.3293" lon="5.53214">
        <ele>414.95</ele>
        <time>2018-06-16T14:58:15Z</time>
      </trkpt>
      <trkpt lat="43.32926" lon="5.5321">
        <ele>413.98</ele>
        <time>2018-06-16T14:58:20Z</time>
      </trkpt>
      <trkpt lat="43.32921" lon="5.53205">
        <ele>414.47</ele>
        <time>2018-06-16T14:58:25Z</time>
      </trkpt>
      <trkpt lat="43.32919" lon="5.53204">
        <ele>413.98</ele>
        <time>2018-06-16T14:58:27Z</time>
      </trkpt>
      <trkpt lat="43.32916" lon="5.53202">
        <ele>413.98</ele>
        <time>2018-06-16T14:58:30Z</time>
      </trkpt>
      <trkpt lat="43.32912" lon="5.53195">
        <ele>413.5</ele>
        <time>2018-06-16T14:58:36Z</time>
      </trkpt>
      <trkpt lat="43.3291" lon="5.53194">
        <ele>412.54</ele>
        <time>2018-06-16T14:58:38Z</time>
      </trkpt>
      <trkpt lat="43.32907" lon="5.53192">
        <ele>413.02</ele>
        <time>2018-06-16T14:58:41Z</time>
      </trkpt>
      <trkpt lat="43.32905" lon="5.53184">
        <ele>411.58</ele>
        <time>2018-06-16T14:58:51Z</time>
      </trkpt>
      <trkpt lat="43.32901" lon="5.53175">
        <ele>410.14</ele>
        <time>2018-06-16T14:59:03Z</time>
      </trkpt>
      <trkpt lat="43.32897" lon="5.53171">
        <ele>409.66</ele>
        <time>2018-06-16T14:59:09Z</time>
      </trkpt>
      <trkpt lat="43.32888" lon="5.53161">
        <ele>407.74</ele>
        <time>2018-06-16T14:59:22Z</time>
      </trkpt>
      <trkpt lat="43.32883" lon="5.53155">
        <ele>406.77</ele>
        <time>2018-06-16T14:59:31Z</time>
      </trkpt>
      <trkpt lat="43.3288" lon="5.53146">
        <ele>405.81</ele>
        <time>2018-06-16T14:59:42Z</time>
      </trkpt>
      <trkpt lat="43.32876" lon="5.53135">
        <ele>403.89</ele>
        <time>2018-06-16T14:59:56Z</time>
      </trkpt>
      <trkpt lat="43.32874" lon="5.53128">
        <ele>402.45</ele>
        <time>2018-06-16T15:00:04Z</time>
      </trkpt>
      <trkpt lat="43.32873" lon="5.53125">
        <ele>401.97</ele>
        <time>2018-06-16T15:00:07Z</time>
      </trkpt>
      <trkpt lat="43.32863" lon="5.53116">
        <ele>401.01</ele>
        <time>2018-06-16T15:00:21Z</time>
      </trkpt>
      <trkpt lat="43.32861" lon="5.53106">
        <ele>398.6</ele>
        <time>2018-06-16T15:00:34Z</time>
      </trkpt>
      <trkpt lat="43.32858" lon="5.53099">
        <ele>397.16</ele>
        <time>2018-06-16T15:00:45Z</time>
      </trkpt>
      <trkpt lat="43.32857" lon="5.53094">
        <ele>396.2</ele>
        <time>2018-06-16T15:00:58Z</time>
      </trkpt>
      <trkpt lat="43.32855" lon="5.53085">
        <ele>394.28</ele>
        <time>2018-06-16T15:01:11Z</time>
      </trkpt>
      <trkpt lat="43.32854" lon="5.53077">
        <ele>392.84</ele>
        <time>2018-06-16T15:01:23Z</time>
      </trkpt>
      <trkpt lat="43.32853" lon="5.53071">
        <ele>391.87</ele>
        <time>2018-06-16T15:01:35Z</time>
      </trkpt>
      <trkpt lat="43.32843" lon="5.5306">
        <ele>389.95</ele>
        <time>2018-06-16T15:01:48Z</time>
      </trkpt>
      <trkpt lat="43.32839" lon="5.53051">
        <ele>387.55</ele>
        <time>2018-06-16T15:02:01Z</time>
      </trkpt>
      <trkpt lat="43.32835" lon="5.53046">
        <ele>386.11</ele>
        <time>2018-06-16T15:02:13Z</time>
      </trkpt>
      <trkpt lat="43.32834" lon="5.53045">
        <ele>385.63</ele>
        <time>2018-06-16T15:02:14Z</time>
      </trkpt>
      <trkpt lat="43.32831" lon="5.5304">
        <ele>385.15</ele>
        <time>2018-06-16T15:02:20Z</time>
      </trkpt>
      <trkpt lat="43.32821" lon="5.53034">
        <ele>384.18</ele>
        <time>2018-06-16T15:02:30Z</time>
      </trkpt>
      <trkpt lat="43.32818" lon="5.53032">
        <ele>384.18</ele>
        <time>2018-06-16T15:02:34Z</time>
      </trkpt>
      <trkpt lat="43.32814" lon="5.53028">
        <ele>383.22</ele>
        <time>2018-06-16T15:02:40Z</time>
      </trkpt>
      <trkpt lat="43.32812" lon="5.53017">
        <ele>381.3</ele>
        <time>2018-06-16T15:02:53Z</time>
      </trkpt>
      <trkpt lat="43.32808" lon="5.53008">
        <ele>378.9</ele>
        <time>2018-06-16T15:03:07Z</time>
      </trkpt>
      <trkpt lat="43.32807" lon="5.53006">
        <ele>378.9</ele>
        <time>2018-06-16T15:03:11Z</time>
      </trkpt>
      <trkpt lat="43.32803" lon="5.52996">
        <ele>376.97</ele>
        <time>2018-06-16T15:03:22Z</time>
      </trkpt>
      <trkpt lat="43.32795" lon="5.5299">
        <ele>375.05</ele>
        <time>2018-06-16T15:03:35Z</time>
      </trkpt>
      <trkpt lat="43.3279" lon="5.52983">
        <ele>372.65</ele>
        <time>2018-06-16T15:03:48Z</time>
      </trkpt>
      <trkpt lat="43.32786" lon="5.52971">
        <ele>370.73</ele>
        <time>2018-06-16T15:04:01Z</time>
      </trkpt>
      <trkpt lat="43.32783" lon="5.52963">
        <ele>368.8</ele>
        <time>2018-06-16T15:04:17Z</time>
      </trkpt>
      <trkpt lat="43.32781" lon="5.52955">
        <ele>367.84</ele>
        <time>2018-06-16T15:04:27Z</time>
      </trkpt>
      <trkpt lat="43.3278" lon="5.52953">
        <ele>366.88</ele>
        <time>2018-06-16T15:04:30Z</time>
      </trkpt>
      <trkpt lat="43.32778" lon="5.52952">
        <ele>366.4</ele>
        <time>2018-06-16T15:04:32Z</time>
      </trkpt>
      <trkpt lat="43.32776" lon="5.52949">
        <ele>365.92</ele>
        <time>2018-06-16T15:04:35Z</time>
      </trkpt>
      <trkpt lat="43.32771" lon="5.52938">
        <ele>364.48</ele>
        <time>2018-06-16T15:04:45Z</time>
      </trkpt>
      <trkpt lat="43.32766" lon="5.52928">
        <ele>363.52</ele>
        <time>2018-06-16T15:04:58Z</time>
      </trkpt>
      <trkpt lat="43.32763" lon="5.52925">
        <ele>361.59</ele>
        <time>2018-06-16T15:05:04Z</time>
      </trkpt>
      <trkpt lat="43.3276" lon="5.5292">
        <ele>361.59</ele>
        <time>2018-06-16T15:05:09Z</time>
      </trkpt>
      <trkpt lat="43.32758" lon="5.52911">
        <ele>360.63</ele>
        <time>2018-06-16T15:05:18Z</time>
      </trkpt>
      <trkpt lat="43.32757" lon="5.52907">
        <ele>359.19</ele>
        <time>2018-06-16T15:05:21Z</time>
      </trkpt>
      <trkpt lat="43.32755" lon="5.52904">
        <ele>358.71</ele>
        <time>2018-06-16T15:05:23Z</time>
      </trkpt>
      <trkpt lat="43.32748" lon="5.52893">
        <ele>356.31</ele>
        <time>2018-06-16T15:05:33Z</time>
      </trkpt>
      <trkpt lat="43.32739" lon="5.52887">
        <ele>356.79</ele>
        <time>2018-06-16T15:05:46Z</time>
      </trkpt>
      <trkpt lat="43.32736" lon="5.52885">
        <ele>356.79</ele>
        <time>2018-06-16T15:05:58Z</time>
      </trkpt>
      <trkpt lat="43.32736" lon="5.52884">
        <ele>357.27</ele>
        <time>2018-06-16T15:06:22Z</time>
      </trkpt>
      <trkpt lat="43.32736" lon="5.52884">
        <ele>357.27</ele>
        <time>2018-06-16T15:06:39Z</time>
      </trkpt>
      <trkpt lat="43.32736" lon="5.52884">
        <ele>355.83</ele>
        <time>2018-06-16T15:06:57Z</time>
      </trkpt>
      <trkpt lat="43.32735" lon="5.52884">
        <ele>356.31</ele>
        <time>2018-06-16T15:07:14Z</time>
      </trkpt>
      <trkpt lat="43.32727" lon="5.52878">
        <ele>356.79</ele>
        <time>2018-06-16T15:07:25Z</time>
      </trkpt>
      <trkpt lat="43.32719" lon="5.52873">
        <ele>355.83</ele>
        <time>2018-06-16T15:07:34Z</time>
      </trkpt>
      <trkpt lat="43.32715" lon="5.52871">
        <ele>355.34</ele>
        <time>2018-06-16T15:07:38Z</time>
      </trkpt>
      <trkpt lat="43.32706" lon="5.52863">
        <ele>354.86</ele>
        <time>2018-06-16T15:07:48Z</time>
      </trkpt>
      <trkpt lat="43.32697" lon="5.52856">
        <ele>355.34</ele>
        <time>2018-06-16T15:07:58Z</time>
      </trkpt>
      <trkpt lat="43.32694" lon="5.52852">
        <ele>355.83</ele>
        <time>2018-06-16T15:08:01Z</time>
      </trkpt>
      <trkpt lat="43.32692" lon="5.52852">
        <ele>355.83</ele>
        <time>2018-06-16T15:08:03Z</time>
      </trkpt>
      <trkpt lat="43.32686" lon="5.52845">
        <ele>355.83</ele>
        <time>2018-06-16T15:08:11Z</time>
      </trkpt>
      <trkpt lat="43.3268" lon="5.52838">
        <ele>355.83</ele>
        <time>2018-06-16T15:08:17Z</time>
      </trkpt>
      <trkpt lat="43.32677" lon="5.52836">
        <ele>355.34</ele>
        <time>2018-06-16T15:08:20Z</time>
      </trkpt>
      <trkpt lat="43.32669" lon="5.52823">
        <ele>354.86</ele>
        <time>2018-06-16T15:08:31Z</time>
      </trkpt>
      <trkpt lat="43.32665" lon="5.52819">
        <ele>353.42</ele>
        <time>2018-06-16T15:08:38Z</time>
      </trkpt>
      <trkpt lat="43.32656" lon="5.52805">
        <ele>352.46</ele>
        <time>2018-06-16T15:08:51Z</time>
      </trkpt>
      <trkpt lat="43.32648" lon="5.52797">
        <ele>351.98</ele>
        <time>2018-06-16T15:09:00Z</time>
      </trkpt>
      <trkpt lat="43.32646" lon="5.52797">
        <ele>351.5</ele>
        <time>2018-06-16T15:09:02Z</time>
      </trkpt>
      <trkpt lat="43.32636" lon="5.52789">
        <ele>351.02</ele>
        <time>2018-06-16T15:09:11Z</time>
      </trkpt>
      <trkpt lat="43.32631" lon="5.52785">
        <ele>350.54</ele>
        <time>2018-06-16T15:09:17Z</time>
      </trkpt>
      <trkpt lat="43.32622" lon="5.52775">
        <ele>350.06</ele>
        <time>2018-06-16T15:09:29Z</time>
      </trkpt>
      <trkpt lat="43.32621" lon="5.52772">
        <ele>349.58</ele>
        <time>2018-06-16T15:09:31Z</time>
      </trkpt>
      <trkpt lat="43.32613" lon="5.52763">
        <ele>347.65</ele>
        <time>2018-06-16T15:09:44Z</time>
      </trkpt>
      <trkpt lat="43.32612" lon="5.5276">
        <ele>346.21</ele>
        <time>2018-06-16T15:09:47Z</time>
      </trkpt>
      <trkpt lat="43.32601" lon="5.52751">
        <ele>345.25</ele>
        <time>2018-06-16T15:09:59Z</time>
      </trkpt>
      <trkpt lat="43.32599" lon="5.52749">
        <ele>345.25</ele>
        <time>2018-06-16T15:10:01Z</time>
      </trkpt>
      <trkpt lat="43.32594" lon="5.52743">
        <ele>344.77</ele>
        <time>2018-06-16T15:10:06Z</time>
      </trkpt>
      <trkpt lat="43.32586" lon="5.52738">
        <ele>344.29</ele>
        <time>2018-06-16T15:10:18Z</time>
      </trkpt>
      <trkpt lat="43.32574" lon="5.52728">
        <ele>343.33</ele>
        <time>2018-06-16T15:10:32Z</time>
      </trkpt>
      <trkpt lat="43.32565" lon="5.52718">
        <ele>342.37</ele>
        <time>2018-06-16T15:10:46Z</time>
      </trkpt>
      <trkpt lat="43.32561" lon="5.5271">
        <ele>340.92</ele>
        <time>2018-06-16T15:10:56Z</time>
      </trkpt>
      <trkpt lat="43.32552" lon="5.52702">
        <ele>339</ele>
        <time>2018-06-16T15:11:06Z</time>
      </trkpt>
      <trkpt lat="43.32552" lon="5.52701">
        <ele>338.52</ele>
        <time>2018-06-16T15:11:08Z</time>
      </trkpt>
      <trkpt lat="43.32548" lon="5.52698">
        <ele>338.04</ele>
        <time>2018-06-16T15:11:12Z</time>
      </trkpt>
      <trkpt lat="43.32545" lon="5.52696">
        <ele>338.04</ele>
        <time>2018-06-16T15:11:15Z</time>
      </trkpt>
      <trkpt lat="43.3254" lon="5.52688">
        <ele>336.12</ele>
        <time>2018-06-16T15:11:29Z</time>
      </trkpt>
      <trkpt lat="43.32536" lon="5.5268">
        <ele>335.16</ele>
        <time>2018-06-16T15:11:41Z</time>
      </trkpt>
      <trkpt lat="43.32535" lon="5.52677">
        <ele>334.68</ele>
        <time>2018-06-16T15:11:45Z</time>
      </trkpt>
      <trkpt lat="43.32533" lon="5.52674">
        <ele>333.71</ele>
        <time>2018-06-16T15:11:55Z</time>
      </trkpt>
      <trkpt lat="43.32534" lon="5.52673">
        <ele>333.23</ele>
        <time>2018-06-16T15:12:11Z</time>
      </trkpt>
      <trkpt lat="43.32533" lon="5.52672">
        <ele>333.71</ele>
        <time>2018-06-16T15:12:28Z</time>
      </trkpt>
      <trkpt lat="43.32532" lon="5.52672">
        <ele>334.2</ele>
        <time>2018-06-16T15:12:45Z</time>
      </trkpt>
      <trkpt lat="43.32532" lon="5.52672">
        <ele>333.23</ele>
        <time>2018-06-16T15:13:06Z</time>
      </trkpt>
      <trkpt lat="43.32532" lon="5.52672">
        <ele>334.2</ele>
        <time>2018-06-16T15:13:23Z</time>
      </trkpt>
      <trkpt lat="43.32532" lon="5.52672">
        <ele>333.23</ele>
        <time>2018-06-16T15:13:44Z</time>
      </trkpt>
      <trkpt lat="43.32531" lon="5.52672">
        <ele>333.23</ele>
        <time>2018-06-16T15:13:59Z</time>
      </trkpt>
      <trkpt lat="43.32531" lon="5.52672">
        <ele>333.23</ele>
        <time>2018-06-16T15:14:02Z</time>
      </trkpt>
      <trkpt lat="43.32519" lon="5.52672">
        <ele>334.2</ele>
        <time>2018-06-16T15:14:12Z</time>
      </trkpt>
      <trkpt lat="43.32504" lon="5.52673">
        <ele>334.68</ele>
        <time>2018-06-16T15:14:24Z</time>
      </trkpt>
      <trkpt lat="43.32498" lon="5.52676">
        <ele>335.64</ele>
        <time>2018-06-16T15:14:30Z</time>
      </trkpt>
      <trkpt lat="43.32491" lon="5.52676">
        <ele>337.08</ele>
        <time>2018-06-16T15:14:35Z</time>
      </trkpt>
      <trkpt lat="43.32483" lon="5.5268">
        <ele>336.6</ele>
        <time>2018-06-16T15:14:43Z</time>
      </trkpt>
      <trkpt lat="43.32477" lon="5.52682">
        <ele>335.64</ele>
        <time>2018-06-16T15:14:48Z</time>
      </trkpt>
      <trkpt lat="43.32471" lon="5.52686">
        <ele>335.16</ele>
        <time>2018-06-16T15:14:52Z</time>
      </trkpt>
      <trkpt lat="43.32458" lon="5.52696">
        <ele>334.2</ele>
        <time>2018-06-16T15:15:02Z</time>
      </trkpt>
      <trkpt lat="43.32455" lon="5.52702">
        <ele>333.71</ele>
        <time>2018-06-16T15:15:06Z</time>
      </trkpt>
      <trkpt lat="43.32452" lon="5.52706">
        <ele>333.71</ele>
        <time>2018-06-16T15:15:09Z</time>
      </trkpt>
      <trkpt lat="43.32442" lon="5.52711">
        <ele>335.64</ele>
        <time>2018-06-16T15:15:20Z</time>
      </trkpt>
      <trkpt lat="43.3243" lon="5.52713">
        <ele>332.75</ele>
        <time>2018-06-16T15:15:29Z</time>
      </trkpt>
      <trkpt lat="43.32427" lon="5.52715">
        <ele>335.64</ele>
        <time>2018-06-16T15:15:32Z</time>
      </trkpt>
      <trkpt lat="43.32426" lon="5.52715">
        <ele>335.16</ele>
        <time>2018-06-16T15:15:33Z</time>
      </trkpt>
      <trkpt lat="43.32412" lon="5.52711">
        <ele>335.16</ele>
        <time>2018-06-16T15:15:43Z</time>
      </trkpt>
      <trkpt lat="43.32406" lon="5.52713">
        <ele>336.12</ele>
        <time>2018-06-16T15:15:50Z</time>
      </trkpt>
      <trkpt lat="43.32393" lon="5.52717">
        <ele>336.6</ele>
        <time>2018-06-16T15:16:01Z</time>
      </trkpt>
      <trkpt lat="43.32377" lon="5.5272">
        <ele>334.2</ele>
        <time>2018-06-16T15:16:12Z</time>
      </trkpt>
      <trkpt lat="43.3237" lon="5.52725">
        <ele>337.56</ele>
        <time>2018-06-16T15:16:19Z</time>
      </trkpt>
      <trkpt lat="43.32366" lon="5.52726">
        <ele>337.08</ele>
        <time>2018-06-16T15:16:23Z</time>
      </trkpt>
      <trkpt lat="43.32363" lon="5.52727">
        <ele>338.04</ele>
        <time>2018-06-16T15:16:26Z</time>
      </trkpt>
      <trkpt lat="43.32355" lon="5.52727">
        <ele>339</ele>
        <time>2018-06-16T15:16:39Z</time>
      </trkpt>
      <trkpt lat="43.32354" lon="5.52727">
        <ele>339</ele>
        <time>2018-06-16T15:16:49Z</time>
      </trkpt>
      <trkpt lat="43.32356" lon="5.52729">
        <ele>339</ele>
        <time>2018-06-16T15:16:58Z</time>
      </trkpt>
      <trkpt lat="43.32353" lon="5.52725">
        <ele>338.52</ele>
        <time>2018-06-16T15:17:06Z</time>
      </trkpt>
      <trkpt lat="43.3235" lon="5.52719">
        <ele>338.52</ele>
        <time>2018-06-16T15:17:18Z</time>
      </trkpt>
      <trkpt lat="43.32352" lon="5.52724">
        <ele>338.04</ele>
        <time>2018-06-16T15:17:28Z</time>
      </trkpt>
      <trkpt lat="43.32353" lon="5.52725">
        <ele>338.52</ele>
        <time>2018-06-16T15:17:44Z</time>
      </trkpt>
      <trkpt lat="43.3235" lon="5.52721">
        <ele>338.04</ele>
        <time>2018-06-16T15:17:56Z</time>
      </trkpt>
      <trkpt lat="43.3235" lon="5.52721">
        <ele>338.04</ele>
        <time>2018-06-16T15:18:03Z</time>
      </trkpt>
      <trkpt lat="43.32353" lon="5.52727">
        <ele>339</ele>
        <time>2018-06-16T15:18:15Z</time>
      </trkpt>
      <trkpt lat="43.32354" lon="5.52727">
        <ele>338.04</ele>
        <time>2018-06-16T15:18:31Z</time>
      </trkpt>
      <trkpt lat="43.32354" lon="5.52727">
        <ele>338.04</ele>
        <time>2018-06-16T15:19:03Z</time>
      </trkpt>
      <trkpt lat="43.32356" lon="5.5273">
        <ele>338.52</ele>
        <time>2018-06-16T15:19:15Z</time>
      </trkpt>
      <trkpt lat="43.32356" lon="5.5273">
        <ele>338.52</ele>
        <time>2018-06-16T15:19:28Z</time>
      </trkpt>
      <trkpt lat="43.32356" lon="5.5273">
        <ele>338.52</ele>
        <time>2018-06-16T15:19:48Z</time>
      </trkpt>
      <trkpt lat="43.32355" lon="5.5273">
        <ele>337.56</ele>
        <time>2018-06-16T15:20:02Z</time>
      </trkpt>
      <trkpt lat="43.32355" lon="5.52731">
        <ele>338.52</ele>
        <time>2018-06-16T15:20:04Z</time>
      </trkpt>
      <trkpt lat="43.32357" lon="5.52731">
        <ele>339</ele>
        <time>2018-06-16T15:20:20Z</time>
      </trkpt>
      <trkpt lat="43.32359" lon="5.52731">
        <ele>338.52</ele>
        <time>2018-06-16T15:20:40Z</time>
      </trkpt>
      <trkpt lat="43.32357" lon="5.5273">
        <ele>339</ele>
        <time>2018-06-16T15:20:55Z</time>
      </trkpt>
      <trkpt lat="43.32353" lon="5.52728">
        <ele>338.52</ele>
        <time>2018-06-16T15:21:05Z</time>
      </trkpt>
      <trkpt lat="43.3235" lon="5.52727">
        <ele>337.08</ele>
        <time>2018-06-16T15:21:20Z</time>
      </trkpt>
      <trkpt lat="43.32354" lon="5.52735">
        <ele>338.52</ele>
        <time>2018-06-16T15:21:31Z</time>
      </trkpt>
      <trkpt lat="43.32355" lon="5.52739">
        <ele>338.52</ele>
        <time>2018-06-16T15:21:35Z</time>
      </trkpt>
      <trkpt lat="43.3236" lon="5.52748">
        <ele>339.48</ele>
        <time>2018-06-16T15:21:50Z</time>
      </trkpt>
      <trkpt lat="43.32361" lon="5.52749">
        <ele>339.96</ele>
        <time>2018-06-16T15:22:11Z</time>
      </trkpt>
      <trkpt lat="43.32361" lon="5.52749">
        <ele>339.48</ele>
        <time>2018-06-16T15:22:28Z</time>
      </trkpt>
      <trkpt lat="43.32362" lon="5.52747">
        <ele>339.48</ele>
        <time>2018-06-16T15:22:42Z</time>
      </trkpt>
      <trkpt lat="43.32361" lon="5.52745">
        <ele>339.48</ele>
        <time>2018-06-16T15:22:44Z</time>
      </trkpt>
      <trkpt lat="43.32356" lon="5.52736">
        <ele>338.52</ele>
        <time>2018-06-16T15:22:53Z</time>
      </trkpt>
      <trkpt lat="43.32353" lon="5.52729">
        <ele>338.04</ele>
        <time>2018-06-16T15:23:06Z</time>
      </trkpt>
      <trkpt lat="43.32354" lon="5.52727">
        <ele>337.56</ele>
        <time>2018-06-16T15:23:18Z</time>
      </trkpt>
      <trkpt lat="43.32354" lon="5.52726">
        <ele>337.56</ele>
        <time>2018-06-16T15:23:41Z</time>
      </trkpt>
      <trkpt lat="43.32351" lon="5.52722">
        <ele>337.08</ele>
        <time>2018-06-16T15:24:04Z</time>
      </trkpt>
      <trkpt lat="43.3235" lon="5.52712">
        <ele>337.08</ele>
        <time>2018-06-16T15:24:12Z</time>
      </trkpt>
      <trkpt lat="43.32349" lon="5.52705">
        <ele>336.6</ele>
        <time>2018-06-16T15:24:17Z</time>
      </trkpt>
      <trkpt lat="43.32348" lon="5.52684">
        <ele>335.64</ele>
        <time>2018-06-16T15:24:32Z</time>
      </trkpt>
      <trkpt lat="43.32348" lon="5.5268">
        <ele>335.16</ele>
        <time>2018-06-16T15:24:36Z</time>
      </trkpt>
      <trkpt lat="43.32349" lon="5.52667">
        <ele>334.68</ele>
        <time>2018-06-16T15:24:44Z</time>
      </trkpt>
      <trkpt lat="43.3235" lon="5.52659">
        <ele>334.2</ele>
        <time>2018-06-16T15:24:49Z</time>
      </trkpt>
      <trkpt lat="43.32352" lon="5.52652">
        <ele>333.23</ele>
        <time>2018-06-16T15:24:54Z</time>
      </trkpt>
      <trkpt lat="43.32352" lon="5.52647">
        <ele>333.23</ele>
        <time>2018-06-16T15:24:57Z</time>
      </trkpt>
      <trkpt lat="43.32351" lon="5.52643">
        <ele>333.71</ele>
        <time>2018-06-16T15:25:00Z</time>
      </trkpt>
      <trkpt lat="43.32352" lon="5.52622">
        <ele>332.27</ele>
        <time>2018-06-16T15:25:11Z</time>
      </trkpt>
      <trkpt lat="43.32349" lon="5.52608">
        <ele>331.79</ele>
        <time>2018-06-16T15:25:23Z</time>
      </trkpt>
      <trkpt lat="43.32348" lon="5.52605">
        <ele>331.31</ele>
        <time>2018-06-16T15:25:25Z</time>
      </trkpt>
      <trkpt lat="43.32345" lon="5.52588">
        <ele>329.87</ele>
        <time>2018-06-16T15:25:36Z</time>
      </trkpt>
      <trkpt lat="43.32344" lon="5.52577">
        <ele>329.39</ele>
        <time>2018-06-16T15:25:44Z</time>
      </trkpt>
      <trkpt lat="43.32341" lon="5.5256">
        <ele>327.47</ele>
        <time>2018-06-16T15:25:57Z</time>
      </trkpt>
      <trkpt lat="43.32335" lon="5.52545">
        <ele>327.95</ele>
        <time>2018-06-16T15:26:08Z</time>
      </trkpt>
      <trkpt lat="43.32332" lon="5.52535">
        <ele>326.5</ele>
        <time>2018-06-16T15:26:20Z</time>
      </trkpt>
      <trkpt lat="43.32332" lon="5.52533">
        <ele>326.5</ele>
        <time>2018-06-16T15:26:21Z</time>
      </trkpt>
      <trkpt lat="43.32326" lon="5.52519">
        <ele>325.54</ele>
        <time>2018-06-16T15:26:32Z</time>
      </trkpt>
      <trkpt lat="43.32321" lon="5.52504">
        <ele>324.58</ele>
        <time>2018-06-16T15:26:43Z</time>
      </trkpt>
      <trkpt lat="43.32316" lon="5.52492">
        <ele>324.58</ele>
        <time>2018-06-16T15:26:50Z</time>
      </trkpt>
      <trkpt lat="43.32306" lon="5.5247">
        <ele>323.14</ele>
        <time>2018-06-16T15:27:05Z</time>
      </trkpt>
      <trkpt lat="43.32305" lon="5.52469">
        <ele>323.14</ele>
        <time>2018-06-16T15:27:06Z</time>
      </trkpt>
      <trkpt lat="43.32299" lon="5.52457">
        <ele>322.18</ele>
        <time>2018-06-16T15:27:15Z</time>
      </trkpt>
      <trkpt lat="43.32296" lon="5.52451">
        <ele>322.66</ele>
        <time>2018-06-16T15:27:19Z</time>
      </trkpt>
      <trkpt lat="43.32295" lon="5.52449">
        <ele>322.66</ele>
        <time>2018-06-16T15:27:22Z</time>
      </trkpt>
      <trkpt lat="43.32293" lon="5.52441">
        <ele>322.66</ele>
        <time>2018-06-16T15:27:27Z</time>
      </trkpt>
      <trkpt lat="43.32285" lon="5.52421">
        <ele>322.18</ele>
        <time>2018-06-16T15:27:41Z</time>
      </trkpt>
      <trkpt lat="43.32278" lon="5.52409">
        <ele>321.22</ele>
        <time>2018-06-16T15:27:54Z</time>
      </trkpt>
      <trkpt lat="43.32271" lon="5.52398">
        <ele>321.22</ele>
        <time>2018-06-16T15:28:06Z</time>
      </trkpt>
      <trkpt lat="43.32271" lon="5.52395">
        <ele>321.22</ele>
        <time>2018-06-16T15:28:09Z</time>
      </trkpt>
      <trkpt lat="43.32266" lon="5.52386">
        <ele>321.22</ele>
        <time>2018-06-16T15:28:13Z</time>
      </trkpt>
      <trkpt lat="43.3226" lon="5.52373">
        <ele>320.74</ele>
        <time>2018-06-16T15:28:22Z</time>
      </trkpt>
      <trkpt lat="43.32251" lon="5.52356">
        <ele>319.78</ele>
        <time>2018-06-16T15:28:36Z</time>
      </trkpt>
      <trkpt lat="43.32249" lon="5.52355">
        <ele>319.78</ele>
        <time>2018-06-16T15:28:38Z</time>
      </trkpt>
      <trkpt lat="43.32248" lon="5.52352">
        <ele>319.78</ele>
        <time>2018-06-16T15:28:40Z</time>
      </trkpt>
      <trkpt lat="43.32245" lon="5.52342">
        <ele>319.3</ele>
        <time>2018-06-16T15:28:47Z</time>
      </trkpt>
      <trkpt lat="43.32242" lon="5.52336">
        <ele>318.81</ele>
        <time>2018-06-16T15:28:52Z</time>
      </trkpt>
      <trkpt lat="43.32235" lon="5.52318">
        <ele>318.33</ele>
        <time>2018-06-16T15:29:04Z</time>
      </trkpt>
      <trkpt lat="43.3223" lon="5.52301">
        <ele>317.37</ele>
        <time>2018-06-16T15:29:15Z</time>
      </trkpt>
      <trkpt lat="43.32227" lon="5.52293">
        <ele>317.37</ele>
        <time>2018-06-16T15:29:20Z</time>
      </trkpt>
      <trkpt lat="43.32219" lon="5.52278">
        <ele>315.93</ele>
        <time>2018-06-16T15:29:32Z</time>
      </trkpt>
      <trkpt lat="43.32215" lon="5.52265">
        <ele>316.41</ele>
        <time>2018-06-16T15:29:41Z</time>
      </trkpt>
      <trkpt lat="43.32213" lon="5.52256">
        <ele>315.93</ele>
        <time>2018-06-16T15:29:48Z</time>
      </trkpt>
      <trkpt lat="43.32211" lon="5.52244">
        <ele>315.45</ele>
        <time>2018-06-16T15:29:56Z</time>
      </trkpt>
      <trkpt lat="43.32209" lon="5.52231">
        <ele>314.97</ele>
        <time>2018-06-16T15:30:05Z</time>
      </trkpt>
      <trkpt lat="43.32203" lon="5.52214">
        <ele>314.49</ele>
        <time>2018-06-16T15:30:16Z</time>
      </trkpt>
      <trkpt lat="43.32203" lon="5.52212">
        <ele>314.97</ele>
        <time>2018-06-16T15:30:18Z</time>
      </trkpt>
      <trkpt lat="43.32201" lon="5.52205">
        <ele>314.01</ele>
        <time>2018-06-16T15:30:23Z</time>
      </trkpt>
      <trkpt lat="43.32193" lon="5.52187">
        <ele>314.01</ele>
        <time>2018-06-16T15:30:36Z</time>
      </trkpt>
      <trkpt lat="43.32192" lon="5.52184">
        <ele>313.53</ele>
        <time>2018-06-16T15:30:38Z</time>
      </trkpt>
      <trkpt lat="43.3219" lon="5.52177">
        <ele>313.53</ele>
        <time>2018-06-16T15:30:43Z</time>
      </trkpt>
      <trkpt lat="43.32186" lon="5.52161">
        <ele>312.57</ele>
        <time>2018-06-16T15:30:57Z</time>
      </trkpt>
      <trkpt lat="43.32183" lon="5.52154">
        <ele>312.57</ele>
        <time>2018-06-16T15:31:09Z</time>
      </trkpt>
      <trkpt lat="43.32182" lon="5.52153">
        <ele>313.05</ele>
        <time>2018-06-16T15:31:22Z</time>
      </trkpt>
      <trkpt lat="43.32184" lon="5.52157">
        <ele>311.6</ele>
        <time>2018-06-16T15:31:32Z</time>
      </trkpt>
      <trkpt lat="43.32184" lon="5.52157">
        <ele>313.05</ele>
        <time>2018-06-16T15:31:38Z</time>
      </trkpt>
      <trkpt lat="43.32188" lon="5.52165">
        <ele>313.05</ele>
        <time>2018-06-16T15:31:51Z</time>
      </trkpt>
      <trkpt lat="43.32187" lon="5.52165">
        <ele>313.53</ele>
        <time>2018-06-16T15:32:11Z</time>
      </trkpt>
      <trkpt lat="43.32187" lon="5.52165">
        <ele>313.05</ele>
        <time>2018-06-16T15:32:31Z</time>
      </trkpt>
      <trkpt lat="43.32187" lon="5.52165">
        <ele>311.6</ele>
        <time>2018-06-16T15:32:44Z</time>
      </trkpt>
      <trkpt lat="43.32187" lon="5.52166">
        <ele>314.97</ele>
        <time>2018-06-16T15:32:45Z</time>
      </trkpt>
      <trkpt lat="43.32187" lon="5.5216">
        <ele>312.57</ele>
        <time>2018-06-16T15:32:58Z</time>
      </trkpt>
      <trkpt lat="43.32185" lon="5.5216">
        <ele>312.09</ele>
        <time>2018-06-16T15:33:29Z</time>
      </trkpt>
      <trkpt lat="43.32185" lon="5.52156">
        <ele>311.6</ele>
        <time>2018-06-16T15:33:46Z</time>
      </trkpt>
      <trkpt lat="43.32185" lon="5.52154">
        <ele>311.6</ele>
        <time>2018-06-16T15:34:15Z</time>
      </trkpt>
      <trkpt lat="43.32185" lon="5.52154">
        <ele>311.6</ele>
        <time>2018-06-16T15:34:43Z</time>
      </trkpt>
      <trkpt lat="43.32183" lon="5.52154">
        <ele>311.6</ele>
        <time>2018-06-16T15:34:47Z</time>
      </trkpt>
      <trkpt lat="43.3218" lon="5.52139">
        <ele>310.64</ele>
        <time>2018-06-16T15:34:58Z</time>
      </trkpt>
      <trkpt lat="43.32179" lon="5.52138">
        <ele>311.12</ele>
        <time>2018-06-16T15:35:17Z</time>
      </trkpt>
      <trkpt lat="43.32178" lon="5.52134">
        <ele>310.64</ele>
        <time>2018-06-16T15:35:20Z</time>
      </trkpt>
      <trkpt lat="43.32178" lon="5.52123">
        <ele>310.64</ele>
        <time>2018-06-16T15:35:24Z</time>
      </trkpt>
      <trkpt lat="43.32171" lon="5.52106">
        <ele>310.16</ele>
        <time>2018-06-16T15:35:35Z</time>
      </trkpt>
      <trkpt lat="43.32169" lon="5.52104">
        <ele>309.68</ele>
        <time>2018-06-16T15:35:38Z</time>
      </trkpt>
      <trkpt lat="43.32166" lon="5.52089">
        <ele>309.2</ele>
        <time>2018-06-16T15:35:47Z</time>
      </trkpt>
      <trkpt lat="43.32162" lon="5.52075">
        <ele>309.68</ele>
        <time>2018-06-16T15:35:57Z</time>
      </trkpt>
      <trkpt lat="43.3216" lon="5.52071">
        <ele>309.2</ele>
        <time>2018-06-16T15:35:59Z</time>
      </trkpt>
      <trkpt lat="43.32157" lon="5.52065">
        <ele>309.2</ele>
        <time>2018-06-16T15:36:03Z</time>
      </trkpt>
      <trkpt lat="43.32155" lon="5.52051">
        <ele>309.2</ele>
        <time>2018-06-16T15:36:12Z</time>
      </trkpt>
      <trkpt lat="43.32151" lon="5.52032">
        <ele>307.76</ele>
        <time>2018-06-16T15:36:24Z</time>
      </trkpt>
      <trkpt lat="43.32146" lon="5.52014">
        <ele>307.28</ele>
        <time>2018-06-16T15:36:36Z</time>
      </trkpt>
      <trkpt lat="43.32145" lon="5.52008">
        <ele>307.28</ele>
        <time>2018-06-16T15:36:40Z</time>
      </trkpt>
      <trkpt lat="43.32139" lon="5.51991">
        <ele>305.84</ele>
        <time>2018-06-16T15:36:54Z</time>
      </trkpt>
      <trkpt lat="43.32138" lon="5.5199">
        <ele>305.36</ele>
        <time>2018-06-16T15:36:55Z</time>
      </trkpt>
      <trkpt lat="43.32134" lon="5.51988">
        <ele>305.84</ele>
        <time>2018-06-16T15:36:58Z</time>
      </trkpt>
      <trkpt lat="43.32133" lon="5.51986">
        <ele>305.36</ele>
        <time>2018-06-16T15:37:00Z</time>
      </trkpt>
      <trkpt lat="43.32125" lon="5.51978">
        <ele>304.88</ele>
        <time>2018-06-16T15:37:10Z</time>
      </trkpt>
      <trkpt lat="43.32121" lon="5.51976">
        <ele>304.88</ele>
        <time>2018-06-16T15:37:14Z</time>
      </trkpt>
      <trkpt lat="43.32116" lon="5.51977">
        <ele>304.39</ele>
        <time>2018-06-16T15:37:18Z</time>
      </trkpt>
      <trkpt lat="43.3211" lon="5.51971">
        <ele>303.43</ele>
        <time>2018-06-16T15:37:24Z</time>
      </trkpt>
      <trkpt lat="43.32107" lon="5.51968">
        <ele>302.95</ele>
        <time>2018-06-16T15:37:29Z</time>
      </trkpt>
      <trkpt lat="43.32097" lon="5.51961">
        <ele>302.47</ele>
        <time>2018-06-16T15:37:37Z</time>
      </trkpt>
      <trkpt lat="43.32093" lon="5.51962">
        <ele>301.99</ele>
        <time>2018-06-16T15:37:42Z</time>
      </trkpt>
      <trkpt lat="43.32084" lon="5.51959">
        <ele>301.51</ele>
        <time>2018-06-16T15:37:55Z</time>
      </trkpt>
      <trkpt lat="43.32082" lon="5.51959">
        <ele>301.03</ele>
        <time>2018-06-16T15:38:00Z</time>
      </trkpt>
      <trkpt lat="43.32073" lon="5.51964">
        <ele>300.55</ele>
        <time>2018-06-16T15:38:13Z</time>
      </trkpt>
      <trkpt lat="43.32066" lon="5.51967">
        <ele>300.07</ele>
        <time>2018-06-16T15:38:20Z</time>
      </trkpt>
      <trkpt lat="43.32063" lon="5.51969">
        <ele>300.07</ele>
        <time>2018-06-16T15:38:24Z</time>
      </trkpt>
      <trkpt lat="43.32058" lon="5.5197">
        <ele>300.07</ele>
        <time>2018-06-16T15:38:29Z</time>
      </trkpt>
      <trkpt lat="43.32047" lon="5.51976">
        <ele>299.59</ele>
        <time>2018-06-16T15:38:42Z</time>
      </trkpt>
      <trkpt lat="43.32047" lon="5.51976">
        <ele>300.07</ele>
        <time>2018-06-16T15:38:43Z</time>
      </trkpt>
      <trkpt lat="43.32038" lon="5.51984">
        <ele>299.11</ele>
        <time>2018-06-16T15:38:55Z</time>
      </trkpt>
      <trkpt lat="43.32034" lon="5.51988">
        <ele>299.11</ele>
        <time>2018-06-16T15:39:01Z</time>
      </trkpt>
      <trkpt lat="43.32027" lon="5.51993">
        <ele>299.11</ele>
        <time>2018-06-16T15:39:10Z</time>
      </trkpt>
      <trkpt lat="43.32024" lon="5.51995">
        <ele>299.11</ele>
        <time>2018-06-16T15:39:13Z</time>
      </trkpt>
      <trkpt lat="43.32022" lon="5.51996">
        <ele>299.11</ele>
        <time>2018-06-16T15:39:15Z</time>
      </trkpt>
      <trkpt lat="43.32019" lon="5.51998">
        <ele>298.63</ele>
        <time>2018-06-16T15:39:19Z</time>
      </trkpt>
      <trkpt lat="43.32016" lon="5.52">
        <ele>298.63</ele>
        <time>2018-06-16T15:39:22Z</time>
      </trkpt>
      <trkpt lat="43.32015" lon="5.52002">
        <ele>298.15</ele>
        <time>2018-06-16T15:39:24Z</time>
      </trkpt>
      <trkpt lat="43.32012" lon="5.52004">
        <ele>298.63</ele>
        <time>2018-06-16T15:39:27Z</time>
      </trkpt>
      <trkpt lat="43.32011" lon="5.52007">
        <ele>298.63</ele>
        <time>2018-06-16T15:39:29Z</time>
      </trkpt>
      <trkpt lat="43.32" lon="5.52018">
        <ele>298.63</ele>
        <time>2018-06-16T15:39:41Z</time>
      </trkpt>
      <trkpt lat="43.31991" lon="5.52027">
        <ele>298.15</ele>
        <time>2018-06-16T15:39:51Z</time>
      </trkpt>
      <trkpt lat="43.31979" lon="5.52034">
        <ele>297.18</ele>
        <time>2018-06-16T15:40:03Z</time>
      </trkpt>
      <trkpt lat="43.31977" lon="5.52034">
        <ele>297.67</ele>
        <time>2018-06-16T15:40:05Z</time>
      </trkpt>
      <trkpt lat="43.31974" lon="5.52032">
        <ele>297.67</ele>
        <time>2018-06-16T15:40:08Z</time>
      </trkpt>
      <trkpt lat="43.31969" lon="5.52027">
        <ele>296.7</ele>
        <time>2018-06-16T15:40:14Z</time>
      </trkpt>
      <trkpt lat="43.31968" lon="5.52022">
        <ele>295.74</ele>
        <time>2018-06-16T15:40:18Z</time>
      </trkpt>
      <trkpt lat="43.3196" lon="5.52014">
        <ele>296.22</ele>
        <time>2018-06-16T15:40:28Z</time>
      </trkpt>
      <trkpt lat="43.31951" lon="5.51999">
        <ele>294.3</ele>
        <time>2018-06-16T15:40:41Z</time>
      </trkpt>
      <trkpt lat="43.31949" lon="5.51995">
        <ele>293.82</ele>
        <time>2018-06-16T15:40:45Z</time>
      </trkpt>
      <trkpt lat="43.31941" lon="5.51982">
        <ele>293.82</ele>
        <time>2018-06-16T15:40:56Z</time>
      </trkpt>
      <trkpt lat="43.31939" lon="5.51974">
        <ele>291.9</ele>
        <time>2018-06-16T15:41:01Z</time>
      </trkpt>
      <trkpt lat="43.31938" lon="5.5197">
        <ele>292.86</ele>
        <time>2018-06-16T15:41:04Z</time>
      </trkpt>
      <trkpt lat="43.31935" lon="5.51966">
        <ele>291.9</ele>
        <time>2018-06-16T15:41:08Z</time>
      </trkpt>
      <trkpt lat="43.31931" lon="5.51963">
        <ele>291.9</ele>
        <time>2018-06-16T15:41:13Z</time>
      </trkpt>
      <trkpt lat="43.31926" lon="5.51953">
        <ele>290.94</ele>
        <time>2018-06-16T15:41:24Z</time>
      </trkpt>
      <trkpt lat="43.31923" lon="5.51945">
        <ele>290.46</ele>
        <time>2018-06-16T15:41:29Z</time>
      </trkpt>
      <trkpt lat="43.31922" lon="5.5194">
        <ele>289.97</ele>
        <time>2018-06-16T15:41:32Z</time>
      </trkpt>
      <trkpt lat="43.31918" lon="5.51918">
        <ele>289.49</ele>
        <time>2018-06-16T15:41:47Z</time>
      </trkpt>
      <trkpt lat="43.31915" lon="5.51895">
        <ele>289.01</ele>
        <time>2018-06-16T15:42:02Z</time>
      </trkpt>
      <trkpt lat="43.31913" lon="5.51883">
        <ele>289.01</ele>
        <time>2018-06-16T15:42:10Z</time>
      </trkpt>
      <trkpt lat="43.31912" lon="5.51876">
        <ele>288.53</ele>
        <time>2018-06-16T15:42:14Z</time>
      </trkpt>
      <trkpt lat="43.31905" lon="5.51852">
        <ele>288.53</ele>
        <time>2018-06-16T15:42:29Z</time>
      </trkpt>
      <trkpt lat="43.31903" lon="5.51848">
        <ele>288.05</ele>
        <time>2018-06-16T15:42:35Z</time>
      </trkpt>
      <trkpt lat="43.31897" lon="5.51848">
        <ele>288.05</ele>
        <time>2018-06-16T15:42:40Z</time>
      </trkpt>
      <trkpt lat="43.31883" lon="5.51852">
        <ele>288.05</ele>
        <time>2018-06-16T15:42:53Z</time>
      </trkpt>
      <trkpt lat="43.31874" lon="5.51872">
        <ele>288.05</ele>
        <time>2018-06-16T15:43:09Z</time>
      </trkpt>
      <trkpt lat="43.3187" lon="5.5188">
        <ele>288.05</ele>
        <time>2018-06-16T15:43:15Z</time>
      </trkpt>
      <trkpt lat="43.31862" lon="5.51899">
        <ele>286.13</ele>
        <time>2018-06-16T15:43:30Z</time>
      </trkpt>
      <trkpt lat="43.31857" lon="5.51907">
        <ele>286.61</ele>
        <time>2018-06-16T15:43:37Z</time>
      </trkpt>
      <trkpt lat="43.31851" lon="5.51922">
        <ele>286.61</ele>
        <time>2018-06-16T15:43:50Z</time>
      </trkpt>
      <trkpt lat="43.31849" lon="5.51925">
        <ele>286.13</ele>
        <time>2018-06-16T15:43:53Z</time>
      </trkpt>
      <trkpt lat="43.31848" lon="5.51927">
        <ele>286.13</ele>
        <time>2018-06-16T15:43:55Z</time>
      </trkpt>
      <trkpt lat="43.31841" lon="5.51942">
        <ele>286.13</ele>
        <time>2018-06-16T15:44:07Z</time>
      </trkpt>
      <trkpt lat="43.31836" lon="5.51947">
        <ele>285.17</ele>
        <time>2018-06-16T15:44:13Z</time>
      </trkpt>
      <trkpt lat="43.31826" lon="5.51947">
        <ele>284.69</ele>
        <time>2018-06-16T15:44:22Z</time>
      </trkpt>
      <trkpt lat="43.31824" lon="5.51947">
        <ele>284.69</ele>
        <time>2018-06-16T15:44:24Z</time>
      </trkpt>
      <trkpt lat="43.31815" lon="5.51945">
        <ele>284.69</ele>
        <time>2018-06-16T15:44:35Z</time>
      </trkpt>
      <trkpt lat="43.31809" lon="5.51946">
        <ele>284.69</ele>
        <time>2018-06-16T15:44:48Z</time>
      </trkpt>
      <trkpt lat="43.31807" lon="5.51947">
        <ele>284.21</ele>
        <time>2018-06-16T15:44:50Z</time>
      </trkpt>
      <trkpt lat="43.318" lon="5.51944">
        <ele>283.25</ele>
        <time>2018-06-16T15:45:04Z</time>
      </trkpt>
      <trkpt lat="43.31797" lon="5.51943">
        <ele>283.73</ele>
        <time>2018-06-16T15:45:31Z</time>
      </trkpt>
      <trkpt lat="43.31795" lon="5.5194">
        <ele>283.25</ele>
        <time>2018-06-16T15:45:59Z</time>
      </trkpt>
      <trkpt lat="43.31796" lon="5.51938">
        <ele>283.73</ele>
        <time>2018-06-16T15:46:27Z</time>
      </trkpt>
      <trkpt lat="43.31795" lon="5.51937">
        <ele>283.25</ele>
        <time>2018-06-16T15:46:53Z</time>
      </trkpt>
      <trkpt lat="43.31795" lon="5.51936">
        <ele>282.77</ele>
        <time>2018-06-16T15:47:19Z</time>
      </trkpt>
      <trkpt lat="43.31796" lon="5.51935">
        <ele>283.25</ele>
        <time>2018-06-16T15:47:46Z</time>
      </trkpt>
      <trkpt lat="43.31796" lon="5.51935">
        <ele>283.25</ele>
        <time>2018-06-16T15:48:07Z</time>
      </trkpt>
      <trkpt lat="43.31797" lon="5.51939">
        <ele>282.77</ele>
        <time>2018-06-16T15:48:37Z</time>
      </trkpt>
      <trkpt lat="43.31797" lon="5.51941">
        <ele>283.25</ele>
        <time>2018-06-16T15:49:06Z</time>
      </trkpt>
      <trkpt lat="43.31797" lon="5.51941">
        <ele>283.25</ele>
        <time>2018-06-16T15:49:27Z</time>
      </trkpt>
      <trkpt lat="43.31797" lon="5.51941">
        <ele>283.73</ele>
        <time>2018-06-16T15:49:49Z</time>
      </trkpt>
      <trkpt lat="43.31798" lon="5.51941">
        <ele>282.77</ele>
        <time>2018-06-16T15:50:03Z</time>
      </trkpt>
      <trkpt lat="43.31798" lon="5.51941">
        <ele>282.28</ele>
        <time>2018-06-16T15:50:05Z</time>
      </trkpt>
      <trkpt lat="43.31797" lon="5.51928">
        <ele>280.36</ele>
        <time>2018-06-16T15:50:19Z</time>
      </trkpt>
      <trkpt lat="43.31798" lon="5.51916">
        <ele>277.96</ele>
        <time>2018-06-16T15:50:31Z</time>
      </trkpt>
      <trkpt lat="43.31792" lon="5.51907">
        <ele>276.52</ele>
        <time>2018-06-16T15:50:42Z</time>
      </trkpt>
      <trkpt lat="43.31786" lon="5.51902">
        <ele>274.59</ele>
        <time>2018-06-16T15:50:51Z</time>
      </trkpt>
      <trkpt lat="43.31776" lon="5.51893">
        <ele>272.67</ele>
        <time>2018-06-16T15:51:03Z</time>
      </trkpt>
      <trkpt lat="43.31774" lon="5.51893">
        <ele>272.19</ele>
        <time>2018-06-16T15:51:05Z</time>
      </trkpt>
      <trkpt lat="43.31767" lon="5.51886">
        <ele>270.27</ele>
        <time>2018-06-16T15:51:14Z</time>
      </trkpt>
      <trkpt lat="43.3176" lon="5.51875">
        <ele>268.35</ele>
        <time>2018-06-16T15:51:27Z</time>
      </trkpt>
      <trkpt lat="43.31757" lon="5.51866">
        <ele>266.9</ele>
        <time>2018-06-16T15:51:38Z</time>
      </trkpt>
      <trkpt lat="43.31752" lon="5.51867">
        <ele>264.5</ele>
        <time>2018-06-16T15:51:50Z</time>
      </trkpt>
      <trkpt lat="43.31739" lon="5.51876">
        <ele>263.54</ele>
        <time>2018-06-16T15:52:03Z</time>
      </trkpt>
      <trkpt lat="43.31736" lon="5.51876">
        <ele>264.02</ele>
        <time>2018-06-16T15:52:06Z</time>
      </trkpt>
      <trkpt lat="43.31729" lon="5.5188">
        <ele>264.02</ele>
        <time>2018-06-16T15:52:17Z</time>
      </trkpt>
      <trkpt lat="43.31728" lon="5.51879">
        <ele>264.5</ele>
        <time>2018-06-16T15:52:35Z</time>
      </trkpt>
      <trkpt lat="43.31727" lon="5.51877">
        <ele>263.06</ele>
        <time>2018-06-16T15:52:57Z</time>
      </trkpt>
      <trkpt lat="43.31725" lon="5.51874">
        <ele>262.1</ele>
        <time>2018-06-16T15:53:07Z</time>
      </trkpt>
      <trkpt lat="43.31724" lon="5.51872">
        <ele>261.14</ele>
        <time>2018-06-16T15:53:20Z</time>
      </trkpt>
      <trkpt lat="43.31721" lon="5.51869">
        <ele>260.65</ele>
        <time>2018-06-16T15:53:33Z</time>
      </trkpt>
      <trkpt lat="43.31719" lon="5.51866">
        <ele>260.65</ele>
        <time>2018-06-16T15:53:46Z</time>
      </trkpt>
      <trkpt lat="43.31713" lon="5.51859">
        <ele>259.21</ele>
        <time>2018-06-16T15:53:58Z</time>
      </trkpt>
      <trkpt lat="43.31707" lon="5.51853">
        <ele>258.73</ele>
        <time>2018-06-16T15:54:11Z</time>
      </trkpt>
      <trkpt lat="43.317" lon="5.51846">
        <ele>257.77</ele>
        <time>2018-06-16T15:54:25Z</time>
      </trkpt>
      <trkpt lat="43.317" lon="5.51837">
        <ele>256.81</ele>
        <time>2018-06-16T15:54:37Z</time>
      </trkpt>
      <trkpt lat="43.31698" lon="5.51833">
        <ele>255.85</ele>
        <time>2018-06-16T15:54:45Z</time>
      </trkpt>
      <trkpt lat="43.31698" lon="5.51833">
        <ele>257.29</ele>
        <time>2018-06-16T15:54:47Z</time>
      </trkpt>
      <trkpt lat="43.31696" lon="5.51828">
        <ele>256.81</ele>
        <time>2018-06-16T15:55:03Z</time>
      </trkpt>
      <trkpt lat="43.31692" lon="5.51811">
        <ele>255.85</ele>
        <time>2018-06-16T15:55:19Z</time>
      </trkpt>
      <trkpt lat="43.31691" lon="5.51805">
        <ele>255.85</ele>
        <time>2018-06-16T15:55:31Z</time>
      </trkpt>
      <trkpt lat="43.31691" lon="5.51802">
        <ele>254.41</ele>
        <time>2018-06-16T15:55:51Z</time>
      </trkpt>
      <trkpt lat="43.31693" lon="5.51796">
        <ele>252</ele>
        <time>2018-06-16T15:56:06Z</time>
      </trkpt>
      <trkpt lat="43.31694" lon="5.51779">
        <ele>251.04</ele>
        <time>2018-06-16T15:56:15Z</time>
      </trkpt>
      <trkpt lat="43.31699" lon="5.51764">
        <ele>250.08</ele>
        <time>2018-06-16T15:56:27Z</time>
      </trkpt>
      <trkpt lat="43.31699" lon="5.51763">
        <ele>250.08</ele>
        <time>2018-06-16T15:56:48Z</time>
      </trkpt>
      <trkpt lat="43.31701" lon="5.51763">
        <ele>251.04</ele>
        <time>2018-06-16T15:57:15Z</time>
      </trkpt>
      <trkpt lat="43.31701" lon="5.51763">
        <ele>249.6</ele>
        <time>2018-06-16T15:57:37Z</time>
      </trkpt>
      <trkpt lat="43.31701" lon="5.51763">
        <ele>250.56</ele>
        <time>2018-06-16T15:58:01Z</time>
      </trkpt>
      <trkpt lat="43.31702" lon="5.51766">
        <ele>249.6</ele>
        <time>2018-06-16T15:58:10Z</time>
      </trkpt>
      <trkpt lat="43.31706" lon="5.51778">
        <ele>248.16</ele>
        <time>2018-06-16T15:58:26Z</time>
      </trkpt>
      <trkpt lat="43.31709" lon="5.5178">
        <ele>248.16</ele>
        <time>2018-06-16T15:58:30Z</time>
      </trkpt>
      <trkpt lat="43.31723" lon="5.51777">
        <ele>246.23</ele>
        <time>2018-06-16T15:58:42Z</time>
      </trkpt>
      <trkpt lat="43.31726" lon="5.51766">
        <ele>243.83</ele>
        <time>2018-06-16T15:58:55Z</time>
      </trkpt>
      <trkpt lat="43.31725" lon="5.51764">
        <ele>243.35</ele>
        <time>2018-06-16T15:58:57Z</time>
      </trkpt>
      <trkpt lat="43.31724" lon="5.51758">
        <ele>241.91</ele>
        <time>2018-06-16T15:59:09Z</time>
      </trkpt>
      <trkpt lat="43.31722" lon="5.51741">
        <ele>239.99</ele>
        <time>2018-06-16T15:59:23Z</time>
      </trkpt>
      <trkpt lat="43.31722" lon="5.51738">
        <ele>239.02</ele>
        <time>2018-06-16T15:59:25Z</time>
      </trkpt>
      <trkpt lat="43.31718" lon="5.51722">
        <ele>235.66</ele>
        <time>2018-06-16T15:59:38Z</time>
      </trkpt>
      <trkpt lat="43.31714" lon="5.51708">
        <ele>236.14</ele>
        <time>2018-06-16T15:59:53Z</time>
      </trkpt>
      <trkpt lat="43.31711" lon="5.5169">
        <ele>234.7</ele>
        <time>2018-06-16T16:00:05Z</time>
      </trkpt>
      <trkpt lat="43.31711" lon="5.51688">
        <ele>234.7</ele>
        <time>2018-06-16T16:00:06Z</time>
      </trkpt>
      <trkpt lat="43.31711" lon="5.51673">
        <ele>233.26</ele>
        <time>2018-06-16T16:00:16Z</time>
      </trkpt>
      <trkpt lat="43.31711" lon="5.51669">
        <ele>233.26</ele>
        <time>2018-06-16T16:00:18Z</time>
      </trkpt>
      <trkpt lat="43.31709" lon="5.51652">
        <ele>230.85</ele>
        <time>2018-06-16T16:00:31Z</time>
      </trkpt>
      <trkpt lat="43.31707" lon="5.51643">
        <ele>228.93</ele>
        <time>2018-06-16T16:00:41Z</time>
      </trkpt>
      <trkpt lat="43.31704" lon="5.51636">
        <ele>228.45</ele>
        <time>2018-06-16T16:00:46Z</time>
      </trkpt>
      <trkpt lat="43.31697" lon="5.51621">
        <ele>226.53</ele>
        <time>2018-06-16T16:00:59Z</time>
      </trkpt>
      <trkpt lat="43.31694" lon="5.51617">
        <ele>226.05</ele>
        <time>2018-06-16T16:01:04Z</time>
      </trkpt>
      <trkpt lat="43.31686" lon="5.51606">
        <ele>224.61</ele>
        <time>2018-06-16T16:01:15Z</time>
      </trkpt>
      <trkpt lat="43.31684" lon="5.51603">
        <ele>225.09</ele>
        <time>2018-06-16T16:01:18Z</time>
      </trkpt>
      <trkpt lat="43.31681" lon="5.51599">
        <ele>224.12</ele>
        <time>2018-06-16T16:01:22Z</time>
      </trkpt>
      <trkpt lat="43.3167" lon="5.51587">
        <ele>222.2</ele>
        <time>2018-06-16T16:01:34Z</time>
      </trkpt>
      <trkpt lat="43.31665" lon="5.51582">
        <ele>221.72</ele>
        <time>2018-06-16T16:01:49Z</time>
      </trkpt>
      <trkpt lat="43.31665" lon="5.51575">
        <ele>220.76</ele>
        <time>2018-06-16T16:02:03Z</time>
      </trkpt>
      <trkpt lat="43.31667" lon="5.51564">
        <ele>219.8</ele>
        <time>2018-06-16T16:02:12Z</time>
      </trkpt>
      <trkpt lat="43.31673" lon="5.51553">
        <ele>218.84</ele>
        <time>2018-06-16T16:02:24Z</time>
      </trkpt>
      <trkpt lat="43.31677" lon="5.5155">
        <ele>217.88</ele>
        <time>2018-06-16T16:02:29Z</time>
      </trkpt>
      <trkpt lat="43.31685" lon="5.51555">
        <ele>216.43</ele>
        <time>2018-06-16T16:02:41Z</time>
      </trkpt>
      <trkpt lat="43.3169" lon="5.51565">
        <ele>215.95</ele>
        <time>2018-06-16T16:02:50Z</time>
      </trkpt>
      <trkpt lat="43.31694" lon="5.51565">
        <ele>214.51</ele>
        <time>2018-06-16T16:02:53Z</time>
      </trkpt>
      <trkpt lat="43.31704" lon="5.51575">
        <ele>213.55</ele>
        <time>2018-06-16T16:03:06Z</time>
      </trkpt>
      <trkpt lat="43.31713" lon="5.51581">
        <ele>212.59</ele>
        <time>2018-06-16T16:03:17Z</time>
      </trkpt>
      <trkpt lat="43.31726" lon="5.51591">
        <ele>210.67</ele>
        <time>2018-06-16T16:03:30Z</time>
      </trkpt>
      <trkpt lat="43.31739" lon="5.51588">
        <ele>210.67</ele>
        <time>2018-06-16T16:03:43Z</time>
      </trkpt>
      <trkpt lat="43.31743" lon="5.51583">
        <ele>209.7</ele>
        <time>2018-06-16T16:03:50Z</time>
      </trkpt>
      <trkpt lat="43.31751" lon="5.51582">
        <ele>208.26</ele>
        <time>2018-06-16T16:04:02Z</time>
      </trkpt>
      <trkpt lat="43.31754" lon="5.51582">
        <ele>207.78</ele>
        <time>2018-06-16T16:04:05Z</time>
      </trkpt>
      <trkpt lat="43.31765" lon="5.5158">
        <ele>206.82</ele>
        <time>2018-06-16T16:04:16Z</time>
      </trkpt>
      <trkpt lat="43.31768" lon="5.51564">
        <ele>204.42</ele>
        <time>2018-06-16T16:04:29Z</time>
      </trkpt>
      <trkpt lat="43.31764" lon="5.51558">
        <ele>203.46</ele>
        <time>2018-06-16T16:04:38Z</time>
      </trkpt>
      <trkpt lat="43.31758" lon="5.51546">
        <ele>201.05</ele>
        <time>2018-06-16T16:04:52Z</time>
      </trkpt>
      <trkpt lat="43.31751" lon="5.51533">
        <ele>200.57</ele>
        <time>2018-06-16T16:05:02Z</time>
      </trkpt>
      <trkpt lat="43.31747" lon="5.51521">
        <ele>198.65</ele>
        <time>2018-06-16T16:05:15Z</time>
      </trkpt>
      <trkpt lat="43.31742" lon="5.51508">
        <ele>196.73</ele>
        <time>2018-06-16T16:05:26Z</time>
      </trkpt>
      <trkpt lat="43.31741" lon="5.51499">
        <ele>195.28</ele>
        <time>2018-06-16T16:05:34Z</time>
      </trkpt>
      <trkpt lat="43.31737" lon="5.51493">
        <ele>194.32</ele>
        <time>2018-06-16T16:05:38Z</time>
      </trkpt>
      <trkpt lat="43.31734" lon="5.51484">
        <ele>192.88</ele>
        <time>2018-06-16T16:05:49Z</time>
      </trkpt>
      <trkpt lat="43.31733" lon="5.51477">
        <ele>191.92</ele>
        <time>2018-06-16T16:05:54Z</time>
      </trkpt>
      <trkpt lat="43.31729" lon="5.51469">
        <ele>190</ele>
        <time>2018-06-16T16:06:05Z</time>
      </trkpt>
      <trkpt lat="43.3172" lon="5.51472">
        <ele>188.08</ele>
        <time>2018-06-16T16:06:15Z</time>
      </trkpt>
      <trkpt lat="43.3172" lon="5.51472">
        <ele>188.56</ele>
        <time>2018-06-16T16:06:17Z</time>
      </trkpt>
      <trkpt lat="43.3171" lon="5.51477">
        <ele>186.15</ele>
        <time>2018-06-16T16:06:29Z</time>
      </trkpt>
      <trkpt lat="43.31706" lon="5.51478">
        <ele>187.11</ele>
        <time>2018-06-16T16:06:40Z</time>
      </trkpt>
      <trkpt lat="43.31701" lon="5.51469">
        <ele>185.19</ele>
        <time>2018-06-16T16:06:52Z</time>
      </trkpt>
      <trkpt lat="43.317" lon="5.51462">
        <ele>183.75</ele>
        <time>2018-06-16T16:07:01Z</time>
      </trkpt>
      <trkpt lat="43.31699" lon="5.51461">
        <ele>183.75</ele>
        <time>2018-06-16T16:07:03Z</time>
      </trkpt>
      <trkpt lat="43.31697" lon="5.51458">
        <ele>183.27</ele>
        <time>2018-06-16T16:07:06Z</time>
      </trkpt>
      <trkpt lat="43.31694" lon="5.51455">
        <ele>181.83</ele>
        <time>2018-06-16T16:07:10Z</time>
      </trkpt>
      <trkpt lat="43.31692" lon="5.5145">
        <ele>181.35</ele>
        <time>2018-06-16T16:07:14Z</time>
      </trkpt>
      <trkpt lat="43.31689" lon="5.51442">
        <ele>180.38</ele>
        <time>2018-06-16T16:07:21Z</time>
      </trkpt>
      <trkpt lat="43.31687" lon="5.51436">
        <ele>178.46</ele>
        <time>2018-06-16T16:07:26Z</time>
      </trkpt>
      <trkpt lat="43.3168" lon="5.51417">
        <ele>176.06</ele>
        <time>2018-06-16T16:07:41Z</time>
      </trkpt>
      <trkpt lat="43.31678" lon="5.51414">
        <ele>174.14</ele>
        <time>2018-06-16T16:07:48Z</time>
      </trkpt>
      <trkpt lat="43.3167" lon="5.51406">
        <ele>172.69</ele>
        <time>2018-06-16T16:07:55Z</time>
      </trkpt>
      <trkpt lat="43.31667" lon="5.51403">
        <ele>171.73</ele>
        <time>2018-06-16T16:07:57Z</time>
      </trkpt>
      <trkpt lat="43.31662" lon="5.51399">
        <ele>170.77</ele>
        <time>2018-06-16T16:08:01Z</time>
      </trkpt>
      <trkpt lat="43.31659" lon="5.51391">
        <ele>169.33</ele>
        <time>2018-06-16T16:08:12Z</time>
      </trkpt>
      <trkpt lat="43.31658" lon="5.51381">
        <ele>166.93</ele>
        <time>2018-06-16T16:08:23Z</time>
      </trkpt>
      <trkpt lat="43.31659" lon="5.51375">
        <ele>166.93</ele>
        <time>2018-06-16T16:08:34Z</time>
      </trkpt>
      <trkpt lat="43.31654" lon="5.51362">
        <ele>166.93</ele>
        <time>2018-06-16T16:08:43Z</time>
      </trkpt>
      <trkpt lat="43.31654" lon="5.51361">
        <ele>166.93</ele>
        <time>2018-06-16T16:08:58Z</time>
      </trkpt>
      <trkpt lat="43.31653" lon="5.5136">
        <ele>166.93</ele>
        <time>2018-06-16T16:09:14Z</time>
      </trkpt>
      <trkpt lat="43.31653" lon="5.51359">
        <ele>167.89</ele>
        <time>2018-06-16T16:09:28Z</time>
      </trkpt>
      <trkpt lat="43.31653" lon="5.51358">
        <ele>166.45</ele>
        <time>2018-06-16T16:09:40Z</time>
      </trkpt>
      <trkpt lat="43.31653" lon="5.51358">
        <ele>166.93</ele>
        <time>2018-06-16T16:09:55Z</time>
      </trkpt>
      <trkpt lat="43.31651" lon="5.51358">
        <ele>166.45</ele>
        <time>2018-06-16T16:10:13Z</time>
      </trkpt>
      <trkpt lat="43.31647" lon="5.51355">
        <ele>166.45</ele>
        <time>2018-06-16T16:10:23Z</time>
      </trkpt>
      <trkpt lat="43.31639" lon="5.51357">
        <ele>167.41</ele>
        <time>2018-06-16T16:10:35Z</time>
      </trkpt>
      <trkpt lat="43.31634" lon="5.51355">
        <ele>167.89</ele>
        <time>2018-06-16T16:10:47Z</time>
      </trkpt>
      <trkpt lat="43.31631" lon="5.51356">
        <ele>168.37</ele>
        <time>2018-06-16T16:10:59Z</time>
      </trkpt>
      <trkpt lat="43.31628" lon="5.51355">
        <ele>168.37</ele>
        <time>2018-06-16T16:11:02Z</time>
      </trkpt>
      <trkpt lat="43.31624" lon="5.51356">
        <ele>168.37</ele>
        <time>2018-06-16T16:11:06Z</time>
      </trkpt>
      <trkpt lat="43.31619" lon="5.51352">
        <ele>168.85</ele>
        <time>2018-06-16T16:11:18Z</time>
      </trkpt>
      <trkpt lat="43.31613" lon="5.51351">
        <ele>169.81</ele>
        <time>2018-06-16T16:11:25Z</time>
      </trkpt>
      <trkpt lat="43.31611" lon="5.51351">
        <ele>169.33</ele>
        <time>2018-06-16T16:11:27Z</time>
      </trkpt>
      <trkpt lat="43.31607" lon="5.51354">
        <ele>169.81</ele>
        <time>2018-06-16T16:11:30Z</time>
      </trkpt>
      <trkpt lat="43.31598" lon="5.51366">
        <ele>170.29</ele>
        <time>2018-06-16T16:11:43Z</time>
      </trkpt>
      <trkpt lat="43.3159" lon="5.51371">
        <ele>171.25</ele>
        <time>2018-06-16T16:11:55Z</time>
      </trkpt>
      <trkpt lat="43.31586" lon="5.51374">
        <ele>172.21</ele>
        <time>2018-06-16T16:12:08Z</time>
      </trkpt>
      <trkpt lat="43.31577" lon="5.51372">
        <ele>173.66</ele>
        <time>2018-06-16T16:12:22Z</time>
      </trkpt>
      <trkpt lat="43.31561" lon="5.51373">
        <ele>174.14</ele>
        <time>2018-06-16T16:12:33Z</time>
      </trkpt>
      <trkpt lat="43.31549" lon="5.51373">
        <ele>174.62</ele>
        <time>2018-06-16T16:12:45Z</time>
      </trkpt>
      <trkpt lat="43.31538" lon="5.51367">
        <ele>176.06</ele>
        <time>2018-06-16T16:13:00Z</time>
      </trkpt>
      <trkpt lat="43.31526" lon="5.5137">
        <ele>177.98</ele>
        <time>2018-06-16T16:13:16Z</time>
      </trkpt>
      <trkpt lat="43.3152" lon="5.51369">
        <ele>178.94</ele>
        <time>2018-06-16T16:13:27Z</time>
      </trkpt>
      <trkpt lat="43.31511" lon="5.51359">
        <ele>179.9</ele>
        <time>2018-06-16T16:13:43Z</time>
      </trkpt>
      <trkpt lat="43.31498" lon="5.51353">
        <ele>180.38</ele>
        <time>2018-06-16T16:13:58Z</time>
      </trkpt>
      <trkpt lat="43.31491" lon="5.51348">
        <ele>181.83</ele>
        <time>2018-06-16T16:14:09Z</time>
      </trkpt>
      <trkpt lat="43.31485" lon="5.51344">
        <ele>182.79</ele>
        <time>2018-06-16T16:14:21Z</time>
      </trkpt>
      <trkpt lat="43.3148" lon="5.51336">
        <ele>183.27</ele>
        <time>2018-06-16T16:14:33Z</time>
      </trkpt>
      <trkpt lat="43.31473" lon="5.51326">
        <ele>183.75</ele>
        <time>2018-06-16T16:14:46Z</time>
      </trkpt>
      <trkpt lat="43.3147" lon="5.51314">
        <ele>184.23</ele>
        <time>2018-06-16T16:15:00Z</time>
      </trkpt>
      <trkpt lat="43.3147" lon="5.51311">
        <ele>184.71</ele>
        <time>2018-06-16T16:15:14Z</time>
      </trkpt>
      <trkpt lat="43.31475" lon="5.51304">
        <ele>185.19</ele>
        <time>2018-06-16T16:15:25Z</time>
      </trkpt>
      <trkpt lat="43.31471" lon="5.51294">
        <ele>184.71</ele>
        <time>2018-06-16T16:15:35Z</time>
      </trkpt>
      <trkpt lat="43.31467" lon="5.51287">
        <ele>183.27</ele>
        <time>2018-06-16T16:15:50Z</time>
      </trkpt>
      <trkpt lat="43.31461" lon="5.51284">
        <ele>181.35</ele>
        <time>2018-06-16T16:15:59Z</time>
      </trkpt>
      <trkpt lat="43.31449" lon="5.51277">
        <ele>180.38</ele>
        <time>2018-06-16T16:16:13Z</time>
      </trkpt>
      <trkpt lat="43.31447" lon="5.51267">
        <ele>178.46</ele>
        <time>2018-06-16T16:16:23Z</time>
      </trkpt>
      <trkpt lat="43.31441" lon="5.51261">
        <ele>176.06</ele>
        <time>2018-06-16T16:16:35Z</time>
      </trkpt>
      <trkpt lat="43.31444" lon="5.51258">
        <ele>175.1</ele>
        <time>2018-06-16T16:16:44Z</time>
      </trkpt>
      <trkpt lat="43.31441" lon="5.51252">
        <ele>173.17</ele>
        <time>2018-06-16T16:17:00Z</time>
      </trkpt>
      <trkpt lat="43.31439" lon="5.51247">
        <ele>172.21</ele>
        <time>2018-06-16T16:17:06Z</time>
      </trkpt>
      <trkpt lat="43.31436" lon="5.51237">
        <ele>171.73</ele>
        <time>2018-06-16T16:17:16Z</time>
      </trkpt>
      <trkpt lat="43.31431" lon="5.5124">
        <ele>172.21</ele>
        <time>2018-06-16T16:17:27Z</time>
      </trkpt>
      <trkpt lat="43.31431" lon="5.51242">
        <ele>172.21</ele>
        <time>2018-06-16T16:17:41Z</time>
      </trkpt>
      <trkpt lat="43.31429" lon="5.51243">
        <ele>172.69</ele>
        <time>2018-06-16T16:17:52Z</time>
      </trkpt>
      <trkpt lat="43.31414" lon="5.51254">
        <ele>173.66</ele>
        <time>2018-06-16T16:18:08Z</time>
      </trkpt>
      <trkpt lat="43.31412" lon="5.5125">
        <ele>173.66</ele>
        <time>2018-06-16T16:18:21Z</time>
      </trkpt>
      <trkpt lat="43.31413" lon="5.51251">
        <ele>173.66</ele>
        <time>2018-06-16T16:18:35Z</time>
      </trkpt>
      <trkpt lat="43.31411" lon="5.51249">
        <ele>173.17</ele>
        <time>2018-06-16T16:18:46Z</time>
      </trkpt>
      <trkpt lat="43.3141" lon="5.51249">
        <ele>172.69</ele>
        <time>2018-06-16T16:18:57Z</time>
      </trkpt>
      <trkpt lat="43.3141" lon="5.5125">
        <ele>173.17</ele>
        <time>2018-06-16T16:18:59Z</time>
      </trkpt>
      <trkpt lat="43.3141" lon="5.51246">
        <ele>172.69</ele>
        <time>2018-06-16T16:19:12Z</time>
      </trkpt>
      <trkpt lat="43.31402" lon="5.51233">
        <ele>170.77</ele>
        <time>2018-06-16T16:19:26Z</time>
      </trkpt>
      <trkpt lat="43.31401" lon="5.5123">
        <ele>171.73</ele>
        <time>2018-06-16T16:19:38Z</time>
      </trkpt>
      <trkpt lat="43.31397" lon="5.51225">
        <ele>171.25</ele>
        <time>2018-06-16T16:19:55Z</time>
      </trkpt>
      <trkpt lat="43.31397" lon="5.51225">
        <ele>170.77</ele>
        <time>2018-06-16T16:20:06Z</time>
      </trkpt>
      <trkpt lat="43.31396" lon="5.51221">
        <ele>171.25</ele>
        <time>2018-06-16T16:20:16Z</time>
      </trkpt>
      <trkpt lat="43.31396" lon="5.51221">
        <ele>171.25</ele>
        <time>2018-06-16T16:20:39Z</time>
      </trkpt>
      <trkpt lat="43.31396" lon="5.51219">
        <ele>170.77</ele>
        <time>2018-06-16T16:20:55Z</time>
      </trkpt>
      <trkpt lat="43.31395" lon="5.51217">
        <ele>169.81</ele>
        <time>2018-06-16T16:21:08Z</time>
      </trkpt>
      <trkpt lat="43.31394" lon="5.51215">
        <ele>169.33</ele>
        <time>2018-06-16T16:21:21Z</time>
      </trkpt>
      <trkpt lat="43.31384" lon="5.51221">
        <ele>168.37</ele>
        <time>2018-06-16T16:21:36Z</time>
      </trkpt>
      <trkpt lat="43.31373" lon="5.51227">
        <ele>167.89</ele>
        <time>2018-06-16T16:21:50Z</time>
      </trkpt>
      <trkpt lat="43.31363" lon="5.5123">
        <ele>166.93</ele>
        <time>2018-06-16T16:22:04Z</time>
      </trkpt>
      <trkpt lat="43.31355" lon="5.51231">
        <ele>165.48</ele>
        <time>2018-06-16T16:22:19Z</time>
      </trkpt>
      <trkpt lat="43.31345" lon="5.51229">
        <ele>164.04</ele>
        <time>2018-06-16T16:22:33Z</time>
      </trkpt>
      <trkpt lat="43.31336" lon="5.51226">
        <ele>163.08</ele>
        <time>2018-06-16T16:22:45Z</time>
      </trkpt>
      <trkpt lat="43.31325" lon="5.51228">
        <ele>161.16</ele>
        <time>2018-06-16T16:22:58Z</time>
      </trkpt>
      <trkpt lat="43.3131" lon="5.51231">
        <ele>158.75</ele>
        <time>2018-06-16T16:23:14Z</time>
      </trkpt>
      <trkpt lat="43.31305" lon="5.51227">
        <ele>158.27</ele>
        <time>2018-06-16T16:23:24Z</time>
      </trkpt>
      <trkpt lat="43.31302" lon="5.51227">
        <ele>157.79</ele>
        <time>2018-06-16T16:23:26Z</time>
      </trkpt>
      <trkpt lat="43.31295" lon="5.51226">
        <ele>158.27</ele>
        <time>2018-06-16T16:23:32Z</time>
      </trkpt>
      <trkpt lat="43.31281" lon="5.51225">
        <ele>156.35</ele>
        <time>2018-06-16T16:23:47Z</time>
      </trkpt>
      <trkpt lat="43.31273" lon="5.51221">
        <ele>155.87</ele>
        <time>2018-06-16T16:24:01Z</time>
      </trkpt>
      <trkpt lat="43.31273" lon="5.51222">
        <ele>154.91</ele>
        <time>2018-06-16T16:24:18Z</time>
      </trkpt>
      <trkpt lat="43.31272" lon="5.51221">
        <ele>155.39</ele>
        <time>2018-06-16T16:24:23Z</time>
      </trkpt>
    </trkseg>
  </trk>
</gpx>